<?xml version="1.0" encoding="UTF-8" standalone="no" ?>
<gpx xmlns="http://www.topografix.com/GPX/1/1" xmlns:xsi="http://www.w3.org/2001/XMLSchema-instance" xsi:schemaLocation="http://www.topografix.com/GPX/1/1 http://www.topografix.com/GPX/1/1/gpx.xsd" version="1.1" creator="VisuGPX - https://www.visugpx.com">
  <metadata>
    <name>Rando VTT St Benoît 2023</name>
    <desc><![CDATA[Beaucoup de boue,des passages impraticables.......]]></desc>
  </metadata>
  <trk>
    <name><![CDATA[Rando VTT St Benoît 2023_1]]></name>
    <trkseg>
      <trkpt lat="46.55818" lon="0.3436">
        <ele>126</ele>
        <time>2023-01-15T07:40:49Z</time>
      </trkpt>
      <trkpt lat="46.55813" lon="0.34362">
        <ele>126</ele>
        <time>2023-01-15T07:40:59Z</time>
      </trkpt>
      <trkpt lat="46.55812" lon="0.34366">
        <ele>126</ele>
        <time>2023-01-15T07:41:01Z</time>
      </trkpt>
      <trkpt lat="46.55813" lon="0.3437">
        <ele>126</ele>
        <time>2023-01-15T07:41:03Z</time>
      </trkpt>
      <trkpt lat="46.55813" lon="0.34381">
        <ele>126</ele>
        <time>2023-01-15T07:41:08Z</time>
      </trkpt>
      <trkpt lat="46.55813" lon="0.34395">
        <ele>126.2</ele>
        <time>2023-01-15T07:41:14Z</time>
      </trkpt>
      <trkpt lat="46.55813" lon="0.34401">
        <ele>126.4</ele>
        <time>2023-01-15T07:41:16Z</time>
      </trkpt>
      <trkpt lat="46.55814" lon="0.34409">
        <ele>126.6</ele>
        <time>2023-01-15T07:41:20Z</time>
      </trkpt>
      <trkpt lat="46.55811" lon="0.3442">
        <ele>126.6</ele>
        <time>2023-01-15T07:41:27Z</time>
      </trkpt>
      <trkpt lat="46.55809" lon="0.34422">
        <ele>126.6</ele>
        <time>2023-01-15T07:41:28Z</time>
      </trkpt>
      <trkpt lat="46.55792" lon="0.34425">
        <ele>126.8</ele>
        <time>2023-01-15T07:41:37Z</time>
      </trkpt>
      <trkpt lat="46.55778" lon="0.34421">
        <ele>127</ele>
        <time>2023-01-15T07:41:44Z</time>
      </trkpt>
      <trkpt lat="46.55774" lon="0.34412">
        <ele>127</ele>
        <time>2023-01-15T07:41:48Z</time>
      </trkpt>
      <trkpt lat="46.55773" lon="0.34407">
        <ele>126.8</ele>
        <time>2023-01-15T07:41:50Z</time>
      </trkpt>
      <trkpt lat="46.55768" lon="0.34393">
        <ele>126.8</ele>
        <time>2023-01-15T07:41:56Z</time>
      </trkpt>
      <trkpt lat="46.55761" lon="0.34378">
        <ele>127.2</ele>
        <time>2023-01-15T07:42:03Z</time>
      </trkpt>
      <trkpt lat="46.55754" lon="0.34362">
        <ele>127.2</ele>
        <time>2023-01-15T07:42:11Z</time>
      </trkpt>
      <trkpt lat="46.55744" lon="0.34346">
        <ele>127</ele>
        <time>2023-01-15T07:42:17Z</time>
      </trkpt>
      <trkpt lat="46.55725" lon="0.34318">
        <ele>126.4</ele>
        <time>2023-01-15T07:42:26Z</time>
      </trkpt>
      <trkpt lat="46.55708" lon="0.34292">
        <ele>126.4</ele>
        <time>2023-01-15T07:42:34Z</time>
      </trkpt>
      <trkpt lat="46.55704" lon="0.34281">
        <ele>126</ele>
        <time>2023-01-15T07:42:37Z</time>
      </trkpt>
      <trkpt lat="46.55705" lon="0.34273">
        <ele>125.8</ele>
        <time>2023-01-15T07:42:39Z</time>
      </trkpt>
      <trkpt lat="46.55712" lon="0.34255">
        <ele>125.6</ele>
        <time>2023-01-15T07:42:45Z</time>
      </trkpt>
      <trkpt lat="46.55711" lon="0.3424">
        <ele>125.6</ele>
        <time>2023-01-15T07:42:49Z</time>
      </trkpt>
      <trkpt lat="46.55699" lon="0.34229">
        <ele>125.8</ele>
        <time>2023-01-15T07:42:54Z</time>
      </trkpt>
      <trkpt lat="46.55679" lon="0.34219">
        <ele>125.6</ele>
        <time>2023-01-15T07:43:01Z</time>
      </trkpt>
      <trkpt lat="46.55677" lon="0.34211">
        <ele>125.6</ele>
        <time>2023-01-15T07:43:03Z</time>
      </trkpt>
      <trkpt lat="46.55679" lon="0.34203">
        <ele>125.4</ele>
        <time>2023-01-15T07:43:05Z</time>
      </trkpt>
      <trkpt lat="46.55689" lon="0.34171">
        <ele>125</ele>
        <time>2023-01-15T07:43:12Z</time>
      </trkpt>
      <trkpt lat="46.5569" lon="0.34166">
        <ele>124.8</ele>
        <time>2023-01-15T07:43:13Z</time>
      </trkpt>
      <trkpt lat="46.55698" lon="0.34143">
        <ele>124.2</ele>
        <time>2023-01-15T07:43:18Z</time>
      </trkpt>
      <trkpt lat="46.55701" lon="0.34129">
        <ele>123.6</ele>
        <time>2023-01-15T07:43:21Z</time>
      </trkpt>
      <trkpt lat="46.55704" lon="0.34108">
        <ele>122.8</ele>
        <time>2023-01-15T07:43:25Z</time>
      </trkpt>
      <trkpt lat="46.55705" lon="0.341">
        <ele>122.4</ele>
        <time>2023-01-15T07:43:27Z</time>
      </trkpt>
      <trkpt lat="46.55706" lon="0.34097">
        <ele>121.2</ele>
        <time>2023-01-15T07:43:28Z</time>
      </trkpt>
      <trkpt lat="46.55709" lon="0.34095">
        <ele>120.4</ele>
        <time>2023-01-15T07:43:29Z</time>
      </trkpt>
      <trkpt lat="46.55712" lon="0.34094">
        <ele>120</ele>
        <time>2023-01-15T07:43:30Z</time>
      </trkpt>
      <trkpt lat="46.55715" lon="0.34093">
        <ele>119.8</ele>
        <time>2023-01-15T07:43:31Z</time>
      </trkpt>
      <trkpt lat="46.55721" lon="0.34092">
        <ele>119.6</ele>
        <time>2023-01-15T07:43:33Z</time>
      </trkpt>
      <trkpt lat="46.55725" lon="0.34091">
        <ele>119.6</ele>
        <time>2023-01-15T07:43:34Z</time>
      </trkpt>
      <trkpt lat="46.55737" lon="0.34091">
        <ele>119.4</ele>
        <time>2023-01-15T07:43:37Z</time>
      </trkpt>
      <trkpt lat="46.55741" lon="0.34091">
        <ele>119.4</ele>
        <time>2023-01-15T07:43:38Z</time>
      </trkpt>
      <trkpt lat="46.55763" lon="0.34089">
        <ele>118.8</ele>
        <time>2023-01-15T07:43:43Z</time>
      </trkpt>
      <trkpt lat="46.5577" lon="0.34087">
        <ele>118.6</ele>
        <time>2023-01-15T07:43:45Z</time>
      </trkpt>
      <trkpt lat="46.55787" lon="0.34075">
        <ele>118.8</ele>
        <time>2023-01-15T07:43:51Z</time>
      </trkpt>
      <trkpt lat="46.55803" lon="0.34066">
        <ele>118.6</ele>
        <time>2023-01-15T07:43:56Z</time>
      </trkpt>
      <trkpt lat="46.5583" lon="0.34051">
        <ele>118</ele>
        <time>2023-01-15T07:44:04Z</time>
      </trkpt>
      <trkpt lat="46.55835" lon="0.34049">
        <ele>117.8</ele>
        <time>2023-01-15T07:44:05Z</time>
      </trkpt>
      <trkpt lat="46.55838" lon="0.34049">
        <ele>117.8</ele>
        <time>2023-01-15T07:44:06Z</time>
      </trkpt>
      <trkpt lat="46.55846" lon="0.34049">
        <ele>117.6</ele>
        <time>2023-01-15T07:44:08Z</time>
      </trkpt>
      <trkpt lat="46.5585" lon="0.34049">
        <ele>117.8</ele>
        <time>2023-01-15T07:44:09Z</time>
      </trkpt>
      <trkpt lat="46.55864" lon="0.3405">
        <ele>117.8</ele>
        <time>2023-01-15T07:44:13Z</time>
      </trkpt>
      <trkpt lat="46.55875" lon="0.34047">
        <ele>118</ele>
        <time>2023-01-15T07:44:16Z</time>
      </trkpt>
      <trkpt lat="46.55899" lon="0.34044">
        <ele>118.4</ele>
        <time>2023-01-15T07:44:21Z</time>
      </trkpt>
      <trkpt lat="46.55906" lon="0.34043">
        <ele>119</ele>
        <time>2023-01-15T07:44:23Z</time>
      </trkpt>
      <trkpt lat="46.55909" lon="0.3404">
        <ele>119.2</ele>
        <time>2023-01-15T07:44:24Z</time>
      </trkpt>
      <trkpt lat="46.55911" lon="0.34037">
        <ele>119.2</ele>
        <time>2023-01-15T07:44:25Z</time>
      </trkpt>
      <trkpt lat="46.55924" lon="0.34013">
        <ele>119</ele>
        <time>2023-01-15T07:44:30Z</time>
      </trkpt>
      <trkpt lat="46.55926" lon="0.34009">
        <ele>119</ele>
        <time>2023-01-15T07:44:31Z</time>
      </trkpt>
      <trkpt lat="46.55935" lon="0.33995">
        <ele>118.4</ele>
        <time>2023-01-15T07:44:35Z</time>
      </trkpt>
      <trkpt lat="46.55953" lon="0.33977">
        <ele>119.6</ele>
        <time>2023-01-15T07:44:41Z</time>
      </trkpt>
      <trkpt lat="46.55956" lon="0.33974">
        <ele>120</ele>
        <time>2023-01-15T07:44:42Z</time>
      </trkpt>
      <trkpt lat="46.55965" lon="0.33962">
        <ele>121.2</ele>
        <time>2023-01-15T07:44:45Z</time>
      </trkpt>
      <trkpt lat="46.55967" lon="0.33959">
        <ele>121.4</ele>
        <time>2023-01-15T07:44:46Z</time>
      </trkpt>
      <trkpt lat="46.55987" lon="0.33943">
        <ele>121.2</ele>
        <time>2023-01-15T07:44:52Z</time>
      </trkpt>
      <trkpt lat="46.56001" lon="0.33934">
        <ele>121.4</ele>
        <time>2023-01-15T07:44:58Z</time>
      </trkpt>
      <trkpt lat="46.56013" lon="0.33919">
        <ele>120.6</ele>
        <time>2023-01-15T07:45:04Z</time>
      </trkpt>
      <trkpt lat="46.56029" lon="0.33893">
        <ele>120.2</ele>
        <time>2023-01-15T07:45:11Z</time>
      </trkpt>
      <trkpt lat="46.56035" lon="0.3388">
        <ele>120</ele>
        <time>2023-01-15T07:45:14Z</time>
      </trkpt>
      <trkpt lat="46.56043" lon="0.33868">
        <ele>120</ele>
        <time>2023-01-15T07:45:17Z</time>
      </trkpt>
      <trkpt lat="46.56061" lon="0.33848">
        <ele>119.2</ele>
        <time>2023-01-15T07:45:22Z</time>
      </trkpt>
      <trkpt lat="46.56067" lon="0.33841">
        <ele>119</ele>
        <time>2023-01-15T07:45:24Z</time>
      </trkpt>
      <trkpt lat="46.5607" lon="0.33833">
        <ele>119</ele>
        <time>2023-01-15T07:45:27Z</time>
      </trkpt>
      <trkpt lat="46.56072" lon="0.33819">
        <ele>118.8</ele>
        <time>2023-01-15T07:45:33Z</time>
      </trkpt>
      <trkpt lat="46.5608" lon="0.33812">
        <ele>118.2</ele>
        <time>2023-01-15T07:45:38Z</time>
      </trkpt>
      <trkpt lat="46.56091" lon="0.33798">
        <ele>118</ele>
        <time>2023-01-15T07:45:44Z</time>
      </trkpt>
      <trkpt lat="46.56096" lon="0.33792">
        <ele>117.6</ele>
        <time>2023-01-15T07:45:46Z</time>
      </trkpt>
      <trkpt lat="46.56103" lon="0.33783">
        <ele>116.2</ele>
        <time>2023-01-15T07:45:49Z</time>
      </trkpt>
      <trkpt lat="46.56106" lon="0.33781">
        <ele>116</ele>
        <time>2023-01-15T07:45:50Z</time>
      </trkpt>
      <trkpt lat="46.56111" lon="0.33775">
        <ele>115.2</ele>
        <time>2023-01-15T07:45:52Z</time>
      </trkpt>
      <trkpt lat="46.56114" lon="0.33773">
        <ele>114.8</ele>
        <time>2023-01-15T07:45:53Z</time>
      </trkpt>
      <trkpt lat="46.56121" lon="0.33768">
        <ele>114</ele>
        <time>2023-01-15T07:45:55Z</time>
      </trkpt>
      <trkpt lat="46.56124" lon="0.33765">
        <ele>113.2</ele>
        <time>2023-01-15T07:45:56Z</time>
      </trkpt>
      <trkpt lat="46.56126" lon="0.33762">
        <ele>112.8</ele>
        <time>2023-01-15T07:45:57Z</time>
      </trkpt>
      <trkpt lat="46.5614" lon="0.33749">
        <ele>111.6</ele>
        <time>2023-01-15T07:46:01Z</time>
      </trkpt>
      <trkpt lat="46.56152" lon="0.33737">
        <ele>110.4</ele>
        <time>2023-01-15T07:46:04Z</time>
      </trkpt>
      <trkpt lat="46.56161" lon="0.33726">
        <ele>109.6</ele>
        <time>2023-01-15T07:46:07Z</time>
      </trkpt>
      <trkpt lat="46.56164" lon="0.33724">
        <ele>109.4</ele>
        <time>2023-01-15T07:46:08Z</time>
      </trkpt>
      <trkpt lat="46.56183" lon="0.33719">
        <ele>108.2</ele>
        <time>2023-01-15T07:46:13Z</time>
      </trkpt>
      <trkpt lat="46.56194" lon="0.33715">
        <ele>107</ele>
        <time>2023-01-15T07:46:17Z</time>
      </trkpt>
      <trkpt lat="46.56197" lon="0.33714">
        <ele>106.8</ele>
        <time>2023-01-15T07:46:18Z</time>
      </trkpt>
      <trkpt lat="46.56199" lon="0.33713">
        <ele>106.2</ele>
        <time>2023-01-15T07:46:19Z</time>
      </trkpt>
      <trkpt lat="46.562" lon="0.33711">
        <ele>105.6</ele>
        <time>2023-01-15T07:46:20Z</time>
      </trkpt>
      <trkpt lat="46.56204" lon="0.33705">
        <ele>105</ele>
        <time>2023-01-15T07:46:23Z</time>
      </trkpt>
      <trkpt lat="46.56206" lon="0.33703">
        <ele>104.6</ele>
        <time>2023-01-15T07:46:24Z</time>
      </trkpt>
      <trkpt lat="46.56209" lon="0.33698">
        <ele>103.2</ele>
        <time>2023-01-15T07:46:27Z</time>
      </trkpt>
      <trkpt lat="46.56209" lon="0.33695">
        <ele>102.8</ele>
        <time>2023-01-15T07:46:28Z</time>
      </trkpt>
      <trkpt lat="46.56208" lon="0.3369">
        <ele>102.2</ele>
        <time>2023-01-15T07:46:30Z</time>
      </trkpt>
      <trkpt lat="46.56208" lon="0.33685">
        <ele>100.8</ele>
        <time>2023-01-15T07:46:32Z</time>
      </trkpt>
      <trkpt lat="46.56206" lon="0.33683">
        <ele>99.8</ele>
        <time>2023-01-15T07:46:34Z</time>
      </trkpt>
      <trkpt lat="46.56204" lon="0.3368">
        <ele>98.6</ele>
        <time>2023-01-15T07:46:36Z</time>
      </trkpt>
      <trkpt lat="46.56204" lon="0.33675">
        <ele>97.8</ele>
        <time>2023-01-15T07:46:38Z</time>
      </trkpt>
      <trkpt lat="46.56206" lon="0.33671">
        <ele>97.6</ele>
        <time>2023-01-15T07:46:39Z</time>
      </trkpt>
      <trkpt lat="46.56208" lon="0.33663">
        <ele>97</ele>
        <time>2023-01-15T07:46:41Z</time>
      </trkpt>
      <trkpt lat="46.56209" lon="0.33655">
        <ele>96</ele>
        <time>2023-01-15T07:46:43Z</time>
      </trkpt>
      <trkpt lat="46.5621" lon="0.33649">
        <ele>94.2</ele>
        <time>2023-01-15T07:46:45Z</time>
      </trkpt>
      <trkpt lat="46.5621" lon="0.33644">
        <ele>92.8</ele>
        <time>2023-01-15T07:46:47Z</time>
      </trkpt>
      <trkpt lat="46.5621" lon="0.33637">
        <ele>91.4</ele>
        <time>2023-01-15T07:46:49Z</time>
      </trkpt>
      <trkpt lat="46.56212" lon="0.33623">
        <ele>90</ele>
        <time>2023-01-15T07:46:52Z</time>
      </trkpt>
      <trkpt lat="46.56213" lon="0.33615">
        <ele>88.8</ele>
        <time>2023-01-15T07:46:54Z</time>
      </trkpt>
      <trkpt lat="46.56216" lon="0.33608">
        <ele>87.6</ele>
        <time>2023-01-15T07:46:56Z</time>
      </trkpt>
      <trkpt lat="46.56218" lon="0.336">
        <ele>86.6</ele>
        <time>2023-01-15T07:46:58Z</time>
      </trkpt>
      <trkpt lat="46.5622" lon="0.33587">
        <ele>85.4</ele>
        <time>2023-01-15T07:47:01Z</time>
      </trkpt>
      <trkpt lat="46.56218" lon="0.33583">
        <ele>84</ele>
        <time>2023-01-15T07:47:03Z</time>
      </trkpt>
      <trkpt lat="46.56216" lon="0.33582">
        <ele>83.2</ele>
        <time>2023-01-15T07:47:04Z</time>
      </trkpt>
      <trkpt lat="46.56216" lon="0.33583">
        <ele>82.8</ele>
        <time>2023-01-15T07:47:05Z</time>
      </trkpt>
      <trkpt lat="46.56214" lon="0.33586">
        <ele>82</ele>
        <time>2023-01-15T07:47:07Z</time>
      </trkpt>
      <trkpt lat="46.56213" lon="0.33589">
        <ele>81.8</ele>
        <time>2023-01-15T07:47:08Z</time>
      </trkpt>
      <trkpt lat="46.5621" lon="0.33597">
        <ele>81.4</ele>
        <time>2023-01-15T07:47:11Z</time>
      </trkpt>
      <trkpt lat="46.56206" lon="0.33601">
        <ele>80.6</ele>
        <time>2023-01-15T07:47:13Z</time>
      </trkpt>
      <trkpt lat="46.562" lon="0.33607">
        <ele>79.6</ele>
        <time>2023-01-15T07:47:15Z</time>
      </trkpt>
      <trkpt lat="46.56197" lon="0.33608">
        <ele>79.4</ele>
        <time>2023-01-15T07:47:16Z</time>
      </trkpt>
      <trkpt lat="46.56194" lon="0.33609">
        <ele>78.8</ele>
        <time>2023-01-15T07:47:17Z</time>
      </trkpt>
      <trkpt lat="46.56191" lon="0.3361">
        <ele>78</ele>
        <time>2023-01-15T07:47:18Z</time>
      </trkpt>
      <trkpt lat="46.56181" lon="0.33608">
        <ele>76.8</ele>
        <time>2023-01-15T07:47:21Z</time>
      </trkpt>
      <trkpt lat="46.56178" lon="0.33608">
        <ele>76.2</ele>
        <time>2023-01-15T07:47:22Z</time>
      </trkpt>
      <trkpt lat="46.56176" lon="0.33612">
        <ele>75.8</ele>
        <time>2023-01-15T07:47:24Z</time>
      </trkpt>
      <trkpt lat="46.56174" lon="0.33614">
        <ele>75.8</ele>
        <time>2023-01-15T07:47:25Z</time>
      </trkpt>
      <trkpt lat="46.56162" lon="0.33627">
        <ele>75.6</ele>
        <time>2023-01-15T07:47:31Z</time>
      </trkpt>
      <trkpt lat="46.56147" lon="0.33639">
        <ele>76</ele>
        <time>2023-01-15T07:47:37Z</time>
      </trkpt>
      <trkpt lat="46.56129" lon="0.33649">
        <ele>75.8</ele>
        <time>2023-01-15T07:47:43Z</time>
      </trkpt>
      <trkpt lat="46.56113" lon="0.33661">
        <ele>75.2</ele>
        <time>2023-01-15T07:47:49Z</time>
      </trkpt>
      <trkpt lat="46.561" lon="0.3367">
        <ele>75.4</ele>
        <time>2023-01-15T07:47:54Z</time>
      </trkpt>
      <trkpt lat="46.56097" lon="0.33672">
        <ele>75.6</ele>
        <time>2023-01-15T07:47:55Z</time>
      </trkpt>
      <trkpt lat="46.5609" lon="0.33679">
        <ele>75.6</ele>
        <time>2023-01-15T07:47:57Z</time>
      </trkpt>
      <trkpt lat="46.56082" lon="0.33686">
        <ele>75.4</ele>
        <time>2023-01-15T07:48:00Z</time>
      </trkpt>
      <trkpt lat="46.5608" lon="0.33689">
        <ele>75.4</ele>
        <time>2023-01-15T07:48:01Z</time>
      </trkpt>
      <trkpt lat="46.56072" lon="0.33694">
        <ele>75.4</ele>
        <time>2023-01-15T07:48:04Z</time>
      </trkpt>
      <trkpt lat="46.56069" lon="0.33696">
        <ele>75.4</ele>
        <time>2023-01-15T07:48:06Z</time>
      </trkpt>
      <trkpt lat="46.56067" lon="0.33697">
        <ele>75.6</ele>
        <time>2023-01-15T07:48:07Z</time>
      </trkpt>
      <trkpt lat="46.56061" lon="0.33705">
        <ele>75.6</ele>
        <time>2023-01-15T07:48:09Z</time>
      </trkpt>
      <trkpt lat="46.56056" lon="0.33711">
        <ele>75.4</ele>
        <time>2023-01-15T07:48:11Z</time>
      </trkpt>
      <trkpt lat="46.56052" lon="0.33716">
        <ele>75.4</ele>
        <time>2023-01-15T07:48:12Z</time>
      </trkpt>
      <trkpt lat="46.56038" lon="0.33726">
        <ele>75.6</ele>
        <time>2023-01-15T07:48:16Z</time>
      </trkpt>
      <trkpt lat="46.56033" lon="0.33733">
        <ele>75.6</ele>
        <time>2023-01-15T07:48:17Z</time>
      </trkpt>
      <trkpt lat="46.56029" lon="0.33737">
        <ele>75.6</ele>
        <time>2023-01-15T07:48:18Z</time>
      </trkpt>
      <trkpt lat="46.56022" lon="0.33749">
        <ele>75.6</ele>
        <time>2023-01-15T07:48:20Z</time>
      </trkpt>
      <trkpt lat="46.56013" lon="0.33762">
        <ele>75.6</ele>
        <time>2023-01-15T07:48:22Z</time>
      </trkpt>
      <trkpt lat="46.56004" lon="0.33768">
        <ele>75.6</ele>
        <time>2023-01-15T07:48:24Z</time>
      </trkpt>
      <trkpt lat="46.55989" lon="0.33784">
        <ele>75.4</ele>
        <time>2023-01-15T07:48:28Z</time>
      </trkpt>
      <trkpt lat="46.55982" lon="0.3379">
        <ele>75.4</ele>
        <time>2023-01-15T07:48:30Z</time>
      </trkpt>
      <trkpt lat="46.55975" lon="0.33794">
        <ele>75.4</ele>
        <time>2023-01-15T07:48:32Z</time>
      </trkpt>
      <trkpt lat="46.55965" lon="0.33804">
        <ele>75.4</ele>
        <time>2023-01-15T07:48:35Z</time>
      </trkpt>
      <trkpt lat="46.55962" lon="0.33807">
        <ele>75.4</ele>
        <time>2023-01-15T07:48:36Z</time>
      </trkpt>
      <trkpt lat="46.55955" lon="0.33816">
        <ele>75.6</ele>
        <time>2023-01-15T07:48:38Z</time>
      </trkpt>
      <trkpt lat="46.55943" lon="0.33827">
        <ele>75.8</ele>
        <time>2023-01-15T07:48:41Z</time>
      </trkpt>
      <trkpt lat="46.55931" lon="0.3384">
        <ele>76</ele>
        <time>2023-01-15T07:48:45Z</time>
      </trkpt>
      <trkpt lat="46.55927" lon="0.33843">
        <ele>76</ele>
        <time>2023-01-15T07:48:46Z</time>
      </trkpt>
      <trkpt lat="46.55924" lon="0.33845">
        <ele>76</ele>
        <time>2023-01-15T07:48:47Z</time>
      </trkpt>
      <trkpt lat="46.55905" lon="0.33861">
        <ele>76.2</ele>
        <time>2023-01-15T07:48:51Z</time>
      </trkpt>
      <trkpt lat="46.55902" lon="0.33864">
        <ele>76.2</ele>
        <time>2023-01-15T07:48:52Z</time>
      </trkpt>
      <trkpt lat="46.55897" lon="0.33867">
        <ele>76.4</ele>
        <time>2023-01-15T07:48:53Z</time>
      </trkpt>
      <trkpt lat="46.55884" lon="0.33876">
        <ele>76.4</ele>
        <time>2023-01-15T07:48:56Z</time>
      </trkpt>
      <trkpt lat="46.55874" lon="0.33883">
        <ele>76.6</ele>
        <time>2023-01-15T07:48:58Z</time>
      </trkpt>
      <trkpt lat="46.55865" lon="0.33888">
        <ele>76.8</ele>
        <time>2023-01-15T07:49:00Z</time>
      </trkpt>
      <trkpt lat="46.55852" lon="0.33894">
        <ele>77.4</ele>
        <time>2023-01-15T07:49:02Z</time>
      </trkpt>
      <trkpt lat="46.55846" lon="0.33895">
        <ele>77.6</ele>
        <time>2023-01-15T07:49:03Z</time>
      </trkpt>
      <trkpt lat="46.5584" lon="0.33894">
        <ele>77.6</ele>
        <time>2023-01-15T07:49:04Z</time>
      </trkpt>
      <trkpt lat="46.55822" lon="0.33886">
        <ele>77.8</ele>
        <time>2023-01-15T07:49:07Z</time>
      </trkpt>
      <trkpt lat="46.55816" lon="0.33883">
        <ele>77.8</ele>
        <time>2023-01-15T07:49:08Z</time>
      </trkpt>
      <trkpt lat="46.5579" lon="0.33872">
        <ele>76.6</ele>
        <time>2023-01-15T07:49:13Z</time>
      </trkpt>
      <trkpt lat="46.55782" lon="0.33871">
        <ele>76</ele>
        <time>2023-01-15T07:49:15Z</time>
      </trkpt>
      <trkpt lat="46.55777" lon="0.33872">
        <ele>75.8</ele>
        <time>2023-01-15T07:49:16Z</time>
      </trkpt>
      <trkpt lat="46.55774" lon="0.33872">
        <ele>75.4</ele>
        <time>2023-01-15T07:49:17Z</time>
      </trkpt>
      <trkpt lat="46.55765" lon="0.33877">
        <ele>74.8</ele>
        <time>2023-01-15T07:49:20Z</time>
      </trkpt>
      <trkpt lat="46.55763" lon="0.33878">
        <ele>74.8</ele>
        <time>2023-01-15T07:49:21Z</time>
      </trkpt>
      <trkpt lat="46.55756" lon="0.33883">
        <ele>74.8</ele>
        <time>2023-01-15T07:49:23Z</time>
      </trkpt>
      <trkpt lat="46.55752" lon="0.33885">
        <ele>74.8</ele>
        <time>2023-01-15T07:49:24Z</time>
      </trkpt>
      <trkpt lat="46.55733" lon="0.33894">
        <ele>74.8</ele>
        <time>2023-01-15T07:49:28Z</time>
      </trkpt>
      <trkpt lat="46.55707" lon="0.33904">
        <ele>75</ele>
        <time>2023-01-15T07:49:34Z</time>
      </trkpt>
      <trkpt lat="46.55681" lon="0.33912">
        <ele>74.8</ele>
        <time>2023-01-15T07:49:41Z</time>
      </trkpt>
      <trkpt lat="46.55658" lon="0.33919">
        <ele>74.4</ele>
        <time>2023-01-15T07:49:48Z</time>
      </trkpt>
      <trkpt lat="46.55654" lon="0.3392">
        <ele>74.2</ele>
        <time>2023-01-15T07:49:49Z</time>
      </trkpt>
      <trkpt lat="46.55645" lon="0.33923">
        <ele>74</ele>
        <time>2023-01-15T07:49:52Z</time>
      </trkpt>
      <trkpt lat="46.5564" lon="0.33923">
        <ele>74.2</ele>
        <time>2023-01-15T07:49:54Z</time>
      </trkpt>
      <trkpt lat="46.55628" lon="0.3392">
        <ele>74.2</ele>
        <time>2023-01-15T07:50:00Z</time>
      </trkpt>
      <trkpt lat="46.55622" lon="0.33917">
        <ele>73.8</ele>
        <time>2023-01-15T07:50:04Z</time>
      </trkpt>
      <trkpt lat="46.55618" lon="0.33915">
        <ele>73.6</ele>
        <time>2023-01-15T07:50:06Z</time>
      </trkpt>
      <trkpt lat="46.55607" lon="0.33911">
        <ele>73.6</ele>
        <time>2023-01-15T07:50:12Z</time>
      </trkpt>
      <trkpt lat="46.55601" lon="0.33908">
        <ele>73.8</ele>
        <time>2023-01-15T07:50:16Z</time>
      </trkpt>
      <trkpt lat="46.5559" lon="0.33903">
        <ele>74.2</ele>
        <time>2023-01-15T07:50:27Z</time>
      </trkpt>
      <trkpt lat="46.55588" lon="0.33901">
        <ele>74.2</ele>
        <time>2023-01-15T07:50:31Z</time>
      </trkpt>
      <trkpt lat="46.5558" lon="0.33893">
        <ele>74</ele>
        <time>2023-01-15T07:50:37Z</time>
      </trkpt>
      <trkpt lat="46.55566" lon="0.33883">
        <ele>74.4</ele>
        <time>2023-01-15T07:50:44Z</time>
      </trkpt>
      <trkpt lat="46.55553" lon="0.33871">
        <ele>74.2</ele>
        <time>2023-01-15T07:50:51Z</time>
      </trkpt>
      <trkpt lat="46.55543" lon="0.33854">
        <ele>73.8</ele>
        <time>2023-01-15T07:50:57Z</time>
      </trkpt>
      <trkpt lat="46.55525" lon="0.3383">
        <ele>74.4</ele>
        <time>2023-01-15T07:51:05Z</time>
      </trkpt>
      <trkpt lat="46.55512" lon="0.33812">
        <ele>74.6</ele>
        <time>2023-01-15T07:51:11Z</time>
      </trkpt>
      <trkpt lat="46.55501" lon="0.33802">
        <ele>74.2</ele>
        <time>2023-01-15T07:51:18Z</time>
      </trkpt>
      <trkpt lat="46.55494" lon="0.33796">
        <ele>74.2</ele>
        <time>2023-01-15T07:51:22Z</time>
      </trkpt>
      <trkpt lat="46.55494" lon="0.33796">
        <ele>74.2</ele>
        <time>2023-01-15T07:51:23Z</time>
      </trkpt>
      <trkpt lat="46.55489" lon="0.33792">
        <ele>74.4</ele>
        <time>2023-01-15T07:51:27Z</time>
      </trkpt>
      <trkpt lat="46.55486" lon="0.3379">
        <ele>74.8</ele>
        <time>2023-01-15T07:51:30Z</time>
      </trkpt>
      <trkpt lat="46.5548" lon="0.33786">
        <ele>75</ele>
        <time>2023-01-15T07:51:33Z</time>
      </trkpt>
      <trkpt lat="46.55464" lon="0.33779">
        <ele>75</ele>
        <time>2023-01-15T07:51:40Z</time>
      </trkpt>
      <trkpt lat="46.55448" lon="0.33777">
        <ele>74.8</ele>
        <time>2023-01-15T07:51:46Z</time>
      </trkpt>
      <trkpt lat="46.55431" lon="0.33774">
        <ele>75</ele>
        <time>2023-01-15T07:51:52Z</time>
      </trkpt>
      <trkpt lat="46.55412" lon="0.33772">
        <ele>75</ele>
        <time>2023-01-15T07:51:58Z</time>
      </trkpt>
      <trkpt lat="46.55389" lon="0.33766">
        <ele>75.2</ele>
        <time>2023-01-15T07:52:04Z</time>
      </trkpt>
      <trkpt lat="46.55375" lon="0.33757">
        <ele>75.2</ele>
        <time>2023-01-15T07:52:09Z</time>
      </trkpt>
      <trkpt lat="46.55373" lon="0.33755">
        <ele>75.2</ele>
        <time>2023-01-15T07:52:10Z</time>
      </trkpt>
      <trkpt lat="46.55364" lon="0.33755">
        <ele>75.4</ele>
        <time>2023-01-15T07:52:13Z</time>
      </trkpt>
      <trkpt lat="46.55351" lon="0.33748">
        <ele>75.6</ele>
        <time>2023-01-15T07:52:17Z</time>
      </trkpt>
      <trkpt lat="46.55327" lon="0.33744">
        <ele>75.6</ele>
        <time>2023-01-15T07:52:22Z</time>
      </trkpt>
      <trkpt lat="46.55302" lon="0.3374">
        <ele>75.4</ele>
        <time>2023-01-15T07:52:28Z</time>
      </trkpt>
      <trkpt lat="46.55273" lon="0.33741">
        <ele>75.2</ele>
        <time>2023-01-15T07:52:35Z</time>
      </trkpt>
      <trkpt lat="46.5525" lon="0.33742">
        <ele>75.2</ele>
        <time>2023-01-15T07:52:41Z</time>
      </trkpt>
      <trkpt lat="46.55236" lon="0.33743">
        <ele>75.6</ele>
        <time>2023-01-15T07:52:45Z</time>
      </trkpt>
      <trkpt lat="46.55225" lon="0.33743">
        <ele>75.6</ele>
        <time>2023-01-15T07:52:48Z</time>
      </trkpt>
      <trkpt lat="46.55204" lon="0.33744">
        <ele>75</ele>
        <time>2023-01-15T07:52:55Z</time>
      </trkpt>
      <trkpt lat="46.55181" lon="0.33744">
        <ele>75.2</ele>
        <time>2023-01-15T07:53:01Z</time>
      </trkpt>
      <trkpt lat="46.55156" lon="0.33743">
        <ele>75.4</ele>
        <time>2023-01-15T07:53:08Z</time>
      </trkpt>
      <trkpt lat="46.55136" lon="0.3374">
        <ele>75.2</ele>
        <time>2023-01-15T07:53:15Z</time>
      </trkpt>
      <trkpt lat="46.55116" lon="0.33737">
        <ele>75.4</ele>
        <time>2023-01-15T07:53:21Z</time>
      </trkpt>
      <trkpt lat="46.55094" lon="0.33732">
        <ele>75.2</ele>
        <time>2023-01-15T07:53:27Z</time>
      </trkpt>
      <trkpt lat="46.55069" lon="0.33726">
        <ele>75.2</ele>
        <time>2023-01-15T07:53:34Z</time>
      </trkpt>
      <trkpt lat="46.55054" lon="0.33722">
        <ele>75</ele>
        <time>2023-01-15T07:53:39Z</time>
      </trkpt>
      <trkpt lat="46.55042" lon="0.33721">
        <ele>75</ele>
        <time>2023-01-15T07:53:45Z</time>
      </trkpt>
      <trkpt lat="46.55028" lon="0.33723">
        <ele>75.2</ele>
        <time>2023-01-15T07:53:50Z</time>
      </trkpt>
      <trkpt lat="46.55027" lon="0.33726">
        <ele>75.2</ele>
        <time>2023-01-15T07:53:51Z</time>
      </trkpt>
      <trkpt lat="46.55022" lon="0.33743">
        <ele>75.4</ele>
        <time>2023-01-15T07:53:55Z</time>
      </trkpt>
      <trkpt lat="46.55022" lon="0.33748">
        <ele>75.4</ele>
        <time>2023-01-15T07:53:56Z</time>
      </trkpt>
      <trkpt lat="46.55019" lon="0.33778">
        <ele>75.2</ele>
        <time>2023-01-15T07:54:02Z</time>
      </trkpt>
      <trkpt lat="46.55016" lon="0.33808">
        <ele>75.2</ele>
        <time>2023-01-15T07:54:09Z</time>
      </trkpt>
      <trkpt lat="46.55013" lon="0.33827">
        <ele>75.2</ele>
        <time>2023-01-15T07:54:14Z</time>
      </trkpt>
      <trkpt lat="46.55009" lon="0.33834">
        <ele>75.6</ele>
        <time>2023-01-15T07:54:16Z</time>
      </trkpt>
      <trkpt lat="46.55002" lon="0.33842">
        <ele>75.6</ele>
        <time>2023-01-15T07:54:18Z</time>
      </trkpt>
      <trkpt lat="46.55" lon="0.33846">
        <ele>75.6</ele>
        <time>2023-01-15T07:54:19Z</time>
      </trkpt>
      <trkpt lat="46.54999" lon="0.33852">
        <ele>75.8</ele>
        <time>2023-01-15T07:54:20Z</time>
      </trkpt>
      <trkpt lat="46.54998" lon="0.33869">
        <ele>75.8</ele>
        <time>2023-01-15T07:54:23Z</time>
      </trkpt>
      <trkpt lat="46.54997" lon="0.33875">
        <ele>75.8</ele>
        <time>2023-01-15T07:54:24Z</time>
      </trkpt>
      <trkpt lat="46.54991" lon="0.33891">
        <ele>75.8</ele>
        <time>2023-01-15T07:54:27Z</time>
      </trkpt>
      <trkpt lat="46.5498" lon="0.33894">
        <ele>75.8</ele>
        <time>2023-01-15T07:54:30Z</time>
      </trkpt>
      <trkpt lat="46.54977" lon="0.33893">
        <ele>76</ele>
        <time>2023-01-15T07:54:31Z</time>
      </trkpt>
      <trkpt lat="46.5496" lon="0.33885">
        <ele>76.2</ele>
        <time>2023-01-15T07:54:35Z</time>
      </trkpt>
      <trkpt lat="46.54939" lon="0.33865">
        <ele>76.4</ele>
        <time>2023-01-15T07:54:40Z</time>
      </trkpt>
      <trkpt lat="46.54936" lon="0.33859">
        <ele>76.4</ele>
        <time>2023-01-15T07:54:41Z</time>
      </trkpt>
      <trkpt lat="46.54926" lon="0.33842">
        <ele>76.6</ele>
        <time>2023-01-15T07:54:44Z</time>
      </trkpt>
      <trkpt lat="46.54913" lon="0.33827">
        <ele>76.6</ele>
        <time>2023-01-15T07:54:47Z</time>
      </trkpt>
      <trkpt lat="46.54899" lon="0.33812">
        <ele>76.8</ele>
        <time>2023-01-15T07:54:50Z</time>
      </trkpt>
      <trkpt lat="46.54882" lon="0.33796">
        <ele>77.2</ele>
        <time>2023-01-15T07:54:54Z</time>
      </trkpt>
      <trkpt lat="46.54851" lon="0.3377">
        <ele>77.4</ele>
        <time>2023-01-15T07:55:01Z</time>
      </trkpt>
      <trkpt lat="46.54821" lon="0.33737">
        <ele>77.8</ele>
        <time>2023-01-15T07:55:08Z</time>
      </trkpt>
      <trkpt lat="46.54816" lon="0.33732">
        <ele>78</ele>
        <time>2023-01-15T07:55:09Z</time>
      </trkpt>
      <trkpt lat="46.54789" lon="0.337">
        <ele>78.4</ele>
        <time>2023-01-15T07:55:16Z</time>
      </trkpt>
      <trkpt lat="46.5477" lon="0.33681">
        <ele>78.8</ele>
        <time>2023-01-15T07:55:21Z</time>
      </trkpt>
      <trkpt lat="46.54758" lon="0.33667">
        <ele>79.2</ele>
        <time>2023-01-15T07:55:24Z</time>
      </trkpt>
      <trkpt lat="46.54736" lon="0.33639">
        <ele>80.4</ele>
        <time>2023-01-15T07:55:30Z</time>
      </trkpt>
      <trkpt lat="46.54717" lon="0.3362">
        <ele>81.2</ele>
        <time>2023-01-15T07:55:35Z</time>
      </trkpt>
      <trkpt lat="46.54711" lon="0.33614">
        <ele>81.4</ele>
        <time>2023-01-15T07:55:37Z</time>
      </trkpt>
      <trkpt lat="46.54705" lon="0.33611">
        <ele>82</ele>
        <time>2023-01-15T07:55:39Z</time>
      </trkpt>
      <trkpt lat="46.54698" lon="0.33608">
        <ele>82.6</ele>
        <time>2023-01-15T07:55:41Z</time>
      </trkpt>
      <trkpt lat="46.54695" lon="0.33607">
        <ele>82.8</ele>
        <time>2023-01-15T07:55:42Z</time>
      </trkpt>
      <trkpt lat="46.54682" lon="0.33598">
        <ele>83.6</ele>
        <time>2023-01-15T07:55:46Z</time>
      </trkpt>
      <trkpt lat="46.5468" lon="0.33595">
        <ele>83.8</ele>
        <time>2023-01-15T07:55:47Z</time>
      </trkpt>
      <trkpt lat="46.54661" lon="0.33582">
        <ele>84.6</ele>
        <time>2023-01-15T07:55:54Z</time>
      </trkpt>
      <trkpt lat="46.54658" lon="0.33581">
        <ele>84.8</ele>
        <time>2023-01-15T07:55:55Z</time>
      </trkpt>
      <trkpt lat="46.54643" lon="0.33581">
        <ele>85.8</ele>
        <time>2023-01-15T07:56:00Z</time>
      </trkpt>
      <trkpt lat="46.54638" lon="0.33581">
        <ele>86.8</ele>
        <time>2023-01-15T07:56:03Z</time>
      </trkpt>
      <trkpt lat="46.54637" lon="0.33581">
        <ele>87.4</ele>
        <time>2023-01-15T07:56:04Z</time>
      </trkpt>
      <trkpt lat="46.54637" lon="0.33581">
        <ele>87.8</ele>
        <time>2023-01-15T07:56:05Z</time>
      </trkpt>
      <trkpt lat="46.54632" lon="0.33577">
        <ele>89</ele>
        <time>2023-01-15T07:56:14Z</time>
      </trkpt>
      <trkpt lat="46.54631" lon="0.33576">
        <ele>89.2</ele>
        <time>2023-01-15T07:56:15Z</time>
      </trkpt>
      <trkpt lat="46.54627" lon="0.33576">
        <ele>90</ele>
        <time>2023-01-15T07:56:19Z</time>
      </trkpt>
      <trkpt lat="46.54624" lon="0.33577">
        <ele>91</ele>
        <time>2023-01-15T07:56:24Z</time>
      </trkpt>
      <trkpt lat="46.54623" lon="0.33578">
        <ele>91.4</ele>
        <time>2023-01-15T07:56:25Z</time>
      </trkpt>
      <trkpt lat="46.5462" lon="0.33583">
        <ele>92.2</ele>
        <time>2023-01-15T07:56:30Z</time>
      </trkpt>
      <trkpt lat="46.54619" lon="0.33587">
        <ele>93.2</ele>
        <time>2023-01-15T07:56:34Z</time>
      </trkpt>
      <trkpt lat="46.54619" lon="0.3359">
        <ele>93.4</ele>
        <time>2023-01-15T07:56:36Z</time>
      </trkpt>
      <trkpt lat="46.54618" lon="0.33594">
        <ele>94.4</ele>
        <time>2023-01-15T07:56:39Z</time>
      </trkpt>
      <trkpt lat="46.54617" lon="0.33601">
        <ele>95.6</ele>
        <time>2023-01-15T07:56:45Z</time>
      </trkpt>
      <trkpt lat="46.54616" lon="0.33608">
        <ele>95.8</ele>
        <time>2023-01-15T07:56:49Z</time>
      </trkpt>
      <trkpt lat="46.54618" lon="0.33612">
        <ele>95.8</ele>
        <time>2023-01-15T07:56:51Z</time>
      </trkpt>
      <trkpt lat="46.54625" lon="0.33617">
        <ele>95.8</ele>
        <time>2023-01-15T07:56:54Z</time>
      </trkpt>
      <trkpt lat="46.54645" lon="0.33632">
        <ele>95.2</ele>
        <time>2023-01-15T07:57:00Z</time>
      </trkpt>
      <trkpt lat="46.54649" lon="0.33635">
        <ele>95.2</ele>
        <time>2023-01-15T07:57:01Z</time>
      </trkpt>
      <trkpt lat="46.54675" lon="0.33641">
        <ele>94.6</ele>
        <time>2023-01-15T07:57:07Z</time>
      </trkpt>
      <trkpt lat="46.54691" lon="0.33638">
        <ele>94.6</ele>
        <time>2023-01-15T07:57:11Z</time>
      </trkpt>
      <trkpt lat="46.54694" lon="0.33636">
        <ele>94.6</ele>
        <time>2023-01-15T07:57:12Z</time>
      </trkpt>
      <trkpt lat="46.54702" lon="0.33632">
        <ele>94.4</ele>
        <time>2023-01-15T07:57:16Z</time>
      </trkpt>
      <trkpt lat="46.54717" lon="0.33618">
        <ele>94.6</ele>
        <time>2023-01-15T07:57:21Z</time>
      </trkpt>
      <trkpt lat="46.54727" lon="0.33605">
        <ele>94.6</ele>
        <time>2023-01-15T07:57:24Z</time>
      </trkpt>
      <trkpt lat="46.54734" lon="0.33593">
        <ele>94.6</ele>
        <time>2023-01-15T07:57:27Z</time>
      </trkpt>
      <trkpt lat="46.54747" lon="0.33572">
        <ele>94.6</ele>
        <time>2023-01-15T07:57:32Z</time>
      </trkpt>
      <trkpt lat="46.54766" lon="0.33532">
        <ele>94.4</ele>
        <time>2023-01-15T07:57:39Z</time>
      </trkpt>
      <trkpt lat="46.5479" lon="0.33487">
        <ele>94.4</ele>
        <time>2023-01-15T07:57:47Z</time>
      </trkpt>
      <trkpt lat="46.54817" lon="0.33437">
        <ele>94.2</ele>
        <time>2023-01-15T07:57:56Z</time>
      </trkpt>
      <trkpt lat="46.54826" lon="0.33423">
        <ele>94.4</ele>
        <time>2023-01-15T07:57:59Z</time>
      </trkpt>
      <trkpt lat="46.54831" lon="0.33413">
        <ele>94.6</ele>
        <time>2023-01-15T07:58:01Z</time>
      </trkpt>
      <trkpt lat="46.54833" lon="0.33409">
        <ele>94.6</ele>
        <time>2023-01-15T07:58:02Z</time>
      </trkpt>
      <trkpt lat="46.54844" lon="0.33393">
        <ele>94.6</ele>
        <time>2023-01-15T07:58:06Z</time>
      </trkpt>
      <trkpt lat="46.54852" lon="0.33385">
        <ele>94.2</ele>
        <time>2023-01-15T07:58:09Z</time>
      </trkpt>
      <trkpt lat="46.54862" lon="0.33376">
        <ele>94.2</ele>
        <time>2023-01-15T07:58:12Z</time>
      </trkpt>
      <trkpt lat="46.54884" lon="0.33354">
        <ele>94</ele>
        <time>2023-01-15T07:58:19Z</time>
      </trkpt>
      <trkpt lat="46.54905" lon="0.33343">
        <ele>94</ele>
        <time>2023-01-15T07:58:25Z</time>
      </trkpt>
      <trkpt lat="46.54925" lon="0.3334">
        <ele>94.2</ele>
        <time>2023-01-15T07:58:31Z</time>
      </trkpt>
      <trkpt lat="46.54942" lon="0.33342">
        <ele>94.4</ele>
        <time>2023-01-15T07:58:37Z</time>
      </trkpt>
      <trkpt lat="46.54951" lon="0.33347">
        <ele>95</ele>
        <time>2023-01-15T07:58:43Z</time>
      </trkpt>
      <trkpt lat="46.54952" lon="0.33346">
        <ele>94.8</ele>
        <time>2023-01-15T07:58:47Z</time>
      </trkpt>
      <trkpt lat="46.54946" lon="0.3334">
        <ele>95.2</ele>
        <time>2023-01-15T07:58:53Z</time>
      </trkpt>
      <trkpt lat="46.54946" lon="0.33339">
        <ele>95.6</ele>
        <time>2023-01-15T07:58:55Z</time>
      </trkpt>
      <trkpt lat="46.54944" lon="0.33339">
        <ele>96.4</ele>
        <time>2023-01-15T07:59:01Z</time>
      </trkpt>
      <trkpt lat="46.54944" lon="0.33339">
        <ele>96.8</ele>
        <time>2023-01-15T07:59:03Z</time>
      </trkpt>
      <trkpt lat="46.54941" lon="0.33334">
        <ele>97.8</ele>
        <time>2023-01-15T07:59:11Z</time>
      </trkpt>
      <trkpt lat="46.5494" lon="0.33333">
        <ele>98</ele>
        <time>2023-01-15T07:59:12Z</time>
      </trkpt>
      <trkpt lat="46.54939" lon="0.3333">
        <ele>98.4</ele>
        <time>2023-01-15T07:59:14Z</time>
      </trkpt>
      <trkpt lat="46.54938" lon="0.33327">
        <ele>98.8</ele>
        <time>2023-01-15T07:59:16Z</time>
      </trkpt>
      <trkpt lat="46.54936" lon="0.33324">
        <ele>99.2</ele>
        <time>2023-01-15T07:59:18Z</time>
      </trkpt>
      <trkpt lat="46.54935" lon="0.33324">
        <ele>99.6</ele>
        <time>2023-01-15T07:59:19Z</time>
      </trkpt>
      <trkpt lat="46.54932" lon="0.33321">
        <ele>100.6</ele>
        <time>2023-01-15T07:59:22Z</time>
      </trkpt>
      <trkpt lat="46.54928" lon="0.33316">
        <ele>101.6</ele>
        <time>2023-01-15T07:59:25Z</time>
      </trkpt>
      <trkpt lat="46.54927" lon="0.33315">
        <ele>102</ele>
        <time>2023-01-15T07:59:26Z</time>
      </trkpt>
      <trkpt lat="46.54923" lon="0.33311">
        <ele>103.2</ele>
        <time>2023-01-15T07:59:29Z</time>
      </trkpt>
      <trkpt lat="46.54919" lon="0.33306">
        <ele>104.4</ele>
        <time>2023-01-15T07:59:33Z</time>
      </trkpt>
      <trkpt lat="46.54914" lon="0.33301">
        <ele>105.4</ele>
        <time>2023-01-15T07:59:37Z</time>
      </trkpt>
      <trkpt lat="46.54912" lon="0.33299">
        <ele>105.8</ele>
        <time>2023-01-15T07:59:39Z</time>
      </trkpt>
      <trkpt lat="46.54907" lon="0.33294">
        <ele>106.8</ele>
        <time>2023-01-15T07:59:43Z</time>
      </trkpt>
      <trkpt lat="46.54903" lon="0.33287">
        <ele>107.8</ele>
        <time>2023-01-15T07:59:47Z</time>
      </trkpt>
      <trkpt lat="46.54902" lon="0.33285">
        <ele>108</ele>
        <time>2023-01-15T07:59:48Z</time>
      </trkpt>
      <trkpt lat="46.549" lon="0.33279">
        <ele>108.8</ele>
        <time>2023-01-15T07:59:51Z</time>
      </trkpt>
      <trkpt lat="46.54899" lon="0.33277">
        <ele>109.2</ele>
        <time>2023-01-15T07:59:52Z</time>
      </trkpt>
      <trkpt lat="46.54896" lon="0.33272">
        <ele>110.2</ele>
        <time>2023-01-15T07:59:56Z</time>
      </trkpt>
      <trkpt lat="46.54893" lon="0.33265">
        <ele>111.6</ele>
        <time>2023-01-15T08:00:00Z</time>
      </trkpt>
      <trkpt lat="46.5489" lon="0.33261">
        <ele>112.8</ele>
        <time>2023-01-15T08:00:03Z</time>
      </trkpt>
      <trkpt lat="46.54884" lon="0.33253">
        <ele>113.8</ele>
        <time>2023-01-15T08:00:08Z</time>
      </trkpt>
      <trkpt lat="46.54879" lon="0.33246">
        <ele>114.8</ele>
        <time>2023-01-15T08:00:14Z</time>
      </trkpt>
      <trkpt lat="46.54877" lon="0.33243">
        <ele>115.2</ele>
        <time>2023-01-15T08:00:16Z</time>
      </trkpt>
      <trkpt lat="46.54873" lon="0.33236">
        <ele>116.2</ele>
        <time>2023-01-15T08:00:22Z</time>
      </trkpt>
      <trkpt lat="46.54867" lon="0.33227">
        <ele>117.4</ele>
        <time>2023-01-15T08:00:28Z</time>
      </trkpt>
      <trkpt lat="46.54861" lon="0.33217">
        <ele>118.4</ele>
        <time>2023-01-15T08:00:35Z</time>
      </trkpt>
      <trkpt lat="46.54857" lon="0.33207">
        <ele>119.6</ele>
        <time>2023-01-15T08:00:41Z</time>
      </trkpt>
      <trkpt lat="46.54856" lon="0.33205">
        <ele>119.6</ele>
        <time>2023-01-15T08:00:42Z</time>
      </trkpt>
      <trkpt lat="46.54851" lon="0.33191">
        <ele>120.6</ele>
        <time>2023-01-15T08:00:50Z</time>
      </trkpt>
      <trkpt lat="46.54849" lon="0.33185">
        <ele>121</ele>
        <time>2023-01-15T08:00:53Z</time>
      </trkpt>
      <trkpt lat="46.54843" lon="0.33163">
        <ele>121.8</ele>
        <time>2023-01-15T08:01:01Z</time>
      </trkpt>
      <trkpt lat="46.5484" lon="0.33151">
        <ele>122.4</ele>
        <time>2023-01-15T08:01:04Z</time>
      </trkpt>
      <trkpt lat="46.54838" lon="0.33141">
        <ele>122.8</ele>
        <time>2023-01-15T08:01:07Z</time>
      </trkpt>
      <trkpt lat="46.54834" lon="0.3313">
        <ele>123.6</ele>
        <time>2023-01-15T08:01:11Z</time>
      </trkpt>
      <trkpt lat="46.54833" lon="0.33125">
        <ele>124</ele>
        <time>2023-01-15T08:01:13Z</time>
      </trkpt>
      <trkpt lat="46.54831" lon="0.33113">
        <ele>124.6</ele>
        <time>2023-01-15T08:01:17Z</time>
      </trkpt>
      <trkpt lat="46.54829" lon="0.33099">
        <ele>125.2</ele>
        <time>2023-01-15T08:01:21Z</time>
      </trkpt>
      <trkpt lat="46.54828" lon="0.33088">
        <ele>125.8</ele>
        <time>2023-01-15T08:01:24Z</time>
      </trkpt>
      <trkpt lat="46.54825" lon="0.33066">
        <ele>126.4</ele>
        <time>2023-01-15T08:01:30Z</time>
      </trkpt>
      <trkpt lat="46.54825" lon="0.33062">
        <ele>126.4</ele>
        <time>2023-01-15T08:01:31Z</time>
      </trkpt>
      <trkpt lat="46.54819" lon="0.33032">
        <ele>127</ele>
        <time>2023-01-15T08:01:38Z</time>
      </trkpt>
      <trkpt lat="46.54818" lon="0.33023">
        <ele>127.6</ele>
        <time>2023-01-15T08:01:40Z</time>
      </trkpt>
      <trkpt lat="46.54817" lon="0.33006">
        <ele>128</ele>
        <time>2023-01-15T08:01:44Z</time>
      </trkpt>
      <trkpt lat="46.54821" lon="0.32981">
        <ele>128.4</ele>
        <time>2023-01-15T08:01:51Z</time>
      </trkpt>
      <trkpt lat="46.54822" lon="0.32962">
        <ele>128.6</ele>
        <time>2023-01-15T08:01:55Z</time>
      </trkpt>
      <trkpt lat="46.54825" lon="0.32944">
        <ele>129</ele>
        <time>2023-01-15T08:01:59Z</time>
      </trkpt>
      <trkpt lat="46.54818" lon="0.32911">
        <ele>128.8</ele>
        <time>2023-01-15T08:02:05Z</time>
      </trkpt>
      <trkpt lat="46.54813" lon="0.32894">
        <ele>128.8</ele>
        <time>2023-01-15T08:02:09Z</time>
      </trkpt>
      <trkpt lat="46.54811" lon="0.32893">
        <ele>128.6</ele>
        <time>2023-01-15T08:02:10Z</time>
      </trkpt>
      <trkpt lat="46.54808" lon="0.32893">
        <ele>128.6</ele>
        <time>2023-01-15T08:02:13Z</time>
      </trkpt>
      <trkpt lat="46.54805" lon="0.32896">
        <ele>128.8</ele>
        <time>2023-01-15T08:02:16Z</time>
      </trkpt>
      <trkpt lat="46.54801" lon="0.329">
        <ele>128.8</ele>
        <time>2023-01-15T08:02:19Z</time>
      </trkpt>
      <trkpt lat="46.54798" lon="0.32903">
        <ele>128.8</ele>
        <time>2023-01-15T08:02:21Z</time>
      </trkpt>
      <trkpt lat="46.54796" lon="0.32905">
        <ele>128.8</ele>
        <time>2023-01-15T08:02:23Z</time>
      </trkpt>
      <trkpt lat="46.54793" lon="0.32907">
        <ele>129</ele>
        <time>2023-01-15T08:02:24Z</time>
      </trkpt>
      <trkpt lat="46.54791" lon="0.32908">
        <ele>129</ele>
        <time>2023-01-15T08:02:25Z</time>
      </trkpt>
      <trkpt lat="46.54779" lon="0.32916">
        <ele>129.2</ele>
        <time>2023-01-15T08:02:29Z</time>
      </trkpt>
      <trkpt lat="46.54768" lon="0.32924">
        <ele>128.8</ele>
        <time>2023-01-15T08:02:33Z</time>
      </trkpt>
      <trkpt lat="46.54761" lon="0.32934">
        <ele>128.6</ele>
        <time>2023-01-15T08:02:36Z</time>
      </trkpt>
      <trkpt lat="46.54757" lon="0.32938">
        <ele>128.6</ele>
        <time>2023-01-15T08:02:37Z</time>
      </trkpt>
      <trkpt lat="46.54743" lon="0.32949">
        <ele>128.4</ele>
        <time>2023-01-15T08:02:41Z</time>
      </trkpt>
      <trkpt lat="46.54728" lon="0.32944">
        <ele>128.2</ele>
        <time>2023-01-15T08:02:46Z</time>
      </trkpt>
      <trkpt lat="46.54711" lon="0.32938">
        <ele>127.8</ele>
        <time>2023-01-15T08:02:51Z</time>
      </trkpt>
      <trkpt lat="46.54706" lon="0.32926">
        <ele>127.6</ele>
        <time>2023-01-15T08:02:55Z</time>
      </trkpt>
      <trkpt lat="46.54697" lon="0.32907">
        <ele>128</ele>
        <time>2023-01-15T08:03:01Z</time>
      </trkpt>
      <trkpt lat="46.54681" lon="0.32898">
        <ele>127.8</ele>
        <time>2023-01-15T08:03:07Z</time>
      </trkpt>
      <trkpt lat="46.54679" lon="0.32896">
        <ele>127.6</ele>
        <time>2023-01-15T08:03:08Z</time>
      </trkpt>
      <trkpt lat="46.54678" lon="0.32894">
        <ele>127.4</ele>
        <time>2023-01-15T08:03:09Z</time>
      </trkpt>
      <trkpt lat="46.54674" lon="0.32889">
        <ele>127.2</ele>
        <time>2023-01-15T08:03:11Z</time>
      </trkpt>
      <trkpt lat="46.54664" lon="0.32881">
        <ele>127</ele>
        <time>2023-01-15T08:03:16Z</time>
      </trkpt>
      <trkpt lat="46.54662" lon="0.32879">
        <ele>127</ele>
        <time>2023-01-15T08:03:17Z</time>
      </trkpt>
      <trkpt lat="46.54653" lon="0.32874">
        <ele>126.6</ele>
        <time>2023-01-15T08:03:22Z</time>
      </trkpt>
      <trkpt lat="46.54649" lon="0.32868">
        <ele>126.4</ele>
        <time>2023-01-15T08:03:24Z</time>
      </trkpt>
      <trkpt lat="46.54647" lon="0.32864">
        <ele>126.2</ele>
        <time>2023-01-15T08:03:25Z</time>
      </trkpt>
      <trkpt lat="46.54642" lon="0.32857">
        <ele>126</ele>
        <time>2023-01-15T08:03:27Z</time>
      </trkpt>
      <trkpt lat="46.54632" lon="0.32843">
        <ele>125.4</ele>
        <time>2023-01-15T08:03:31Z</time>
      </trkpt>
      <trkpt lat="46.5463" lon="0.3284">
        <ele>125.2</ele>
        <time>2023-01-15T08:03:32Z</time>
      </trkpt>
      <trkpt lat="46.54618" lon="0.32818">
        <ele>124.4</ele>
        <time>2023-01-15T08:03:37Z</time>
      </trkpt>
      <trkpt lat="46.54615" lon="0.32814">
        <ele>124.2</ele>
        <time>2023-01-15T08:03:38Z</time>
      </trkpt>
      <trkpt lat="46.54607" lon="0.32809">
        <ele>123.6</ele>
        <time>2023-01-15T08:03:41Z</time>
      </trkpt>
      <trkpt lat="46.54603" lon="0.32805">
        <ele>123.4</ele>
        <time>2023-01-15T08:03:43Z</time>
      </trkpt>
      <trkpt lat="46.54599" lon="0.32796">
        <ele>123.2</ele>
        <time>2023-01-15T08:03:45Z</time>
      </trkpt>
      <trkpt lat="46.54596" lon="0.32792">
        <ele>123</ele>
        <time>2023-01-15T08:03:46Z</time>
      </trkpt>
      <trkpt lat="46.54587" lon="0.32781">
        <ele>122</ele>
        <time>2023-01-15T08:03:50Z</time>
      </trkpt>
      <trkpt lat="46.54585" lon="0.32777">
        <ele>121.8</ele>
        <time>2023-01-15T08:03:51Z</time>
      </trkpt>
      <trkpt lat="46.54577" lon="0.32767">
        <ele>121.2</ele>
        <time>2023-01-15T08:03:54Z</time>
      </trkpt>
      <trkpt lat="46.54574" lon="0.32764">
        <ele>121</ele>
        <time>2023-01-15T08:03:55Z</time>
      </trkpt>
      <trkpt lat="46.5456" lon="0.32753">
        <ele>119.8</ele>
        <time>2023-01-15T08:03:59Z</time>
      </trkpt>
      <trkpt lat="46.54548" lon="0.32734">
        <ele>118.8</ele>
        <time>2023-01-15T08:04:03Z</time>
      </trkpt>
      <trkpt lat="46.54547" lon="0.32731">
        <ele>118.6</ele>
        <time>2023-01-15T08:04:04Z</time>
      </trkpt>
      <trkpt lat="46.54544" lon="0.32713">
        <ele>117.2</ele>
        <time>2023-01-15T08:04:08Z</time>
      </trkpt>
      <trkpt lat="46.54539" lon="0.32685">
        <ele>116.4</ele>
        <time>2023-01-15T08:04:13Z</time>
      </trkpt>
      <trkpt lat="46.54538" lon="0.3268">
        <ele>116.4</ele>
        <time>2023-01-15T08:04:14Z</time>
      </trkpt>
      <trkpt lat="46.54535" lon="0.32672">
        <ele>116.8</ele>
        <time>2023-01-15T08:04:16Z</time>
      </trkpt>
      <trkpt lat="46.54534" lon="0.32668">
        <ele>116.8</ele>
        <time>2023-01-15T08:04:17Z</time>
      </trkpt>
      <trkpt lat="46.54532" lon="0.32653">
        <ele>118.4</ele>
        <time>2023-01-15T08:04:21Z</time>
      </trkpt>
      <trkpt lat="46.54531" lon="0.32646">
        <ele>118.8</ele>
        <time>2023-01-15T08:04:23Z</time>
      </trkpt>
      <trkpt lat="46.54527" lon="0.32631">
        <ele>119.6</ele>
        <time>2023-01-15T08:04:26Z</time>
      </trkpt>
      <trkpt lat="46.54525" lon="0.32619">
        <ele>120.6</ele>
        <time>2023-01-15T08:04:29Z</time>
      </trkpt>
      <trkpt lat="46.5452" lon="0.32595">
        <ele>121.8</ele>
        <time>2023-01-15T08:04:34Z</time>
      </trkpt>
      <trkpt lat="46.54519" lon="0.32581">
        <ele>122.4</ele>
        <time>2023-01-15T08:04:37Z</time>
      </trkpt>
      <trkpt lat="46.54519" lon="0.32566">
        <ele>123</ele>
        <time>2023-01-15T08:04:41Z</time>
      </trkpt>
      <trkpt lat="46.5452" lon="0.32559">
        <ele>123.2</ele>
        <time>2023-01-15T08:04:43Z</time>
      </trkpt>
      <trkpt lat="46.54524" lon="0.32539">
        <ele>123.6</ele>
        <time>2023-01-15T08:04:50Z</time>
      </trkpt>
      <trkpt lat="46.54527" lon="0.32523">
        <ele>124</ele>
        <time>2023-01-15T08:04:56Z</time>
      </trkpt>
      <trkpt lat="46.54527" lon="0.32521">
        <ele>124</ele>
        <time>2023-01-15T08:04:57Z</time>
      </trkpt>
      <trkpt lat="46.54527" lon="0.32519">
        <ele>124.2</ele>
        <time>2023-01-15T08:04:58Z</time>
      </trkpt>
      <trkpt lat="46.54527" lon="0.3251">
        <ele>124.2</ele>
        <time>2023-01-15T08:05:01Z</time>
      </trkpt>
      <trkpt lat="46.54527" lon="0.325">
        <ele>124.6</ele>
        <time>2023-01-15T08:05:04Z</time>
      </trkpt>
      <trkpt lat="46.54528" lon="0.32491">
        <ele>125</ele>
        <time>2023-01-15T08:05:08Z</time>
      </trkpt>
      <trkpt lat="46.54529" lon="0.32488">
        <ele>125</ele>
        <time>2023-01-15T08:05:10Z</time>
      </trkpt>
      <trkpt lat="46.54529" lon="0.32486">
        <ele>125</ele>
        <time>2023-01-15T08:05:11Z</time>
      </trkpt>
      <trkpt lat="46.54529" lon="0.32485">
        <ele>125</ele>
        <time>2023-01-15T08:05:12Z</time>
      </trkpt>
      <trkpt lat="46.54523" lon="0.32482">
        <ele>125.2</ele>
        <time>2023-01-15T08:05:17Z</time>
      </trkpt>
      <trkpt lat="46.54516" lon="0.32481">
        <ele>124.8</ele>
        <time>2023-01-15T08:05:21Z</time>
      </trkpt>
      <trkpt lat="46.54514" lon="0.32481">
        <ele>124.8</ele>
        <time>2023-01-15T08:05:22Z</time>
      </trkpt>
      <trkpt lat="46.54498" lon="0.32484">
        <ele>125.6</ele>
        <time>2023-01-15T08:05:28Z</time>
      </trkpt>
      <trkpt lat="46.5448" lon="0.32487">
        <ele>125.6</ele>
        <time>2023-01-15T08:05:34Z</time>
      </trkpt>
      <trkpt lat="46.54456" lon="0.32486">
        <ele>125.8</ele>
        <time>2023-01-15T08:05:40Z</time>
      </trkpt>
      <trkpt lat="46.54452" lon="0.32486">
        <ele>126</ele>
        <time>2023-01-15T08:05:41Z</time>
      </trkpt>
      <trkpt lat="46.54448" lon="0.32486">
        <ele>126</ele>
        <time>2023-01-15T08:05:42Z</time>
      </trkpt>
      <trkpt lat="46.54425" lon="0.32488">
        <ele>126.4</ele>
        <time>2023-01-15T08:05:47Z</time>
      </trkpt>
      <trkpt lat="46.54397" lon="0.32488">
        <ele>126.6</ele>
        <time>2023-01-15T08:05:54Z</time>
      </trkpt>
      <trkpt lat="46.54386" lon="0.3249">
        <ele>126.4</ele>
        <time>2023-01-15T08:05:57Z</time>
      </trkpt>
      <trkpt lat="46.54378" lon="0.32491">
        <ele>126.2</ele>
        <time>2023-01-15T08:05:59Z</time>
      </trkpt>
      <trkpt lat="46.54373" lon="0.32491">
        <ele>126</ele>
        <time>2023-01-15T08:06:00Z</time>
      </trkpt>
      <trkpt lat="46.54355" lon="0.32495">
        <ele>125.4</ele>
        <time>2023-01-15T08:06:04Z</time>
      </trkpt>
      <trkpt lat="46.54346" lon="0.32496">
        <ele>125</ele>
        <time>2023-01-15T08:06:06Z</time>
      </trkpt>
      <trkpt lat="46.54341" lon="0.32496">
        <ele>125</ele>
        <time>2023-01-15T08:06:07Z</time>
      </trkpt>
      <trkpt lat="46.54313" lon="0.32496">
        <ele>125.2</ele>
        <time>2023-01-15T08:06:13Z</time>
      </trkpt>
      <trkpt lat="46.54301" lon="0.325">
        <ele>125</ele>
        <time>2023-01-15T08:06:16Z</time>
      </trkpt>
      <trkpt lat="46.54291" lon="0.32501">
        <ele>124.4</ele>
        <time>2023-01-15T08:06:18Z</time>
      </trkpt>
      <trkpt lat="46.54282" lon="0.32501">
        <ele>123.8</ele>
        <time>2023-01-15T08:06:20Z</time>
      </trkpt>
      <trkpt lat="46.5426" lon="0.32504">
        <ele>122.8</ele>
        <time>2023-01-15T08:06:25Z</time>
      </trkpt>
      <trkpt lat="46.54249" lon="0.32504">
        <ele>122.2</ele>
        <time>2023-01-15T08:06:28Z</time>
      </trkpt>
      <trkpt lat="46.54245" lon="0.32499">
        <ele>122.2</ele>
        <time>2023-01-15T08:06:30Z</time>
      </trkpt>
      <trkpt lat="46.54237" lon="0.32483">
        <ele>123.2</ele>
        <time>2023-01-15T08:06:35Z</time>
      </trkpt>
      <trkpt lat="46.54236" lon="0.32479">
        <ele>123.4</ele>
        <time>2023-01-15T08:06:36Z</time>
      </trkpt>
      <trkpt lat="46.54233" lon="0.3247">
        <ele>123.8</ele>
        <time>2023-01-15T08:06:38Z</time>
      </trkpt>
      <trkpt lat="46.54233" lon="0.32466">
        <ele>124</ele>
        <time>2023-01-15T08:06:39Z</time>
      </trkpt>
      <trkpt lat="46.54232" lon="0.32462">
        <ele>124.2</ele>
        <time>2023-01-15T08:06:40Z</time>
      </trkpt>
      <trkpt lat="46.5423" lon="0.32458">
        <ele>124.2</ele>
        <time>2023-01-15T08:06:41Z</time>
      </trkpt>
      <trkpt lat="46.54227" lon="0.32449">
        <ele>124.6</ele>
        <time>2023-01-15T08:06:43Z</time>
      </trkpt>
      <trkpt lat="46.54224" lon="0.3244">
        <ele>125</ele>
        <time>2023-01-15T08:06:45Z</time>
      </trkpt>
      <trkpt lat="46.54223" lon="0.32435">
        <ele>125.2</ele>
        <time>2023-01-15T08:06:46Z</time>
      </trkpt>
      <trkpt lat="46.54216" lon="0.32393">
        <ele>125.6</ele>
        <time>2023-01-15T08:06:54Z</time>
      </trkpt>
      <trkpt lat="46.54216" lon="0.32366">
        <ele>125.8</ele>
        <time>2023-01-15T08:06:59Z</time>
      </trkpt>
      <trkpt lat="46.54216" lon="0.32366">
        <ele>126</ele>
        <time>2023-01-15T08:07:00Z</time>
      </trkpt>
      <trkpt lat="46.54216" lon="0.32354">
        <ele>126.2</ele>
        <time>2023-01-15T08:07:01Z</time>
      </trkpt>
      <trkpt lat="46.54216" lon="0.32337">
        <ele>126.6</ele>
        <time>2023-01-15T08:07:04Z</time>
      </trkpt>
      <trkpt lat="46.54216" lon="0.32326">
        <ele>127</ele>
        <time>2023-01-15T08:07:06Z</time>
      </trkpt>
      <trkpt lat="46.54217" lon="0.3232">
        <ele>127.2</ele>
        <time>2023-01-15T08:07:07Z</time>
      </trkpt>
      <trkpt lat="46.54221" lon="0.32297">
        <ele>127.4</ele>
        <time>2023-01-15T08:07:12Z</time>
      </trkpt>
      <trkpt lat="46.54234" lon="0.32291">
        <ele>128.2</ele>
        <time>2023-01-15T08:07:17Z</time>
      </trkpt>
      <trkpt lat="46.54251" lon="0.32291">
        <ele>128.4</ele>
        <time>2023-01-15T08:07:23Z</time>
      </trkpt>
      <trkpt lat="46.54265" lon="0.32292">
        <ele>128.6</ele>
        <time>2023-01-15T08:07:30Z</time>
      </trkpt>
      <trkpt lat="46.54268" lon="0.32293">
        <ele>128.6</ele>
        <time>2023-01-15T08:07:32Z</time>
      </trkpt>
      <trkpt lat="46.54276" lon="0.32298">
        <ele>128.6</ele>
        <time>2023-01-15T08:07:36Z</time>
      </trkpt>
      <trkpt lat="46.54292" lon="0.32313">
        <ele>128.6</ele>
        <time>2023-01-15T08:07:43Z</time>
      </trkpt>
      <trkpt lat="46.54299" lon="0.32318">
        <ele>128.4</ele>
        <time>2023-01-15T08:07:46Z</time>
      </trkpt>
      <trkpt lat="46.54303" lon="0.32323">
        <ele>128.4</ele>
        <time>2023-01-15T08:07:48Z</time>
      </trkpt>
      <trkpt lat="46.54307" lon="0.32326">
        <ele>128.2</ele>
        <time>2023-01-15T08:07:50Z</time>
      </trkpt>
      <trkpt lat="46.5431" lon="0.32329">
        <ele>128.4</ele>
        <time>2023-01-15T08:07:53Z</time>
      </trkpt>
      <trkpt lat="46.54311" lon="0.3233">
        <ele>128.4</ele>
        <time>2023-01-15T08:07:54Z</time>
      </trkpt>
      <trkpt lat="46.54309" lon="0.32334">
        <ele>128.4</ele>
        <time>2023-01-15T08:07:57Z</time>
      </trkpt>
      <trkpt lat="46.54305" lon="0.32339">
        <ele>128.4</ele>
        <time>2023-01-15T08:08:00Z</time>
      </trkpt>
      <trkpt lat="46.54303" lon="0.32344">
        <ele>128.2</ele>
        <time>2023-01-15T08:08:03Z</time>
      </trkpt>
      <trkpt lat="46.54304" lon="0.32347">
        <ele>128.2</ele>
        <time>2023-01-15T08:08:05Z</time>
      </trkpt>
      <trkpt lat="46.54307" lon="0.32349">
        <ele>128</ele>
        <time>2023-01-15T08:08:07Z</time>
      </trkpt>
      <trkpt lat="46.54316" lon="0.32359">
        <ele>128</ele>
        <time>2023-01-15T08:08:12Z</time>
      </trkpt>
      <trkpt lat="46.54321" lon="0.32363">
        <ele>128.2</ele>
        <time>2023-01-15T08:08:14Z</time>
      </trkpt>
      <trkpt lat="46.54323" lon="0.32365">
        <ele>128</ele>
        <time>2023-01-15T08:08:15Z</time>
      </trkpt>
      <trkpt lat="46.54333" lon="0.32371">
        <ele>128</ele>
        <time>2023-01-15T08:08:19Z</time>
      </trkpt>
      <trkpt lat="46.54336" lon="0.32373">
        <ele>127.8</ele>
        <time>2023-01-15T08:08:20Z</time>
      </trkpt>
      <trkpt lat="46.54341" lon="0.32373">
        <ele>127.8</ele>
        <time>2023-01-15T08:08:22Z</time>
      </trkpt>
      <trkpt lat="46.54347" lon="0.32377">
        <ele>127.8</ele>
        <time>2023-01-15T08:08:25Z</time>
      </trkpt>
      <trkpt lat="46.54358" lon="0.32379">
        <ele>128</ele>
        <time>2023-01-15T08:08:32Z</time>
      </trkpt>
      <trkpt lat="46.54362" lon="0.32377">
        <ele>128.4</ele>
        <time>2023-01-15T08:08:34Z</time>
      </trkpt>
      <trkpt lat="46.54373" lon="0.32373">
        <ele>128.4</ele>
        <time>2023-01-15T08:08:40Z</time>
      </trkpt>
      <trkpt lat="46.54381" lon="0.32376">
        <ele>128.2</ele>
        <time>2023-01-15T08:08:42Z</time>
      </trkpt>
      <trkpt lat="46.54402" lon="0.32381">
        <ele>128</ele>
        <time>2023-01-15T08:08:47Z</time>
      </trkpt>
      <trkpt lat="46.54418" lon="0.32381">
        <ele>127.8</ele>
        <time>2023-01-15T08:08:52Z</time>
      </trkpt>
      <trkpt lat="46.54435" lon="0.32392">
        <ele>127.6</ele>
        <time>2023-01-15T08:08:58Z</time>
      </trkpt>
      <trkpt lat="46.54438" lon="0.32395">
        <ele>127.2</ele>
        <time>2023-01-15T08:09:00Z</time>
      </trkpt>
      <trkpt lat="46.54445" lon="0.32404">
        <ele>127</ele>
        <time>2023-01-15T08:09:03Z</time>
      </trkpt>
      <trkpt lat="46.54458" lon="0.32419">
        <ele>126.4</ele>
        <time>2023-01-15T08:09:09Z</time>
      </trkpt>
      <trkpt lat="46.54459" lon="0.32422">
        <ele>126.4</ele>
        <time>2023-01-15T08:09:10Z</time>
      </trkpt>
      <trkpt lat="46.54466" lon="0.32437">
        <ele>126.2</ele>
        <time>2023-01-15T08:09:15Z</time>
      </trkpt>
      <trkpt lat="46.54468" lon="0.32441">
        <ele>126</ele>
        <time>2023-01-15T08:09:16Z</time>
      </trkpt>
      <trkpt lat="46.5447" lon="0.32444">
        <ele>126</ele>
        <time>2023-01-15T08:09:17Z</time>
      </trkpt>
      <trkpt lat="46.54475" lon="0.32445">
        <ele>125.8</ele>
        <time>2023-01-15T08:09:19Z</time>
      </trkpt>
      <trkpt lat="46.54476" lon="0.32443">
        <ele>125.8</ele>
        <time>2023-01-15T08:09:20Z</time>
      </trkpt>
      <trkpt lat="46.5448" lon="0.32444">
        <ele>125.6</ele>
        <time>2023-01-15T08:09:23Z</time>
      </trkpt>
      <trkpt lat="46.54484" lon="0.32446">
        <ele>125.4</ele>
        <time>2023-01-15T08:09:25Z</time>
      </trkpt>
      <trkpt lat="46.54489" lon="0.32446">
        <ele>125.2</ele>
        <time>2023-01-15T08:09:28Z</time>
      </trkpt>
      <trkpt lat="46.54492" lon="0.32447">
        <ele>125.2</ele>
        <time>2023-01-15T08:09:29Z</time>
      </trkpt>
      <trkpt lat="46.54494" lon="0.3245">
        <ele>125</ele>
        <time>2023-01-15T08:09:30Z</time>
      </trkpt>
      <trkpt lat="46.54499" lon="0.32454">
        <ele>125</ele>
        <time>2023-01-15T08:09:33Z</time>
      </trkpt>
      <trkpt lat="46.54505" lon="0.32455">
        <ele>124.8</ele>
        <time>2023-01-15T08:09:37Z</time>
      </trkpt>
      <trkpt lat="46.54509" lon="0.32455">
        <ele>124.6</ele>
        <time>2023-01-15T08:09:39Z</time>
      </trkpt>
      <trkpt lat="46.54519" lon="0.32452">
        <ele>124.4</ele>
        <time>2023-01-15T08:09:44Z</time>
      </trkpt>
      <trkpt lat="46.54521" lon="0.32451">
        <ele>124.4</ele>
        <time>2023-01-15T08:09:45Z</time>
      </trkpt>
      <trkpt lat="46.54524" lon="0.32451">
        <ele>124.6</ele>
        <time>2023-01-15T08:09:46Z</time>
      </trkpt>
      <trkpt lat="46.54531" lon="0.32439">
        <ele>124.6</ele>
        <time>2023-01-15T08:09:50Z</time>
      </trkpt>
      <trkpt lat="46.54555" lon="0.32414">
        <ele>124.8</ele>
        <time>2023-01-15T08:09:56Z</time>
      </trkpt>
      <trkpt lat="46.54591" lon="0.32388">
        <ele>124.8</ele>
        <time>2023-01-15T08:10:03Z</time>
      </trkpt>
      <trkpt lat="46.5462" lon="0.32368">
        <ele>124.6</ele>
        <time>2023-01-15T08:10:09Z</time>
      </trkpt>
      <trkpt lat="46.54629" lon="0.32361">
        <ele>124.6</ele>
        <time>2023-01-15T08:10:11Z</time>
      </trkpt>
      <trkpt lat="46.5465" lon="0.32338">
        <ele>124.6</ele>
        <time>2023-01-15T08:10:16Z</time>
      </trkpt>
      <trkpt lat="46.54684" lon="0.323">
        <ele>124.4</ele>
        <time>2023-01-15T08:10:24Z</time>
      </trkpt>
      <trkpt lat="46.54707" lon="0.32277">
        <ele>124.8</ele>
        <time>2023-01-15T08:10:29Z</time>
      </trkpt>
      <trkpt lat="46.54714" lon="0.32273">
        <ele>124.8</ele>
        <time>2023-01-15T08:10:30Z</time>
      </trkpt>
      <trkpt lat="46.54751" lon="0.32242">
        <ele>125</ele>
        <time>2023-01-15T08:10:38Z</time>
      </trkpt>
      <trkpt lat="46.54774" lon="0.32229">
        <ele>126</ele>
        <time>2023-01-15T08:10:43Z</time>
      </trkpt>
      <trkpt lat="46.54779" lon="0.32226">
        <ele>126.2</ele>
        <time>2023-01-15T08:10:44Z</time>
      </trkpt>
      <trkpt lat="46.54815" lon="0.3221">
        <ele>127</ele>
        <time>2023-01-15T08:10:52Z</time>
      </trkpt>
      <trkpt lat="46.54835" lon="0.32203">
        <ele>127.4</ele>
        <time>2023-01-15T08:10:56Z</time>
      </trkpt>
      <trkpt lat="46.5485" lon="0.32197">
        <ele>128</ele>
        <time>2023-01-15T08:10:59Z</time>
      </trkpt>
      <trkpt lat="46.54868" lon="0.32188">
        <ele>128.4</ele>
        <time>2023-01-15T08:11:03Z</time>
      </trkpt>
      <trkpt lat="46.54872" lon="0.32185">
        <ele>128.4</ele>
        <time>2023-01-15T08:11:04Z</time>
      </trkpt>
      <trkpt lat="46.54876" lon="0.32183">
        <ele>128.4</ele>
        <time>2023-01-15T08:11:05Z</time>
      </trkpt>
      <trkpt lat="46.54882" lon="0.32179">
        <ele>128.4</ele>
        <time>2023-01-15T08:11:07Z</time>
      </trkpt>
      <trkpt lat="46.54885" lon="0.32174">
        <ele>128.6</ele>
        <time>2023-01-15T08:11:09Z</time>
      </trkpt>
      <trkpt lat="46.54882" lon="0.3216">
        <ele>128.8</ele>
        <time>2023-01-15T08:11:13Z</time>
      </trkpt>
      <trkpt lat="46.54882" lon="0.32153">
        <ele>128.8</ele>
        <time>2023-01-15T08:11:15Z</time>
      </trkpt>
      <trkpt lat="46.54885" lon="0.32147">
        <ele>128.8</ele>
        <time>2023-01-15T08:11:17Z</time>
      </trkpt>
      <trkpt lat="46.54887" lon="0.32126">
        <ele>128.8</ele>
        <time>2023-01-15T08:11:21Z</time>
      </trkpt>
      <trkpt lat="46.54884" lon="0.32115">
        <ele>128.6</ele>
        <time>2023-01-15T08:11:23Z</time>
      </trkpt>
      <trkpt lat="46.5488" lon="0.32103">
        <ele>128.4</ele>
        <time>2023-01-15T08:11:25Z</time>
      </trkpt>
      <trkpt lat="46.54879" lon="0.32097">
        <ele>128.4</ele>
        <time>2023-01-15T08:11:26Z</time>
      </trkpt>
      <trkpt lat="46.54877" lon="0.32074">
        <ele>128.2</ele>
        <time>2023-01-15T08:11:30Z</time>
      </trkpt>
      <trkpt lat="46.54867" lon="0.32071">
        <ele>128</ele>
        <time>2023-01-15T08:11:33Z</time>
      </trkpt>
      <trkpt lat="46.54845" lon="0.32088">
        <ele>127.8</ele>
        <time>2023-01-15T08:11:38Z</time>
      </trkpt>
      <trkpt lat="46.54826" lon="0.32099">
        <ele>127.8</ele>
        <time>2023-01-15T08:11:42Z</time>
      </trkpt>
      <trkpt lat="46.54821" lon="0.321">
        <ele>127.8</ele>
        <time>2023-01-15T08:11:43Z</time>
      </trkpt>
      <trkpt lat="46.54816" lon="0.321">
        <ele>127.8</ele>
        <time>2023-01-15T08:11:44Z</time>
      </trkpt>
      <trkpt lat="46.5479" lon="0.32095">
        <ele>127.4</ele>
        <time>2023-01-15T08:11:49Z</time>
      </trkpt>
      <trkpt lat="46.5477" lon="0.3209">
        <ele>127</ele>
        <time>2023-01-15T08:11:53Z</time>
      </trkpt>
      <trkpt lat="46.5476" lon="0.32085">
        <ele>126.8</ele>
        <time>2023-01-15T08:11:55Z</time>
      </trkpt>
      <trkpt lat="46.54751" lon="0.32076">
        <ele>126.8</ele>
        <time>2023-01-15T08:11:57Z</time>
      </trkpt>
      <trkpt lat="46.54744" lon="0.32066">
        <ele>126.6</ele>
        <time>2023-01-15T08:11:59Z</time>
      </trkpt>
      <trkpt lat="46.54741" lon="0.32061">
        <ele>126.6</ele>
        <time>2023-01-15T08:12:00Z</time>
      </trkpt>
      <trkpt lat="46.54721" lon="0.32033">
        <ele>126.8</ele>
        <time>2023-01-15T08:12:06Z</time>
      </trkpt>
      <trkpt lat="46.54713" lon="0.32019">
        <ele>126.8</ele>
        <time>2023-01-15T08:12:09Z</time>
      </trkpt>
      <trkpt lat="46.54705" lon="0.32012">
        <ele>127.4</ele>
        <time>2023-01-15T08:12:11Z</time>
      </trkpt>
      <trkpt lat="46.547" lon="0.32009">
        <ele>127.6</ele>
        <time>2023-01-15T08:12:12Z</time>
      </trkpt>
      <trkpt lat="46.54691" lon="0.32008">
        <ele>128</ele>
        <time>2023-01-15T08:12:14Z</time>
      </trkpt>
      <trkpt lat="46.54686" lon="0.32008">
        <ele>128.4</ele>
        <time>2023-01-15T08:12:15Z</time>
      </trkpt>
      <trkpt lat="46.54653" lon="0.32005">
        <ele>129.4</ele>
        <time>2023-01-15T08:12:22Z</time>
      </trkpt>
      <trkpt lat="46.54648" lon="0.32005">
        <ele>129.6</ele>
        <time>2023-01-15T08:12:23Z</time>
      </trkpt>
      <trkpt lat="46.54634" lon="0.32005">
        <ele>130.2</ele>
        <time>2023-01-15T08:12:26Z</time>
      </trkpt>
      <trkpt lat="46.54626" lon="0.32007">
        <ele>130.2</ele>
        <time>2023-01-15T08:12:28Z</time>
      </trkpt>
      <trkpt lat="46.54593" lon="0.32013">
        <ele>130.4</ele>
        <time>2023-01-15T08:12:35Z</time>
      </trkpt>
      <trkpt lat="46.54557" lon="0.32009">
        <ele>130.4</ele>
        <time>2023-01-15T08:12:43Z</time>
      </trkpt>
      <trkpt lat="46.54548" lon="0.32005">
        <ele>130.2</ele>
        <time>2023-01-15T08:12:45Z</time>
      </trkpt>
      <trkpt lat="46.54536" lon="0.31998">
        <ele>130</ele>
        <time>2023-01-15T08:12:48Z</time>
      </trkpt>
      <trkpt lat="46.54523" lon="0.32002">
        <ele>130</ele>
        <time>2023-01-15T08:12:52Z</time>
      </trkpt>
      <trkpt lat="46.54507" lon="0.32025">
        <ele>129.6</ele>
        <time>2023-01-15T08:12:58Z</time>
      </trkpt>
      <trkpt lat="46.54499" lon="0.32036">
        <ele>129.2</ele>
        <time>2023-01-15T08:13:03Z</time>
      </trkpt>
      <trkpt lat="46.54494" lon="0.32037">
        <ele>129.2</ele>
        <time>2023-01-15T08:13:06Z</time>
      </trkpt>
      <trkpt lat="46.54493" lon="0.32035">
        <ele>129.2</ele>
        <time>2023-01-15T08:13:07Z</time>
      </trkpt>
      <trkpt lat="46.5449" lon="0.32027">
        <ele>129</ele>
        <time>2023-01-15T08:13:10Z</time>
      </trkpt>
      <trkpt lat="46.54484" lon="0.32015">
        <ele>128.8</ele>
        <time>2023-01-15T08:13:13Z</time>
      </trkpt>
      <trkpt lat="46.54483" lon="0.3201">
        <ele>128.8</ele>
        <time>2023-01-15T08:13:14Z</time>
      </trkpt>
      <trkpt lat="46.54482" lon="0.32007">
        <ele>128.8</ele>
        <time>2023-01-15T08:13:15Z</time>
      </trkpt>
      <trkpt lat="46.54479" lon="0.32003">
        <ele>128.4</ele>
        <time>2023-01-15T08:13:17Z</time>
      </trkpt>
      <trkpt lat="46.54477" lon="0.32001">
        <ele>128.2</ele>
        <time>2023-01-15T08:13:18Z</time>
      </trkpt>
      <trkpt lat="46.54474" lon="0.31996">
        <ele>128</ele>
        <time>2023-01-15T08:13:19Z</time>
      </trkpt>
      <trkpt lat="46.54469" lon="0.3198">
        <ele>127.2</ele>
        <time>2023-01-15T08:13:22Z</time>
      </trkpt>
      <trkpt lat="46.54458" lon="0.31946">
        <ele>126</ele>
        <time>2023-01-15T08:13:27Z</time>
      </trkpt>
      <trkpt lat="46.54449" lon="0.31901">
        <ele>125.4</ele>
        <time>2023-01-15T08:13:33Z</time>
      </trkpt>
      <trkpt lat="46.54444" lon="0.31868">
        <ele>125.8</ele>
        <time>2023-01-15T08:13:38Z</time>
      </trkpt>
      <trkpt lat="46.54442" lon="0.31856">
        <ele>126.2</ele>
        <time>2023-01-15T08:13:40Z</time>
      </trkpt>
      <trkpt lat="46.54438" lon="0.3185">
        <ele>126.4</ele>
        <time>2023-01-15T08:13:42Z</time>
      </trkpt>
      <trkpt lat="46.54435" lon="0.31849">
        <ele>126.6</ele>
        <time>2023-01-15T08:13:44Z</time>
      </trkpt>
      <trkpt lat="46.54431" lon="0.31849">
        <ele>127</ele>
        <time>2023-01-15T08:13:46Z</time>
      </trkpt>
      <trkpt lat="46.54429" lon="0.31849">
        <ele>127.2</ele>
        <time>2023-01-15T08:13:47Z</time>
      </trkpt>
      <trkpt lat="46.54427" lon="0.31847">
        <ele>127.6</ele>
        <time>2023-01-15T08:13:48Z</time>
      </trkpt>
      <trkpt lat="46.54424" lon="0.31842">
        <ele>128</ele>
        <time>2023-01-15T08:13:50Z</time>
      </trkpt>
      <trkpt lat="46.54423" lon="0.3184">
        <ele>128.4</ele>
        <time>2023-01-15T08:13:51Z</time>
      </trkpt>
      <trkpt lat="46.54418" lon="0.31826">
        <ele>129.4</ele>
        <time>2023-01-15T08:13:55Z</time>
      </trkpt>
      <trkpt lat="46.54416" lon="0.31817">
        <ele>129.4</ele>
        <time>2023-01-15T08:13:57Z</time>
      </trkpt>
      <trkpt lat="46.54411" lon="0.318">
        <ele>129.2</ele>
        <time>2023-01-15T08:14:03Z</time>
      </trkpt>
      <trkpt lat="46.54405" lon="0.31786">
        <ele>129.6</ele>
        <time>2023-01-15T08:14:08Z</time>
      </trkpt>
      <trkpt lat="46.54401" lon="0.31765">
        <ele>129.6</ele>
        <time>2023-01-15T08:14:16Z</time>
      </trkpt>
      <trkpt lat="46.54397" lon="0.31739">
        <ele>129.6</ele>
        <time>2023-01-15T08:14:24Z</time>
      </trkpt>
      <trkpt lat="46.54392" lon="0.31711">
        <ele>130.4</ele>
        <time>2023-01-15T08:14:31Z</time>
      </trkpt>
      <trkpt lat="46.54392" lon="0.31707">
        <ele>130.6</ele>
        <time>2023-01-15T08:14:32Z</time>
      </trkpt>
      <trkpt lat="46.54387" lon="0.31682">
        <ele>131.6</ele>
        <time>2023-01-15T08:14:39Z</time>
      </trkpt>
      <trkpt lat="46.54386" lon="0.31678">
        <ele>131.6</ele>
        <time>2023-01-15T08:14:40Z</time>
      </trkpt>
      <trkpt lat="46.54383" lon="0.31654">
        <ele>132.4</ele>
        <time>2023-01-15T08:14:46Z</time>
      </trkpt>
      <trkpt lat="46.54382" lon="0.31646">
        <ele>132.6</ele>
        <time>2023-01-15T08:14:48Z</time>
      </trkpt>
      <trkpt lat="46.5438" lon="0.3163">
        <ele>132.6</ele>
        <time>2023-01-15T08:14:52Z</time>
      </trkpt>
      <trkpt lat="46.54376" lon="0.31601">
        <ele>133.4</ele>
        <time>2023-01-15T08:15:00Z</time>
      </trkpt>
      <trkpt lat="46.54374" lon="0.31591">
        <ele>133.8</ele>
        <time>2023-01-15T08:15:03Z</time>
      </trkpt>
      <trkpt lat="46.54372" lon="0.3158">
        <ele>134</ele>
        <time>2023-01-15T08:15:06Z</time>
      </trkpt>
      <trkpt lat="46.54366" lon="0.31553">
        <ele>134.8</ele>
        <time>2023-01-15T08:15:13Z</time>
      </trkpt>
      <trkpt lat="46.54366" lon="0.31549">
        <ele>135</ele>
        <time>2023-01-15T08:15:14Z</time>
      </trkpt>
      <trkpt lat="46.54361" lon="0.31529">
        <ele>135.8</ele>
        <time>2023-01-15T08:15:19Z</time>
      </trkpt>
      <trkpt lat="46.54358" lon="0.31513">
        <ele>136</ele>
        <time>2023-01-15T08:15:23Z</time>
      </trkpt>
      <trkpt lat="46.54348" lon="0.31486">
        <ele>136.2</ele>
        <time>2023-01-15T08:15:31Z</time>
      </trkpt>
      <trkpt lat="46.54345" lon="0.31467">
        <ele>136.6</ele>
        <time>2023-01-15T08:15:37Z</time>
      </trkpt>
      <trkpt lat="46.54343" lon="0.3145">
        <ele>136.6</ele>
        <time>2023-01-15T08:15:42Z</time>
      </trkpt>
      <trkpt lat="46.54336" lon="0.31436">
        <ele>136.8</ele>
        <time>2023-01-15T08:15:47Z</time>
      </trkpt>
      <trkpt lat="46.54336" lon="0.31434">
        <ele>137</ele>
        <time>2023-01-15T08:15:48Z</time>
      </trkpt>
      <trkpt lat="46.54331" lon="0.31415">
        <ele>137.2</ele>
        <time>2023-01-15T08:15:55Z</time>
      </trkpt>
      <trkpt lat="46.54328" lon="0.31398">
        <ele>137.4</ele>
        <time>2023-01-15T08:16:01Z</time>
      </trkpt>
      <trkpt lat="46.54322" lon="0.3139">
        <ele>137.6</ele>
        <time>2023-01-15T08:16:07Z</time>
      </trkpt>
      <trkpt lat="46.54319" lon="0.31388">
        <ele>137.6</ele>
        <time>2023-01-15T08:16:09Z</time>
      </trkpt>
      <trkpt lat="46.54313" lon="0.31389">
        <ele>137.6</ele>
        <time>2023-01-15T08:16:12Z</time>
      </trkpt>
      <trkpt lat="46.54301" lon="0.31394">
        <ele>138</ele>
        <time>2023-01-15T08:16:17Z</time>
      </trkpt>
      <trkpt lat="46.54298" lon="0.31395">
        <ele>138</ele>
        <time>2023-01-15T08:16:18Z</time>
      </trkpt>
      <trkpt lat="46.5427" lon="0.31403">
        <ele>138.2</ele>
        <time>2023-01-15T08:16:25Z</time>
      </trkpt>
      <trkpt lat="46.54243" lon="0.31408">
        <ele>138</ele>
        <time>2023-01-15T08:16:31Z</time>
      </trkpt>
      <trkpt lat="46.54238" lon="0.31409">
        <ele>138</ele>
        <time>2023-01-15T08:16:32Z</time>
      </trkpt>
      <trkpt lat="46.54233" lon="0.31409">
        <ele>137.8</ele>
        <time>2023-01-15T08:16:33Z</time>
      </trkpt>
      <trkpt lat="46.54212" lon="0.3141">
        <ele>137.6</ele>
        <time>2023-01-15T08:16:37Z</time>
      </trkpt>
      <trkpt lat="46.54183" lon="0.31408">
        <ele>137.6</ele>
        <time>2023-01-15T08:16:43Z</time>
      </trkpt>
      <trkpt lat="46.54145" lon="0.31395">
        <ele>137.4</ele>
        <time>2023-01-15T08:16:51Z</time>
      </trkpt>
      <trkpt lat="46.54106" lon="0.31385">
        <ele>137</ele>
        <time>2023-01-15T08:16:59Z</time>
      </trkpt>
      <trkpt lat="46.54077" lon="0.31381">
        <ele>137</ele>
        <time>2023-01-15T08:17:05Z</time>
      </trkpt>
      <trkpt lat="46.54067" lon="0.3138">
        <ele>136.8</ele>
        <time>2023-01-15T08:17:07Z</time>
      </trkpt>
      <trkpt lat="46.54038" lon="0.31376">
        <ele>136.2</ele>
        <time>2023-01-15T08:17:12Z</time>
      </trkpt>
      <trkpt lat="46.54013" lon="0.31364">
        <ele>135.8</ele>
        <time>2023-01-15T08:17:17Z</time>
      </trkpt>
      <trkpt lat="46.54008" lon="0.31361">
        <ele>135.6</ele>
        <time>2023-01-15T08:17:18Z</time>
      </trkpt>
      <trkpt lat="46.53979" lon="0.31346">
        <ele>134.8</ele>
        <time>2023-01-15T08:17:24Z</time>
      </trkpt>
      <trkpt lat="46.53963" lon="0.31338">
        <ele>134.6</ele>
        <time>2023-01-15T08:17:27Z</time>
      </trkpt>
      <trkpt lat="46.53949" lon="0.31329">
        <ele>133.4</ele>
        <time>2023-01-15T08:17:30Z</time>
      </trkpt>
      <trkpt lat="46.53938" lon="0.31323">
        <ele>133.2</ele>
        <time>2023-01-15T08:17:32Z</time>
      </trkpt>
      <trkpt lat="46.53924" lon="0.31313">
        <ele>132</ele>
        <time>2023-01-15T08:17:35Z</time>
      </trkpt>
      <trkpt lat="46.53912" lon="0.31305">
        <ele>131.2</ele>
        <time>2023-01-15T08:17:37Z</time>
      </trkpt>
      <trkpt lat="46.53906" lon="0.313">
        <ele>131</ele>
        <time>2023-01-15T08:17:38Z</time>
      </trkpt>
      <trkpt lat="46.539" lon="0.31295">
        <ele>131</ele>
        <time>2023-01-15T08:17:39Z</time>
      </trkpt>
      <trkpt lat="46.53885" lon="0.31286">
        <ele>130.6</ele>
        <time>2023-01-15T08:17:42Z</time>
      </trkpt>
      <trkpt lat="46.53876" lon="0.31282">
        <ele>130</ele>
        <time>2023-01-15T08:17:44Z</time>
      </trkpt>
      <trkpt lat="46.53873" lon="0.3128">
        <ele>129.8</ele>
        <time>2023-01-15T08:17:45Z</time>
      </trkpt>
      <trkpt lat="46.53861" lon="0.31271">
        <ele>129.6</ele>
        <time>2023-01-15T08:17:49Z</time>
      </trkpt>
      <trkpt lat="46.53837" lon="0.31252">
        <ele>130.2</ele>
        <time>2023-01-15T08:17:55Z</time>
      </trkpt>
      <trkpt lat="46.53824" lon="0.31239">
        <ele>130.6</ele>
        <time>2023-01-15T08:17:58Z</time>
      </trkpt>
      <trkpt lat="46.53819" lon="0.31232">
        <ele>130.8</ele>
        <time>2023-01-15T08:17:59Z</time>
      </trkpt>
      <trkpt lat="46.53815" lon="0.31227">
        <ele>131</ele>
        <time>2023-01-15T08:18:00Z</time>
      </trkpt>
      <trkpt lat="46.53811" lon="0.31221">
        <ele>131.2</ele>
        <time>2023-01-15T08:18:01Z</time>
      </trkpt>
      <trkpt lat="46.53797" lon="0.31203">
        <ele>132.2</ele>
        <time>2023-01-15T08:18:05Z</time>
      </trkpt>
      <trkpt lat="46.53794" lon="0.31199">
        <ele>132.6</ele>
        <time>2023-01-15T08:18:06Z</time>
      </trkpt>
      <trkpt lat="46.53784" lon="0.31184">
        <ele>133.4</ele>
        <time>2023-01-15T08:18:09Z</time>
      </trkpt>
      <trkpt lat="46.5378" lon="0.31179">
        <ele>133.6</ele>
        <time>2023-01-15T08:18:10Z</time>
      </trkpt>
      <trkpt lat="46.5376" lon="0.31148">
        <ele>134.4</ele>
        <time>2023-01-15T08:18:16Z</time>
      </trkpt>
      <trkpt lat="46.53758" lon="0.31143">
        <ele>134.6</ele>
        <time>2023-01-15T08:18:17Z</time>
      </trkpt>
      <trkpt lat="46.53752" lon="0.31134">
        <ele>134.8</ele>
        <time>2023-01-15T08:18:19Z</time>
      </trkpt>
      <trkpt lat="46.53745" lon="0.31118">
        <ele>134.6</ele>
        <time>2023-01-15T08:18:22Z</time>
      </trkpt>
      <trkpt lat="46.53734" lon="0.31094">
        <ele>135.2</ele>
        <time>2023-01-15T08:18:27Z</time>
      </trkpt>
      <trkpt lat="46.53731" lon="0.31088">
        <ele>135.4</ele>
        <time>2023-01-15T08:18:28Z</time>
      </trkpt>
      <trkpt lat="46.53728" lon="0.31083">
        <ele>135.4</ele>
        <time>2023-01-15T08:18:29Z</time>
      </trkpt>
      <trkpt lat="46.53724" lon="0.31072">
        <ele>135.6</ele>
        <time>2023-01-15T08:18:31Z</time>
      </trkpt>
      <trkpt lat="46.53719" lon="0.31063">
        <ele>136</ele>
        <time>2023-01-15T08:18:33Z</time>
      </trkpt>
      <trkpt lat="46.53715" lon="0.31058">
        <ele>136.2</ele>
        <time>2023-01-15T08:18:34Z</time>
      </trkpt>
      <trkpt lat="46.53703" lon="0.31039">
        <ele>136.6</ele>
        <time>2023-01-15T08:18:38Z</time>
      </trkpt>
      <trkpt lat="46.53694" lon="0.31022">
        <ele>136.8</ele>
        <time>2023-01-15T08:18:41Z</time>
      </trkpt>
      <trkpt lat="46.53689" lon="0.31011">
        <ele>136.8</ele>
        <time>2023-01-15T08:18:43Z</time>
      </trkpt>
      <trkpt lat="46.53685" lon="0.31001">
        <ele>137</ele>
        <time>2023-01-15T08:18:45Z</time>
      </trkpt>
      <trkpt lat="46.53684" lon="0.30996">
        <ele>137</ele>
        <time>2023-01-15T08:18:46Z</time>
      </trkpt>
      <trkpt lat="46.53683" lon="0.30991">
        <ele>137</ele>
        <time>2023-01-15T08:18:47Z</time>
      </trkpt>
      <trkpt lat="46.53674" lon="0.30959">
        <ele>137.2</ele>
        <time>2023-01-15T08:18:52Z</time>
      </trkpt>
      <trkpt lat="46.53673" lon="0.30953">
        <ele>137.2</ele>
        <time>2023-01-15T08:18:53Z</time>
      </trkpt>
      <trkpt lat="46.53669" lon="0.30931">
        <ele>137.2</ele>
        <time>2023-01-15T08:18:57Z</time>
      </trkpt>
      <trkpt lat="46.53664" lon="0.3091">
        <ele>137.2</ele>
        <time>2023-01-15T08:19:01Z</time>
      </trkpt>
      <trkpt lat="46.53658" lon="0.30895">
        <ele>137.2</ele>
        <time>2023-01-15T08:19:04Z</time>
      </trkpt>
      <trkpt lat="46.53646" lon="0.30866">
        <ele>137.2</ele>
        <time>2023-01-15T08:19:09Z</time>
      </trkpt>
      <trkpt lat="46.53632" lon="0.30838">
        <ele>136.2</ele>
        <time>2023-01-15T08:19:13Z</time>
      </trkpt>
      <trkpt lat="46.53629" lon="0.30832">
        <ele>136</ele>
        <time>2023-01-15T08:19:14Z</time>
      </trkpt>
      <trkpt lat="46.53619" lon="0.30812">
        <ele>135.4</ele>
        <time>2023-01-15T08:19:18Z</time>
      </trkpt>
      <trkpt lat="46.53614" lon="0.30805">
        <ele>135.2</ele>
        <time>2023-01-15T08:19:20Z</time>
      </trkpt>
      <trkpt lat="46.53604" lon="0.30796">
        <ele>134.4</ele>
        <time>2023-01-15T08:19:23Z</time>
      </trkpt>
      <trkpt lat="46.53596" lon="0.30792">
        <ele>133.2</ele>
        <time>2023-01-15T08:19:25Z</time>
      </trkpt>
      <trkpt lat="46.53591" lon="0.30791">
        <ele>132.8</ele>
        <time>2023-01-15T08:19:26Z</time>
      </trkpt>
      <trkpt lat="46.53586" lon="0.30789">
        <ele>132.2</ele>
        <time>2023-01-15T08:19:27Z</time>
      </trkpt>
      <trkpt lat="46.5358" lon="0.30788">
        <ele>132</ele>
        <time>2023-01-15T08:19:28Z</time>
      </trkpt>
      <trkpt lat="46.53562" lon="0.30783">
        <ele>130.6</ele>
        <time>2023-01-15T08:19:31Z</time>
      </trkpt>
      <trkpt lat="46.53545" lon="0.30778">
        <ele>129.4</ele>
        <time>2023-01-15T08:19:34Z</time>
      </trkpt>
      <trkpt lat="46.5354" lon="0.30776">
        <ele>128.6</ele>
        <time>2023-01-15T08:19:35Z</time>
      </trkpt>
      <trkpt lat="46.53535" lon="0.30777">
        <ele>127.8</ele>
        <time>2023-01-15T08:19:36Z</time>
      </trkpt>
      <trkpt lat="46.5353" lon="0.30776">
        <ele>126.8</ele>
        <time>2023-01-15T08:19:37Z</time>
      </trkpt>
      <trkpt lat="46.53515" lon="0.30776">
        <ele>125.4</ele>
        <time>2023-01-15T08:19:40Z</time>
      </trkpt>
      <trkpt lat="46.53511" lon="0.30776">
        <ele>124.8</ele>
        <time>2023-01-15T08:19:41Z</time>
      </trkpt>
      <trkpt lat="46.53507" lon="0.30775">
        <ele>124.4</ele>
        <time>2023-01-15T08:19:42Z</time>
      </trkpt>
      <trkpt lat="46.53496" lon="0.30775">
        <ele>123</ele>
        <time>2023-01-15T08:19:45Z</time>
      </trkpt>
      <trkpt lat="46.53482" lon="0.30775">
        <ele>121.4</ele>
        <time>2023-01-15T08:19:48Z</time>
      </trkpt>
      <trkpt lat="46.5347" lon="0.30775">
        <ele>120.2</ele>
        <time>2023-01-15T08:19:51Z</time>
      </trkpt>
      <trkpt lat="46.53462" lon="0.30775">
        <ele>119.2</ele>
        <time>2023-01-15T08:19:53Z</time>
      </trkpt>
      <trkpt lat="46.53452" lon="0.30776">
        <ele>118.2</ele>
        <time>2023-01-15T08:19:55Z</time>
      </trkpt>
      <trkpt lat="46.53444" lon="0.30777">
        <ele>117.4</ele>
        <time>2023-01-15T08:19:57Z</time>
      </trkpt>
      <trkpt lat="46.5344" lon="0.30778">
        <ele>117</ele>
        <time>2023-01-15T08:19:58Z</time>
      </trkpt>
      <trkpt lat="46.53427" lon="0.3078">
        <ele>116</ele>
        <time>2023-01-15T08:20:01Z</time>
      </trkpt>
      <trkpt lat="46.53417" lon="0.30782">
        <ele>115</ele>
        <time>2023-01-15T08:20:03Z</time>
      </trkpt>
      <trkpt lat="46.53412" lon="0.30782">
        <ele>114.8</ele>
        <time>2023-01-15T08:20:04Z</time>
      </trkpt>
      <trkpt lat="46.53402" lon="0.30785">
        <ele>114.4</ele>
        <time>2023-01-15T08:20:06Z</time>
      </trkpt>
      <trkpt lat="46.53388" lon="0.30786">
        <ele>114.4</ele>
        <time>2023-01-15T08:20:09Z</time>
      </trkpt>
      <trkpt lat="46.53384" lon="0.30786">
        <ele>113.8</ele>
        <time>2023-01-15T08:20:10Z</time>
      </trkpt>
      <trkpt lat="46.53372" lon="0.30789">
        <ele>113</ele>
        <time>2023-01-15T08:20:13Z</time>
      </trkpt>
      <trkpt lat="46.53367" lon="0.30794">
        <ele>112.6</ele>
        <time>2023-01-15T08:20:15Z</time>
      </trkpt>
      <trkpt lat="46.53353" lon="0.30806">
        <ele>111.6</ele>
        <time>2023-01-15T08:20:19Z</time>
      </trkpt>
      <trkpt lat="46.53346" lon="0.30811">
        <ele>111.2</ele>
        <time>2023-01-15T08:20:21Z</time>
      </trkpt>
      <trkpt lat="46.53336" lon="0.30812">
        <ele>111</ele>
        <time>2023-01-15T08:20:23Z</time>
      </trkpt>
      <trkpt lat="46.53326" lon="0.30813">
        <ele>110.6</ele>
        <time>2023-01-15T08:20:25Z</time>
      </trkpt>
      <trkpt lat="46.53312" lon="0.30814">
        <ele>109.4</ele>
        <time>2023-01-15T08:20:27Z</time>
      </trkpt>
      <trkpt lat="46.53297" lon="0.30823">
        <ele>108.6</ele>
        <time>2023-01-15T08:20:31Z</time>
      </trkpt>
      <trkpt lat="46.53295" lon="0.30827">
        <ele>108.6</ele>
        <time>2023-01-15T08:20:32Z</time>
      </trkpt>
      <trkpt lat="46.53289" lon="0.30826">
        <ele>108.2</ele>
        <time>2023-01-15T08:20:33Z</time>
      </trkpt>
      <trkpt lat="46.53286" lon="0.30829">
        <ele>108</ele>
        <time>2023-01-15T08:20:34Z</time>
      </trkpt>
      <trkpt lat="46.53282" lon="0.30831">
        <ele>108</ele>
        <time>2023-01-15T08:20:35Z</time>
      </trkpt>
      <trkpt lat="46.53271" lon="0.30838">
        <ele>107.4</ele>
        <time>2023-01-15T08:20:38Z</time>
      </trkpt>
      <trkpt lat="46.53263" lon="0.30841">
        <ele>107.4</ele>
        <time>2023-01-15T08:20:40Z</time>
      </trkpt>
      <trkpt lat="46.5326" lon="0.30843">
        <ele>107.2</ele>
        <time>2023-01-15T08:20:41Z</time>
      </trkpt>
      <trkpt lat="46.53249" lon="0.30849">
        <ele>107.2</ele>
        <time>2023-01-15T08:20:44Z</time>
      </trkpt>
      <trkpt lat="46.53245" lon="0.30852">
        <ele>107</ele>
        <time>2023-01-15T08:20:45Z</time>
      </trkpt>
      <trkpt lat="46.53241" lon="0.30856">
        <ele>106.8</ele>
        <time>2023-01-15T08:20:46Z</time>
      </trkpt>
      <trkpt lat="46.53237" lon="0.30859">
        <ele>106.6</ele>
        <time>2023-01-15T08:20:47Z</time>
      </trkpt>
      <trkpt lat="46.5323" lon="0.30867">
        <ele>106.4</ele>
        <time>2023-01-15T08:20:49Z</time>
      </trkpt>
      <trkpt lat="46.53224" lon="0.30875">
        <ele>106.2</ele>
        <time>2023-01-15T08:20:51Z</time>
      </trkpt>
      <trkpt lat="46.53219" lon="0.30882">
        <ele>105.8</ele>
        <time>2023-01-15T08:20:52Z</time>
      </trkpt>
      <trkpt lat="46.53215" lon="0.30887">
        <ele>105.4</ele>
        <time>2023-01-15T08:20:53Z</time>
      </trkpt>
      <trkpt lat="46.5321" lon="0.30892">
        <ele>104.8</ele>
        <time>2023-01-15T08:20:54Z</time>
      </trkpt>
      <trkpt lat="46.53204" lon="0.30898">
        <ele>104</ele>
        <time>2023-01-15T08:20:55Z</time>
      </trkpt>
      <trkpt lat="46.532" lon="0.30904">
        <ele>103.6</ele>
        <time>2023-01-15T08:20:56Z</time>
      </trkpt>
      <trkpt lat="46.53189" lon="0.30917">
        <ele>102.2</ele>
        <time>2023-01-15T08:20:58Z</time>
      </trkpt>
      <trkpt lat="46.53175" lon="0.30935">
        <ele>100.8</ele>
        <time>2023-01-15T08:21:01Z</time>
      </trkpt>
      <trkpt lat="46.53157" lon="0.30967">
        <ele>99.6</ele>
        <time>2023-01-15T08:21:05Z</time>
      </trkpt>
      <trkpt lat="46.53147" lon="0.30985">
        <ele>98.2</ele>
        <time>2023-01-15T08:21:08Z</time>
      </trkpt>
      <trkpt lat="46.5314" lon="0.30996">
        <ele>97.8</ele>
        <time>2023-01-15T08:21:10Z</time>
      </trkpt>
      <trkpt lat="46.53132" lon="0.31005">
        <ele>97</ele>
        <time>2023-01-15T08:21:12Z</time>
      </trkpt>
      <trkpt lat="46.53129" lon="0.3101">
        <ele>96.6</ele>
        <time>2023-01-15T08:21:13Z</time>
      </trkpt>
      <trkpt lat="46.53119" lon="0.31022">
        <ele>95</ele>
        <time>2023-01-15T08:21:16Z</time>
      </trkpt>
      <trkpt lat="46.53112" lon="0.31029">
        <ele>93.8</ele>
        <time>2023-01-15T08:21:18Z</time>
      </trkpt>
      <trkpt lat="46.53108" lon="0.31032">
        <ele>93.6</ele>
        <time>2023-01-15T08:21:19Z</time>
      </trkpt>
      <trkpt lat="46.53092" lon="0.31047">
        <ele>92.2</ele>
        <time>2023-01-15T08:21:23Z</time>
      </trkpt>
      <trkpt lat="46.53089" lon="0.31053">
        <ele>91.8</ele>
        <time>2023-01-15T08:21:24Z</time>
      </trkpt>
      <trkpt lat="46.53081" lon="0.31062">
        <ele>91.4</ele>
        <time>2023-01-15T08:21:26Z</time>
      </trkpt>
      <trkpt lat="46.53077" lon="0.31066">
        <ele>90.8</ele>
        <time>2023-01-15T08:21:27Z</time>
      </trkpt>
      <trkpt lat="46.53067" lon="0.31078">
        <ele>89.8</ele>
        <time>2023-01-15T08:21:30Z</time>
      </trkpt>
      <trkpt lat="46.53062" lon="0.31085">
        <ele>89.2</ele>
        <time>2023-01-15T08:21:32Z</time>
      </trkpt>
      <trkpt lat="46.53057" lon="0.31091">
        <ele>89</ele>
        <time>2023-01-15T08:21:34Z</time>
      </trkpt>
      <trkpt lat="46.53053" lon="0.31096">
        <ele>88.6</ele>
        <time>2023-01-15T08:21:35Z</time>
      </trkpt>
      <trkpt lat="46.53046" lon="0.31107">
        <ele>87.8</ele>
        <time>2023-01-15T08:21:37Z</time>
      </trkpt>
      <trkpt lat="46.53043" lon="0.31112">
        <ele>87.6</ele>
        <time>2023-01-15T08:21:38Z</time>
      </trkpt>
      <trkpt lat="46.53041" lon="0.31117">
        <ele>87.6</ele>
        <time>2023-01-15T08:21:39Z</time>
      </trkpt>
      <trkpt lat="46.53031" lon="0.31143">
        <ele>86.8</ele>
        <time>2023-01-15T08:21:43Z</time>
      </trkpt>
      <trkpt lat="46.53029" lon="0.31149">
        <ele>86.2</ele>
        <time>2023-01-15T08:21:44Z</time>
      </trkpt>
      <trkpt lat="46.53025" lon="0.31157">
        <ele>85.8</ele>
        <time>2023-01-15T08:21:45Z</time>
      </trkpt>
      <trkpt lat="46.53016" lon="0.31173">
        <ele>84.8</ele>
        <time>2023-01-15T08:21:48Z</time>
      </trkpt>
      <trkpt lat="46.53005" lon="0.31189">
        <ele>83.8</ele>
        <time>2023-01-15T08:21:52Z</time>
      </trkpt>
      <trkpt lat="46.53003" lon="0.31191">
        <ele>83.6</ele>
        <time>2023-01-15T08:21:53Z</time>
      </trkpt>
      <trkpt lat="46.53" lon="0.31198">
        <ele>83.4</ele>
        <time>2023-01-15T08:21:54Z</time>
      </trkpt>
      <trkpt lat="46.52995" lon="0.31206">
        <ele>83.4</ele>
        <time>2023-01-15T08:21:56Z</time>
      </trkpt>
      <trkpt lat="46.52989" lon="0.31221">
        <ele>83</ele>
        <time>2023-01-15T08:22:03Z</time>
      </trkpt>
      <trkpt lat="46.52983" lon="0.3123">
        <ele>83.2</ele>
        <time>2023-01-15T08:22:14Z</time>
      </trkpt>
      <trkpt lat="46.52981" lon="0.31237">
        <ele>83</ele>
        <time>2023-01-15T08:22:26Z</time>
      </trkpt>
      <trkpt lat="46.52979" lon="0.31237">
        <ele>82.8</ele>
        <time>2023-01-15T08:22:29Z</time>
      </trkpt>
      <trkpt lat="46.52978" lon="0.31237">
        <ele>82.8</ele>
        <time>2023-01-15T08:22:32Z</time>
      </trkpt>
      <trkpt lat="46.52977" lon="0.31238">
        <ele>82.6</ele>
        <time>2023-01-15T08:22:35Z</time>
      </trkpt>
      <trkpt lat="46.52972" lon="0.31239">
        <ele>83</ele>
        <time>2023-01-15T08:22:48Z</time>
      </trkpt>
      <trkpt lat="46.52966" lon="0.31236">
        <ele>83</ele>
        <time>2023-01-15T08:23:02Z</time>
      </trkpt>
      <trkpt lat="46.52963" lon="0.31236">
        <ele>83</ele>
        <time>2023-01-15T08:23:15Z</time>
      </trkpt>
      <trkpt lat="46.52963" lon="0.31236">
        <ele>83</ele>
        <time>2023-01-15T08:23:17Z</time>
      </trkpt>
      <trkpt lat="46.52963" lon="0.3124">
        <ele>82.8</ele>
        <time>2023-01-15T08:23:29Z</time>
      </trkpt>
      <trkpt lat="46.5296" lon="0.31242">
        <ele>82.6</ele>
        <time>2023-01-15T08:23:42Z</time>
      </trkpt>
      <trkpt lat="46.5296" lon="0.31242">
        <ele>82.4</ele>
        <time>2023-01-15T08:23:57Z</time>
      </trkpt>
      <trkpt lat="46.52958" lon="0.31246">
        <ele>82.6</ele>
        <time>2023-01-15T08:24:11Z</time>
      </trkpt>
      <trkpt lat="46.52956" lon="0.31248">
        <ele>83</ele>
        <time>2023-01-15T08:24:29Z</time>
      </trkpt>
      <trkpt lat="46.52956" lon="0.31248">
        <ele>83</ele>
        <time>2023-01-15T08:24:44Z</time>
      </trkpt>
      <trkpt lat="46.52955" lon="0.31252">
        <ele>83</ele>
        <time>2023-01-15T08:24:59Z</time>
      </trkpt>
      <trkpt lat="46.52951" lon="0.31248">
        <ele>83</ele>
        <time>2023-01-15T08:25:14Z</time>
      </trkpt>
      <trkpt lat="46.52943" lon="0.31254">
        <ele>83</ele>
        <time>2023-01-15T08:25:31Z</time>
      </trkpt>
      <trkpt lat="46.52943" lon="0.31259">
        <ele>83</ele>
        <time>2023-01-15T08:25:43Z</time>
      </trkpt>
      <trkpt lat="46.52938" lon="0.31269">
        <ele>83</ele>
        <time>2023-01-15T08:25:54Z</time>
      </trkpt>
      <trkpt lat="46.52932" lon="0.31267">
        <ele>83</ele>
        <time>2023-01-15T08:26:08Z</time>
      </trkpt>
      <trkpt lat="46.52927" lon="0.31256">
        <ele>83</ele>
        <time>2023-01-15T08:26:18Z</time>
      </trkpt>
      <trkpt lat="46.52925" lon="0.31253">
        <ele>83</ele>
        <time>2023-01-15T08:26:20Z</time>
      </trkpt>
      <trkpt lat="46.52916" lon="0.31238">
        <ele>83.8</ele>
        <time>2023-01-15T08:26:28Z</time>
      </trkpt>
      <trkpt lat="46.52912" lon="0.31229">
        <ele>84.4</ele>
        <time>2023-01-15T08:26:32Z</time>
      </trkpt>
      <trkpt lat="46.52902" lon="0.31216">
        <ele>84.8</ele>
        <time>2023-01-15T08:26:37Z</time>
      </trkpt>
      <trkpt lat="46.52887" lon="0.31195">
        <ele>85.2</ele>
        <time>2023-01-15T08:26:44Z</time>
      </trkpt>
      <trkpt lat="46.52879" lon="0.31179">
        <ele>85.8</ele>
        <time>2023-01-15T08:26:50Z</time>
      </trkpt>
      <trkpt lat="46.52875" lon="0.3117">
        <ele>85.8</ele>
        <time>2023-01-15T08:26:54Z</time>
      </trkpt>
      <trkpt lat="46.52873" lon="0.31166">
        <ele>86</ele>
        <time>2023-01-15T08:26:57Z</time>
      </trkpt>
      <trkpt lat="46.52871" lon="0.31163">
        <ele>86.4</ele>
        <time>2023-01-15T08:26:59Z</time>
      </trkpt>
      <trkpt lat="46.52866" lon="0.31154">
        <ele>87</ele>
        <time>2023-01-15T08:27:03Z</time>
      </trkpt>
      <trkpt lat="46.52854" lon="0.31136">
        <ele>87.2</ele>
        <time>2023-01-15T08:27:10Z</time>
      </trkpt>
      <trkpt lat="46.52848" lon="0.31126">
        <ele>88.2</ele>
        <time>2023-01-15T08:27:13Z</time>
      </trkpt>
      <trkpt lat="46.52841" lon="0.31114">
        <ele>88.6</ele>
        <time>2023-01-15T08:27:18Z</time>
      </trkpt>
      <trkpt lat="46.52837" lon="0.31108">
        <ele>89.2</ele>
        <time>2023-01-15T08:27:21Z</time>
      </trkpt>
      <trkpt lat="46.52832" lon="0.311">
        <ele>89.4</ele>
        <time>2023-01-15T08:27:24Z</time>
      </trkpt>
      <trkpt lat="46.52826" lon="0.31087">
        <ele>89.8</ele>
        <time>2023-01-15T08:27:30Z</time>
      </trkpt>
      <trkpt lat="46.52824" lon="0.31083">
        <ele>90.2</ele>
        <time>2023-01-15T08:27:32Z</time>
      </trkpt>
      <trkpt lat="46.52817" lon="0.31069">
        <ele>90.8</ele>
        <time>2023-01-15T08:27:38Z</time>
      </trkpt>
      <trkpt lat="46.52813" lon="0.3106">
        <ele>91.6</ele>
        <time>2023-01-15T08:27:42Z</time>
      </trkpt>
      <trkpt lat="46.5281" lon="0.31052">
        <ele>92</ele>
        <time>2023-01-15T08:27:45Z</time>
      </trkpt>
      <trkpt lat="46.52806" lon="0.31044">
        <ele>92.6</ele>
        <time>2023-01-15T08:27:49Z</time>
      </trkpt>
      <trkpt lat="46.52803" lon="0.31036">
        <ele>93.2</ele>
        <time>2023-01-15T08:27:53Z</time>
      </trkpt>
      <trkpt lat="46.52799" lon="0.31028">
        <ele>93.8</ele>
        <time>2023-01-15T08:27:57Z</time>
      </trkpt>
      <trkpt lat="46.52794" lon="0.31021">
        <ele>94.2</ele>
        <time>2023-01-15T08:28:01Z</time>
      </trkpt>
      <trkpt lat="46.52793" lon="0.31019">
        <ele>94.8</ele>
        <time>2023-01-15T08:28:04Z</time>
      </trkpt>
      <trkpt lat="46.52792" lon="0.31017">
        <ele>95</ele>
        <time>2023-01-15T08:28:05Z</time>
      </trkpt>
      <trkpt lat="46.52791" lon="0.31014">
        <ele>95.2</ele>
        <time>2023-01-15T08:28:07Z</time>
      </trkpt>
      <trkpt lat="46.5279" lon="0.3101">
        <ele>95.4</ele>
        <time>2023-01-15T08:28:11Z</time>
      </trkpt>
      <trkpt lat="46.52789" lon="0.31008">
        <ele>95.4</ele>
        <time>2023-01-15T08:28:13Z</time>
      </trkpt>
      <trkpt lat="46.52786" lon="0.31001">
        <ele>95.8</ele>
        <time>2023-01-15T08:28:17Z</time>
      </trkpt>
      <trkpt lat="46.52786" lon="0.31">
        <ele>96</ele>
        <time>2023-01-15T08:28:18Z</time>
      </trkpt>
      <trkpt lat="46.52784" lon="0.30995">
        <ele>96.6</ele>
        <time>2023-01-15T08:28:21Z</time>
      </trkpt>
      <trkpt lat="46.52783" lon="0.30992">
        <ele>97</ele>
        <time>2023-01-15T08:28:23Z</time>
      </trkpt>
      <trkpt lat="46.52782" lon="0.3099">
        <ele>97.2</ele>
        <time>2023-01-15T08:28:24Z</time>
      </trkpt>
      <trkpt lat="46.52777" lon="0.30979">
        <ele>98</ele>
        <time>2023-01-15T08:28:30Z</time>
      </trkpt>
      <trkpt lat="46.52777" lon="0.30978">
        <ele>98.2</ele>
        <time>2023-01-15T08:28:31Z</time>
      </trkpt>
      <trkpt lat="46.52774" lon="0.30972">
        <ele>99.2</ele>
        <time>2023-01-15T08:28:34Z</time>
      </trkpt>
      <trkpt lat="46.52771" lon="0.3096">
        <ele>100.2</ele>
        <time>2023-01-15T08:28:42Z</time>
      </trkpt>
      <trkpt lat="46.52771" lon="0.3096">
        <ele>100.4</ele>
        <time>2023-01-15T08:28:43Z</time>
      </trkpt>
      <trkpt lat="46.52766" lon="0.30949">
        <ele>101</ele>
        <time>2023-01-15T08:28:52Z</time>
      </trkpt>
      <trkpt lat="46.52766" lon="0.30947">
        <ele>101.2</ele>
        <time>2023-01-15T08:28:53Z</time>
      </trkpt>
      <trkpt lat="46.52765" lon="0.30946">
        <ele>101.2</ele>
        <time>2023-01-15T08:28:54Z</time>
      </trkpt>
      <trkpt lat="46.52762" lon="0.30937">
        <ele>102.4</ele>
        <time>2023-01-15T08:29:02Z</time>
      </trkpt>
      <trkpt lat="46.52761" lon="0.30933">
        <ele>102.8</ele>
        <time>2023-01-15T08:29:05Z</time>
      </trkpt>
      <trkpt lat="46.5276" lon="0.30929">
        <ele>103.2</ele>
        <time>2023-01-15T08:29:09Z</time>
      </trkpt>
      <trkpt lat="46.5276" lon="0.30928">
        <ele>103.4</ele>
        <time>2023-01-15T08:29:11Z</time>
      </trkpt>
      <trkpt lat="46.5276" lon="0.30928">
        <ele>103.4</ele>
        <time>2023-01-15T08:29:13Z</time>
      </trkpt>
      <trkpt lat="46.5276" lon="0.30925">
        <ele>103.6</ele>
        <time>2023-01-15T08:29:17Z</time>
      </trkpt>
      <trkpt lat="46.52761" lon="0.30921">
        <ele>103.6</ele>
        <time>2023-01-15T08:29:20Z</time>
      </trkpt>
      <trkpt lat="46.52759" lon="0.30916">
        <ele>104.6</ele>
        <time>2023-01-15T08:29:24Z</time>
      </trkpt>
      <trkpt lat="46.52758" lon="0.30911">
        <ele>105.2</ele>
        <time>2023-01-15T08:29:27Z</time>
      </trkpt>
      <trkpt lat="46.52755" lon="0.30904">
        <ele>105.6</ele>
        <time>2023-01-15T08:29:31Z</time>
      </trkpt>
      <trkpt lat="46.52753" lon="0.30895">
        <ele>106.8</ele>
        <time>2023-01-15T08:29:36Z</time>
      </trkpt>
      <trkpt lat="46.5275" lon="0.30888">
        <ele>107.4</ele>
        <time>2023-01-15T08:29:40Z</time>
      </trkpt>
      <trkpt lat="46.52747" lon="0.30879">
        <ele>107.8</ele>
        <time>2023-01-15T08:29:45Z</time>
      </trkpt>
      <trkpt lat="46.52745" lon="0.30868">
        <ele>108.2</ele>
        <time>2023-01-15T08:29:50Z</time>
      </trkpt>
      <trkpt lat="46.52742" lon="0.30859">
        <ele>109</ele>
        <time>2023-01-15T08:29:55Z</time>
      </trkpt>
      <trkpt lat="46.52741" lon="0.30855">
        <ele>109.2</ele>
        <time>2023-01-15T08:29:57Z</time>
      </trkpt>
      <trkpt lat="46.52739" lon="0.30852">
        <ele>109.8</ele>
        <time>2023-01-15T08:30:02Z</time>
      </trkpt>
      <trkpt lat="46.52738" lon="0.30851">
        <ele>110.2</ele>
        <time>2023-01-15T08:30:03Z</time>
      </trkpt>
      <trkpt lat="46.52738" lon="0.30851">
        <ele>110.2</ele>
        <time>2023-01-15T08:30:04Z</time>
      </trkpt>
      <trkpt lat="46.52737" lon="0.3085">
        <ele>110.4</ele>
        <time>2023-01-15T08:30:05Z</time>
      </trkpt>
      <trkpt lat="46.52733" lon="0.30841">
        <ele>111</ele>
        <time>2023-01-15T08:30:17Z</time>
      </trkpt>
      <trkpt lat="46.52729" lon="0.30837">
        <ele>111</ele>
        <time>2023-01-15T08:30:29Z</time>
      </trkpt>
      <trkpt lat="46.52728" lon="0.30834">
        <ele>111.2</ele>
        <time>2023-01-15T08:30:41Z</time>
      </trkpt>
      <trkpt lat="46.52727" lon="0.3083">
        <ele>111.2</ele>
        <time>2023-01-15T08:30:47Z</time>
      </trkpt>
      <trkpt lat="46.52724" lon="0.30824">
        <ele>112</ele>
        <time>2023-01-15T08:30:53Z</time>
      </trkpt>
      <trkpt lat="46.52724" lon="0.30824">
        <ele>112.2</ele>
        <time>2023-01-15T08:30:54Z</time>
      </trkpt>
      <trkpt lat="46.52723" lon="0.30822">
        <ele>112.8</ele>
        <time>2023-01-15T08:30:56Z</time>
      </trkpt>
      <trkpt lat="46.52723" lon="0.3082">
        <ele>113.4</ele>
        <time>2023-01-15T08:30:59Z</time>
      </trkpt>
      <trkpt lat="46.52721" lon="0.30813">
        <ele>114.6</ele>
        <time>2023-01-15T08:31:06Z</time>
      </trkpt>
      <trkpt lat="46.52719" lon="0.30809">
        <ele>115.6</ele>
        <time>2023-01-15T08:31:10Z</time>
      </trkpt>
      <trkpt lat="46.52717" lon="0.30806">
        <ele>115.8</ele>
        <time>2023-01-15T08:31:13Z</time>
      </trkpt>
      <trkpt lat="46.52715" lon="0.30801">
        <ele>116.4</ele>
        <time>2023-01-15T08:31:18Z</time>
      </trkpt>
      <trkpt lat="46.52714" lon="0.308">
        <ele>116.4</ele>
        <time>2023-01-15T08:31:19Z</time>
      </trkpt>
      <trkpt lat="46.52712" lon="0.30799">
        <ele>116.8</ele>
        <time>2023-01-15T08:31:22Z</time>
      </trkpt>
      <trkpt lat="46.5271" lon="0.30799">
        <ele>117.4</ele>
        <time>2023-01-15T08:31:25Z</time>
      </trkpt>
      <trkpt lat="46.52709" lon="0.308">
        <ele>117.6</ele>
        <time>2023-01-15T08:31:28Z</time>
      </trkpt>
      <trkpt lat="46.52709" lon="0.308">
        <ele>117.8</ele>
        <time>2023-01-15T08:31:30Z</time>
      </trkpt>
      <trkpt lat="46.52709" lon="0.308">
        <ele>118</ele>
        <time>2023-01-15T08:31:31Z</time>
      </trkpt>
      <trkpt lat="46.52708" lon="0.308">
        <ele>118</ele>
        <time>2023-01-15T08:31:33Z</time>
      </trkpt>
      <trkpt lat="46.52708" lon="0.30801">
        <ele>118</ele>
        <time>2023-01-15T08:31:36Z</time>
      </trkpt>
      <trkpt lat="46.52709" lon="0.30805">
        <ele>118.2</ele>
        <time>2023-01-15T08:31:42Z</time>
      </trkpt>
      <trkpt lat="46.52709" lon="0.30807">
        <ele>118.2</ele>
        <time>2023-01-15T08:31:43Z</time>
      </trkpt>
      <trkpt lat="46.52709" lon="0.3081">
        <ele>118.4</ele>
        <time>2023-01-15T08:31:46Z</time>
      </trkpt>
      <trkpt lat="46.52709" lon="0.30816">
        <ele>118.6</ele>
        <time>2023-01-15T08:31:51Z</time>
      </trkpt>
      <trkpt lat="46.52709" lon="0.30817">
        <ele>118.6</ele>
        <time>2023-01-15T08:31:53Z</time>
      </trkpt>
      <trkpt lat="46.5271" lon="0.30821">
        <ele>118.6</ele>
        <time>2023-01-15T08:31:56Z</time>
      </trkpt>
      <trkpt lat="46.52715" lon="0.30836">
        <ele>117.8</ele>
        <time>2023-01-15T08:32:02Z</time>
      </trkpt>
      <trkpt lat="46.5272" lon="0.30858">
        <ele>116.8</ele>
        <time>2023-01-15T08:32:09Z</time>
      </trkpt>
      <trkpt lat="46.52721" lon="0.30863">
        <ele>116.2</ele>
        <time>2023-01-15T08:32:10Z</time>
      </trkpt>
      <trkpt lat="46.52723" lon="0.30877">
        <ele>115.6</ele>
        <time>2023-01-15T08:32:13Z</time>
      </trkpt>
      <trkpt lat="46.52724" lon="0.30885">
        <ele>115</ele>
        <time>2023-01-15T08:32:15Z</time>
      </trkpt>
      <trkpt lat="46.52726" lon="0.30896">
        <ele>114.4</ele>
        <time>2023-01-15T08:32:18Z</time>
      </trkpt>
      <trkpt lat="46.52729" lon="0.30904">
        <ele>113.6</ele>
        <time>2023-01-15T08:32:21Z</time>
      </trkpt>
      <trkpt lat="46.5273" lon="0.3091">
        <ele>113.2</ele>
        <time>2023-01-15T08:32:23Z</time>
      </trkpt>
      <trkpt lat="46.52733" lon="0.30922">
        <ele>113.4</ele>
        <time>2023-01-15T08:32:27Z</time>
      </trkpt>
      <trkpt lat="46.52737" lon="0.30949">
        <ele>113.8</ele>
        <time>2023-01-15T08:32:34Z</time>
      </trkpt>
      <trkpt lat="46.52743" lon="0.3098">
        <ele>113.8</ele>
        <time>2023-01-15T08:32:40Z</time>
      </trkpt>
      <trkpt lat="46.5275" lon="0.31007">
        <ele>113.6</ele>
        <time>2023-01-15T08:32:46Z</time>
      </trkpt>
      <trkpt lat="46.5276" lon="0.31036">
        <ele>113.4</ele>
        <time>2023-01-15T08:32:52Z</time>
      </trkpt>
      <trkpt lat="46.52764" lon="0.31061">
        <ele>114.4</ele>
        <time>2023-01-15T08:32:57Z</time>
      </trkpt>
      <trkpt lat="46.52765" lon="0.31066">
        <ele>114.8</ele>
        <time>2023-01-15T08:32:58Z</time>
      </trkpt>
      <trkpt lat="46.52766" lon="0.3108">
        <ele>115.6</ele>
        <time>2023-01-15T08:33:01Z</time>
      </trkpt>
      <trkpt lat="46.52766" lon="0.31093">
        <ele>116.2</ele>
        <time>2023-01-15T08:33:04Z</time>
      </trkpt>
      <trkpt lat="46.52767" lon="0.31102">
        <ele>116.8</ele>
        <time>2023-01-15T08:33:06Z</time>
      </trkpt>
      <trkpt lat="46.52765" lon="0.31113">
        <ele>117.8</ele>
        <time>2023-01-15T08:33:09Z</time>
      </trkpt>
      <trkpt lat="46.52764" lon="0.31118">
        <ele>118</ele>
        <time>2023-01-15T08:33:10Z</time>
      </trkpt>
      <trkpt lat="46.52764" lon="0.31132">
        <ele>119.2</ele>
        <time>2023-01-15T08:33:14Z</time>
      </trkpt>
      <trkpt lat="46.52765" lon="0.31144">
        <ele>119.8</ele>
        <time>2023-01-15T08:33:17Z</time>
      </trkpt>
      <trkpt lat="46.52765" lon="0.31148">
        <ele>120</ele>
        <time>2023-01-15T08:33:18Z</time>
      </trkpt>
      <trkpt lat="46.52767" lon="0.31157">
        <ele>120.2</ele>
        <time>2023-01-15T08:33:21Z</time>
      </trkpt>
      <trkpt lat="46.52768" lon="0.31164">
        <ele>120.2</ele>
        <time>2023-01-15T08:33:23Z</time>
      </trkpt>
      <trkpt lat="46.52775" lon="0.31188">
        <ele>120.8</ele>
        <time>2023-01-15T08:33:30Z</time>
      </trkpt>
      <trkpt lat="46.52777" lon="0.31196">
        <ele>121.4</ele>
        <time>2023-01-15T08:33:32Z</time>
      </trkpt>
      <trkpt lat="46.5278" lon="0.31213">
        <ele>122</ele>
        <time>2023-01-15T08:33:37Z</time>
      </trkpt>
      <trkpt lat="46.52782" lon="0.31224">
        <ele>122.4</ele>
        <time>2023-01-15T08:33:40Z</time>
      </trkpt>
      <trkpt lat="46.52784" lon="0.31231">
        <ele>122.6</ele>
        <time>2023-01-15T08:33:42Z</time>
      </trkpt>
      <trkpt lat="46.52785" lon="0.31234">
        <ele>122.8</ele>
        <time>2023-01-15T08:33:43Z</time>
      </trkpt>
      <trkpt lat="46.52786" lon="0.31237">
        <ele>123</ele>
        <time>2023-01-15T08:33:44Z</time>
      </trkpt>
      <trkpt lat="46.52788" lon="0.31244">
        <ele>123.6</ele>
        <time>2023-01-15T08:33:46Z</time>
      </trkpt>
      <trkpt lat="46.52791" lon="0.31252">
        <ele>123.8</ele>
        <time>2023-01-15T08:33:48Z</time>
      </trkpt>
      <trkpt lat="46.52795" lon="0.31274">
        <ele>124.4</ele>
        <time>2023-01-15T08:33:54Z</time>
      </trkpt>
      <trkpt lat="46.52794" lon="0.31287">
        <ele>124.6</ele>
        <time>2023-01-15T08:33:57Z</time>
      </trkpt>
      <trkpt lat="46.52793" lon="0.31294">
        <ele>124.8</ele>
        <time>2023-01-15T08:33:59Z</time>
      </trkpt>
      <trkpt lat="46.52795" lon="0.31318">
        <ele>125.6</ele>
        <time>2023-01-15T08:34:05Z</time>
      </trkpt>
      <trkpt lat="46.52799" lon="0.31333">
        <ele>125.6</ele>
        <time>2023-01-15T08:34:09Z</time>
      </trkpt>
      <trkpt lat="46.52799" lon="0.31337">
        <ele>125.6</ele>
        <time>2023-01-15T08:34:10Z</time>
      </trkpt>
      <trkpt lat="46.52793" lon="0.3136">
        <ele>125.8</ele>
        <time>2023-01-15T08:34:15Z</time>
      </trkpt>
      <trkpt lat="46.5278" lon="0.31378">
        <ele>126.2</ele>
        <time>2023-01-15T08:34:20Z</time>
      </trkpt>
      <trkpt lat="46.5276" lon="0.31394">
        <ele>126.2</ele>
        <time>2023-01-15T08:34:27Z</time>
      </trkpt>
      <trkpt lat="46.52748" lon="0.31404">
        <ele>126.2</ele>
        <time>2023-01-15T08:34:31Z</time>
      </trkpt>
      <trkpt lat="46.5273" lon="0.31419">
        <ele>126.2</ele>
        <time>2023-01-15T08:34:37Z</time>
      </trkpt>
      <trkpt lat="46.52721" lon="0.31421">
        <ele>126</ele>
        <time>2023-01-15T08:34:41Z</time>
      </trkpt>
      <trkpt lat="46.52696" lon="0.31421">
        <ele>126.2</ele>
        <time>2023-01-15T08:34:47Z</time>
      </trkpt>
      <trkpt lat="46.52671" lon="0.31424">
        <ele>126.2</ele>
        <time>2023-01-15T08:34:53Z</time>
      </trkpt>
      <trkpt lat="46.52662" lon="0.31424">
        <ele>126.2</ele>
        <time>2023-01-15T08:34:55Z</time>
      </trkpt>
      <trkpt lat="46.52647" lon="0.31421">
        <ele>126.2</ele>
        <time>2023-01-15T08:34:58Z</time>
      </trkpt>
      <trkpt lat="46.52605" lon="0.31414">
        <ele>125.6</ele>
        <time>2023-01-15T08:35:06Z</time>
      </trkpt>
      <trkpt lat="46.52582" lon="0.31405">
        <ele>124.8</ele>
        <time>2023-01-15T08:35:10Z</time>
      </trkpt>
      <trkpt lat="46.52578" lon="0.31403">
        <ele>124.6</ele>
        <time>2023-01-15T08:35:11Z</time>
      </trkpt>
      <trkpt lat="46.52573" lon="0.31402">
        <ele>124.4</ele>
        <time>2023-01-15T08:35:12Z</time>
      </trkpt>
      <trkpt lat="46.52555" lon="0.31394">
        <ele>124</ele>
        <time>2023-01-15T08:35:16Z</time>
      </trkpt>
      <trkpt lat="46.52532" lon="0.31379">
        <ele>123.6</ele>
        <time>2023-01-15T08:35:22Z</time>
      </trkpt>
      <trkpt lat="46.52498" lon="0.31357">
        <ele>122.4</ele>
        <time>2023-01-15T08:35:29Z</time>
      </trkpt>
      <trkpt lat="46.52481" lon="0.31349">
        <ele>121.8</ele>
        <time>2023-01-15T08:35:32Z</time>
      </trkpt>
      <trkpt lat="46.52473" lon="0.31344">
        <ele>121.2</ele>
        <time>2023-01-15T08:35:33Z</time>
      </trkpt>
      <trkpt lat="46.52468" lon="0.31342">
        <ele>120.6</ele>
        <time>2023-01-15T08:35:34Z</time>
      </trkpt>
      <trkpt lat="46.52463" lon="0.31338">
        <ele>119.6</ele>
        <time>2023-01-15T08:35:35Z</time>
      </trkpt>
      <trkpt lat="46.52446" lon="0.31326">
        <ele>118.4</ele>
        <time>2023-01-15T08:35:38Z</time>
      </trkpt>
      <trkpt lat="46.52441" lon="0.31322">
        <ele>117.8</ele>
        <time>2023-01-15T08:35:39Z</time>
      </trkpt>
      <trkpt lat="46.52438" lon="0.31321">
        <ele>117.4</ele>
        <time>2023-01-15T08:35:40Z</time>
      </trkpt>
      <trkpt lat="46.52434" lon="0.31319">
        <ele>116.8</ele>
        <time>2023-01-15T08:35:42Z</time>
      </trkpt>
      <trkpt lat="46.52434" lon="0.31321">
        <ele>116.6</ele>
        <time>2023-01-15T08:35:43Z</time>
      </trkpt>
      <trkpt lat="46.52432" lon="0.31324">
        <ele>116.2</ele>
        <time>2023-01-15T08:35:45Z</time>
      </trkpt>
      <trkpt lat="46.52432" lon="0.31326">
        <ele>115.8</ele>
        <time>2023-01-15T08:35:46Z</time>
      </trkpt>
      <trkpt lat="46.52432" lon="0.31332">
        <ele>114.8</ele>
        <time>2023-01-15T08:35:48Z</time>
      </trkpt>
      <trkpt lat="46.52432" lon="0.31339">
        <ele>114.6</ele>
        <time>2023-01-15T08:35:50Z</time>
      </trkpt>
      <trkpt lat="46.52432" lon="0.31343">
        <ele>114.4</ele>
        <time>2023-01-15T08:35:51Z</time>
      </trkpt>
      <trkpt lat="46.52433" lon="0.31355">
        <ele>114</ele>
        <time>2023-01-15T08:35:54Z</time>
      </trkpt>
      <trkpt lat="46.52434" lon="0.3136">
        <ele>113.8</ele>
        <time>2023-01-15T08:35:55Z</time>
      </trkpt>
      <trkpt lat="46.52435" lon="0.31366">
        <ele>113.8</ele>
        <time>2023-01-15T08:35:56Z</time>
      </trkpt>
      <trkpt lat="46.52436" lon="0.31371">
        <ele>113.6</ele>
        <time>2023-01-15T08:35:57Z</time>
      </trkpt>
      <trkpt lat="46.52441" lon="0.3139">
        <ele>113</ele>
        <time>2023-01-15T08:36:01Z</time>
      </trkpt>
      <trkpt lat="46.52444" lon="0.31396">
        <ele>113</ele>
        <time>2023-01-15T08:36:02Z</time>
      </trkpt>
      <trkpt lat="46.52446" lon="0.314">
        <ele>113</ele>
        <time>2023-01-15T08:36:03Z</time>
      </trkpt>
      <trkpt lat="46.52449" lon="0.31405">
        <ele>112.6</ele>
        <time>2023-01-15T08:36:04Z</time>
      </trkpt>
      <trkpt lat="46.52453" lon="0.31414">
        <ele>112.4</ele>
        <time>2023-01-15T08:36:06Z</time>
      </trkpt>
      <trkpt lat="46.52456" lon="0.31419">
        <ele>112</ele>
        <time>2023-01-15T08:36:07Z</time>
      </trkpt>
      <trkpt lat="46.52457" lon="0.31424">
        <ele>111.8</ele>
        <time>2023-01-15T08:36:08Z</time>
      </trkpt>
      <trkpt lat="46.52462" lon="0.31435">
        <ele>111.6</ele>
        <time>2023-01-15T08:36:10Z</time>
      </trkpt>
      <trkpt lat="46.52467" lon="0.31448">
        <ele>111.2</ele>
        <time>2023-01-15T08:36:13Z</time>
      </trkpt>
      <trkpt lat="46.52474" lon="0.31464">
        <ele>111</ele>
        <time>2023-01-15T08:36:17Z</time>
      </trkpt>
      <trkpt lat="46.52478" lon="0.31475">
        <ele>110.8</ele>
        <time>2023-01-15T08:36:19Z</time>
      </trkpt>
      <trkpt lat="46.52488" lon="0.31497">
        <ele>110.8</ele>
        <time>2023-01-15T08:36:23Z</time>
      </trkpt>
      <trkpt lat="46.52491" lon="0.31503">
        <ele>110.6</ele>
        <time>2023-01-15T08:36:24Z</time>
      </trkpt>
      <trkpt lat="46.525" lon="0.31521">
        <ele>110.6</ele>
        <time>2023-01-15T08:36:27Z</time>
      </trkpt>
      <trkpt lat="46.52506" lon="0.31528">
        <ele>110.6</ele>
        <time>2023-01-15T08:36:29Z</time>
      </trkpt>
      <trkpt lat="46.52508" lon="0.31532">
        <ele>110.6</ele>
        <time>2023-01-15T08:36:30Z</time>
      </trkpt>
      <trkpt lat="46.52513" lon="0.31551">
        <ele>109.8</ele>
        <time>2023-01-15T08:36:34Z</time>
      </trkpt>
      <trkpt lat="46.52512" lon="0.3156">
        <ele>109.8</ele>
        <time>2023-01-15T08:36:36Z</time>
      </trkpt>
      <trkpt lat="46.52512" lon="0.31567">
        <ele>111</ele>
        <time>2023-01-15T08:36:38Z</time>
      </trkpt>
      <trkpt lat="46.52513" lon="0.31572">
        <ele>111.8</ele>
        <time>2023-01-15T08:36:40Z</time>
      </trkpt>
      <trkpt lat="46.52516" lon="0.31592">
        <ele>113.2</ele>
        <time>2023-01-15T08:36:45Z</time>
      </trkpt>
      <trkpt lat="46.52517" lon="0.31604">
        <ele>114.6</ele>
        <time>2023-01-15T08:36:48Z</time>
      </trkpt>
      <trkpt lat="46.52517" lon="0.31616">
        <ele>115.8</ele>
        <time>2023-01-15T08:36:51Z</time>
      </trkpt>
      <trkpt lat="46.52518" lon="0.31619">
        <ele>116</ele>
        <time>2023-01-15T08:36:52Z</time>
      </trkpt>
      <trkpt lat="46.52519" lon="0.31634">
        <ele>116.8</ele>
        <time>2023-01-15T08:36:56Z</time>
      </trkpt>
      <trkpt lat="46.5252" lon="0.31636">
        <ele>116.8</ele>
        <time>2023-01-15T08:36:57Z</time>
      </trkpt>
      <trkpt lat="46.52524" lon="0.31655">
        <ele>118</ele>
        <time>2023-01-15T08:37:02Z</time>
      </trkpt>
      <trkpt lat="46.52524" lon="0.31659">
        <ele>118.2</ele>
        <time>2023-01-15T08:37:03Z</time>
      </trkpt>
      <trkpt lat="46.52526" lon="0.31665">
        <ele>118.6</ele>
        <time>2023-01-15T08:37:05Z</time>
      </trkpt>
      <trkpt lat="46.52534" lon="0.31679">
        <ele>118.6</ele>
        <time>2023-01-15T08:37:09Z</time>
      </trkpt>
      <trkpt lat="46.52549" lon="0.31711">
        <ele>118.8</ele>
        <time>2023-01-15T08:37:16Z</time>
      </trkpt>
      <trkpt lat="46.52563" lon="0.31742">
        <ele>118.6</ele>
        <time>2023-01-15T08:37:23Z</time>
      </trkpt>
      <trkpt lat="46.52569" lon="0.31757">
        <ele>118</ele>
        <time>2023-01-15T08:37:26Z</time>
      </trkpt>
      <trkpt lat="46.52576" lon="0.31772">
        <ele>117.4</ele>
        <time>2023-01-15T08:37:29Z</time>
      </trkpt>
      <trkpt lat="46.52578" lon="0.31777">
        <ele>116.8</ele>
        <time>2023-01-15T08:37:30Z</time>
      </trkpt>
      <trkpt lat="46.52587" lon="0.31795">
        <ele>115.8</ele>
        <time>2023-01-15T08:37:33Z</time>
      </trkpt>
      <trkpt lat="46.5259" lon="0.31801">
        <ele>115.6</ele>
        <time>2023-01-15T08:37:34Z</time>
      </trkpt>
      <trkpt lat="46.52601" lon="0.31826">
        <ele>116.2</ele>
        <time>2023-01-15T08:37:39Z</time>
      </trkpt>
      <trkpt lat="46.52607" lon="0.31836">
        <ele>116.8</ele>
        <time>2023-01-15T08:37:41Z</time>
      </trkpt>
      <trkpt lat="46.52618" lon="0.31859">
        <ele>117.8</ele>
        <time>2023-01-15T08:37:46Z</time>
      </trkpt>
      <trkpt lat="46.52623" lon="0.31868">
        <ele>118</ele>
        <time>2023-01-15T08:37:48Z</time>
      </trkpt>
      <trkpt lat="46.5263" lon="0.31884">
        <ele>118.4</ele>
        <time>2023-01-15T08:37:52Z</time>
      </trkpt>
      <trkpt lat="46.52635" lon="0.31893">
        <ele>118.6</ele>
        <time>2023-01-15T08:37:54Z</time>
      </trkpt>
      <trkpt lat="46.52644" lon="0.31911">
        <ele>118.8</ele>
        <time>2023-01-15T08:37:58Z</time>
      </trkpt>
      <trkpt lat="46.52646" lon="0.31916">
        <ele>119</ele>
        <time>2023-01-15T08:37:59Z</time>
      </trkpt>
      <trkpt lat="46.52647" lon="0.31923">
        <ele>119.6</ele>
        <time>2023-01-15T08:38:01Z</time>
      </trkpt>
      <trkpt lat="46.52645" lon="0.31931">
        <ele>120</ele>
        <time>2023-01-15T08:38:04Z</time>
      </trkpt>
      <trkpt lat="46.52638" lon="0.31948">
        <ele>120.6</ele>
        <time>2023-01-15T08:38:10Z</time>
      </trkpt>
      <trkpt lat="46.52632" lon="0.31964">
        <ele>121.2</ele>
        <time>2023-01-15T08:38:15Z</time>
      </trkpt>
      <trkpt lat="46.52633" lon="0.31968">
        <ele>121.4</ele>
        <time>2023-01-15T08:38:16Z</time>
      </trkpt>
      <trkpt lat="46.52629" lon="0.31985">
        <ele>122.4</ele>
        <time>2023-01-15T08:38:21Z</time>
      </trkpt>
      <trkpt lat="46.52625" lon="0.32006">
        <ele>123</ele>
        <time>2023-01-15T08:38:27Z</time>
      </trkpt>
      <trkpt lat="46.52622" lon="0.32017">
        <ele>123.4</ele>
        <time>2023-01-15T08:38:30Z</time>
      </trkpt>
      <trkpt lat="46.5262" lon="0.32031">
        <ele>123.8</ele>
        <time>2023-01-15T08:38:33Z</time>
      </trkpt>
      <trkpt lat="46.52615" lon="0.32061">
        <ele>124.6</ele>
        <time>2023-01-15T08:38:40Z</time>
      </trkpt>
      <trkpt lat="46.52612" lon="0.32071">
        <ele>125</ele>
        <time>2023-01-15T08:38:43Z</time>
      </trkpt>
      <trkpt lat="46.52608" lon="0.32076">
        <ele>125.2</ele>
        <time>2023-01-15T08:38:45Z</time>
      </trkpt>
      <trkpt lat="46.5259" lon="0.32087">
        <ele>125.4</ele>
        <time>2023-01-15T08:38:50Z</time>
      </trkpt>
      <trkpt lat="46.52571" lon="0.32097">
        <ele>125.6</ele>
        <time>2023-01-15T08:38:56Z</time>
      </trkpt>
      <trkpt lat="46.52568" lon="0.32098">
        <ele>125.6</ele>
        <time>2023-01-15T08:38:57Z</time>
      </trkpt>
      <trkpt lat="46.52553" lon="0.32102">
        <ele>125.8</ele>
        <time>2023-01-15T08:39:02Z</time>
      </trkpt>
      <trkpt lat="46.52549" lon="0.32108">
        <ele>125.8</ele>
        <time>2023-01-15T08:39:04Z</time>
      </trkpt>
      <trkpt lat="46.52548" lon="0.32113">
        <ele>126</ele>
        <time>2023-01-15T08:39:05Z</time>
      </trkpt>
      <trkpt lat="46.52545" lon="0.32136">
        <ele>126.4</ele>
        <time>2023-01-15T08:39:10Z</time>
      </trkpt>
      <trkpt lat="46.52533" lon="0.32156">
        <ele>126.2</ele>
        <time>2023-01-15T08:39:15Z</time>
      </trkpt>
      <trkpt lat="46.52522" lon="0.32189">
        <ele>125.8</ele>
        <time>2023-01-15T08:39:22Z</time>
      </trkpt>
      <trkpt lat="46.52522" lon="0.32193">
        <ele>125.6</ele>
        <time>2023-01-15T08:39:23Z</time>
      </trkpt>
      <trkpt lat="46.52524" lon="0.32199">
        <ele>125.6</ele>
        <time>2023-01-15T08:39:25Z</time>
      </trkpt>
      <trkpt lat="46.52533" lon="0.32207">
        <ele>125.4</ele>
        <time>2023-01-15T08:39:30Z</time>
      </trkpt>
      <trkpt lat="46.5254" lon="0.32214">
        <ele>125.2</ele>
        <time>2023-01-15T08:39:33Z</time>
      </trkpt>
      <trkpt lat="46.52541" lon="0.32216">
        <ele>125.2</ele>
        <time>2023-01-15T08:39:34Z</time>
      </trkpt>
      <trkpt lat="46.5254" lon="0.3222">
        <ele>125.2</ele>
        <time>2023-01-15T08:39:36Z</time>
      </trkpt>
      <trkpt lat="46.52539" lon="0.32228">
        <ele>125</ele>
        <time>2023-01-15T08:39:38Z</time>
      </trkpt>
      <trkpt lat="46.52538" lon="0.32236">
        <ele>125</ele>
        <time>2023-01-15T08:39:40Z</time>
      </trkpt>
      <trkpt lat="46.52539" lon="0.32243">
        <ele>124.8</ele>
        <time>2023-01-15T08:39:42Z</time>
      </trkpt>
      <trkpt lat="46.52543" lon="0.32247">
        <ele>124.6</ele>
        <time>2023-01-15T08:39:44Z</time>
      </trkpt>
      <trkpt lat="46.52548" lon="0.32247">
        <ele>124.6</ele>
        <time>2023-01-15T08:39:46Z</time>
      </trkpt>
      <trkpt lat="46.52554" lon="0.32249">
        <ele>124.4</ele>
        <time>2023-01-15T08:39:48Z</time>
      </trkpt>
      <trkpt lat="46.52563" lon="0.32251">
        <ele>124.6</ele>
        <time>2023-01-15T08:39:51Z</time>
      </trkpt>
      <trkpt lat="46.52578" lon="0.32254">
        <ele>125</ele>
        <time>2023-01-15T08:39:56Z</time>
      </trkpt>
      <trkpt lat="46.52595" lon="0.32255">
        <ele>125</ele>
        <time>2023-01-15T08:40:00Z</time>
      </trkpt>
      <trkpt lat="46.526" lon="0.32255">
        <ele>125</ele>
        <time>2023-01-15T08:40:01Z</time>
      </trkpt>
      <trkpt lat="46.52604" lon="0.32256">
        <ele>124.8</ele>
        <time>2023-01-15T08:40:02Z</time>
      </trkpt>
      <trkpt lat="46.52612" lon="0.32263">
        <ele>124.8</ele>
        <time>2023-01-15T08:40:04Z</time>
      </trkpt>
      <trkpt lat="46.52616" lon="0.32268">
        <ele>124.8</ele>
        <time>2023-01-15T08:40:05Z</time>
      </trkpt>
      <trkpt lat="46.52618" lon="0.32274">
        <ele>124.8</ele>
        <time>2023-01-15T08:40:06Z</time>
      </trkpt>
      <trkpt lat="46.52623" lon="0.32297">
        <ele>125</ele>
        <time>2023-01-15T08:40:10Z</time>
      </trkpt>
      <trkpt lat="46.52626" lon="0.32309">
        <ele>125</ele>
        <time>2023-01-15T08:40:12Z</time>
      </trkpt>
      <trkpt lat="46.52629" lon="0.32326">
        <ele>124.6</ele>
        <time>2023-01-15T08:40:15Z</time>
      </trkpt>
      <trkpt lat="46.52631" lon="0.32338">
        <ele>124.4</ele>
        <time>2023-01-15T08:40:17Z</time>
      </trkpt>
      <trkpt lat="46.52633" lon="0.32355">
        <ele>123.4</ele>
        <time>2023-01-15T08:40:20Z</time>
      </trkpt>
      <trkpt lat="46.52634" lon="0.32385">
        <ele>122.4</ele>
        <time>2023-01-15T08:40:24Z</time>
      </trkpt>
      <trkpt lat="46.52635" lon="0.32393">
        <ele>122.2</ele>
        <time>2023-01-15T08:40:25Z</time>
      </trkpt>
      <trkpt lat="46.52637" lon="0.32426">
        <ele>121.2</ele>
        <time>2023-01-15T08:40:29Z</time>
      </trkpt>
      <trkpt lat="46.52639" lon="0.32455">
        <ele>120.6</ele>
        <time>2023-01-15T08:40:33Z</time>
      </trkpt>
      <trkpt lat="46.5264" lon="0.3246">
        <ele>120.2</ele>
        <time>2023-01-15T08:40:34Z</time>
      </trkpt>
      <trkpt lat="46.52641" lon="0.32464">
        <ele>120</ele>
        <time>2023-01-15T08:40:35Z</time>
      </trkpt>
      <trkpt lat="46.52643" lon="0.32467">
        <ele>119.8</ele>
        <time>2023-01-15T08:40:37Z</time>
      </trkpt>
      <trkpt lat="46.52652" lon="0.32471">
        <ele>120.2</ele>
        <time>2023-01-15T08:40:42Z</time>
      </trkpt>
      <trkpt lat="46.52654" lon="0.32472">
        <ele>120.4</ele>
        <time>2023-01-15T08:40:43Z</time>
      </trkpt>
      <trkpt lat="46.52659" lon="0.32474">
        <ele>121.2</ele>
        <time>2023-01-15T08:40:45Z</time>
      </trkpt>
      <trkpt lat="46.52668" lon="0.32473">
        <ele>122</ele>
        <time>2023-01-15T08:40:48Z</time>
      </trkpt>
      <trkpt lat="46.52672" lon="0.32473">
        <ele>122.2</ele>
        <time>2023-01-15T08:40:49Z</time>
      </trkpt>
      <trkpt lat="46.52678" lon="0.32472">
        <ele>122.8</ele>
        <time>2023-01-15T08:40:51Z</time>
      </trkpt>
      <trkpt lat="46.52684" lon="0.32471">
        <ele>123</ele>
        <time>2023-01-15T08:40:53Z</time>
      </trkpt>
      <trkpt lat="46.52687" lon="0.32471">
        <ele>123</ele>
        <time>2023-01-15T08:40:54Z</time>
      </trkpt>
      <trkpt lat="46.52696" lon="0.32471">
        <ele>123.2</ele>
        <time>2023-01-15T08:40:56Z</time>
      </trkpt>
      <trkpt lat="46.52705" lon="0.32471">
        <ele>123.2</ele>
        <time>2023-01-15T08:40:58Z</time>
      </trkpt>
      <trkpt lat="46.52709" lon="0.32474">
        <ele>123.4</ele>
        <time>2023-01-15T08:40:59Z</time>
      </trkpt>
      <trkpt lat="46.52712" lon="0.32478">
        <ele>123.4</ele>
        <time>2023-01-15T08:41:00Z</time>
      </trkpt>
      <trkpt lat="46.52718" lon="0.32493">
        <ele>123.2</ele>
        <time>2023-01-15T08:41:03Z</time>
      </trkpt>
      <trkpt lat="46.52723" lon="0.32524">
        <ele>122</ele>
        <time>2023-01-15T08:41:08Z</time>
      </trkpt>
      <trkpt lat="46.52724" lon="0.32537">
        <ele>121.6</ele>
        <time>2023-01-15T08:41:10Z</time>
      </trkpt>
      <trkpt lat="46.52725" lon="0.32552">
        <ele>121</ele>
        <time>2023-01-15T08:41:12Z</time>
      </trkpt>
      <trkpt lat="46.52726" lon="0.32559">
        <ele>120.8</ele>
        <time>2023-01-15T08:41:13Z</time>
      </trkpt>
      <trkpt lat="46.5273" lon="0.3258">
        <ele>120.6</ele>
        <time>2023-01-15T08:41:16Z</time>
      </trkpt>
      <trkpt lat="46.52736" lon="0.32619">
        <ele>120.2</ele>
        <time>2023-01-15T08:41:21Z</time>
      </trkpt>
      <trkpt lat="46.52743" lon="0.32665">
        <ele>120.6</ele>
        <time>2023-01-15T08:41:27Z</time>
      </trkpt>
      <trkpt lat="46.52744" lon="0.32672">
        <ele>120.6</ele>
        <time>2023-01-15T08:41:28Z</time>
      </trkpt>
      <trkpt lat="46.52747" lon="0.32684">
        <ele>120.6</ele>
        <time>2023-01-15T08:41:30Z</time>
      </trkpt>
      <trkpt lat="46.52753" lon="0.32694">
        <ele>120.6</ele>
        <time>2023-01-15T08:41:32Z</time>
      </trkpt>
      <trkpt lat="46.52762" lon="0.32705">
        <ele>121</ele>
        <time>2023-01-15T08:41:35Z</time>
      </trkpt>
      <trkpt lat="46.52773" lon="0.32714">
        <ele>121.6</ele>
        <time>2023-01-15T08:41:38Z</time>
      </trkpt>
      <trkpt lat="46.52777" lon="0.32717">
        <ele>121.8</ele>
        <time>2023-01-15T08:41:39Z</time>
      </trkpt>
      <trkpt lat="46.5278" lon="0.32721">
        <ele>122</ele>
        <time>2023-01-15T08:41:40Z</time>
      </trkpt>
      <trkpt lat="46.52784" lon="0.32723">
        <ele>122</ele>
        <time>2023-01-15T08:41:41Z</time>
      </trkpt>
      <trkpt lat="46.52792" lon="0.32728">
        <ele>122.2</ele>
        <time>2023-01-15T08:41:43Z</time>
      </trkpt>
      <trkpt lat="46.5281" lon="0.32738">
        <ele>122.8</ele>
        <time>2023-01-15T08:41:48Z</time>
      </trkpt>
      <trkpt lat="46.52813" lon="0.32739">
        <ele>123.2</ele>
        <time>2023-01-15T08:41:49Z</time>
      </trkpt>
      <trkpt lat="46.52816" lon="0.32738">
        <ele>123.4</ele>
        <time>2023-01-15T08:41:50Z</time>
      </trkpt>
      <trkpt lat="46.52822" lon="0.32734">
        <ele>123.8</ele>
        <time>2023-01-15T08:41:52Z</time>
      </trkpt>
      <trkpt lat="46.52826" lon="0.32726">
        <ele>124</ele>
        <time>2023-01-15T08:41:54Z</time>
      </trkpt>
      <trkpt lat="46.52829" lon="0.32719">
        <ele>124</ele>
        <time>2023-01-15T08:41:56Z</time>
      </trkpt>
      <trkpt lat="46.52838" lon="0.32709">
        <ele>124.4</ele>
        <time>2023-01-15T08:41:59Z</time>
      </trkpt>
      <trkpt lat="46.52841" lon="0.32697">
        <ele>124.8</ele>
        <time>2023-01-15T08:42:02Z</time>
      </trkpt>
      <trkpt lat="46.52844" lon="0.32684">
        <ele>124.8</ele>
        <time>2023-01-15T08:42:05Z</time>
      </trkpt>
      <trkpt lat="46.52849" lon="0.32665">
        <ele>124.8</ele>
        <time>2023-01-15T08:42:09Z</time>
      </trkpt>
      <trkpt lat="46.52851" lon="0.32656">
        <ele>124.8</ele>
        <time>2023-01-15T08:42:11Z</time>
      </trkpt>
      <trkpt lat="46.52852" lon="0.32651">
        <ele>124.8</ele>
        <time>2023-01-15T08:42:12Z</time>
      </trkpt>
      <trkpt lat="46.52855" lon="0.32642">
        <ele>124.8</ele>
        <time>2023-01-15T08:42:14Z</time>
      </trkpt>
      <trkpt lat="46.5286" lon="0.32638">
        <ele>124.8</ele>
        <time>2023-01-15T08:42:16Z</time>
      </trkpt>
      <trkpt lat="46.52869" lon="0.32636">
        <ele>124.8</ele>
        <time>2023-01-15T08:42:19Z</time>
      </trkpt>
      <trkpt lat="46.52874" lon="0.32633">
        <ele>124.8</ele>
        <time>2023-01-15T08:42:21Z</time>
      </trkpt>
      <trkpt lat="46.52884" lon="0.32629">
        <ele>125</ele>
        <time>2023-01-15T08:42:24Z</time>
      </trkpt>
      <trkpt lat="46.529" lon="0.32625">
        <ele>124.8</ele>
        <time>2023-01-15T08:42:28Z</time>
      </trkpt>
      <trkpt lat="46.52928" lon="0.32619">
        <ele>125.2</ele>
        <time>2023-01-15T08:42:35Z</time>
      </trkpt>
      <trkpt lat="46.52944" lon="0.32615">
        <ele>124.6</ele>
        <time>2023-01-15T08:42:38Z</time>
      </trkpt>
      <trkpt lat="46.52963" lon="0.32615">
        <ele>124.4</ele>
        <time>2023-01-15T08:42:41Z</time>
      </trkpt>
      <trkpt lat="46.52969" lon="0.32616">
        <ele>124.4</ele>
        <time>2023-01-15T08:42:42Z</time>
      </trkpt>
      <trkpt lat="46.5299" lon="0.32624">
        <ele>124.4</ele>
        <time>2023-01-15T08:42:45Z</time>
      </trkpt>
      <trkpt lat="46.53002" lon="0.32631">
        <ele>124.4</ele>
        <time>2023-01-15T08:42:47Z</time>
      </trkpt>
      <trkpt lat="46.53012" lon="0.32639">
        <ele>124.4</ele>
        <time>2023-01-15T08:42:49Z</time>
      </trkpt>
      <trkpt lat="46.53016" lon="0.32644">
        <ele>124.4</ele>
        <time>2023-01-15T08:42:50Z</time>
      </trkpt>
      <trkpt lat="46.53034" lon="0.32674">
        <ele>124.6</ele>
        <time>2023-01-15T08:42:55Z</time>
      </trkpt>
      <trkpt lat="46.53036" lon="0.3268">
        <ele>124.6</ele>
        <time>2023-01-15T08:42:56Z</time>
      </trkpt>
      <trkpt lat="46.53058" lon="0.32714">
        <ele>125.2</ele>
        <time>2023-01-15T08:43:02Z</time>
      </trkpt>
      <trkpt lat="46.53061" lon="0.3272">
        <ele>125.2</ele>
        <time>2023-01-15T08:43:03Z</time>
      </trkpt>
      <trkpt lat="46.53076" lon="0.32747">
        <ele>125.4</ele>
        <time>2023-01-15T08:43:07Z</time>
      </trkpt>
      <trkpt lat="46.53079" lon="0.32754">
        <ele>125.4</ele>
        <time>2023-01-15T08:43:08Z</time>
      </trkpt>
      <trkpt lat="46.5309" lon="0.3277">
        <ele>125</ele>
        <time>2023-01-15T08:43:11Z</time>
      </trkpt>
      <trkpt lat="46.53098" lon="0.32772">
        <ele>125</ele>
        <time>2023-01-15T08:43:13Z</time>
      </trkpt>
      <trkpt lat="46.53105" lon="0.32771">
        <ele>124.8</ele>
        <time>2023-01-15T08:43:15Z</time>
      </trkpt>
      <trkpt lat="46.53111" lon="0.32768">
        <ele>124.4</ele>
        <time>2023-01-15T08:43:17Z</time>
      </trkpt>
      <trkpt lat="46.53115" lon="0.32766">
        <ele>124.4</ele>
        <time>2023-01-15T08:43:18Z</time>
      </trkpt>
      <trkpt lat="46.53127" lon="0.32761">
        <ele>124.2</ele>
        <time>2023-01-15T08:43:21Z</time>
      </trkpt>
      <trkpt lat="46.53142" lon="0.32751">
        <ele>124.2</ele>
        <time>2023-01-15T08:43:24Z</time>
      </trkpt>
      <trkpt lat="46.53154" lon="0.32745">
        <ele>124</ele>
        <time>2023-01-15T08:43:27Z</time>
      </trkpt>
      <trkpt lat="46.53162" lon="0.32743">
        <ele>123.8</ele>
        <time>2023-01-15T08:43:29Z</time>
      </trkpt>
      <trkpt lat="46.5319" lon="0.32738">
        <ele>123.6</ele>
        <time>2023-01-15T08:43:34Z</time>
      </trkpt>
      <trkpt lat="46.53208" lon="0.32736">
        <ele>123.8</ele>
        <time>2023-01-15T08:43:38Z</time>
      </trkpt>
      <trkpt lat="46.5322" lon="0.32735">
        <ele>123.8</ele>
        <time>2023-01-15T08:43:40Z</time>
      </trkpt>
      <trkpt lat="46.53231" lon="0.32736">
        <ele>123.8</ele>
        <time>2023-01-15T08:43:42Z</time>
      </trkpt>
      <trkpt lat="46.53241" lon="0.32734">
        <ele>123.8</ele>
        <time>2023-01-15T08:43:44Z</time>
      </trkpt>
      <trkpt lat="46.53244" lon="0.32732">
        <ele>124</ele>
        <time>2023-01-15T08:43:45Z</time>
      </trkpt>
      <trkpt lat="46.53254" lon="0.32727">
        <ele>124</ele>
        <time>2023-01-15T08:43:48Z</time>
      </trkpt>
      <trkpt lat="46.53261" lon="0.32725">
        <ele>124</ele>
        <time>2023-01-15T08:43:49Z</time>
      </trkpt>
      <trkpt lat="46.53267" lon="0.32723">
        <ele>124</ele>
        <time>2023-01-15T08:43:50Z</time>
      </trkpt>
      <trkpt lat="46.53278" lon="0.32716">
        <ele>123.6</ele>
        <time>2023-01-15T08:43:53Z</time>
      </trkpt>
      <trkpt lat="46.53278" lon="0.32711">
        <ele>123.2</ele>
        <time>2023-01-15T08:43:55Z</time>
      </trkpt>
      <trkpt lat="46.53278" lon="0.32703">
        <ele>123.2</ele>
        <time>2023-01-15T08:43:57Z</time>
      </trkpt>
      <trkpt lat="46.5328" lon="0.32695">
        <ele>122.8</ele>
        <time>2023-01-15T08:43:59Z</time>
      </trkpt>
      <trkpt lat="46.53284" lon="0.32687">
        <ele>122.6</ele>
        <time>2023-01-15T08:44:01Z</time>
      </trkpt>
      <trkpt lat="46.53285" lon="0.3268">
        <ele>122.2</ele>
        <time>2023-01-15T08:44:02Z</time>
      </trkpt>
      <trkpt lat="46.53287" lon="0.32674">
        <ele>121.8</ele>
        <time>2023-01-15T08:44:03Z</time>
      </trkpt>
      <trkpt lat="46.53287" lon="0.32663">
        <ele>121.2</ele>
        <time>2023-01-15T08:44:05Z</time>
      </trkpt>
      <trkpt lat="46.53287" lon="0.32657">
        <ele>121</ele>
        <time>2023-01-15T08:44:06Z</time>
      </trkpt>
      <trkpt lat="46.53286" lon="0.32652">
        <ele>120.8</ele>
        <time>2023-01-15T08:44:07Z</time>
      </trkpt>
      <trkpt lat="46.53283" lon="0.32642">
        <ele>120</ele>
        <time>2023-01-15T08:44:09Z</time>
      </trkpt>
      <trkpt lat="46.53282" lon="0.32637">
        <ele>119.6</ele>
        <time>2023-01-15T08:44:10Z</time>
      </trkpt>
      <trkpt lat="46.53282" lon="0.32633">
        <ele>119.2</ele>
        <time>2023-01-15T08:44:11Z</time>
      </trkpt>
      <trkpt lat="46.53284" lon="0.32625">
        <ele>118.8</ele>
        <time>2023-01-15T08:44:13Z</time>
      </trkpt>
      <trkpt lat="46.53287" lon="0.32624">
        <ele>118.6</ele>
        <time>2023-01-15T08:44:14Z</time>
      </trkpt>
      <trkpt lat="46.53304" lon="0.32623">
        <ele>118.4</ele>
        <time>2023-01-15T08:44:19Z</time>
      </trkpt>
      <trkpt lat="46.53313" lon="0.32625">
        <ele>118.2</ele>
        <time>2023-01-15T08:44:21Z</time>
      </trkpt>
      <trkpt lat="46.53331" lon="0.32632">
        <ele>118</ele>
        <time>2023-01-15T08:44:25Z</time>
      </trkpt>
      <trkpt lat="46.53335" lon="0.32634">
        <ele>117.8</ele>
        <time>2023-01-15T08:44:26Z</time>
      </trkpt>
      <trkpt lat="46.53343" lon="0.32637">
        <ele>117.8</ele>
        <time>2023-01-15T08:44:28Z</time>
      </trkpt>
      <trkpt lat="46.53352" lon="0.32642">
        <ele>117.8</ele>
        <time>2023-01-15T08:44:30Z</time>
      </trkpt>
      <trkpt lat="46.53376" lon="0.32654">
        <ele>118</ele>
        <time>2023-01-15T08:44:36Z</time>
      </trkpt>
      <trkpt lat="46.53388" lon="0.32657">
        <ele>117.8</ele>
        <time>2023-01-15T08:44:39Z</time>
      </trkpt>
      <trkpt lat="46.53391" lon="0.32657">
        <ele>117.6</ele>
        <time>2023-01-15T08:44:40Z</time>
      </trkpt>
      <trkpt lat="46.53394" lon="0.32657">
        <ele>117.4</ele>
        <time>2023-01-15T08:44:41Z</time>
      </trkpt>
      <trkpt lat="46.53408" lon="0.32654">
        <ele>116.8</ele>
        <time>2023-01-15T08:44:45Z</time>
      </trkpt>
      <trkpt lat="46.53411" lon="0.32654">
        <ele>116.4</ele>
        <time>2023-01-15T08:44:46Z</time>
      </trkpt>
      <trkpt lat="46.53421" lon="0.32653">
        <ele>116.2</ele>
        <time>2023-01-15T08:44:48Z</time>
      </trkpt>
      <trkpt lat="46.5343" lon="0.3265">
        <ele>116</ele>
        <time>2023-01-15T08:44:50Z</time>
      </trkpt>
      <trkpt lat="46.5344" lon="0.32647">
        <ele>115</ele>
        <time>2023-01-15T08:44:52Z</time>
      </trkpt>
      <trkpt lat="46.53456" lon="0.32643">
        <ele>113.8</ele>
        <time>2023-01-15T08:44:55Z</time>
      </trkpt>
      <trkpt lat="46.53474" lon="0.32636">
        <ele>112.4</ele>
        <time>2023-01-15T08:44:59Z</time>
      </trkpt>
      <trkpt lat="46.53484" lon="0.32632">
        <ele>110.8</ele>
        <time>2023-01-15T08:45:01Z</time>
      </trkpt>
      <trkpt lat="46.53499" lon="0.32625">
        <ele>109.6</ele>
        <time>2023-01-15T08:45:04Z</time>
      </trkpt>
      <trkpt lat="46.53512" lon="0.32619">
        <ele>109</ele>
        <time>2023-01-15T08:45:06Z</time>
      </trkpt>
      <trkpt lat="46.53517" lon="0.32617">
        <ele>108.8</ele>
        <time>2023-01-15T08:45:07Z</time>
      </trkpt>
      <trkpt lat="46.53523" lon="0.32614">
        <ele>107.8</ele>
        <time>2023-01-15T08:45:08Z</time>
      </trkpt>
      <trkpt lat="46.53528" lon="0.32612">
        <ele>106.8</ele>
        <time>2023-01-15T08:45:09Z</time>
      </trkpt>
      <trkpt lat="46.53538" lon="0.32611">
        <ele>105.6</ele>
        <time>2023-01-15T08:45:11Z</time>
      </trkpt>
      <trkpt lat="46.53544" lon="0.3261">
        <ele>105.4</ele>
        <time>2023-01-15T08:45:12Z</time>
      </trkpt>
      <trkpt lat="46.53556" lon="0.3261">
        <ele>104.4</ele>
        <time>2023-01-15T08:45:14Z</time>
      </trkpt>
      <trkpt lat="46.53561" lon="0.32609">
        <ele>103.2</ele>
        <time>2023-01-15T08:45:15Z</time>
      </trkpt>
      <trkpt lat="46.53574" lon="0.32605">
        <ele>102.2</ele>
        <time>2023-01-15T08:45:17Z</time>
      </trkpt>
      <trkpt lat="46.53584" lon="0.32599">
        <ele>101</ele>
        <time>2023-01-15T08:45:19Z</time>
      </trkpt>
      <trkpt lat="46.53596" lon="0.32595">
        <ele>99.8</ele>
        <time>2023-01-15T08:45:21Z</time>
      </trkpt>
      <trkpt lat="46.53602" lon="0.32594">
        <ele>98.6</ele>
        <time>2023-01-15T08:45:22Z</time>
      </trkpt>
      <trkpt lat="46.53606" lon="0.32593">
        <ele>98</ele>
        <time>2023-01-15T08:45:23Z</time>
      </trkpt>
      <trkpt lat="46.5361" lon="0.32593">
        <ele>97.2</ele>
        <time>2023-01-15T08:45:24Z</time>
      </trkpt>
      <trkpt lat="46.53618" lon="0.32592">
        <ele>96</ele>
        <time>2023-01-15T08:45:26Z</time>
      </trkpt>
      <trkpt lat="46.53628" lon="0.32589">
        <ele>94.6</ele>
        <time>2023-01-15T08:45:29Z</time>
      </trkpt>
      <trkpt lat="46.53634" lon="0.32587">
        <ele>93.6</ele>
        <time>2023-01-15T08:45:31Z</time>
      </trkpt>
      <trkpt lat="46.53636" lon="0.32587">
        <ele>93.2</ele>
        <time>2023-01-15T08:45:32Z</time>
      </trkpt>
      <trkpt lat="46.5364" lon="0.32589">
        <ele>93</ele>
        <time>2023-01-15T08:45:36Z</time>
      </trkpt>
      <trkpt lat="46.53649" lon="0.32592">
        <ele>93.6</ele>
        <time>2023-01-15T08:45:45Z</time>
      </trkpt>
      <trkpt lat="46.5365" lon="0.32594">
        <ele>94.4</ele>
        <time>2023-01-15T08:45:49Z</time>
      </trkpt>
      <trkpt lat="46.53651" lon="0.32597">
        <ele>95.6</ele>
        <time>2023-01-15T08:45:55Z</time>
      </trkpt>
      <trkpt lat="46.53651" lon="0.32599">
        <ele>96</ele>
        <time>2023-01-15T08:45:57Z</time>
      </trkpt>
      <trkpt lat="46.53651" lon="0.32601">
        <ele>96.4</ele>
        <time>2023-01-15T08:45:59Z</time>
      </trkpt>
      <trkpt lat="46.5365" lon="0.32603">
        <ele>96.6</ele>
        <time>2023-01-15T08:46:01Z</time>
      </trkpt>
      <trkpt lat="46.53649" lon="0.32605">
        <ele>97.4</ele>
        <time>2023-01-15T08:46:03Z</time>
      </trkpt>
      <trkpt lat="46.53649" lon="0.32606">
        <ele>97.6</ele>
        <time>2023-01-15T08:46:04Z</time>
      </trkpt>
      <trkpt lat="46.53648" lon="0.32607">
        <ele>98</ele>
        <time>2023-01-15T08:46:06Z</time>
      </trkpt>
      <trkpt lat="46.53645" lon="0.3261">
        <ele>98.2</ele>
        <time>2023-01-15T08:46:10Z</time>
      </trkpt>
      <trkpt lat="46.53642" lon="0.32612">
        <ele>98.8</ele>
        <time>2023-01-15T08:46:13Z</time>
      </trkpt>
      <trkpt lat="46.53639" lon="0.32614">
        <ele>99.4</ele>
        <time>2023-01-15T08:46:16Z</time>
      </trkpt>
      <trkpt lat="46.53638" lon="0.32616">
        <ele>99.8</ele>
        <time>2023-01-15T08:46:18Z</time>
      </trkpt>
      <trkpt lat="46.53636" lon="0.32623">
        <ele>100.4</ele>
        <time>2023-01-15T08:46:23Z</time>
      </trkpt>
      <trkpt lat="46.53636" lon="0.32628">
        <ele>101.2</ele>
        <time>2023-01-15T08:46:26Z</time>
      </trkpt>
      <trkpt lat="46.53637" lon="0.3263">
        <ele>101.6</ele>
        <time>2023-01-15T08:46:29Z</time>
      </trkpt>
      <trkpt lat="46.53638" lon="0.32632">
        <ele>101.8</ele>
        <time>2023-01-15T08:46:32Z</time>
      </trkpt>
      <trkpt lat="46.5364" lon="0.32635">
        <ele>102.2</ele>
        <time>2023-01-15T08:46:36Z</time>
      </trkpt>
      <trkpt lat="46.53642" lon="0.32636">
        <ele>102.2</ele>
        <time>2023-01-15T08:46:37Z</time>
      </trkpt>
      <trkpt lat="46.53643" lon="0.32638">
        <ele>102.2</ele>
        <time>2023-01-15T08:46:38Z</time>
      </trkpt>
      <trkpt lat="46.53648" lon="0.32643">
        <ele>102.4</ele>
        <time>2023-01-15T08:46:42Z</time>
      </trkpt>
      <trkpt lat="46.53651" lon="0.32652">
        <ele>103.4</ele>
        <time>2023-01-15T08:46:46Z</time>
      </trkpt>
      <trkpt lat="46.53653" lon="0.32662">
        <ele>104.8</ele>
        <time>2023-01-15T08:46:51Z</time>
      </trkpt>
      <trkpt lat="46.53653" lon="0.32667">
        <ele>105.8</ele>
        <time>2023-01-15T08:46:54Z</time>
      </trkpt>
      <trkpt lat="46.53652" lon="0.32672">
        <ele>106.6</ele>
        <time>2023-01-15T08:46:56Z</time>
      </trkpt>
      <trkpt lat="46.53652" lon="0.32673">
        <ele>106.8</ele>
        <time>2023-01-15T08:46:57Z</time>
      </trkpt>
      <trkpt lat="46.53651" lon="0.32679">
        <ele>108.2</ele>
        <time>2023-01-15T08:47:01Z</time>
      </trkpt>
      <trkpt lat="46.53651" lon="0.32681">
        <ele>108.6</ele>
        <time>2023-01-15T08:47:02Z</time>
      </trkpt>
      <trkpt lat="46.5365" lon="0.32685">
        <ele>109.4</ele>
        <time>2023-01-15T08:47:05Z</time>
      </trkpt>
      <trkpt lat="46.53647" lon="0.32692">
        <ele>110.6</ele>
        <time>2023-01-15T08:47:10Z</time>
      </trkpt>
      <trkpt lat="46.53644" lon="0.327">
        <ele>111.6</ele>
        <time>2023-01-15T08:47:15Z</time>
      </trkpt>
      <trkpt lat="46.53643" lon="0.32704">
        <ele>112</ele>
        <time>2023-01-15T08:47:17Z</time>
      </trkpt>
      <trkpt lat="46.53641" lon="0.3271">
        <ele>112.8</ele>
        <time>2023-01-15T08:47:21Z</time>
      </trkpt>
      <trkpt lat="46.53639" lon="0.32718">
        <ele>113.8</ele>
        <time>2023-01-15T08:47:24Z</time>
      </trkpt>
      <trkpt lat="46.53639" lon="0.3272">
        <ele>113.8</ele>
        <time>2023-01-15T08:47:25Z</time>
      </trkpt>
      <trkpt lat="46.5364" lon="0.32726">
        <ele>114.4</ele>
        <time>2023-01-15T08:47:28Z</time>
      </trkpt>
      <trkpt lat="46.53645" lon="0.32732">
        <ele>114.6</ele>
        <time>2023-01-15T08:47:32Z</time>
      </trkpt>
      <trkpt lat="46.53649" lon="0.32734">
        <ele>114.4</ele>
        <time>2023-01-15T08:47:34Z</time>
      </trkpt>
      <trkpt lat="46.53665" lon="0.32738">
        <ele>112.8</ele>
        <time>2023-01-15T08:47:40Z</time>
      </trkpt>
      <trkpt lat="46.53669" lon="0.32739">
        <ele>112.6</ele>
        <time>2023-01-15T08:47:41Z</time>
      </trkpt>
      <trkpt lat="46.53686" lon="0.32742">
        <ele>111.4</ele>
        <time>2023-01-15T08:47:45Z</time>
      </trkpt>
      <trkpt lat="46.53692" lon="0.32743">
        <ele>111.2</ele>
        <time>2023-01-15T08:47:46Z</time>
      </trkpt>
      <trkpt lat="46.53697" lon="0.32744">
        <ele>111</ele>
        <time>2023-01-15T08:47:47Z</time>
      </trkpt>
      <trkpt lat="46.53702" lon="0.32746">
        <ele>110.8</ele>
        <time>2023-01-15T08:47:48Z</time>
      </trkpt>
      <trkpt lat="46.5372" lon="0.32749">
        <ele>110.2</ele>
        <time>2023-01-15T08:47:51Z</time>
      </trkpt>
      <trkpt lat="46.53731" lon="0.32751">
        <ele>109.6</ele>
        <time>2023-01-15T08:47:53Z</time>
      </trkpt>
      <trkpt lat="46.53743" lon="0.32753">
        <ele>109.2</ele>
        <time>2023-01-15T08:47:55Z</time>
      </trkpt>
      <trkpt lat="46.53778" lon="0.32762">
        <ele>108.4</ele>
        <time>2023-01-15T08:48:01Z</time>
      </trkpt>
      <trkpt lat="46.53782" lon="0.32764">
        <ele>108.4</ele>
        <time>2023-01-15T08:48:02Z</time>
      </trkpt>
      <trkpt lat="46.53791" lon="0.32767">
        <ele>108.2</ele>
        <time>2023-01-15T08:48:04Z</time>
      </trkpt>
      <trkpt lat="46.53796" lon="0.32769">
        <ele>108.2</ele>
        <time>2023-01-15T08:48:05Z</time>
      </trkpt>
      <trkpt lat="46.53811" lon="0.32775">
        <ele>107.8</ele>
        <time>2023-01-15T08:48:08Z</time>
      </trkpt>
      <trkpt lat="46.53817" lon="0.32777">
        <ele>107.6</ele>
        <time>2023-01-15T08:48:09Z</time>
      </trkpt>
      <trkpt lat="46.5383" lon="0.32783">
        <ele>107.4</ele>
        <time>2023-01-15T08:48:12Z</time>
      </trkpt>
      <trkpt lat="46.53835" lon="0.32785">
        <ele>107.4</ele>
        <time>2023-01-15T08:48:13Z</time>
      </trkpt>
      <trkpt lat="46.53849" lon="0.32791">
        <ele>107.4</ele>
        <time>2023-01-15T08:48:17Z</time>
      </trkpt>
      <trkpt lat="46.53851" lon="0.32793">
        <ele>107.6</ele>
        <time>2023-01-15T08:48:18Z</time>
      </trkpt>
      <trkpt lat="46.53868" lon="0.328">
        <ele>107.4</ele>
        <time>2023-01-15T08:48:23Z</time>
      </trkpt>
      <trkpt lat="46.53878" lon="0.32802">
        <ele>106.8</ele>
        <time>2023-01-15T08:48:26Z</time>
      </trkpt>
      <trkpt lat="46.53885" lon="0.32803">
        <ele>106.6</ele>
        <time>2023-01-15T08:48:28Z</time>
      </trkpt>
      <trkpt lat="46.53893" lon="0.32803">
        <ele>105.6</ele>
        <time>2023-01-15T08:48:30Z</time>
      </trkpt>
      <trkpt lat="46.53897" lon="0.32804">
        <ele>105.4</ele>
        <time>2023-01-15T08:48:31Z</time>
      </trkpt>
      <trkpt lat="46.53903" lon="0.32803">
        <ele>104.6</ele>
        <time>2023-01-15T08:48:33Z</time>
      </trkpt>
      <trkpt lat="46.53907" lon="0.32803">
        <ele>104</ele>
        <time>2023-01-15T08:48:34Z</time>
      </trkpt>
      <trkpt lat="46.53915" lon="0.32804">
        <ele>103.4</ele>
        <time>2023-01-15T08:48:36Z</time>
      </trkpt>
      <trkpt lat="46.53923" lon="0.32804">
        <ele>102.4</ele>
        <time>2023-01-15T08:48:39Z</time>
      </trkpt>
      <trkpt lat="46.53935" lon="0.32804">
        <ele>101.2</ele>
        <time>2023-01-15T08:48:44Z</time>
      </trkpt>
      <trkpt lat="46.53937" lon="0.32804">
        <ele>101</ele>
        <time>2023-01-15T08:48:45Z</time>
      </trkpt>
      <trkpt lat="46.53942" lon="0.32805">
        <ele>100.8</ele>
        <time>2023-01-15T08:48:47Z</time>
      </trkpt>
      <trkpt lat="46.53946" lon="0.32806">
        <ele>100.8</ele>
        <time>2023-01-15T08:48:50Z</time>
      </trkpt>
      <trkpt lat="46.53953" lon="0.32807">
        <ele>100.6</ele>
        <time>2023-01-15T08:48:53Z</time>
      </trkpt>
      <trkpt lat="46.53967" lon="0.32811">
        <ele>101.8</ele>
        <time>2023-01-15T08:49:05Z</time>
      </trkpt>
      <trkpt lat="46.53974" lon="0.32813">
        <ele>101.8</ele>
        <time>2023-01-15T08:49:10Z</time>
      </trkpt>
      <trkpt lat="46.53979" lon="0.32818">
        <ele>102.2</ele>
        <time>2023-01-15T08:49:14Z</time>
      </trkpt>
      <trkpt lat="46.5398" lon="0.32821">
        <ele>102.8</ele>
        <time>2023-01-15T08:49:17Z</time>
      </trkpt>
      <trkpt lat="46.5398" lon="0.32822">
        <ele>103.2</ele>
        <time>2023-01-15T08:49:19Z</time>
      </trkpt>
      <trkpt lat="46.5398" lon="0.32823">
        <ele>103.4</ele>
        <time>2023-01-15T08:49:20Z</time>
      </trkpt>
      <trkpt lat="46.53979" lon="0.32824">
        <ele>103.6</ele>
        <time>2023-01-15T08:49:21Z</time>
      </trkpt>
      <trkpt lat="46.53979" lon="0.32825">
        <ele>103.6</ele>
        <time>2023-01-15T08:49:22Z</time>
      </trkpt>
      <trkpt lat="46.53977" lon="0.32828">
        <ele>104.4</ele>
        <time>2023-01-15T08:49:26Z</time>
      </trkpt>
      <trkpt lat="46.53976" lon="0.32829">
        <ele>104.4</ele>
        <time>2023-01-15T08:49:27Z</time>
      </trkpt>
      <trkpt lat="46.53976" lon="0.3283">
        <ele>104.6</ele>
        <time>2023-01-15T08:49:28Z</time>
      </trkpt>
      <trkpt lat="46.53974" lon="0.32834">
        <ele>105.4</ele>
        <time>2023-01-15T08:49:32Z</time>
      </trkpt>
      <trkpt lat="46.53973" lon="0.32835">
        <ele>105.8</ele>
        <time>2023-01-15T08:49:34Z</time>
      </trkpt>
      <trkpt lat="46.53971" lon="0.32837">
        <ele>105.8</ele>
        <time>2023-01-15T08:49:37Z</time>
      </trkpt>
      <trkpt lat="46.53968" lon="0.32839">
        <ele>106</ele>
        <time>2023-01-15T08:49:40Z</time>
      </trkpt>
      <trkpt lat="46.53964" lon="0.3284">
        <ele>106.2</ele>
        <time>2023-01-15T08:49:43Z</time>
      </trkpt>
      <trkpt lat="46.53958" lon="0.32842">
        <ele>106.4</ele>
        <time>2023-01-15T08:49:47Z</time>
      </trkpt>
      <trkpt lat="46.53956" lon="0.32847">
        <ele>107</ele>
        <time>2023-01-15T08:49:51Z</time>
      </trkpt>
      <trkpt lat="46.53952" lon="0.32852">
        <ele>107.4</ele>
        <time>2023-01-15T08:49:55Z</time>
      </trkpt>
      <trkpt lat="46.53946" lon="0.32854">
        <ele>107.6</ele>
        <time>2023-01-15T08:49:58Z</time>
      </trkpt>
      <trkpt lat="46.53944" lon="0.32855">
        <ele>107.6</ele>
        <time>2023-01-15T08:49:59Z</time>
      </trkpt>
      <trkpt lat="46.53943" lon="0.32855">
        <ele>107.8</ele>
        <time>2023-01-15T08:50:00Z</time>
      </trkpt>
      <trkpt lat="46.53936" lon="0.32859">
        <ele>108.6</ele>
        <time>2023-01-15T08:50:05Z</time>
      </trkpt>
      <trkpt lat="46.5393" lon="0.32862">
        <ele>109</ele>
        <time>2023-01-15T08:50:09Z</time>
      </trkpt>
      <trkpt lat="46.53925" lon="0.32864">
        <ele>109.6</ele>
        <time>2023-01-15T08:50:13Z</time>
      </trkpt>
      <trkpt lat="46.53914" lon="0.32872">
        <ele>110.2</ele>
        <time>2023-01-15T08:50:22Z</time>
      </trkpt>
      <trkpt lat="46.53906" lon="0.32888">
        <ele>110.2</ele>
        <time>2023-01-15T08:50:31Z</time>
      </trkpt>
      <trkpt lat="46.53904" lon="0.32897">
        <ele>108.6</ele>
        <time>2023-01-15T08:50:36Z</time>
      </trkpt>
      <trkpt lat="46.53902" lon="0.32901">
        <ele>107.4</ele>
        <time>2023-01-15T08:50:39Z</time>
      </trkpt>
      <trkpt lat="46.53899" lon="0.32906">
        <ele>107</ele>
        <time>2023-01-15T08:50:43Z</time>
      </trkpt>
      <trkpt lat="46.53896" lon="0.3291">
        <ele>107.4</ele>
        <time>2023-01-15T08:50:46Z</time>
      </trkpt>
      <trkpt lat="46.53895" lon="0.32914">
        <ele>107.6</ele>
        <time>2023-01-15T08:50:48Z</time>
      </trkpt>
      <trkpt lat="46.53889" lon="0.32922">
        <ele>107.4</ele>
        <time>2023-01-15T08:50:52Z</time>
      </trkpt>
      <trkpt lat="46.53886" lon="0.32926">
        <ele>107.6</ele>
        <time>2023-01-15T08:50:54Z</time>
      </trkpt>
      <trkpt lat="46.53878" lon="0.32935">
        <ele>108</ele>
        <time>2023-01-15T08:50:58Z</time>
      </trkpt>
      <trkpt lat="46.53871" lon="0.3294">
        <ele>108.4</ele>
        <time>2023-01-15T08:51:01Z</time>
      </trkpt>
      <trkpt lat="46.53866" lon="0.32943">
        <ele>108.8</ele>
        <time>2023-01-15T08:51:03Z</time>
      </trkpt>
      <trkpt lat="46.53858" lon="0.32948">
        <ele>109.4</ele>
        <time>2023-01-15T08:51:07Z</time>
      </trkpt>
      <trkpt lat="46.53846" lon="0.32958">
        <ele>109</ele>
        <time>2023-01-15T08:51:13Z</time>
      </trkpt>
      <trkpt lat="46.53835" lon="0.32978">
        <ele>108.2</ele>
        <time>2023-01-15T08:51:18Z</time>
      </trkpt>
      <trkpt lat="46.53833" lon="0.32983">
        <ele>108</ele>
        <time>2023-01-15T08:51:19Z</time>
      </trkpt>
      <trkpt lat="46.5383" lon="0.32988">
        <ele>107.4</ele>
        <time>2023-01-15T08:51:20Z</time>
      </trkpt>
      <trkpt lat="46.53825" lon="0.33001">
        <ele>106</ele>
        <time>2023-01-15T08:51:22Z</time>
      </trkpt>
      <trkpt lat="46.53823" lon="0.33008">
        <ele>105.8</ele>
        <time>2023-01-15T08:51:23Z</time>
      </trkpt>
      <trkpt lat="46.53819" lon="0.33013">
        <ele>105.6</ele>
        <time>2023-01-15T08:51:24Z</time>
      </trkpt>
      <trkpt lat="46.53812" lon="0.33027">
        <ele>105.8</ele>
        <time>2023-01-15T08:51:27Z</time>
      </trkpt>
      <trkpt lat="46.53804" lon="0.33043">
        <ele>107.2</ele>
        <time>2023-01-15T08:51:32Z</time>
      </trkpt>
      <trkpt lat="46.53796" lon="0.33062">
        <ele>107.6</ele>
        <time>2023-01-15T08:51:38Z</time>
      </trkpt>
      <trkpt lat="46.53784" lon="0.33085">
        <ele>108</ele>
        <time>2023-01-15T08:51:44Z</time>
      </trkpt>
      <trkpt lat="46.53781" lon="0.3309">
        <ele>107.8</ele>
        <time>2023-01-15T08:51:45Z</time>
      </trkpt>
      <trkpt lat="46.53765" lon="0.3311">
        <ele>107.8</ele>
        <time>2023-01-15T08:51:50Z</time>
      </trkpt>
      <trkpt lat="46.5375" lon="0.33132">
        <ele>107.8</ele>
        <time>2023-01-15T08:51:56Z</time>
      </trkpt>
      <trkpt lat="46.53746" lon="0.33147">
        <ele>107.6</ele>
        <time>2023-01-15T08:52:00Z</time>
      </trkpt>
      <trkpt lat="46.53746" lon="0.33152">
        <ele>107.4</ele>
        <time>2023-01-15T08:52:01Z</time>
      </trkpt>
      <trkpt lat="46.53751" lon="0.33167">
        <ele>106</ele>
        <time>2023-01-15T08:52:05Z</time>
      </trkpt>
      <trkpt lat="46.53756" lon="0.3318">
        <ele>105</ele>
        <time>2023-01-15T08:52:08Z</time>
      </trkpt>
      <trkpt lat="46.5376" lon="0.33192">
        <ele>104.4</ele>
        <time>2023-01-15T08:52:11Z</time>
      </trkpt>
      <trkpt lat="46.53761" lon="0.33211">
        <ele>104.2</ele>
        <time>2023-01-15T08:52:16Z</time>
      </trkpt>
      <trkpt lat="46.53763" lon="0.33227">
        <ele>103.8</ele>
        <time>2023-01-15T08:52:21Z</time>
      </trkpt>
      <trkpt lat="46.53763" lon="0.33232">
        <ele>103.6</ele>
        <time>2023-01-15T08:52:23Z</time>
      </trkpt>
      <trkpt lat="46.53762" lon="0.33246">
        <ele>103.4</ele>
        <time>2023-01-15T08:52:28Z</time>
      </trkpt>
      <trkpt lat="46.53762" lon="0.3325">
        <ele>103.4</ele>
        <time>2023-01-15T08:52:30Z</time>
      </trkpt>
      <trkpt lat="46.53765" lon="0.33259">
        <ele>102.8</ele>
        <time>2023-01-15T08:52:34Z</time>
      </trkpt>
      <trkpt lat="46.53765" lon="0.33263">
        <ele>102.2</ele>
        <time>2023-01-15T08:52:35Z</time>
      </trkpt>
      <trkpt lat="46.53765" lon="0.3327">
        <ele>101.6</ele>
        <time>2023-01-15T08:52:37Z</time>
      </trkpt>
      <trkpt lat="46.53764" lon="0.33276">
        <ele>101.2</ele>
        <time>2023-01-15T08:52:39Z</time>
      </trkpt>
      <trkpt lat="46.53764" lon="0.33284">
        <ele>101.2</ele>
        <time>2023-01-15T08:52:41Z</time>
      </trkpt>
      <trkpt lat="46.53764" lon="0.33294">
        <ele>101.4</ele>
        <time>2023-01-15T08:52:45Z</time>
      </trkpt>
      <trkpt lat="46.53764" lon="0.33297">
        <ele>101.4</ele>
        <time>2023-01-15T08:52:46Z</time>
      </trkpt>
      <trkpt lat="46.53763" lon="0.33306">
        <ele>100.6</ele>
        <time>2023-01-15T08:52:51Z</time>
      </trkpt>
      <trkpt lat="46.53763" lon="0.33313">
        <ele>100.6</ele>
        <time>2023-01-15T08:52:56Z</time>
      </trkpt>
      <trkpt lat="46.53764" lon="0.33329">
        <ele>100.6</ele>
        <time>2023-01-15T08:53:04Z</time>
      </trkpt>
      <trkpt lat="46.53765" lon="0.33332">
        <ele>96.2</ele>
        <time>2023-01-15T08:53:05Z</time>
      </trkpt>
      <trkpt lat="46.53764" lon="0.33343">
        <ele>96.2</ele>
        <time>2023-01-15T08:53:09Z</time>
      </trkpt>
      <trkpt lat="46.53762" lon="0.33366">
        <ele>95.4</ele>
        <time>2023-01-15T08:53:16Z</time>
      </trkpt>
      <trkpt lat="46.53762" lon="0.33368">
        <ele>95</ele>
        <time>2023-01-15T08:53:17Z</time>
      </trkpt>
      <trkpt lat="46.53761" lon="0.3337">
        <ele>94.8</ele>
        <time>2023-01-15T08:53:18Z</time>
      </trkpt>
      <trkpt lat="46.53757" lon="0.33378">
        <ele>94.2</ele>
        <time>2023-01-15T08:53:22Z</time>
      </trkpt>
      <trkpt lat="46.53753" lon="0.33404">
        <ele>95.2</ele>
        <time>2023-01-15T08:53:32Z</time>
      </trkpt>
      <trkpt lat="46.53752" lon="0.33414">
        <ele>95</ele>
        <time>2023-01-15T08:53:35Z</time>
      </trkpt>
      <trkpt lat="46.53753" lon="0.33421">
        <ele>94.4</ele>
        <time>2023-01-15T08:53:38Z</time>
      </trkpt>
      <trkpt lat="46.53753" lon="0.33422">
        <ele>94</ele>
        <time>2023-01-15T08:53:39Z</time>
      </trkpt>
      <trkpt lat="46.53752" lon="0.33425">
        <ele>93</ele>
        <time>2023-01-15T08:53:43Z</time>
      </trkpt>
      <trkpt lat="46.53752" lon="0.33426">
        <ele>92.8</ele>
        <time>2023-01-15T08:53:45Z</time>
      </trkpt>
      <trkpt lat="46.53752" lon="0.33425">
        <ele>92.8</ele>
        <time>2023-01-15T08:53:46Z</time>
      </trkpt>
      <trkpt lat="46.53752" lon="0.33424">
        <ele>93</ele>
        <time>2023-01-15T08:53:49Z</time>
      </trkpt>
      <trkpt lat="46.53752" lon="0.33422">
        <ele>93</ele>
        <time>2023-01-15T08:53:51Z</time>
      </trkpt>
      <trkpt lat="46.53751" lon="0.33421">
        <ele>92.8</ele>
        <time>2023-01-15T08:53:53Z</time>
      </trkpt>
      <trkpt lat="46.53754" lon="0.33417">
        <ele>92.4</ele>
        <time>2023-01-15T08:53:56Z</time>
      </trkpt>
      <trkpt lat="46.53756" lon="0.3341">
        <ele>92.4</ele>
        <time>2023-01-15T08:54:02Z</time>
      </trkpt>
      <trkpt lat="46.53758" lon="0.33407">
        <ele>92.8</ele>
        <time>2023-01-15T08:54:06Z</time>
      </trkpt>
      <trkpt lat="46.53758" lon="0.33405">
        <ele>92.8</ele>
        <time>2023-01-15T08:54:08Z</time>
      </trkpt>
      <trkpt lat="46.53759" lon="0.33402">
        <ele>92.6</ele>
        <time>2023-01-15T08:54:10Z</time>
      </trkpt>
      <trkpt lat="46.53759" lon="0.33399">
        <ele>92.4</ele>
        <time>2023-01-15T08:54:12Z</time>
      </trkpt>
      <trkpt lat="46.53761" lon="0.33397">
        <ele>92</ele>
        <time>2023-01-15T08:54:15Z</time>
      </trkpt>
      <trkpt lat="46.53761" lon="0.33395">
        <ele>91.8</ele>
        <time>2023-01-15T08:54:17Z</time>
      </trkpt>
      <trkpt lat="46.53762" lon="0.33394">
        <ele>91.8</ele>
        <time>2023-01-15T08:54:18Z</time>
      </trkpt>
      <trkpt lat="46.53765" lon="0.33389">
        <ele>90.8</ele>
        <time>2023-01-15T08:54:21Z</time>
      </trkpt>
      <trkpt lat="46.53768" lon="0.33386">
        <ele>89.8</ele>
        <time>2023-01-15T08:54:23Z</time>
      </trkpt>
      <trkpt lat="46.53771" lon="0.33381">
        <ele>88.4</ele>
        <time>2023-01-15T08:54:26Z</time>
      </trkpt>
      <trkpt lat="46.53774" lon="0.33376">
        <ele>87.4</ele>
        <time>2023-01-15T08:54:29Z</time>
      </trkpt>
      <trkpt lat="46.53776" lon="0.33369">
        <ele>86.2</ele>
        <time>2023-01-15T08:54:32Z</time>
      </trkpt>
      <trkpt lat="46.5378" lon="0.33366">
        <ele>84.6</ele>
        <time>2023-01-15T08:54:35Z</time>
      </trkpt>
      <trkpt lat="46.53784" lon="0.33363">
        <ele>83.4</ele>
        <time>2023-01-15T08:54:38Z</time>
      </trkpt>
      <trkpt lat="46.53787" lon="0.33363">
        <ele>83</ele>
        <time>2023-01-15T08:54:47Z</time>
      </trkpt>
      <trkpt lat="46.53792" lon="0.33364">
        <ele>83</ele>
        <time>2023-01-15T08:54:58Z</time>
      </trkpt>
      <trkpt lat="46.53793" lon="0.33362">
        <ele>82.8</ele>
        <time>2023-01-15T08:55:09Z</time>
      </trkpt>
      <trkpt lat="46.5379" lon="0.33367">
        <ele>83</ele>
        <time>2023-01-15T08:55:19Z</time>
      </trkpt>
      <trkpt lat="46.53789" lon="0.33368">
        <ele>83.2</ele>
        <time>2023-01-15T08:55:20Z</time>
      </trkpt>
      <trkpt lat="46.53788" lon="0.33372">
        <ele>83.2</ele>
        <time>2023-01-15T08:55:23Z</time>
      </trkpt>
      <trkpt lat="46.53788" lon="0.33377">
        <ele>83.4</ele>
        <time>2023-01-15T08:55:25Z</time>
      </trkpt>
      <trkpt lat="46.53784" lon="0.33391">
        <ele>84</ele>
        <time>2023-01-15T08:55:32Z</time>
      </trkpt>
      <trkpt lat="46.53782" lon="0.33407">
        <ele>84.4</ele>
        <time>2023-01-15T08:55:37Z</time>
      </trkpt>
      <trkpt lat="46.53782" lon="0.33412">
        <ele>84.6</ele>
        <time>2023-01-15T08:55:39Z</time>
      </trkpt>
      <trkpt lat="46.53779" lon="0.33431">
        <ele>84.8</ele>
        <time>2023-01-15T08:55:45Z</time>
      </trkpt>
      <trkpt lat="46.53774" lon="0.33448">
        <ele>85.8</ele>
        <time>2023-01-15T08:55:51Z</time>
      </trkpt>
      <trkpt lat="46.53772" lon="0.33454">
        <ele>86.2</ele>
        <time>2023-01-15T08:55:53Z</time>
      </trkpt>
      <trkpt lat="46.53767" lon="0.33478">
        <ele>86.6</ele>
        <time>2023-01-15T08:56:00Z</time>
      </trkpt>
      <trkpt lat="46.53764" lon="0.33488">
        <ele>86.8</ele>
        <time>2023-01-15T08:56:02Z</time>
      </trkpt>
      <trkpt lat="46.53759" lon="0.33508">
        <ele>86.6</ele>
        <time>2023-01-15T08:56:06Z</time>
      </trkpt>
      <trkpt lat="46.53755" lon="0.33518">
        <ele>86.6</ele>
        <time>2023-01-15T08:56:08Z</time>
      </trkpt>
      <trkpt lat="46.53752" lon="0.3353">
        <ele>86.4</ele>
        <time>2023-01-15T08:56:11Z</time>
      </trkpt>
      <trkpt lat="46.53741" lon="0.3356">
        <ele>87</ele>
        <time>2023-01-15T08:56:17Z</time>
      </trkpt>
      <trkpt lat="46.53728" lon="0.33584">
        <ele>88</ele>
        <time>2023-01-15T08:56:22Z</time>
      </trkpt>
      <trkpt lat="46.53726" lon="0.33588">
        <ele>88.2</ele>
        <time>2023-01-15T08:56:23Z</time>
      </trkpt>
      <trkpt lat="46.5372" lon="0.33596">
        <ele>89.2</ele>
        <time>2023-01-15T08:56:26Z</time>
      </trkpt>
      <trkpt lat="46.53715" lon="0.33603">
        <ele>90.2</ele>
        <time>2023-01-15T08:56:29Z</time>
      </trkpt>
      <trkpt lat="46.53714" lon="0.33605">
        <ele>90.4</ele>
        <time>2023-01-15T08:56:30Z</time>
      </trkpt>
      <trkpt lat="46.53704" lon="0.33622">
        <ele>91.6</ele>
        <time>2023-01-15T08:56:35Z</time>
      </trkpt>
      <trkpt lat="46.53702" lon="0.33625">
        <ele>91.8</ele>
        <time>2023-01-15T08:56:36Z</time>
      </trkpt>
      <trkpt lat="46.53694" lon="0.33634">
        <ele>92.6</ele>
        <time>2023-01-15T08:56:41Z</time>
      </trkpt>
      <trkpt lat="46.53685" lon="0.3364">
        <ele>93.2</ele>
        <time>2023-01-15T08:56:44Z</time>
      </trkpt>
      <trkpt lat="46.53678" lon="0.33643">
        <ele>93.8</ele>
        <time>2023-01-15T08:56:47Z</time>
      </trkpt>
      <trkpt lat="46.53669" lon="0.33643">
        <ele>94.6</ele>
        <time>2023-01-15T08:56:51Z</time>
      </trkpt>
      <trkpt lat="46.53668" lon="0.33643">
        <ele>94.8</ele>
        <time>2023-01-15T08:56:52Z</time>
      </trkpt>
      <trkpt lat="46.5366" lon="0.33641">
        <ele>95.8</ele>
        <time>2023-01-15T08:56:58Z</time>
      </trkpt>
      <trkpt lat="46.53658" lon="0.3364">
        <ele>96</ele>
        <time>2023-01-15T08:56:59Z</time>
      </trkpt>
      <trkpt lat="46.53651" lon="0.33635">
        <ele>97</ele>
        <time>2023-01-15T08:57:04Z</time>
      </trkpt>
      <trkpt lat="46.53649" lon="0.33633">
        <ele>97.2</ele>
        <time>2023-01-15T08:57:06Z</time>
      </trkpt>
      <trkpt lat="46.53643" lon="0.33631">
        <ele>98.2</ele>
        <time>2023-01-15T08:57:09Z</time>
      </trkpt>
      <trkpt lat="46.53638" lon="0.33627">
        <ele>98.4</ele>
        <time>2023-01-15T08:57:12Z</time>
      </trkpt>
      <trkpt lat="46.53631" lon="0.33623">
        <ele>99.4</ele>
        <time>2023-01-15T08:57:17Z</time>
      </trkpt>
      <trkpt lat="46.53629" lon="0.33621">
        <ele>99.8</ele>
        <time>2023-01-15T08:57:19Z</time>
      </trkpt>
      <trkpt lat="46.53627" lon="0.33618">
        <ele>100</ele>
        <time>2023-01-15T08:57:21Z</time>
      </trkpt>
      <trkpt lat="46.53624" lon="0.33616">
        <ele>100.4</ele>
        <time>2023-01-15T08:57:23Z</time>
      </trkpt>
      <trkpt lat="46.53618" lon="0.3361">
        <ele>101.2</ele>
        <time>2023-01-15T08:57:27Z</time>
      </trkpt>
      <trkpt lat="46.53615" lon="0.33608">
        <ele>101.6</ele>
        <time>2023-01-15T08:57:29Z</time>
      </trkpt>
      <trkpt lat="46.53606" lon="0.33596">
        <ele>102.4</ele>
        <time>2023-01-15T08:57:35Z</time>
      </trkpt>
      <trkpt lat="46.53603" lon="0.33592">
        <ele>102.6</ele>
        <time>2023-01-15T08:57:37Z</time>
      </trkpt>
      <trkpt lat="46.53602" lon="0.33591">
        <ele>102.8</ele>
        <time>2023-01-15T08:57:38Z</time>
      </trkpt>
      <trkpt lat="46.53599" lon="0.33587">
        <ele>103.4</ele>
        <time>2023-01-15T08:57:41Z</time>
      </trkpt>
      <trkpt lat="46.53597" lon="0.33583">
        <ele>103.8</ele>
        <time>2023-01-15T08:57:43Z</time>
      </trkpt>
      <trkpt lat="46.53593" lon="0.33575">
        <ele>105</ele>
        <time>2023-01-15T08:57:48Z</time>
      </trkpt>
      <trkpt lat="46.53589" lon="0.3357">
        <ele>105.6</ele>
        <time>2023-01-15T08:57:51Z</time>
      </trkpt>
      <trkpt lat="46.53586" lon="0.33568">
        <ele>106</ele>
        <time>2023-01-15T08:57:54Z</time>
      </trkpt>
      <trkpt lat="46.53585" lon="0.33567">
        <ele>106.2</ele>
        <time>2023-01-15T08:57:55Z</time>
      </trkpt>
      <trkpt lat="46.53579" lon="0.33561">
        <ele>106.8</ele>
        <time>2023-01-15T08:57:58Z</time>
      </trkpt>
      <trkpt lat="46.53575" lon="0.33558">
        <ele>107.2</ele>
        <time>2023-01-15T08:58:00Z</time>
      </trkpt>
      <trkpt lat="46.53574" lon="0.33556">
        <ele>107.4</ele>
        <time>2023-01-15T08:58:01Z</time>
      </trkpt>
      <trkpt lat="46.53563" lon="0.3354">
        <ele>108.2</ele>
        <time>2023-01-15T08:58:09Z</time>
      </trkpt>
      <trkpt lat="46.53553" lon="0.33526">
        <ele>109.2</ele>
        <time>2023-01-15T08:58:15Z</time>
      </trkpt>
      <trkpt lat="46.53548" lon="0.33521">
        <ele>109.4</ele>
        <time>2023-01-15T08:58:17Z</time>
      </trkpt>
      <trkpt lat="46.53536" lon="0.33503">
        <ele>110.2</ele>
        <time>2023-01-15T08:58:23Z</time>
      </trkpt>
      <trkpt lat="46.53528" lon="0.33496">
        <ele>110.4</ele>
        <time>2023-01-15T08:58:27Z</time>
      </trkpt>
      <trkpt lat="46.5352" lon="0.33486">
        <ele>110.8</ele>
        <time>2023-01-15T08:58:31Z</time>
      </trkpt>
      <trkpt lat="46.53507" lon="0.33469">
        <ele>111.2</ele>
        <time>2023-01-15T08:58:37Z</time>
      </trkpt>
      <trkpt lat="46.53502" lon="0.33462">
        <ele>111.4</ele>
        <time>2023-01-15T08:58:39Z</time>
      </trkpt>
      <trkpt lat="46.53495" lon="0.33446">
        <ele>111.6</ele>
        <time>2023-01-15T08:58:43Z</time>
      </trkpt>
      <trkpt lat="46.53491" lon="0.33438">
        <ele>111.6</ele>
        <time>2023-01-15T08:58:47Z</time>
      </trkpt>
      <trkpt lat="46.53491" lon="0.33437">
        <ele>111.6</ele>
        <time>2023-01-15T08:58:48Z</time>
      </trkpt>
      <trkpt lat="46.53485" lon="0.33417">
        <ele>111.8</ele>
        <time>2023-01-15T08:58:56Z</time>
      </trkpt>
      <trkpt lat="46.53479" lon="0.33393">
        <ele>111.8</ele>
        <time>2023-01-15T08:59:01Z</time>
      </trkpt>
      <trkpt lat="46.53476" lon="0.33375">
        <ele>112.4</ele>
        <time>2023-01-15T08:59:07Z</time>
      </trkpt>
      <trkpt lat="46.53472" lon="0.33348">
        <ele>112.8</ele>
        <time>2023-01-15T08:59:14Z</time>
      </trkpt>
      <trkpt lat="46.5347" lon="0.33339">
        <ele>113</ele>
        <time>2023-01-15T08:59:16Z</time>
      </trkpt>
      <trkpt lat="46.53469" lon="0.33329">
        <ele>113</ele>
        <time>2023-01-15T08:59:18Z</time>
      </trkpt>
      <trkpt lat="46.53469" lon="0.33325">
        <ele>113</ele>
        <time>2023-01-15T08:59:19Z</time>
      </trkpt>
      <trkpt lat="46.53469" lon="0.33321">
        <ele>113.2</ele>
        <time>2023-01-15T08:59:20Z</time>
      </trkpt>
      <trkpt lat="46.53467" lon="0.33306">
        <ele>113.2</ele>
        <time>2023-01-15T08:59:23Z</time>
      </trkpt>
      <trkpt lat="46.53466" lon="0.33302">
        <ele>113.4</ele>
        <time>2023-01-15T08:59:24Z</time>
      </trkpt>
      <trkpt lat="46.53464" lon="0.33294">
        <ele>113.4</ele>
        <time>2023-01-15T08:59:26Z</time>
      </trkpt>
      <trkpt lat="46.53462" lon="0.3328">
        <ele>114</ele>
        <time>2023-01-15T08:59:30Z</time>
      </trkpt>
      <trkpt lat="46.53456" lon="0.33249">
        <ele>114.2</ele>
        <time>2023-01-15T08:59:35Z</time>
      </trkpt>
      <trkpt lat="46.5345" lon="0.33207">
        <ele>114.2</ele>
        <time>2023-01-15T08:59:42Z</time>
      </trkpt>
      <trkpt lat="46.5344" lon="0.33174">
        <ele>113</ele>
        <time>2023-01-15T08:59:49Z</time>
      </trkpt>
      <trkpt lat="46.53437" lon="0.33168">
        <ele>112.4</ele>
        <time>2023-01-15T08:59:51Z</time>
      </trkpt>
      <trkpt lat="46.53435" lon="0.3316">
        <ele>111.8</ele>
        <time>2023-01-15T08:59:53Z</time>
      </trkpt>
      <trkpt lat="46.53434" lon="0.33157">
        <ele>111.8</ele>
        <time>2023-01-15T08:59:54Z</time>
      </trkpt>
      <trkpt lat="46.53433" lon="0.33148">
        <ele>111.4</ele>
        <time>2023-01-15T08:59:56Z</time>
      </trkpt>
      <trkpt lat="46.53432" lon="0.33131">
        <ele>111.2</ele>
        <time>2023-01-15T08:59:59Z</time>
      </trkpt>
      <trkpt lat="46.53429" lon="0.33121">
        <ele>111.4</ele>
        <time>2023-01-15T09:00:01Z</time>
      </trkpt>
      <trkpt lat="46.53427" lon="0.33113">
        <ele>111.8</ele>
        <time>2023-01-15T09:00:03Z</time>
      </trkpt>
      <trkpt lat="46.53421" lon="0.33102">
        <ele>112.6</ele>
        <time>2023-01-15T09:00:06Z</time>
      </trkpt>
      <trkpt lat="46.53418" lon="0.33097">
        <ele>112.8</ele>
        <time>2023-01-15T09:00:08Z</time>
      </trkpt>
      <trkpt lat="46.53406" lon="0.33086">
        <ele>113.8</ele>
        <time>2023-01-15T09:00:13Z</time>
      </trkpt>
      <trkpt lat="46.53404" lon="0.33085">
        <ele>114.2</ele>
        <time>2023-01-15T09:00:14Z</time>
      </trkpt>
      <trkpt lat="46.53398" lon="0.33081">
        <ele>115</ele>
        <time>2023-01-15T09:00:17Z</time>
      </trkpt>
      <trkpt lat="46.53394" lon="0.33077">
        <ele>115.2</ele>
        <time>2023-01-15T09:00:19Z</time>
      </trkpt>
      <trkpt lat="46.53393" lon="0.33075">
        <ele>115.4</ele>
        <time>2023-01-15T09:00:20Z</time>
      </trkpt>
      <trkpt lat="46.53389" lon="0.33071">
        <ele>116.2</ele>
        <time>2023-01-15T09:00:23Z</time>
      </trkpt>
      <trkpt lat="46.53387" lon="0.33067">
        <ele>117.2</ele>
        <time>2023-01-15T09:00:26Z</time>
      </trkpt>
      <trkpt lat="46.53384" lon="0.33052">
        <ele>118.2</ele>
        <time>2023-01-15T09:00:32Z</time>
      </trkpt>
      <trkpt lat="46.53383" lon="0.33049">
        <ele>118.4</ele>
        <time>2023-01-15T09:00:33Z</time>
      </trkpt>
      <trkpt lat="46.53379" lon="0.33039">
        <ele>119.4</ele>
        <time>2023-01-15T09:00:37Z</time>
      </trkpt>
      <trkpt lat="46.53378" lon="0.33037">
        <ele>119.4</ele>
        <time>2023-01-15T09:00:38Z</time>
      </trkpt>
      <trkpt lat="46.53377" lon="0.33032">
        <ele>120</ele>
        <time>2023-01-15T09:00:40Z</time>
      </trkpt>
      <trkpt lat="46.53374" lon="0.33023">
        <ele>120.4</ele>
        <time>2023-01-15T09:00:44Z</time>
      </trkpt>
      <trkpt lat="46.53373" lon="0.3302">
        <ele>120.6</ele>
        <time>2023-01-15T09:00:45Z</time>
      </trkpt>
      <trkpt lat="46.53371" lon="0.33011">
        <ele>121</ele>
        <time>2023-01-15T09:00:48Z</time>
      </trkpt>
      <trkpt lat="46.53369" lon="0.33002">
        <ele>121.6</ele>
        <time>2023-01-15T09:00:51Z</time>
      </trkpt>
      <trkpt lat="46.53369" lon="0.32999">
        <ele>121.6</ele>
        <time>2023-01-15T09:00:52Z</time>
      </trkpt>
      <trkpt lat="46.53367" lon="0.32991">
        <ele>122.2</ele>
        <time>2023-01-15T09:00:55Z</time>
      </trkpt>
      <trkpt lat="46.53362" lon="0.32978">
        <ele>122.4</ele>
        <time>2023-01-15T09:01:00Z</time>
      </trkpt>
      <trkpt lat="46.53353" lon="0.32974">
        <ele>122.6</ele>
        <time>2023-01-15T09:01:04Z</time>
      </trkpt>
      <trkpt lat="46.53351" lon="0.32974">
        <ele>122.6</ele>
        <time>2023-01-15T09:01:05Z</time>
      </trkpt>
      <trkpt lat="46.53341" lon="0.32983">
        <ele>122.8</ele>
        <time>2023-01-15T09:01:12Z</time>
      </trkpt>
      <trkpt lat="46.53329" lon="0.32994">
        <ele>122.6</ele>
        <time>2023-01-15T09:01:18Z</time>
      </trkpt>
      <trkpt lat="46.5331" lon="0.33003">
        <ele>123</ele>
        <time>2023-01-15T09:01:24Z</time>
      </trkpt>
      <trkpt lat="46.53295" lon="0.33007">
        <ele>123</ele>
        <time>2023-01-15T09:01:29Z</time>
      </trkpt>
      <trkpt lat="46.53278" lon="0.33009">
        <ele>123.2</ele>
        <time>2023-01-15T09:01:34Z</time>
      </trkpt>
      <trkpt lat="46.53257" lon="0.33002">
        <ele>123.4</ele>
        <time>2023-01-15T09:01:40Z</time>
      </trkpt>
      <trkpt lat="46.53251" lon="0.33001">
        <ele>123.2</ele>
        <time>2023-01-15T09:01:42Z</time>
      </trkpt>
      <trkpt lat="46.53246" lon="0.33003">
        <ele>123.2</ele>
        <time>2023-01-15T09:01:44Z</time>
      </trkpt>
      <trkpt lat="46.53243" lon="0.33005">
        <ele>123.2</ele>
        <time>2023-01-15T09:01:45Z</time>
      </trkpt>
      <trkpt lat="46.53239" lon="0.33006">
        <ele>123.2</ele>
        <time>2023-01-15T09:01:46Z</time>
      </trkpt>
      <trkpt lat="46.5323" lon="0.33008">
        <ele>122.8</ele>
        <time>2023-01-15T09:01:48Z</time>
      </trkpt>
      <trkpt lat="46.53224" lon="0.3301">
        <ele>122.8</ele>
        <time>2023-01-15T09:01:49Z</time>
      </trkpt>
      <trkpt lat="46.53204" lon="0.33016">
        <ele>123</ele>
        <time>2023-01-15T09:01:54Z</time>
      </trkpt>
      <trkpt lat="46.532" lon="0.33018">
        <ele>123</ele>
        <time>2023-01-15T09:01:55Z</time>
      </trkpt>
      <trkpt lat="46.53198" lon="0.33021">
        <ele>123</ele>
        <time>2023-01-15T09:01:56Z</time>
      </trkpt>
      <trkpt lat="46.53196" lon="0.33031">
        <ele>123</ele>
        <time>2023-01-15T09:01:59Z</time>
      </trkpt>
      <trkpt lat="46.53192" lon="0.33038">
        <ele>123.2</ele>
        <time>2023-01-15T09:02:01Z</time>
      </trkpt>
      <trkpt lat="46.53186" lon="0.33043">
        <ele>123</ele>
        <time>2023-01-15T09:02:03Z</time>
      </trkpt>
      <trkpt lat="46.53175" lon="0.33048">
        <ele>123</ele>
        <time>2023-01-15T09:02:06Z</time>
      </trkpt>
      <trkpt lat="46.53163" lon="0.33054">
        <ele>123</ele>
        <time>2023-01-15T09:02:09Z</time>
      </trkpt>
      <trkpt lat="46.53154" lon="0.33057">
        <ele>123.2</ele>
        <time>2023-01-15T09:02:11Z</time>
      </trkpt>
      <trkpt lat="46.53139" lon="0.33062">
        <ele>123.2</ele>
        <time>2023-01-15T09:02:14Z</time>
      </trkpt>
      <trkpt lat="46.53124" lon="0.33069">
        <ele>123</ele>
        <time>2023-01-15T09:02:17Z</time>
      </trkpt>
      <trkpt lat="46.53104" lon="0.33076">
        <ele>122.8</ele>
        <time>2023-01-15T09:02:21Z</time>
      </trkpt>
      <trkpt lat="46.53079" lon="0.33082">
        <ele>122.8</ele>
        <time>2023-01-15T09:02:26Z</time>
      </trkpt>
      <trkpt lat="46.53043" lon="0.33097">
        <ele>122</ele>
        <time>2023-01-15T09:02:33Z</time>
      </trkpt>
      <trkpt lat="46.53037" lon="0.33098">
        <ele>121.8</ele>
        <time>2023-01-15T09:02:34Z</time>
      </trkpt>
      <trkpt lat="46.53021" lon="0.33106">
        <ele>121.6</ele>
        <time>2023-01-15T09:02:37Z</time>
      </trkpt>
      <trkpt lat="46.53008" lon="0.33109">
        <ele>121</ele>
        <time>2023-01-15T09:02:39Z</time>
      </trkpt>
      <trkpt lat="46.52996" lon="0.33113">
        <ele>120.2</ele>
        <time>2023-01-15T09:02:41Z</time>
      </trkpt>
      <trkpt lat="46.52973" lon="0.33121">
        <ele>119.2</ele>
        <time>2023-01-15T09:02:45Z</time>
      </trkpt>
      <trkpt lat="46.52954" lon="0.33126">
        <ele>118.4</ele>
        <time>2023-01-15T09:02:48Z</time>
      </trkpt>
      <trkpt lat="46.52947" lon="0.3313">
        <ele>118</ele>
        <time>2023-01-15T09:02:49Z</time>
      </trkpt>
      <trkpt lat="46.52921" lon="0.3314">
        <ele>117</ele>
        <time>2023-01-15T09:02:53Z</time>
      </trkpt>
      <trkpt lat="46.52908" lon="0.33145">
        <ele>115.4</ele>
        <time>2023-01-15T09:02:55Z</time>
      </trkpt>
      <trkpt lat="46.52896" lon="0.33149">
        <ele>114.2</ele>
        <time>2023-01-15T09:02:57Z</time>
      </trkpt>
      <trkpt lat="46.52873" lon="0.33159">
        <ele>112.2</ele>
        <time>2023-01-15T09:03:01Z</time>
      </trkpt>
      <trkpt lat="46.52862" lon="0.33164">
        <ele>111</ele>
        <time>2023-01-15T09:03:03Z</time>
      </trkpt>
      <trkpt lat="46.52849" lon="0.33172">
        <ele>109.8</ele>
        <time>2023-01-15T09:03:05Z</time>
      </trkpt>
      <trkpt lat="46.52842" lon="0.33174">
        <ele>108.6</ele>
        <time>2023-01-15T09:03:06Z</time>
      </trkpt>
      <trkpt lat="46.52835" lon="0.33176">
        <ele>107.8</ele>
        <time>2023-01-15T09:03:07Z</time>
      </trkpt>
      <trkpt lat="46.52829" lon="0.33177">
        <ele>107.6</ele>
        <time>2023-01-15T09:03:08Z</time>
      </trkpt>
      <trkpt lat="46.52816" lon="0.33182">
        <ele>107</ele>
        <time>2023-01-15T09:03:10Z</time>
      </trkpt>
      <trkpt lat="46.52812" lon="0.33185">
        <ele>106.8</ele>
        <time>2023-01-15T09:03:11Z</time>
      </trkpt>
      <trkpt lat="46.52808" lon="0.33188">
        <ele>106.2</ele>
        <time>2023-01-15T09:03:12Z</time>
      </trkpt>
      <trkpt lat="46.52805" lon="0.33196">
        <ele>105.4</ele>
        <time>2023-01-15T09:03:14Z</time>
      </trkpt>
      <trkpt lat="46.52804" lon="0.33201">
        <ele>105.2</ele>
        <time>2023-01-15T09:03:15Z</time>
      </trkpt>
      <trkpt lat="46.52803" lon="0.33207">
        <ele>104.8</ele>
        <time>2023-01-15T09:03:16Z</time>
      </trkpt>
      <trkpt lat="46.52803" lon="0.33231">
        <ele>103.6</ele>
        <time>2023-01-15T09:03:19Z</time>
      </trkpt>
      <trkpt lat="46.52804" lon="0.33249">
        <ele>102.8</ele>
        <time>2023-01-15T09:03:21Z</time>
      </trkpt>
      <trkpt lat="46.52803" lon="0.3326">
        <ele>102.4</ele>
        <time>2023-01-15T09:03:22Z</time>
      </trkpt>
      <trkpt lat="46.52802" lon="0.33279">
        <ele>102.2</ele>
        <time>2023-01-15T09:03:24Z</time>
      </trkpt>
      <trkpt lat="46.52796" lon="0.33319">
        <ele>102.4</ele>
        <time>2023-01-15T09:03:28Z</time>
      </trkpt>
      <trkpt lat="46.52796" lon="0.3333">
        <ele>102.2</ele>
        <time>2023-01-15T09:03:29Z</time>
      </trkpt>
      <trkpt lat="46.52797" lon="0.33376">
        <ele>101.2</ele>
        <time>2023-01-15T09:03:33Z</time>
      </trkpt>
      <trkpt lat="46.52798" lon="0.33386">
        <ele>100.8</ele>
        <time>2023-01-15T09:03:34Z</time>
      </trkpt>
      <trkpt lat="46.52798" lon="0.33402">
        <ele>100.2</ele>
        <time>2023-01-15T09:03:36Z</time>
      </trkpt>
      <trkpt lat="46.52796" lon="0.33415">
        <ele>99.4</ele>
        <time>2023-01-15T09:03:38Z</time>
      </trkpt>
      <trkpt lat="46.52793" lon="0.33424">
        <ele>98.8</ele>
        <time>2023-01-15T09:03:40Z</time>
      </trkpt>
      <trkpt lat="46.52785" lon="0.3343">
        <ele>98.4</ele>
        <time>2023-01-15T09:03:42Z</time>
      </trkpt>
      <trkpt lat="46.52775" lon="0.33433">
        <ele>97.8</ele>
        <time>2023-01-15T09:03:44Z</time>
      </trkpt>
      <trkpt lat="46.52764" lon="0.33431">
        <ele>97</ele>
        <time>2023-01-15T09:03:46Z</time>
      </trkpt>
      <trkpt lat="46.52754" lon="0.33429">
        <ele>96.8</ele>
        <time>2023-01-15T09:03:48Z</time>
      </trkpt>
      <trkpt lat="46.52749" lon="0.33428">
        <ele>96.6</ele>
        <time>2023-01-15T09:03:49Z</time>
      </trkpt>
      <trkpt lat="46.52733" lon="0.33427">
        <ele>96.2</ele>
        <time>2023-01-15T09:03:52Z</time>
      </trkpt>
      <trkpt lat="46.52727" lon="0.33426">
        <ele>96.2</ele>
        <time>2023-01-15T09:03:53Z</time>
      </trkpt>
      <trkpt lat="46.52715" lon="0.33423">
        <ele>95.4</ele>
        <time>2023-01-15T09:03:55Z</time>
      </trkpt>
      <trkpt lat="46.52699" lon="0.33421">
        <ele>94.6</ele>
        <time>2023-01-15T09:03:57Z</time>
      </trkpt>
      <trkpt lat="46.52682" lon="0.3342">
        <ele>94.2</ele>
        <time>2023-01-15T09:03:59Z</time>
      </trkpt>
      <trkpt lat="46.52655" lon="0.33415">
        <ele>93</ele>
        <time>2023-01-15T09:04:02Z</time>
      </trkpt>
      <trkpt lat="46.52649" lon="0.33415">
        <ele>92</ele>
        <time>2023-01-15T09:04:03Z</time>
      </trkpt>
      <trkpt lat="46.52639" lon="0.33409">
        <ele>90.8</ele>
        <time>2023-01-15T09:04:05Z</time>
      </trkpt>
      <trkpt lat="46.52635" lon="0.33407">
        <ele>90.4</ele>
        <time>2023-01-15T09:04:06Z</time>
      </trkpt>
      <trkpt lat="46.52631" lon="0.33405">
        <ele>90</ele>
        <time>2023-01-15T09:04:07Z</time>
      </trkpt>
      <trkpt lat="46.52625" lon="0.33399">
        <ele>89.8</ele>
        <time>2023-01-15T09:04:09Z</time>
      </trkpt>
      <trkpt lat="46.52617" lon="0.33391">
        <ele>89.6</ele>
        <time>2023-01-15T09:04:11Z</time>
      </trkpt>
      <trkpt lat="46.5261" lon="0.33383">
        <ele>89.6</ele>
        <time>2023-01-15T09:04:13Z</time>
      </trkpt>
      <trkpt lat="46.52597" lon="0.33376">
        <ele>89.6</ele>
        <time>2023-01-15T09:04:15Z</time>
      </trkpt>
      <trkpt lat="46.52589" lon="0.33377">
        <ele>89.4</ele>
        <time>2023-01-15T09:04:17Z</time>
      </trkpt>
      <trkpt lat="46.52581" lon="0.33381">
        <ele>89</ele>
        <time>2023-01-15T09:04:19Z</time>
      </trkpt>
      <trkpt lat="46.52572" lon="0.33386">
        <ele>88.8</ele>
        <time>2023-01-15T09:04:21Z</time>
      </trkpt>
      <trkpt lat="46.52567" lon="0.3339">
        <ele>88.6</ele>
        <time>2023-01-15T09:04:22Z</time>
      </trkpt>
      <trkpt lat="46.52559" lon="0.334">
        <ele>88.4</ele>
        <time>2023-01-15T09:04:24Z</time>
      </trkpt>
      <trkpt lat="46.52543" lon="0.33421">
        <ele>88.2</ele>
        <time>2023-01-15T09:04:28Z</time>
      </trkpt>
      <trkpt lat="46.52541" lon="0.33427">
        <ele>88</ele>
        <time>2023-01-15T09:04:29Z</time>
      </trkpt>
      <trkpt lat="46.52539" lon="0.33433">
        <ele>87.8</ele>
        <time>2023-01-15T09:04:30Z</time>
      </trkpt>
      <trkpt lat="46.52537" lon="0.33448">
        <ele>87.6</ele>
        <time>2023-01-15T09:04:32Z</time>
      </trkpt>
      <trkpt lat="46.52535" lon="0.33457">
        <ele>87.4</ele>
        <time>2023-01-15T09:04:33Z</time>
      </trkpt>
      <trkpt lat="46.52528" lon="0.3351">
        <ele>86.6</ele>
        <time>2023-01-15T09:04:40Z</time>
      </trkpt>
      <trkpt lat="46.52528" lon="0.33518">
        <ele>86.2</ele>
        <time>2023-01-15T09:04:41Z</time>
      </trkpt>
      <trkpt lat="46.52528" lon="0.33553">
        <ele>85.2</ele>
        <time>2023-01-15T09:04:45Z</time>
      </trkpt>
      <trkpt lat="46.52528" lon="0.33562">
        <ele>85</ele>
        <time>2023-01-15T09:04:46Z</time>
      </trkpt>
      <trkpt lat="46.5253" lon="0.33582">
        <ele>83.4</ele>
        <time>2023-01-15T09:04:48Z</time>
      </trkpt>
      <trkpt lat="46.5253" lon="0.33602">
        <ele>82</ele>
        <time>2023-01-15T09:04:50Z</time>
      </trkpt>
      <trkpt lat="46.52529" lon="0.33612">
        <ele>81.2</ele>
        <time>2023-01-15T09:04:51Z</time>
      </trkpt>
      <trkpt lat="46.52526" lon="0.33621">
        <ele>80.8</ele>
        <time>2023-01-15T09:04:52Z</time>
      </trkpt>
      <trkpt lat="46.52518" lon="0.33639">
        <ele>80.4</ele>
        <time>2023-01-15T09:04:54Z</time>
      </trkpt>
      <trkpt lat="46.52513" lon="0.33649">
        <ele>79.4</ele>
        <time>2023-01-15T09:04:55Z</time>
      </trkpt>
      <trkpt lat="46.52509" lon="0.33659">
        <ele>79</ele>
        <time>2023-01-15T09:04:56Z</time>
      </trkpt>
      <trkpt lat="46.52505" lon="0.33679">
        <ele>77.2</ele>
        <time>2023-01-15T09:04:58Z</time>
      </trkpt>
      <trkpt lat="46.52504" lon="0.33689">
        <ele>76.2</ele>
        <time>2023-01-15T09:04:59Z</time>
      </trkpt>
      <trkpt lat="46.52504" lon="0.33697">
        <ele>74.6</ele>
        <time>2023-01-15T09:05:00Z</time>
      </trkpt>
      <trkpt lat="46.52503" lon="0.33704">
        <ele>73.8</ele>
        <time>2023-01-15T09:05:01Z</time>
      </trkpt>
      <trkpt lat="46.52502" lon="0.33711">
        <ele>73.2</ele>
        <time>2023-01-15T09:05:02Z</time>
      </trkpt>
      <trkpt lat="46.52499" lon="0.33716">
        <ele>73</ele>
        <time>2023-01-15T09:05:03Z</time>
      </trkpt>
      <trkpt lat="46.52495" lon="0.33726">
        <ele>72.6</ele>
        <time>2023-01-15T09:05:05Z</time>
      </trkpt>
      <trkpt lat="46.52493" lon="0.3373">
        <ele>72.4</ele>
        <time>2023-01-15T09:05:06Z</time>
      </trkpt>
      <trkpt lat="46.52492" lon="0.33734">
        <ele>72.2</ele>
        <time>2023-01-15T09:05:07Z</time>
      </trkpt>
      <trkpt lat="46.52488" lon="0.33747">
        <ele>71.8</ele>
        <time>2023-01-15T09:05:10Z</time>
      </trkpt>
      <trkpt lat="46.52481" lon="0.33763">
        <ele>71.2</ele>
        <time>2023-01-15T09:05:14Z</time>
      </trkpt>
      <trkpt lat="46.52476" lon="0.3377">
        <ele>71</ele>
        <time>2023-01-15T09:05:16Z</time>
      </trkpt>
      <trkpt lat="46.52466" lon="0.33783">
        <ele>70.6</ele>
        <time>2023-01-15T09:05:21Z</time>
      </trkpt>
      <trkpt lat="46.52448" lon="0.33799">
        <ele>71.2</ele>
        <time>2023-01-15T09:05:28Z</time>
      </trkpt>
      <trkpt lat="46.52432" lon="0.33811">
        <ele>71.4</ele>
        <time>2023-01-15T09:05:34Z</time>
      </trkpt>
      <trkpt lat="46.52429" lon="0.33812">
        <ele>71.4</ele>
        <time>2023-01-15T09:05:35Z</time>
      </trkpt>
      <trkpt lat="46.52412" lon="0.33821">
        <ele>72</ele>
        <time>2023-01-15T09:05:42Z</time>
      </trkpt>
      <trkpt lat="46.52396" lon="0.33835">
        <ele>72</ele>
        <time>2023-01-15T09:05:49Z</time>
      </trkpt>
      <trkpt lat="46.52378" lon="0.33848">
        <ele>72.2</ele>
        <time>2023-01-15T09:05:56Z</time>
      </trkpt>
      <trkpt lat="46.52376" lon="0.3385">
        <ele>72.2</ele>
        <time>2023-01-15T09:05:57Z</time>
      </trkpt>
      <trkpt lat="46.52356" lon="0.33862">
        <ele>72.2</ele>
        <time>2023-01-15T09:06:03Z</time>
      </trkpt>
      <trkpt lat="46.52328" lon="0.33882">
        <ele>73</ele>
        <time>2023-01-15T09:06:11Z</time>
      </trkpt>
      <trkpt lat="46.52302" lon="0.33901">
        <ele>72.8</ele>
        <time>2023-01-15T09:06:19Z</time>
      </trkpt>
      <trkpt lat="46.5228" lon="0.33919">
        <ele>72.8</ele>
        <time>2023-01-15T09:06:26Z</time>
      </trkpt>
      <trkpt lat="46.52253" lon="0.33942">
        <ele>72.6</ele>
        <time>2023-01-15T09:06:33Z</time>
      </trkpt>
      <trkpt lat="46.52234" lon="0.33959">
        <ele>72.4</ele>
        <time>2023-01-15T09:06:37Z</time>
      </trkpt>
      <trkpt lat="46.52221" lon="0.33973">
        <ele>72.4</ele>
        <time>2023-01-15T09:06:40Z</time>
      </trkpt>
      <trkpt lat="46.52193" lon="0.33986">
        <ele>72.2</ele>
        <time>2023-01-15T09:06:46Z</time>
      </trkpt>
      <trkpt lat="46.52167" lon="0.33994">
        <ele>72</ele>
        <time>2023-01-15T09:06:52Z</time>
      </trkpt>
      <trkpt lat="46.52163" lon="0.33994">
        <ele>72</ele>
        <time>2023-01-15T09:06:53Z</time>
      </trkpt>
      <trkpt lat="46.52142" lon="0.33987">
        <ele>72.2</ele>
        <time>2023-01-15T09:06:58Z</time>
      </trkpt>
      <trkpt lat="46.52138" lon="0.33985">
        <ele>72.2</ele>
        <time>2023-01-15T09:06:59Z</time>
      </trkpt>
      <trkpt lat="46.52105" lon="0.33968">
        <ele>72.4</ele>
        <time>2023-01-15T09:07:06Z</time>
      </trkpt>
      <trkpt lat="46.52101" lon="0.33965">
        <ele>72.4</ele>
        <time>2023-01-15T09:07:07Z</time>
      </trkpt>
      <trkpt lat="46.52095" lon="0.33958">
        <ele>72.2</ele>
        <time>2023-01-15T09:07:09Z</time>
      </trkpt>
      <trkpt lat="46.52093" lon="0.33953">
        <ele>72.2</ele>
        <time>2023-01-15T09:07:10Z</time>
      </trkpt>
      <trkpt lat="46.52082" lon="0.3392">
        <ele>72.6</ele>
        <time>2023-01-15T09:07:16Z</time>
      </trkpt>
      <trkpt lat="46.52078" lon="0.33909">
        <ele>72.6</ele>
        <time>2023-01-15T09:07:18Z</time>
      </trkpt>
      <trkpt lat="46.52075" lon="0.3388">
        <ele>72.8</ele>
        <time>2023-01-15T09:07:22Z</time>
      </trkpt>
      <trkpt lat="46.52073" lon="0.33848">
        <ele>72.8</ele>
        <time>2023-01-15T09:07:26Z</time>
      </trkpt>
      <trkpt lat="46.52072" lon="0.33833">
        <ele>72.8</ele>
        <time>2023-01-15T09:07:28Z</time>
      </trkpt>
      <trkpt lat="46.52073" lon="0.33806">
        <ele>72.8</ele>
        <time>2023-01-15T09:07:32Z</time>
      </trkpt>
      <trkpt lat="46.52074" lon="0.33781">
        <ele>73.2</ele>
        <time>2023-01-15T09:07:35Z</time>
      </trkpt>
      <trkpt lat="46.52074" lon="0.33767">
        <ele>73.2</ele>
        <time>2023-01-15T09:07:37Z</time>
      </trkpt>
      <trkpt lat="46.52073" lon="0.33763">
        <ele>73.2</ele>
        <time>2023-01-15T09:07:38Z</time>
      </trkpt>
      <trkpt lat="46.52071" lon="0.3376">
        <ele>73.4</ele>
        <time>2023-01-15T09:07:39Z</time>
      </trkpt>
      <trkpt lat="46.5206" lon="0.33756">
        <ele>73</ele>
        <time>2023-01-15T09:07:42Z</time>
      </trkpt>
      <trkpt lat="46.52047" lon="0.33754">
        <ele>72.2</ele>
        <time>2023-01-15T09:07:45Z</time>
      </trkpt>
      <trkpt lat="46.52035" lon="0.33752">
        <ele>72.2</ele>
        <time>2023-01-15T09:07:48Z</time>
      </trkpt>
      <trkpt lat="46.52029" lon="0.33749">
        <ele>72</ele>
        <time>2023-01-15T09:07:50Z</time>
      </trkpt>
      <trkpt lat="46.52021" lon="0.33743">
        <ele>72</ele>
        <time>2023-01-15T09:07:53Z</time>
      </trkpt>
      <trkpt lat="46.52001" lon="0.33729">
        <ele>72</ele>
        <time>2023-01-15T09:07:58Z</time>
      </trkpt>
      <trkpt lat="46.51995" lon="0.33719">
        <ele>72</ele>
        <time>2023-01-15T09:08:00Z</time>
      </trkpt>
      <trkpt lat="46.51989" lon="0.33703">
        <ele>71.8</ele>
        <time>2023-01-15T09:08:03Z</time>
      </trkpt>
      <trkpt lat="46.51985" lon="0.33688">
        <ele>72</ele>
        <time>2023-01-15T09:08:06Z</time>
      </trkpt>
      <trkpt lat="46.51984" lon="0.33679">
        <ele>72</ele>
        <time>2023-01-15T09:08:08Z</time>
      </trkpt>
      <trkpt lat="46.51984" lon="0.33674">
        <ele>72</ele>
        <time>2023-01-15T09:08:09Z</time>
      </trkpt>
      <trkpt lat="46.51975" lon="0.33642">
        <ele>72.2</ele>
        <time>2023-01-15T09:08:15Z</time>
      </trkpt>
      <trkpt lat="46.51958" lon="0.33591">
        <ele>72.6</ele>
        <time>2023-01-15T09:08:23Z</time>
      </trkpt>
      <trkpt lat="46.51951" lon="0.33572">
        <ele>72.6</ele>
        <time>2023-01-15T09:08:26Z</time>
      </trkpt>
      <trkpt lat="46.51944" lon="0.33551">
        <ele>72.4</ele>
        <time>2023-01-15T09:08:29Z</time>
      </trkpt>
      <trkpt lat="46.51932" lon="0.33508">
        <ele>72.8</ele>
        <time>2023-01-15T09:08:36Z</time>
      </trkpt>
      <trkpt lat="46.51929" lon="0.33493">
        <ele>72.8</ele>
        <time>2023-01-15T09:08:39Z</time>
      </trkpt>
      <trkpt lat="46.51925" lon="0.3348">
        <ele>72.4</ele>
        <time>2023-01-15T09:08:42Z</time>
      </trkpt>
      <trkpt lat="46.51918" lon="0.33459">
        <ele>72</ele>
        <time>2023-01-15T09:08:47Z</time>
      </trkpt>
      <trkpt lat="46.51907" lon="0.33427">
        <ele>72.2</ele>
        <time>2023-01-15T09:08:53Z</time>
      </trkpt>
      <trkpt lat="46.51899" lon="0.33409">
        <ele>72.2</ele>
        <time>2023-01-15T09:08:58Z</time>
      </trkpt>
      <trkpt lat="46.5189" lon="0.3341">
        <ele>72.2</ele>
        <time>2023-01-15T09:09:02Z</time>
      </trkpt>
      <trkpt lat="46.51875" lon="0.33417">
        <ele>72.4</ele>
        <time>2023-01-15T09:09:07Z</time>
      </trkpt>
      <trkpt lat="46.5185" lon="0.33418">
        <ele>73</ele>
        <time>2023-01-15T09:09:13Z</time>
      </trkpt>
      <trkpt lat="46.51845" lon="0.33417">
        <ele>73.2</ele>
        <time>2023-01-15T09:09:14Z</time>
      </trkpt>
      <trkpt lat="46.5183" lon="0.33413">
        <ele>73.6</ele>
        <time>2023-01-15T09:09:17Z</time>
      </trkpt>
      <trkpt lat="46.5182" lon="0.3341">
        <ele>73.6</ele>
        <time>2023-01-15T09:09:19Z</time>
      </trkpt>
      <trkpt lat="46.518" lon="0.3341">
        <ele>73.6</ele>
        <time>2023-01-15T09:09:23Z</time>
      </trkpt>
      <trkpt lat="46.51791" lon="0.33412">
        <ele>73.6</ele>
        <time>2023-01-15T09:09:25Z</time>
      </trkpt>
      <trkpt lat="46.5178" lon="0.33415">
        <ele>73.4</ele>
        <time>2023-01-15T09:09:29Z</time>
      </trkpt>
      <trkpt lat="46.51767" lon="0.33419">
        <ele>73</ele>
        <time>2023-01-15T09:09:35Z</time>
      </trkpt>
      <trkpt lat="46.51762" lon="0.33421">
        <ele>73</ele>
        <time>2023-01-15T09:09:37Z</time>
      </trkpt>
      <trkpt lat="46.51756" lon="0.33425">
        <ele>73</ele>
        <time>2023-01-15T09:09:39Z</time>
      </trkpt>
      <trkpt lat="46.51753" lon="0.33428">
        <ele>73</ele>
        <time>2023-01-15T09:09:40Z</time>
      </trkpt>
      <trkpt lat="46.51749" lon="0.33431">
        <ele>73</ele>
        <time>2023-01-15T09:09:41Z</time>
      </trkpt>
      <trkpt lat="46.51733" lon="0.33448">
        <ele>73</ele>
        <time>2023-01-15T09:09:44Z</time>
      </trkpt>
      <trkpt lat="46.51697" lon="0.33486">
        <ele>73.6</ele>
        <time>2023-01-15T09:09:51Z</time>
      </trkpt>
      <trkpt lat="46.51666" lon="0.33516">
        <ele>73.4</ele>
        <time>2023-01-15T09:09:57Z</time>
      </trkpt>
      <trkpt lat="46.51652" lon="0.3353">
        <ele>73.4</ele>
        <time>2023-01-15T09:10:00Z</time>
      </trkpt>
      <trkpt lat="46.51642" lon="0.3354">
        <ele>73.6</ele>
        <time>2023-01-15T09:10:02Z</time>
      </trkpt>
      <trkpt lat="46.51616" lon="0.33564">
        <ele>73.4</ele>
        <time>2023-01-15T09:10:08Z</time>
      </trkpt>
      <trkpt lat="46.51612" lon="0.33567">
        <ele>73.6</ele>
        <time>2023-01-15T09:10:09Z</time>
      </trkpt>
      <trkpt lat="46.51601" lon="0.33577">
        <ele>73.6</ele>
        <time>2023-01-15T09:10:12Z</time>
      </trkpt>
      <trkpt lat="46.51598" lon="0.33581">
        <ele>73.6</ele>
        <time>2023-01-15T09:10:13Z</time>
      </trkpt>
      <trkpt lat="46.51596" lon="0.33587">
        <ele>73.6</ele>
        <time>2023-01-15T09:10:14Z</time>
      </trkpt>
      <trkpt lat="46.51594" lon="0.336">
        <ele>73.6</ele>
        <time>2023-01-15T09:10:16Z</time>
      </trkpt>
      <trkpt lat="46.51593" lon="0.33607">
        <ele>73.6</ele>
        <time>2023-01-15T09:10:17Z</time>
      </trkpt>
      <trkpt lat="46.51589" lon="0.33619">
        <ele>73.4</ele>
        <time>2023-01-15T09:10:19Z</time>
      </trkpt>
      <trkpt lat="46.51582" lon="0.33632">
        <ele>72.8</ele>
        <time>2023-01-15T09:10:21Z</time>
      </trkpt>
      <trkpt lat="46.51569" lon="0.33651">
        <ele>72.4</ele>
        <time>2023-01-15T09:10:24Z</time>
      </trkpt>
      <trkpt lat="46.51564" lon="0.33666">
        <ele>72.4</ele>
        <time>2023-01-15T09:10:26Z</time>
      </trkpt>
      <trkpt lat="46.51558" lon="0.33691">
        <ele>72.4</ele>
        <time>2023-01-15T09:10:29Z</time>
      </trkpt>
      <trkpt lat="46.51555" lon="0.33707">
        <ele>72.2</ele>
        <time>2023-01-15T09:10:31Z</time>
      </trkpt>
      <trkpt lat="46.51553" lon="0.33731">
        <ele>72.4</ele>
        <time>2023-01-15T09:10:34Z</time>
      </trkpt>
      <trkpt lat="46.51557" lon="0.33749">
        <ele>72.4</ele>
        <time>2023-01-15T09:10:36Z</time>
      </trkpt>
      <trkpt lat="46.51558" lon="0.33766">
        <ele>72.2</ele>
        <time>2023-01-15T09:10:38Z</time>
      </trkpt>
      <trkpt lat="46.51556" lon="0.3378">
        <ele>72.2</ele>
        <time>2023-01-15T09:10:40Z</time>
      </trkpt>
      <trkpt lat="46.51552" lon="0.33787">
        <ele>72.2</ele>
        <time>2023-01-15T09:10:42Z</time>
      </trkpt>
      <trkpt lat="46.51546" lon="0.3379">
        <ele>72.4</ele>
        <time>2023-01-15T09:10:44Z</time>
      </trkpt>
      <trkpt lat="46.5152" lon="0.33794">
        <ele>72.8</ele>
        <time>2023-01-15T09:10:50Z</time>
      </trkpt>
      <trkpt lat="46.51511" lon="0.33795">
        <ele>72.8</ele>
        <time>2023-01-15T09:10:52Z</time>
      </trkpt>
      <trkpt lat="46.51498" lon="0.33798">
        <ele>73</ele>
        <time>2023-01-15T09:10:55Z</time>
      </trkpt>
      <trkpt lat="46.5149" lon="0.33797">
        <ele>73.2</ele>
        <time>2023-01-15T09:10:57Z</time>
      </trkpt>
      <trkpt lat="46.51486" lon="0.338">
        <ele>73.2</ele>
        <time>2023-01-15T09:10:58Z</time>
      </trkpt>
      <trkpt lat="46.51483" lon="0.33795">
        <ele>73.2</ele>
        <time>2023-01-15T09:11:00Z</time>
      </trkpt>
      <trkpt lat="46.51481" lon="0.33782">
        <ele>73</ele>
        <time>2023-01-15T09:11:05Z</time>
      </trkpt>
      <trkpt lat="46.51477" lon="0.33776">
        <ele>73.4</ele>
        <time>2023-01-15T09:11:10Z</time>
      </trkpt>
      <trkpt lat="46.51463" lon="0.33775">
        <ele>74</ele>
        <time>2023-01-15T09:11:16Z</time>
      </trkpt>
      <trkpt lat="46.51453" lon="0.3377">
        <ele>74</ele>
        <time>2023-01-15T09:11:19Z</time>
      </trkpt>
      <trkpt lat="46.51451" lon="0.33765">
        <ele>74</ele>
        <time>2023-01-15T09:11:20Z</time>
      </trkpt>
      <trkpt lat="46.51436" lon="0.33735">
        <ele>73.6</ele>
        <time>2023-01-15T09:11:25Z</time>
      </trkpt>
      <trkpt lat="46.51432" lon="0.3373">
        <ele>73.6</ele>
        <time>2023-01-15T09:11:26Z</time>
      </trkpt>
      <trkpt lat="46.51429" lon="0.33724">
        <ele>73.6</ele>
        <time>2023-01-15T09:11:27Z</time>
      </trkpt>
      <trkpt lat="46.51417" lon="0.33699">
        <ele>73.4</ele>
        <time>2023-01-15T09:11:31Z</time>
      </trkpt>
      <trkpt lat="46.51412" lon="0.33682">
        <ele>73.4</ele>
        <time>2023-01-15T09:11:35Z</time>
      </trkpt>
      <trkpt lat="46.51403" lon="0.33666">
        <ele>73.4</ele>
        <time>2023-01-15T09:11:39Z</time>
      </trkpt>
      <trkpt lat="46.51391" lon="0.33654">
        <ele>73.6</ele>
        <time>2023-01-15T09:11:42Z</time>
      </trkpt>
      <trkpt lat="46.51387" lon="0.33652">
        <ele>73.8</ele>
        <time>2023-01-15T09:11:43Z</time>
      </trkpt>
      <trkpt lat="46.51383" lon="0.33652">
        <ele>73.8</ele>
        <time>2023-01-15T09:11:44Z</time>
      </trkpt>
      <trkpt lat="46.51367" lon="0.33648">
        <ele>73.6</ele>
        <time>2023-01-15T09:11:48Z</time>
      </trkpt>
      <trkpt lat="46.51361" lon="0.33644">
        <ele>73.6</ele>
        <time>2023-01-15T09:11:50Z</time>
      </trkpt>
      <trkpt lat="46.51354" lon="0.33641">
        <ele>73.8</ele>
        <time>2023-01-15T09:11:52Z</time>
      </trkpt>
      <trkpt lat="46.51351" lon="0.33639">
        <ele>74</ele>
        <time>2023-01-15T09:11:53Z</time>
      </trkpt>
      <trkpt lat="46.51341" lon="0.33632">
        <ele>74</ele>
        <time>2023-01-15T09:11:56Z</time>
      </trkpt>
      <trkpt lat="46.51335" lon="0.33625">
        <ele>73.8</ele>
        <time>2023-01-15T09:11:59Z</time>
      </trkpt>
      <trkpt lat="46.51323" lon="0.33608">
        <ele>74</ele>
        <time>2023-01-15T09:12:03Z</time>
      </trkpt>
      <trkpt lat="46.51316" lon="0.33601">
        <ele>73.8</ele>
        <time>2023-01-15T09:12:05Z</time>
      </trkpt>
      <trkpt lat="46.51312" lon="0.33598">
        <ele>73.8</ele>
        <time>2023-01-15T09:12:06Z</time>
      </trkpt>
      <trkpt lat="46.51306" lon="0.3359">
        <ele>73.8</ele>
        <time>2023-01-15T09:12:08Z</time>
      </trkpt>
      <trkpt lat="46.51301" lon="0.33582">
        <ele>73.6</ele>
        <time>2023-01-15T09:12:10Z</time>
      </trkpt>
      <trkpt lat="46.5129" lon="0.33565">
        <ele>73.4</ele>
        <time>2023-01-15T09:12:14Z</time>
      </trkpt>
      <trkpt lat="46.51283" lon="0.33555">
        <ele>74</ele>
        <time>2023-01-15T09:12:16Z</time>
      </trkpt>
      <trkpt lat="46.51262" lon="0.33529">
        <ele>74</ele>
        <time>2023-01-15T09:12:23Z</time>
      </trkpt>
      <trkpt lat="46.5125" lon="0.33518">
        <ele>73.6</ele>
        <time>2023-01-15T09:12:26Z</time>
      </trkpt>
      <trkpt lat="46.51241" lon="0.33514">
        <ele>73.4</ele>
        <time>2023-01-15T09:12:28Z</time>
      </trkpt>
      <trkpt lat="46.51232" lon="0.33512">
        <ele>73.4</ele>
        <time>2023-01-15T09:12:30Z</time>
      </trkpt>
      <trkpt lat="46.51227" lon="0.33513">
        <ele>73.4</ele>
        <time>2023-01-15T09:12:32Z</time>
      </trkpt>
      <trkpt lat="46.51209" lon="0.3352">
        <ele>73.6</ele>
        <time>2023-01-15T09:12:38Z</time>
      </trkpt>
      <trkpt lat="46.51199" lon="0.33532">
        <ele>73.8</ele>
        <time>2023-01-15T09:12:42Z</time>
      </trkpt>
      <trkpt lat="46.51199" lon="0.33541">
        <ele>74</ele>
        <time>2023-01-15T09:12:44Z</time>
      </trkpt>
      <trkpt lat="46.51199" lon="0.33559">
        <ele>73.8</ele>
        <time>2023-01-15T09:12:47Z</time>
      </trkpt>
      <trkpt lat="46.51197" lon="0.33573">
        <ele>73.6</ele>
        <time>2023-01-15T09:12:49Z</time>
      </trkpt>
      <trkpt lat="46.51195" lon="0.33593">
        <ele>73.4</ele>
        <time>2023-01-15T09:12:52Z</time>
      </trkpt>
      <trkpt lat="46.51195" lon="0.33599">
        <ele>73.4</ele>
        <time>2023-01-15T09:12:53Z</time>
      </trkpt>
      <trkpt lat="46.51197" lon="0.33615">
        <ele>73.6</ele>
        <time>2023-01-15T09:12:56Z</time>
      </trkpt>
      <trkpt lat="46.51198" lon="0.33619">
        <ele>73.8</ele>
        <time>2023-01-15T09:12:57Z</time>
      </trkpt>
      <trkpt lat="46.51201" lon="0.33623">
        <ele>73.6</ele>
        <time>2023-01-15T09:12:58Z</time>
      </trkpt>
      <trkpt lat="46.51207" lon="0.33629">
        <ele>73.6</ele>
        <time>2023-01-15T09:13:00Z</time>
      </trkpt>
      <trkpt lat="46.51213" lon="0.33637">
        <ele>73.6</ele>
        <time>2023-01-15T09:13:02Z</time>
      </trkpt>
      <trkpt lat="46.51217" lon="0.33647">
        <ele>73.2</ele>
        <time>2023-01-15T09:13:04Z</time>
      </trkpt>
      <trkpt lat="46.5122" lon="0.33652">
        <ele>73.2</ele>
        <time>2023-01-15T09:13:05Z</time>
      </trkpt>
      <trkpt lat="46.51224" lon="0.33657">
        <ele>73.2</ele>
        <time>2023-01-15T09:13:06Z</time>
      </trkpt>
      <trkpt lat="46.51232" lon="0.33665">
        <ele>73</ele>
        <time>2023-01-15T09:13:08Z</time>
      </trkpt>
      <trkpt lat="46.51235" lon="0.33669">
        <ele>73</ele>
        <time>2023-01-15T09:13:09Z</time>
      </trkpt>
      <trkpt lat="46.51242" lon="0.33675">
        <ele>73</ele>
        <time>2023-01-15T09:13:11Z</time>
      </trkpt>
      <trkpt lat="46.51249" lon="0.33682">
        <ele>73</ele>
        <time>2023-01-15T09:13:14Z</time>
      </trkpt>
      <trkpt lat="46.51254" lon="0.33689">
        <ele>73</ele>
        <time>2023-01-15T09:13:16Z</time>
      </trkpt>
      <trkpt lat="46.51265" lon="0.33703">
        <ele>73</ele>
        <time>2023-01-15T09:13:19Z</time>
      </trkpt>
      <trkpt lat="46.51274" lon="0.33718">
        <ele>73.2</ele>
        <time>2023-01-15T09:13:22Z</time>
      </trkpt>
      <trkpt lat="46.51281" lon="0.3373">
        <ele>73</ele>
        <time>2023-01-15T09:13:24Z</time>
      </trkpt>
      <trkpt lat="46.51283" lon="0.33737">
        <ele>73</ele>
        <time>2023-01-15T09:13:25Z</time>
      </trkpt>
      <trkpt lat="46.51294" lon="0.33762">
        <ele>73</ele>
        <time>2023-01-15T09:13:29Z</time>
      </trkpt>
      <trkpt lat="46.51297" lon="0.33767">
        <ele>73</ele>
        <time>2023-01-15T09:13:30Z</time>
      </trkpt>
      <trkpt lat="46.51302" lon="0.33777">
        <ele>73</ele>
        <time>2023-01-15T09:13:32Z</time>
      </trkpt>
      <trkpt lat="46.51304" lon="0.33788">
        <ele>73</ele>
        <time>2023-01-15T09:13:34Z</time>
      </trkpt>
      <trkpt lat="46.51306" lon="0.33801">
        <ele>73</ele>
        <time>2023-01-15T09:13:36Z</time>
      </trkpt>
      <trkpt lat="46.51309" lon="0.33813">
        <ele>73.2</ele>
        <time>2023-01-15T09:13:38Z</time>
      </trkpt>
      <trkpt lat="46.51312" lon="0.3382">
        <ele>73.2</ele>
        <time>2023-01-15T09:13:39Z</time>
      </trkpt>
      <trkpt lat="46.51315" lon="0.33826">
        <ele>73</ele>
        <time>2023-01-15T09:13:40Z</time>
      </trkpt>
      <trkpt lat="46.51325" lon="0.33843">
        <ele>73</ele>
        <time>2023-01-15T09:13:43Z</time>
      </trkpt>
      <trkpt lat="46.51329" lon="0.33848">
        <ele>73</ele>
        <time>2023-01-15T09:13:44Z</time>
      </trkpt>
      <trkpt lat="46.51343" lon="0.33866">
        <ele>72.8</ele>
        <time>2023-01-15T09:13:48Z</time>
      </trkpt>
      <trkpt lat="46.51346" lon="0.33869">
        <ele>72.6</ele>
        <time>2023-01-15T09:13:49Z</time>
      </trkpt>
      <trkpt lat="46.5137" lon="0.33898">
        <ele>72.6</ele>
        <time>2023-01-15T09:13:55Z</time>
      </trkpt>
      <trkpt lat="46.51378" lon="0.33909">
        <ele>73</ele>
        <time>2023-01-15T09:13:57Z</time>
      </trkpt>
      <trkpt lat="46.51389" lon="0.33927">
        <ele>72.8</ele>
        <time>2023-01-15T09:14:00Z</time>
      </trkpt>
      <trkpt lat="46.51412" lon="0.3397">
        <ele>73</ele>
        <time>2023-01-15T09:14:07Z</time>
      </trkpt>
      <trkpt lat="46.51423" lon="0.33986">
        <ele>73</ele>
        <time>2023-01-15T09:14:10Z</time>
      </trkpt>
      <trkpt lat="46.51431" lon="0.34006">
        <ele>72.8</ele>
        <time>2023-01-15T09:14:13Z</time>
      </trkpt>
      <trkpt lat="46.51439" lon="0.34021">
        <ele>72.4</ele>
        <time>2023-01-15T09:14:16Z</time>
      </trkpt>
      <trkpt lat="46.51445" lon="0.34027">
        <ele>72.2</ele>
        <time>2023-01-15T09:14:18Z</time>
      </trkpt>
      <trkpt lat="46.51461" lon="0.34032">
        <ele>72.2</ele>
        <time>2023-01-15T09:14:22Z</time>
      </trkpt>
      <trkpt lat="46.51466" lon="0.34032">
        <ele>72.2</ele>
        <time>2023-01-15T09:14:23Z</time>
      </trkpt>
      <trkpt lat="46.5147" lon="0.34031">
        <ele>72.2</ele>
        <time>2023-01-15T09:14:24Z</time>
      </trkpt>
      <trkpt lat="46.51478" lon="0.34033">
        <ele>71.8</ele>
        <time>2023-01-15T09:14:26Z</time>
      </trkpt>
      <trkpt lat="46.51481" lon="0.34035">
        <ele>71.6</ele>
        <time>2023-01-15T09:14:27Z</time>
      </trkpt>
      <trkpt lat="46.51485" lon="0.34038">
        <ele>71.6</ele>
        <time>2023-01-15T09:14:28Z</time>
      </trkpt>
      <trkpt lat="46.51503" lon="0.34052">
        <ele>71.8</ele>
        <time>2023-01-15T09:14:33Z</time>
      </trkpt>
      <trkpt lat="46.51527" lon="0.34069">
        <ele>72.4</ele>
        <time>2023-01-15T09:14:40Z</time>
      </trkpt>
      <trkpt lat="46.51548" lon="0.34074">
        <ele>72.2</ele>
        <time>2023-01-15T09:14:46Z</time>
      </trkpt>
      <trkpt lat="46.51563" lon="0.3407">
        <ele>72.4</ele>
        <time>2023-01-15T09:14:51Z</time>
      </trkpt>
      <trkpt lat="46.51572" lon="0.34069">
        <ele>72.6</ele>
        <time>2023-01-15T09:14:56Z</time>
      </trkpt>
      <trkpt lat="46.51588" lon="0.34067">
        <ele>72.4</ele>
        <time>2023-01-15T09:15:02Z</time>
      </trkpt>
      <trkpt lat="46.51606" lon="0.34065">
        <ele>72.4</ele>
        <time>2023-01-15T09:15:08Z</time>
      </trkpt>
      <trkpt lat="46.51632" lon="0.34061">
        <ele>72.4</ele>
        <time>2023-01-15T09:15:16Z</time>
      </trkpt>
      <trkpt lat="46.51649" lon="0.34061">
        <ele>72.4</ele>
        <time>2023-01-15T09:15:21Z</time>
      </trkpt>
      <trkpt lat="46.51668" lon="0.34062">
        <ele>72.4</ele>
        <time>2023-01-15T09:15:28Z</time>
      </trkpt>
      <trkpt lat="46.51687" lon="0.34061">
        <ele>72</ele>
        <time>2023-01-15T09:15:34Z</time>
      </trkpt>
      <trkpt lat="46.517" lon="0.34069">
        <ele>72.8</ele>
        <time>2023-01-15T09:15:38Z</time>
      </trkpt>
      <trkpt lat="46.51713" lon="0.34087">
        <ele>73</ele>
        <time>2023-01-15T09:15:44Z</time>
      </trkpt>
      <trkpt lat="46.51719" lon="0.34097">
        <ele>73.2</ele>
        <time>2023-01-15T09:15:47Z</time>
      </trkpt>
      <trkpt lat="46.5172" lon="0.34106">
        <ele>73.6</ele>
        <time>2023-01-15T09:15:49Z</time>
      </trkpt>
      <trkpt lat="46.51713" lon="0.34135">
        <ele>74</ele>
        <time>2023-01-15T09:15:56Z</time>
      </trkpt>
      <trkpt lat="46.51708" lon="0.34147">
        <ele>74.4</ele>
        <time>2023-01-15T09:15:59Z</time>
      </trkpt>
      <trkpt lat="46.51704" lon="0.3416">
        <ele>74.8</ele>
        <time>2023-01-15T09:16:03Z</time>
      </trkpt>
      <trkpt lat="46.51693" lon="0.34188">
        <ele>75.4</ele>
        <time>2023-01-15T09:16:10Z</time>
      </trkpt>
      <trkpt lat="46.51692" lon="0.34192">
        <ele>75.6</ele>
        <time>2023-01-15T09:16:11Z</time>
      </trkpt>
      <trkpt lat="46.51687" lon="0.34208">
        <ele>76.6</ele>
        <time>2023-01-15T09:16:15Z</time>
      </trkpt>
      <trkpt lat="46.51685" lon="0.34223">
        <ele>77.8</ele>
        <time>2023-01-15T09:16:19Z</time>
      </trkpt>
      <trkpt lat="46.51683" lon="0.34238">
        <ele>78.8</ele>
        <time>2023-01-15T09:16:23Z</time>
      </trkpt>
      <trkpt lat="46.51681" lon="0.34246">
        <ele>79.2</ele>
        <time>2023-01-15T09:16:25Z</time>
      </trkpt>
      <trkpt lat="46.51681" lon="0.34253">
        <ele>79.8</ele>
        <time>2023-01-15T09:16:27Z</time>
      </trkpt>
      <trkpt lat="46.5168" lon="0.34264">
        <ele>81</ele>
        <time>2023-01-15T09:16:30Z</time>
      </trkpt>
      <trkpt lat="46.51679" lon="0.34272">
        <ele>81.4</ele>
        <time>2023-01-15T09:16:32Z</time>
      </trkpt>
      <trkpt lat="46.51681" lon="0.34282">
        <ele>82.2</ele>
        <time>2023-01-15T09:16:35Z</time>
      </trkpt>
      <trkpt lat="46.51684" lon="0.34287">
        <ele>82.6</ele>
        <time>2023-01-15T09:16:37Z</time>
      </trkpt>
      <trkpt lat="46.51694" lon="0.34293">
        <ele>83.2</ele>
        <time>2023-01-15T09:16:41Z</time>
      </trkpt>
      <trkpt lat="46.51699" lon="0.34295">
        <ele>83.2</ele>
        <time>2023-01-15T09:16:43Z</time>
      </trkpt>
      <trkpt lat="46.51716" lon="0.34297">
        <ele>83.8</ele>
        <time>2023-01-15T09:16:49Z</time>
      </trkpt>
      <trkpt lat="46.5174" lon="0.34304">
        <ele>82.2</ele>
        <time>2023-01-15T09:16:56Z</time>
      </trkpt>
      <trkpt lat="46.51745" lon="0.34305">
        <ele>81.8</ele>
        <time>2023-01-15T09:16:57Z</time>
      </trkpt>
      <trkpt lat="46.51755" lon="0.34308">
        <ele>80.6</ele>
        <time>2023-01-15T09:16:59Z</time>
      </trkpt>
      <trkpt lat="46.51766" lon="0.34309">
        <ele>79.8</ele>
        <time>2023-01-15T09:17:01Z</time>
      </trkpt>
      <trkpt lat="46.5178" lon="0.34309">
        <ele>79.4</ele>
        <time>2023-01-15T09:17:03Z</time>
      </trkpt>
      <trkpt lat="46.518" lon="0.34304">
        <ele>78.8</ele>
        <time>2023-01-15T09:17:05Z</time>
      </trkpt>
      <trkpt lat="46.5182" lon="0.34295">
        <ele>78.2</ele>
        <time>2023-01-15T09:17:07Z</time>
      </trkpt>
      <trkpt lat="46.51854" lon="0.34278">
        <ele>77.4</ele>
        <time>2023-01-15T09:17:10Z</time>
      </trkpt>
      <trkpt lat="46.51864" lon="0.34272">
        <ele>77.2</ele>
        <time>2023-01-15T09:17:11Z</time>
      </trkpt>
      <trkpt lat="46.51881" lon="0.34262">
        <ele>76.4</ele>
        <time>2023-01-15T09:17:13Z</time>
      </trkpt>
      <trkpt lat="46.5189" lon="0.34258">
        <ele>76</ele>
        <time>2023-01-15T09:17:14Z</time>
      </trkpt>
      <trkpt lat="46.51898" lon="0.34255">
        <ele>75.8</ele>
        <time>2023-01-15T09:17:15Z</time>
      </trkpt>
      <trkpt lat="46.51929" lon="0.34245">
        <ele>75.2</ele>
        <time>2023-01-15T09:17:19Z</time>
      </trkpt>
      <trkpt lat="46.51936" lon="0.34245">
        <ele>75.2</ele>
        <time>2023-01-15T09:17:20Z</time>
      </trkpt>
      <trkpt lat="46.5195" lon="0.34244">
        <ele>75</ele>
        <time>2023-01-15T09:17:22Z</time>
      </trkpt>
      <trkpt lat="46.51976" lon="0.3424">
        <ele>74.8</ele>
        <time>2023-01-15T09:17:26Z</time>
      </trkpt>
      <trkpt lat="46.51986" lon="0.34247">
        <ele>74.8</ele>
        <time>2023-01-15T09:17:28Z</time>
      </trkpt>
      <trkpt lat="46.51989" lon="0.34253">
        <ele>74.8</ele>
        <time>2023-01-15T09:17:29Z</time>
      </trkpt>
      <trkpt lat="46.5199" lon="0.34258">
        <ele>75</ele>
        <time>2023-01-15T09:17:30Z</time>
      </trkpt>
      <trkpt lat="46.51992" lon="0.34267">
        <ele>75.4</ele>
        <time>2023-01-15T09:17:32Z</time>
      </trkpt>
      <trkpt lat="46.51993" lon="0.34274">
        <ele>76.4</ele>
        <time>2023-01-15T09:17:34Z</time>
      </trkpt>
      <trkpt lat="46.51997" lon="0.34283">
        <ele>77.6</ele>
        <time>2023-01-15T09:17:37Z</time>
      </trkpt>
      <trkpt lat="46.52" lon="0.34288">
        <ele>78.8</ele>
        <time>2023-01-15T09:17:39Z</time>
      </trkpt>
      <trkpt lat="46.52005" lon="0.34294">
        <ele>80</ele>
        <time>2023-01-15T09:17:42Z</time>
      </trkpt>
      <trkpt lat="46.52007" lon="0.34298">
        <ele>80.6</ele>
        <time>2023-01-15T09:17:44Z</time>
      </trkpt>
      <trkpt lat="46.52008" lon="0.34303">
        <ele>81.2</ele>
        <time>2023-01-15T09:17:46Z</time>
      </trkpt>
      <trkpt lat="46.52008" lon="0.34309">
        <ele>82.4</ele>
        <time>2023-01-15T09:17:48Z</time>
      </trkpt>
      <trkpt lat="46.52008" lon="0.34311">
        <ele>82.8</ele>
        <time>2023-01-15T09:17:49Z</time>
      </trkpt>
      <trkpt lat="46.52011" lon="0.34316">
        <ele>83.4</ele>
        <time>2023-01-15T09:17:51Z</time>
      </trkpt>
      <trkpt lat="46.52013" lon="0.34318">
        <ele>83.8</ele>
        <time>2023-01-15T09:17:53Z</time>
      </trkpt>
      <trkpt lat="46.52014" lon="0.3432">
        <ele>84</ele>
        <time>2023-01-15T09:17:54Z</time>
      </trkpt>
      <trkpt lat="46.52028" lon="0.34321">
        <ele>84.2</ele>
        <time>2023-01-15T09:17:59Z</time>
      </trkpt>
      <trkpt lat="46.52036" lon="0.34319">
        <ele>84.6</ele>
        <time>2023-01-15T09:18:02Z</time>
      </trkpt>
      <trkpt lat="46.52046" lon="0.34315">
        <ele>85.4</ele>
        <time>2023-01-15T09:18:06Z</time>
      </trkpt>
      <trkpt lat="46.52051" lon="0.34314">
        <ele>85.6</ele>
        <time>2023-01-15T09:18:08Z</time>
      </trkpt>
      <trkpt lat="46.52063" lon="0.34312">
        <ele>86.8</ele>
        <time>2023-01-15T09:18:12Z</time>
      </trkpt>
      <trkpt lat="46.52069" lon="0.34311">
        <ele>87.2</ele>
        <time>2023-01-15T09:18:14Z</time>
      </trkpt>
      <trkpt lat="46.52079" lon="0.34308">
        <ele>87.8</ele>
        <time>2023-01-15T09:18:17Z</time>
      </trkpt>
      <trkpt lat="46.5209" lon="0.34305">
        <ele>88.6</ele>
        <time>2023-01-15T09:18:21Z</time>
      </trkpt>
      <trkpt lat="46.52093" lon="0.34304">
        <ele>89</ele>
        <time>2023-01-15T09:18:22Z</time>
      </trkpt>
      <trkpt lat="46.52104" lon="0.34305">
        <ele>89.6</ele>
        <time>2023-01-15T09:18:27Z</time>
      </trkpt>
      <trkpt lat="46.52119" lon="0.34302">
        <ele>89.2</ele>
        <time>2023-01-15T09:18:34Z</time>
      </trkpt>
      <trkpt lat="46.52125" lon="0.343">
        <ele>87.6</ele>
        <time>2023-01-15T09:18:37Z</time>
      </trkpt>
      <trkpt lat="46.52129" lon="0.34302">
        <ele>86.6</ele>
        <time>2023-01-15T09:18:39Z</time>
      </trkpt>
      <trkpt lat="46.52132" lon="0.34303">
        <ele>86.2</ele>
        <time>2023-01-15T09:18:40Z</time>
      </trkpt>
      <trkpt lat="46.52141" lon="0.34309">
        <ele>85.2</ele>
        <time>2023-01-15T09:18:44Z</time>
      </trkpt>
      <trkpt lat="46.52156" lon="0.34318">
        <ele>86.2</ele>
        <time>2023-01-15T09:18:51Z</time>
      </trkpt>
      <trkpt lat="46.52157" lon="0.34318">
        <ele>86.6</ele>
        <time>2023-01-15T09:18:52Z</time>
      </trkpt>
      <trkpt lat="46.52168" lon="0.34322">
        <ele>87.2</ele>
        <time>2023-01-15T09:18:58Z</time>
      </trkpt>
      <trkpt lat="46.52177" lon="0.34324">
        <ele>86.8</ele>
        <time>2023-01-15T09:19:02Z</time>
      </trkpt>
      <trkpt lat="46.52181" lon="0.34326">
        <ele>86.8</ele>
        <time>2023-01-15T09:19:04Z</time>
      </trkpt>
      <trkpt lat="46.52193" lon="0.34329">
        <ele>87.2</ele>
        <time>2023-01-15T09:19:11Z</time>
      </trkpt>
      <trkpt lat="46.52206" lon="0.34327">
        <ele>87.6</ele>
        <time>2023-01-15T09:19:16Z</time>
      </trkpt>
      <trkpt lat="46.52213" lon="0.34327">
        <ele>87.6</ele>
        <time>2023-01-15T09:19:18Z</time>
      </trkpt>
      <trkpt lat="46.52235" lon="0.3433">
        <ele>88.2</ele>
        <time>2023-01-15T09:19:24Z</time>
      </trkpt>
      <trkpt lat="46.52253" lon="0.34327">
        <ele>88.8</ele>
        <time>2023-01-15T09:19:29Z</time>
      </trkpt>
      <trkpt lat="46.52255" lon="0.34327">
        <ele>88.8</ele>
        <time>2023-01-15T09:19:30Z</time>
      </trkpt>
      <trkpt lat="46.52257" lon="0.34326">
        <ele>88.8</ele>
        <time>2023-01-15T09:19:31Z</time>
      </trkpt>
      <trkpt lat="46.52262" lon="0.34326">
        <ele>89</ele>
        <time>2023-01-15T09:19:36Z</time>
      </trkpt>
      <trkpt lat="46.52265" lon="0.34328">
        <ele>89.2</ele>
        <time>2023-01-15T09:19:55Z</time>
      </trkpt>
      <trkpt lat="46.52272" lon="0.34325">
        <ele>89.2</ele>
        <time>2023-01-15T09:20:04Z</time>
      </trkpt>
      <trkpt lat="46.52284" lon="0.34315">
        <ele>89.4</ele>
        <time>2023-01-15T09:20:11Z</time>
      </trkpt>
      <trkpt lat="46.52289" lon="0.34312">
        <ele>89.6</ele>
        <time>2023-01-15T09:20:17Z</time>
      </trkpt>
      <trkpt lat="46.5229" lon="0.34311">
        <ele>89.8</ele>
        <time>2023-01-15T09:20:18Z</time>
      </trkpt>
      <trkpt lat="46.52296" lon="0.34305">
        <ele>91.2</ele>
        <time>2023-01-15T09:20:23Z</time>
      </trkpt>
      <trkpt lat="46.52299" lon="0.34303">
        <ele>92.2</ele>
        <time>2023-01-15T09:20:26Z</time>
      </trkpt>
      <trkpt lat="46.523" lon="0.34302">
        <ele>92.4</ele>
        <time>2023-01-15T09:20:27Z</time>
      </trkpt>
      <trkpt lat="46.52303" lon="0.343">
        <ele>93.4</ele>
        <time>2023-01-15T09:20:31Z</time>
      </trkpt>
      <trkpt lat="46.52308" lon="0.34297">
        <ele>94.4</ele>
        <time>2023-01-15T09:20:36Z</time>
      </trkpt>
      <trkpt lat="46.52311" lon="0.34295">
        <ele>94.8</ele>
        <time>2023-01-15T09:20:38Z</time>
      </trkpt>
      <trkpt lat="46.52315" lon="0.34295">
        <ele>95.2</ele>
        <time>2023-01-15T09:20:42Z</time>
      </trkpt>
      <trkpt lat="46.52324" lon="0.34296">
        <ele>95.4</ele>
        <time>2023-01-15T09:20:47Z</time>
      </trkpt>
      <trkpt lat="46.52328" lon="0.34295">
        <ele>95.8</ele>
        <time>2023-01-15T09:20:50Z</time>
      </trkpt>
      <trkpt lat="46.52333" lon="0.34296">
        <ele>96.4</ele>
        <time>2023-01-15T09:20:53Z</time>
      </trkpt>
      <trkpt lat="46.52336" lon="0.34296">
        <ele>96.8</ele>
        <time>2023-01-15T09:20:55Z</time>
      </trkpt>
      <trkpt lat="46.52344" lon="0.34294">
        <ele>97.8</ele>
        <time>2023-01-15T09:20:59Z</time>
      </trkpt>
      <trkpt lat="46.52346" lon="0.34294">
        <ele>98</ele>
        <time>2023-01-15T09:21:00Z</time>
      </trkpt>
      <trkpt lat="46.52354" lon="0.34291">
        <ele>98.4</ele>
        <time>2023-01-15T09:21:07Z</time>
      </trkpt>
      <trkpt lat="46.52355" lon="0.34291">
        <ele>98.6</ele>
        <time>2023-01-15T09:21:08Z</time>
      </trkpt>
      <trkpt lat="46.52359" lon="0.3429">
        <ele>98.6</ele>
        <time>2023-01-15T09:21:18Z</time>
      </trkpt>
      <trkpt lat="46.5236" lon="0.3429">
        <ele>98.8</ele>
        <time>2023-01-15T09:21:36Z</time>
      </trkpt>
      <trkpt lat="46.52364" lon="0.3429">
        <ele>98.6</ele>
        <time>2023-01-15T09:21:53Z</time>
      </trkpt>
      <trkpt lat="46.52366" lon="0.34288">
        <ele>98.8</ele>
        <time>2023-01-15T09:21:56Z</time>
      </trkpt>
      <trkpt lat="46.52374" lon="0.34284">
        <ele>99.2</ele>
        <time>2023-01-15T09:22:00Z</time>
      </trkpt>
      <trkpt lat="46.52382" lon="0.34281">
        <ele>100.2</ele>
        <time>2023-01-15T09:22:05Z</time>
      </trkpt>
      <trkpt lat="46.52386" lon="0.34278">
        <ele>101.2</ele>
        <time>2023-01-15T09:22:08Z</time>
      </trkpt>
      <trkpt lat="46.52389" lon="0.34276">
        <ele>102.2</ele>
        <time>2023-01-15T09:22:12Z</time>
      </trkpt>
      <trkpt lat="46.5239" lon="0.34276">
        <ele>102.4</ele>
        <time>2023-01-15T09:22:13Z</time>
      </trkpt>
      <trkpt lat="46.52398" lon="0.34273">
        <ele>103.2</ele>
        <time>2023-01-15T09:22:20Z</time>
      </trkpt>
      <trkpt lat="46.52399" lon="0.34273">
        <ele>103.4</ele>
        <time>2023-01-15T09:22:21Z</time>
      </trkpt>
      <trkpt lat="46.52402" lon="0.3427">
        <ele>104</ele>
        <time>2023-01-15T09:22:24Z</time>
      </trkpt>
      <trkpt lat="46.52404" lon="0.34268">
        <ele>104.6</ele>
        <time>2023-01-15T09:22:27Z</time>
      </trkpt>
      <trkpt lat="46.52411" lon="0.34264">
        <ele>105.8</ele>
        <time>2023-01-15T09:22:35Z</time>
      </trkpt>
      <trkpt lat="46.52413" lon="0.34263">
        <ele>106</ele>
        <time>2023-01-15T09:22:36Z</time>
      </trkpt>
      <trkpt lat="46.52415" lon="0.34262">
        <ele>106.6</ele>
        <time>2023-01-15T09:22:39Z</time>
      </trkpt>
      <trkpt lat="46.52417" lon="0.34262">
        <ele>106.8</ele>
        <time>2023-01-15T09:22:41Z</time>
      </trkpt>
      <trkpt lat="46.52421" lon="0.34259">
        <ele>107.4</ele>
        <time>2023-01-15T09:22:46Z</time>
      </trkpt>
      <trkpt lat="46.52426" lon="0.34246">
        <ele>107.2</ele>
        <time>2023-01-15T09:22:52Z</time>
      </trkpt>
      <trkpt lat="46.52434" lon="0.34222">
        <ele>107</ele>
        <time>2023-01-15T09:22:57Z</time>
      </trkpt>
      <trkpt lat="46.52445" lon="0.34188">
        <ele>106</ele>
        <time>2023-01-15T09:23:03Z</time>
      </trkpt>
      <trkpt lat="46.52448" lon="0.34183">
        <ele>105.6</ele>
        <time>2023-01-15T09:23:04Z</time>
      </trkpt>
      <trkpt lat="46.52451" lon="0.34178">
        <ele>105.2</ele>
        <time>2023-01-15T09:23:05Z</time>
      </trkpt>
      <trkpt lat="46.52458" lon="0.3417">
        <ele>104.4</ele>
        <time>2023-01-15T09:23:07Z</time>
      </trkpt>
      <trkpt lat="46.52464" lon="0.34155">
        <ele>103.8</ele>
        <time>2023-01-15T09:23:09Z</time>
      </trkpt>
      <trkpt lat="46.52468" lon="0.34148">
        <ele>103.4</ele>
        <time>2023-01-15T09:23:10Z</time>
      </trkpt>
      <trkpt lat="46.52476" lon="0.34133">
        <ele>102</ele>
        <time>2023-01-15T09:23:12Z</time>
      </trkpt>
      <trkpt lat="46.52483" lon="0.34116">
        <ele>100.4</ele>
        <time>2023-01-15T09:23:14Z</time>
      </trkpt>
      <trkpt lat="46.52487" lon="0.34108">
        <ele>100</ele>
        <time>2023-01-15T09:23:15Z</time>
      </trkpt>
      <trkpt lat="46.52491" lon="0.341">
        <ele>99.2</ele>
        <time>2023-01-15T09:23:16Z</time>
      </trkpt>
      <trkpt lat="46.52501" lon="0.34077">
        <ele>97</ele>
        <time>2023-01-15T09:23:19Z</time>
      </trkpt>
      <trkpt lat="46.52504" lon="0.3407">
        <ele>96</ele>
        <time>2023-01-15T09:23:20Z</time>
      </trkpt>
      <trkpt lat="46.52507" lon="0.34065">
        <ele>95.4</ele>
        <time>2023-01-15T09:23:21Z</time>
      </trkpt>
      <trkpt lat="46.52511" lon="0.3406">
        <ele>94.8</ele>
        <time>2023-01-15T09:23:22Z</time>
      </trkpt>
      <trkpt lat="46.5252" lon="0.34051">
        <ele>93.6</ele>
        <time>2023-01-15T09:23:25Z</time>
      </trkpt>
      <trkpt lat="46.52525" lon="0.34047">
        <ele>92.2</ele>
        <time>2023-01-15T09:23:27Z</time>
      </trkpt>
      <trkpt lat="46.52531" lon="0.34044">
        <ele>91</ele>
        <time>2023-01-15T09:23:29Z</time>
      </trkpt>
      <trkpt lat="46.52536" lon="0.34042">
        <ele>90.4</ele>
        <time>2023-01-15T09:23:31Z</time>
      </trkpt>
      <trkpt lat="46.52542" lon="0.34039">
        <ele>90</ele>
        <time>2023-01-15T09:23:34Z</time>
      </trkpt>
      <trkpt lat="46.52544" lon="0.34038">
        <ele>89.4</ele>
        <time>2023-01-15T09:23:36Z</time>
      </trkpt>
      <trkpt lat="46.52551" lon="0.34035">
        <ele>88.8</ele>
        <time>2023-01-15T09:23:40Z</time>
      </trkpt>
      <trkpt lat="46.52557" lon="0.34032">
        <ele>88.4</ele>
        <time>2023-01-15T09:23:42Z</time>
      </trkpt>
      <trkpt lat="46.5256" lon="0.34031">
        <ele>87.8</ele>
        <time>2023-01-15T09:23:44Z</time>
      </trkpt>
      <trkpt lat="46.52565" lon="0.34031">
        <ele>87.2</ele>
        <time>2023-01-15T09:23:47Z</time>
      </trkpt>
      <trkpt lat="46.52572" lon="0.34031">
        <ele>86.6</ele>
        <time>2023-01-15T09:23:51Z</time>
      </trkpt>
      <trkpt lat="46.52579" lon="0.34031">
        <ele>86.2</ele>
        <time>2023-01-15T09:23:55Z</time>
      </trkpt>
      <trkpt lat="46.52581" lon="0.34031">
        <ele>86</ele>
        <time>2023-01-15T09:23:57Z</time>
      </trkpt>
      <trkpt lat="46.52592" lon="0.34029">
        <ele>85.8</ele>
        <time>2023-01-15T09:24:07Z</time>
      </trkpt>
      <trkpt lat="46.52595" lon="0.34028">
        <ele>85.4</ele>
        <time>2023-01-15T09:24:08Z</time>
      </trkpt>
      <trkpt lat="46.52603" lon="0.34027">
        <ele>84.4</ele>
        <time>2023-01-15T09:24:11Z</time>
      </trkpt>
      <trkpt lat="46.52618" lon="0.34027">
        <ele>84.4</ele>
        <time>2023-01-15T09:24:17Z</time>
      </trkpt>
      <trkpt lat="46.5263" lon="0.34028">
        <ele>84</ele>
        <time>2023-01-15T09:24:21Z</time>
      </trkpt>
      <trkpt lat="46.5264" lon="0.34028">
        <ele>83.4</ele>
        <time>2023-01-15T09:24:24Z</time>
      </trkpt>
      <trkpt lat="46.52658" lon="0.34027">
        <ele>82.8</ele>
        <time>2023-01-15T09:24:28Z</time>
      </trkpt>
      <trkpt lat="46.52667" lon="0.34027">
        <ele>82.4</ele>
        <time>2023-01-15T09:24:30Z</time>
      </trkpt>
      <trkpt lat="46.52698" lon="0.34024">
        <ele>82</ele>
        <time>2023-01-15T09:24:35Z</time>
      </trkpt>
      <trkpt lat="46.52711" lon="0.34022">
        <ele>81.6</ele>
        <time>2023-01-15T09:24:37Z</time>
      </trkpt>
      <trkpt lat="46.52726" lon="0.34018">
        <ele>81.4</ele>
        <time>2023-01-15T09:24:39Z</time>
      </trkpt>
      <trkpt lat="46.52732" lon="0.34017">
        <ele>80.6</ele>
        <time>2023-01-15T09:24:40Z</time>
      </trkpt>
      <trkpt lat="46.52739" lon="0.34014">
        <ele>79.8</ele>
        <time>2023-01-15T09:24:41Z</time>
      </trkpt>
      <trkpt lat="46.52747" lon="0.34009">
        <ele>79.2</ele>
        <time>2023-01-15T09:24:42Z</time>
      </trkpt>
      <trkpt lat="46.52752" lon="0.34003">
        <ele>78.4</ele>
        <time>2023-01-15T09:24:43Z</time>
      </trkpt>
      <trkpt lat="46.52756" lon="0.33996">
        <ele>78</ele>
        <time>2023-01-15T09:24:44Z</time>
      </trkpt>
      <trkpt lat="46.5276" lon="0.33984">
        <ele>77.8</ele>
        <time>2023-01-15T09:24:45Z</time>
      </trkpt>
      <trkpt lat="46.52762" lon="0.33973">
        <ele>76.6</ele>
        <time>2023-01-15T09:24:46Z</time>
      </trkpt>
      <trkpt lat="46.52768" lon="0.33951">
        <ele>74.8</ele>
        <time>2023-01-15T09:24:48Z</time>
      </trkpt>
      <trkpt lat="46.52774" lon="0.33932">
        <ele>73.8</ele>
        <time>2023-01-15T09:24:50Z</time>
      </trkpt>
      <trkpt lat="46.52776" lon="0.33925">
        <ele>73.4</ele>
        <time>2023-01-15T09:24:51Z</time>
      </trkpt>
      <trkpt lat="46.52779" lon="0.33919">
        <ele>73.2</ele>
        <time>2023-01-15T09:24:52Z</time>
      </trkpt>
      <trkpt lat="46.52786" lon="0.33911">
        <ele>73</ele>
        <time>2023-01-15T09:24:54Z</time>
      </trkpt>
      <trkpt lat="46.5279" lon="0.33911">
        <ele>72.8</ele>
        <time>2023-01-15T09:24:55Z</time>
      </trkpt>
      <trkpt lat="46.52796" lon="0.3391">
        <ele>72.8</ele>
        <time>2023-01-15T09:24:56Z</time>
      </trkpt>
      <trkpt lat="46.52816" lon="0.33907">
        <ele>72.6</ele>
        <time>2023-01-15T09:25:00Z</time>
      </trkpt>
      <trkpt lat="46.52857" lon="0.33901">
        <ele>72.4</ele>
        <time>2023-01-15T09:25:08Z</time>
      </trkpt>
      <trkpt lat="46.52866" lon="0.33902">
        <ele>72.4</ele>
        <time>2023-01-15T09:25:10Z</time>
      </trkpt>
      <trkpt lat="46.52882" lon="0.33902">
        <ele>72.4</ele>
        <time>2023-01-15T09:25:13Z</time>
      </trkpt>
      <trkpt lat="46.52897" lon="0.33902">
        <ele>72.4</ele>
        <time>2023-01-15T09:25:16Z</time>
      </trkpt>
      <trkpt lat="46.52907" lon="0.33902">
        <ele>72.4</ele>
        <time>2023-01-15T09:25:18Z</time>
      </trkpt>
      <trkpt lat="46.52912" lon="0.33904">
        <ele>72.2</ele>
        <time>2023-01-15T09:25:19Z</time>
      </trkpt>
      <trkpt lat="46.52916" lon="0.33906">
        <ele>72.2</ele>
        <time>2023-01-15T09:25:20Z</time>
      </trkpt>
      <trkpt lat="46.52923" lon="0.33913">
        <ele>72.2</ele>
        <time>2023-01-15T09:25:22Z</time>
      </trkpt>
      <trkpt lat="46.52926" lon="0.33918">
        <ele>72.2</ele>
        <time>2023-01-15T09:25:23Z</time>
      </trkpt>
      <trkpt lat="46.52929" lon="0.33924">
        <ele>72.4</ele>
        <time>2023-01-15T09:25:24Z</time>
      </trkpt>
      <trkpt lat="46.52935" lon="0.33944">
        <ele>72.6</ele>
        <time>2023-01-15T09:25:27Z</time>
      </trkpt>
      <trkpt lat="46.52941" lon="0.33986">
        <ele>73.6</ele>
        <time>2023-01-15T09:25:33Z</time>
      </trkpt>
      <trkpt lat="46.52941" lon="0.33993">
        <ele>74</ele>
        <time>2023-01-15T09:25:34Z</time>
      </trkpt>
      <trkpt lat="46.52942" lon="0.34">
        <ele>74</ele>
        <time>2023-01-15T09:25:35Z</time>
      </trkpt>
      <trkpt lat="46.5295" lon="0.34032">
        <ele>74.8</ele>
        <time>2023-01-15T09:25:40Z</time>
      </trkpt>
      <trkpt lat="46.52952" lon="0.34038">
        <ele>75</ele>
        <time>2023-01-15T09:25:41Z</time>
      </trkpt>
      <trkpt lat="46.52955" lon="0.34043">
        <ele>75.2</ele>
        <time>2023-01-15T09:25:42Z</time>
      </trkpt>
      <trkpt lat="46.52961" lon="0.3405">
        <ele>75.6</ele>
        <time>2023-01-15T09:25:44Z</time>
      </trkpt>
      <trkpt lat="46.52971" lon="0.34055">
        <ele>76.2</ele>
        <time>2023-01-15T09:25:47Z</time>
      </trkpt>
      <trkpt lat="46.52978" lon="0.34058">
        <ele>76.6</ele>
        <time>2023-01-15T09:25:49Z</time>
      </trkpt>
      <trkpt lat="46.52982" lon="0.34067">
        <ele>77.2</ele>
        <time>2023-01-15T09:25:51Z</time>
      </trkpt>
      <trkpt lat="46.52983" lon="0.34073">
        <ele>77.4</ele>
        <time>2023-01-15T09:25:52Z</time>
      </trkpt>
      <trkpt lat="46.52983" lon="0.3408">
        <ele>77.8</ele>
        <time>2023-01-15T09:25:53Z</time>
      </trkpt>
      <trkpt lat="46.52983" lon="0.34093">
        <ele>78.4</ele>
        <time>2023-01-15T09:25:55Z</time>
      </trkpt>
      <trkpt lat="46.52982" lon="0.34106">
        <ele>78.8</ele>
        <time>2023-01-15T09:25:57Z</time>
      </trkpt>
      <trkpt lat="46.52979" lon="0.34131">
        <ele>79.6</ele>
        <time>2023-01-15T09:26:01Z</time>
      </trkpt>
      <trkpt lat="46.52975" lon="0.34155">
        <ele>80.2</ele>
        <time>2023-01-15T09:26:05Z</time>
      </trkpt>
      <trkpt lat="46.52973" lon="0.34166">
        <ele>80.6</ele>
        <time>2023-01-15T09:26:07Z</time>
      </trkpt>
      <trkpt lat="46.52965" lon="0.34193">
        <ele>81.6</ele>
        <time>2023-01-15T09:26:12Z</time>
      </trkpt>
      <trkpt lat="46.52964" lon="0.34198">
        <ele>81.8</ele>
        <time>2023-01-15T09:26:13Z</time>
      </trkpt>
      <trkpt lat="46.52957" lon="0.3423">
        <ele>83</ele>
        <time>2023-01-15T09:26:19Z</time>
      </trkpt>
      <trkpt lat="46.52956" lon="0.34236">
        <ele>83.2</ele>
        <time>2023-01-15T09:26:20Z</time>
      </trkpt>
      <trkpt lat="46.52957" lon="0.34241">
        <ele>83.2</ele>
        <time>2023-01-15T09:26:21Z</time>
      </trkpt>
      <trkpt lat="46.52958" lon="0.34253">
        <ele>83.6</ele>
        <time>2023-01-15T09:26:23Z</time>
      </trkpt>
      <trkpt lat="46.52962" lon="0.34265">
        <ele>83.8</ele>
        <time>2023-01-15T09:26:25Z</time>
      </trkpt>
      <trkpt lat="46.52969" lon="0.34275">
        <ele>84.2</ele>
        <time>2023-01-15T09:26:27Z</time>
      </trkpt>
      <trkpt lat="46.52975" lon="0.34286">
        <ele>84.4</ele>
        <time>2023-01-15T09:26:29Z</time>
      </trkpt>
      <trkpt lat="46.52981" lon="0.34298">
        <ele>84.6</ele>
        <time>2023-01-15T09:26:31Z</time>
      </trkpt>
      <trkpt lat="46.52992" lon="0.34336">
        <ele>85.2</ele>
        <time>2023-01-15T09:26:37Z</time>
      </trkpt>
      <trkpt lat="46.52994" lon="0.34342">
        <ele>85.2</ele>
        <time>2023-01-15T09:26:38Z</time>
      </trkpt>
      <trkpt lat="46.52998" lon="0.34377">
        <ele>86.2</ele>
        <time>2023-01-15T09:26:43Z</time>
      </trkpt>
      <trkpt lat="46.52999" lon="0.34398">
        <ele>86.6</ele>
        <time>2023-01-15T09:26:46Z</time>
      </trkpt>
      <trkpt lat="46.52998" lon="0.34419">
        <ele>87</ele>
        <time>2023-01-15T09:26:49Z</time>
      </trkpt>
      <trkpt lat="46.52995" lon="0.34432">
        <ele>87.2</ele>
        <time>2023-01-15T09:26:51Z</time>
      </trkpt>
      <trkpt lat="46.52994" lon="0.34438">
        <ele>87.4</ele>
        <time>2023-01-15T09:26:52Z</time>
      </trkpt>
      <trkpt lat="46.52985" lon="0.34467">
        <ele>88.2</ele>
        <time>2023-01-15T09:26:57Z</time>
      </trkpt>
      <trkpt lat="46.52977" lon="0.34489">
        <ele>89.4</ele>
        <time>2023-01-15T09:27:01Z</time>
      </trkpt>
      <trkpt lat="46.52975" lon="0.34494">
        <ele>89.6</ele>
        <time>2023-01-15T09:27:02Z</time>
      </trkpt>
      <trkpt lat="46.52969" lon="0.34515">
        <ele>90.4</ele>
        <time>2023-01-15T09:27:06Z</time>
      </trkpt>
      <trkpt lat="46.52963" lon="0.34535">
        <ele>90.8</ele>
        <time>2023-01-15T09:27:10Z</time>
      </trkpt>
      <trkpt lat="46.52956" lon="0.34558">
        <ele>91.6</ele>
        <time>2023-01-15T09:27:15Z</time>
      </trkpt>
      <trkpt lat="46.52951" lon="0.34576">
        <ele>92.4</ele>
        <time>2023-01-15T09:27:19Z</time>
      </trkpt>
      <trkpt lat="46.52949" lon="0.34584">
        <ele>92.8</ele>
        <time>2023-01-15T09:27:21Z</time>
      </trkpt>
      <trkpt lat="46.52945" lon="0.34602">
        <ele>93.8</ele>
        <time>2023-01-15T09:27:26Z</time>
      </trkpt>
      <trkpt lat="46.52944" lon="0.34605">
        <ele>94.2</ele>
        <time>2023-01-15T09:27:27Z</time>
      </trkpt>
      <trkpt lat="46.5294" lon="0.34627">
        <ele>95.2</ele>
        <time>2023-01-15T09:27:34Z</time>
      </trkpt>
      <trkpt lat="46.52939" lon="0.34643">
        <ele>96.2</ele>
        <time>2023-01-15T09:27:39Z</time>
      </trkpt>
      <trkpt lat="46.52936" lon="0.34651">
        <ele>96.8</ele>
        <time>2023-01-15T09:27:42Z</time>
      </trkpt>
      <trkpt lat="46.52933" lon="0.34661">
        <ele>97.4</ele>
        <time>2023-01-15T09:27:46Z</time>
      </trkpt>
      <trkpt lat="46.52931" lon="0.34665">
        <ele>97.8</ele>
        <time>2023-01-15T09:27:48Z</time>
      </trkpt>
      <trkpt lat="46.5293" lon="0.34668">
        <ele>98.2</ele>
        <time>2023-01-15T09:27:52Z</time>
      </trkpt>
      <trkpt lat="46.5293" lon="0.3467">
        <ele>98.4</ele>
        <time>2023-01-15T09:27:54Z</time>
      </trkpt>
      <trkpt lat="46.52929" lon="0.34672">
        <ele>98.6</ele>
        <time>2023-01-15T09:27:56Z</time>
      </trkpt>
      <trkpt lat="46.52927" lon="0.34679">
        <ele>99.6</ele>
        <time>2023-01-15T09:28:00Z</time>
      </trkpt>
      <trkpt lat="46.52926" lon="0.34685">
        <ele>100.4</ele>
        <time>2023-01-15T09:28:04Z</time>
      </trkpt>
      <trkpt lat="46.52925" lon="0.34686">
        <ele>100.6</ele>
        <time>2023-01-15T09:28:05Z</time>
      </trkpt>
      <trkpt lat="46.52921" lon="0.347">
        <ele>101.4</ele>
        <time>2023-01-15T09:28:13Z</time>
      </trkpt>
      <trkpt lat="46.52921" lon="0.34702">
        <ele>101.6</ele>
        <time>2023-01-15T09:28:14Z</time>
      </trkpt>
      <trkpt lat="46.52923" lon="0.34712">
        <ele>102.4</ele>
        <time>2023-01-15T09:28:20Z</time>
      </trkpt>
      <trkpt lat="46.52923" lon="0.34713">
        <ele>102.6</ele>
        <time>2023-01-15T09:28:23Z</time>
      </trkpt>
      <trkpt lat="46.52923" lon="0.34713">
        <ele>103</ele>
        <time>2023-01-15T09:28:26Z</time>
      </trkpt>
      <trkpt lat="46.5292" lon="0.34726">
        <ele>103.2</ele>
        <time>2023-01-15T09:28:33Z</time>
      </trkpt>
      <trkpt lat="46.52919" lon="0.3473">
        <ele>104</ele>
        <time>2023-01-15T09:28:35Z</time>
      </trkpt>
      <trkpt lat="46.52917" lon="0.34741">
        <ele>104.8</ele>
        <time>2023-01-15T09:28:40Z</time>
      </trkpt>
      <trkpt lat="46.52916" lon="0.34743">
        <ele>105</ele>
        <time>2023-01-15T09:28:41Z</time>
      </trkpt>
      <trkpt lat="46.52915" lon="0.3475">
        <ele>106.2</ele>
        <time>2023-01-15T09:28:47Z</time>
      </trkpt>
      <trkpt lat="46.52914" lon="0.34751">
        <ele>106.4</ele>
        <time>2023-01-15T09:28:48Z</time>
      </trkpt>
      <trkpt lat="46.52911" lon="0.3476">
        <ele>107.2</ele>
        <time>2023-01-15T09:28:54Z</time>
      </trkpt>
      <trkpt lat="46.5291" lon="0.34763">
        <ele>107.4</ele>
        <time>2023-01-15T09:28:56Z</time>
      </trkpt>
      <trkpt lat="46.52907" lon="0.34772">
        <ele>108.4</ele>
        <time>2023-01-15T09:29:03Z</time>
      </trkpt>
      <trkpt lat="46.52907" lon="0.34774">
        <ele>108.6</ele>
        <time>2023-01-15T09:29:04Z</time>
      </trkpt>
      <trkpt lat="46.52904" lon="0.34784">
        <ele>109.6</ele>
        <time>2023-01-15T09:29:12Z</time>
      </trkpt>
      <trkpt lat="46.52903" lon="0.34787">
        <ele>109.8</ele>
        <time>2023-01-15T09:29:14Z</time>
      </trkpt>
      <trkpt lat="46.52902" lon="0.34795">
        <ele>110.6</ele>
        <time>2023-01-15T09:29:19Z</time>
      </trkpt>
      <trkpt lat="46.52901" lon="0.34802">
        <ele>111.4</ele>
        <time>2023-01-15T09:29:24Z</time>
      </trkpt>
      <trkpt lat="46.529" lon="0.34805">
        <ele>111.6</ele>
        <time>2023-01-15T09:29:26Z</time>
      </trkpt>
      <trkpt lat="46.52898" lon="0.34815">
        <ele>112.8</ele>
        <time>2023-01-15T09:29:33Z</time>
      </trkpt>
      <trkpt lat="46.52897" lon="0.34816">
        <ele>112.8</ele>
        <time>2023-01-15T09:29:34Z</time>
      </trkpt>
      <trkpt lat="46.52893" lon="0.34829">
        <ele>113.6</ele>
        <time>2023-01-15T09:29:43Z</time>
      </trkpt>
      <trkpt lat="46.52892" lon="0.34833">
        <ele>113.8</ele>
        <time>2023-01-15T09:29:45Z</time>
      </trkpt>
      <trkpt lat="46.5289" lon="0.34836">
        <ele>113.8</ele>
        <time>2023-01-15T09:29:48Z</time>
      </trkpt>
      <trkpt lat="46.52886" lon="0.34844">
        <ele>114.2</ele>
        <time>2023-01-15T09:29:53Z</time>
      </trkpt>
      <trkpt lat="46.52884" lon="0.3485">
        <ele>114.8</ele>
        <time>2023-01-15T09:29:57Z</time>
      </trkpt>
      <trkpt lat="46.52883" lon="0.34859">
        <ele>115.4</ele>
        <time>2023-01-15T09:30:02Z</time>
      </trkpt>
      <trkpt lat="46.52883" lon="0.34861">
        <ele>115.8</ele>
        <time>2023-01-15T09:30:05Z</time>
      </trkpt>
      <trkpt lat="46.52883" lon="0.34861">
        <ele>115.8</ele>
        <time>2023-01-15T09:30:06Z</time>
      </trkpt>
      <trkpt lat="46.52882" lon="0.34861">
        <ele>116</ele>
        <time>2023-01-15T09:30:08Z</time>
      </trkpt>
      <trkpt lat="46.52881" lon="0.34869">
        <ele>116</ele>
        <time>2023-01-15T09:30:16Z</time>
      </trkpt>
      <trkpt lat="46.52877" lon="0.34885">
        <ele>116.8</ele>
        <time>2023-01-15T09:30:25Z</time>
      </trkpt>
      <trkpt lat="46.52876" lon="0.34886">
        <ele>117</ele>
        <time>2023-01-15T09:30:26Z</time>
      </trkpt>
      <trkpt lat="46.52872" lon="0.34896">
        <ele>118</ele>
        <time>2023-01-15T09:30:34Z</time>
      </trkpt>
      <trkpt lat="46.52872" lon="0.34896">
        <ele>118.2</ele>
        <time>2023-01-15T09:30:35Z</time>
      </trkpt>
      <trkpt lat="46.52867" lon="0.34906">
        <ele>118.6</ele>
        <time>2023-01-15T09:30:42Z</time>
      </trkpt>
      <trkpt lat="46.52864" lon="0.34913">
        <ele>119.2</ele>
        <time>2023-01-15T09:30:45Z</time>
      </trkpt>
      <trkpt lat="46.52862" lon="0.34922">
        <ele>119.4</ele>
        <time>2023-01-15T09:30:48Z</time>
      </trkpt>
      <trkpt lat="46.52855" lon="0.34937">
        <ele>120.2</ele>
        <time>2023-01-15T09:30:53Z</time>
      </trkpt>
      <trkpt lat="46.52852" lon="0.34944">
        <ele>120.4</ele>
        <time>2023-01-15T09:30:55Z</time>
      </trkpt>
      <trkpt lat="46.52838" lon="0.34975">
        <ele>120.8</ele>
        <time>2023-01-15T09:31:04Z</time>
      </trkpt>
      <trkpt lat="46.5283" lon="0.34995">
        <ele>121.2</ele>
        <time>2023-01-15T09:31:10Z</time>
      </trkpt>
      <trkpt lat="46.52825" lon="0.35004">
        <ele>121.4</ele>
        <time>2023-01-15T09:31:13Z</time>
      </trkpt>
      <trkpt lat="46.52816" lon="0.35028">
        <ele>121</ele>
        <time>2023-01-15T09:31:19Z</time>
      </trkpt>
      <trkpt lat="46.52807" lon="0.35053">
        <ele>121.2</ele>
        <time>2023-01-15T09:31:25Z</time>
      </trkpt>
      <trkpt lat="46.52793" lon="0.35091">
        <ele>120.6</ele>
        <time>2023-01-15T09:31:34Z</time>
      </trkpt>
      <trkpt lat="46.52783" lon="0.35121">
        <ele>120.4</ele>
        <time>2023-01-15T09:31:41Z</time>
      </trkpt>
      <trkpt lat="46.52777" lon="0.35148">
        <ele>120</ele>
        <time>2023-01-15T09:31:47Z</time>
      </trkpt>
      <trkpt lat="46.52775" lon="0.35156">
        <ele>120</ele>
        <time>2023-01-15T09:31:49Z</time>
      </trkpt>
      <trkpt lat="46.52763" lon="0.35189">
        <ele>119.4</ele>
        <time>2023-01-15T09:31:56Z</time>
      </trkpt>
      <trkpt lat="46.5275" lon="0.35231">
        <ele>119.8</ele>
        <time>2023-01-15T09:32:04Z</time>
      </trkpt>
      <trkpt lat="46.52749" lon="0.35236">
        <ele>119.8</ele>
        <time>2023-01-15T09:32:05Z</time>
      </trkpt>
      <trkpt lat="46.52742" lon="0.35261">
        <ele>119.6</ele>
        <time>2023-01-15T09:32:09Z</time>
      </trkpt>
      <trkpt lat="46.5274" lon="0.35267">
        <ele>119.6</ele>
        <time>2023-01-15T09:32:10Z</time>
      </trkpt>
      <trkpt lat="46.52739" lon="0.35274">
        <ele>119.6</ele>
        <time>2023-01-15T09:32:11Z</time>
      </trkpt>
      <trkpt lat="46.52731" lon="0.35302">
        <ele>119.8</ele>
        <time>2023-01-15T09:32:16Z</time>
      </trkpt>
      <trkpt lat="46.52725" lon="0.35312">
        <ele>120.2</ele>
        <time>2023-01-15T09:32:19Z</time>
      </trkpt>
      <trkpt lat="46.52722" lon="0.35316">
        <ele>120.2</ele>
        <time>2023-01-15T09:32:21Z</time>
      </trkpt>
      <trkpt lat="46.52712" lon="0.35333">
        <ele>120.4</ele>
        <time>2023-01-15T09:32:27Z</time>
      </trkpt>
      <trkpt lat="46.52702" lon="0.35353">
        <ele>120.4</ele>
        <time>2023-01-15T09:32:32Z</time>
      </trkpt>
      <trkpt lat="46.52695" lon="0.35369">
        <ele>120.2</ele>
        <time>2023-01-15T09:32:36Z</time>
      </trkpt>
      <trkpt lat="46.52693" lon="0.35373">
        <ele>120.2</ele>
        <time>2023-01-15T09:32:37Z</time>
      </trkpt>
      <trkpt lat="46.52688" lon="0.35382">
        <ele>119.8</ele>
        <time>2023-01-15T09:32:40Z</time>
      </trkpt>
      <trkpt lat="46.52684" lon="0.3539">
        <ele>119.6</ele>
        <time>2023-01-15T09:32:42Z</time>
      </trkpt>
      <trkpt lat="46.52675" lon="0.35414">
        <ele>119.2</ele>
        <time>2023-01-15T09:32:48Z</time>
      </trkpt>
      <trkpt lat="46.52667" lon="0.35429">
        <ele>119</ele>
        <time>2023-01-15T09:32:52Z</time>
      </trkpt>
      <trkpt lat="46.52663" lon="0.35435">
        <ele>118.8</ele>
        <time>2023-01-15T09:32:54Z</time>
      </trkpt>
      <trkpt lat="46.52658" lon="0.35445">
        <ele>118.6</ele>
        <time>2023-01-15T09:32:57Z</time>
      </trkpt>
      <trkpt lat="46.52654" lon="0.3546">
        <ele>118.2</ele>
        <time>2023-01-15T09:33:00Z</time>
      </trkpt>
      <trkpt lat="46.52653" lon="0.35465">
        <ele>118.2</ele>
        <time>2023-01-15T09:33:01Z</time>
      </trkpt>
      <trkpt lat="46.52651" lon="0.3547">
        <ele>118.2</ele>
        <time>2023-01-15T09:33:02Z</time>
      </trkpt>
      <trkpt lat="46.52641" lon="0.35493">
        <ele>118.4</ele>
        <time>2023-01-15T09:33:07Z</time>
      </trkpt>
      <trkpt lat="46.52633" lon="0.35512">
        <ele>118</ele>
        <time>2023-01-15T09:33:11Z</time>
      </trkpt>
      <trkpt lat="46.52628" lon="0.35527">
        <ele>117.6</ele>
        <time>2023-01-15T09:33:14Z</time>
      </trkpt>
      <trkpt lat="46.52627" lon="0.35533">
        <ele>117.2</ele>
        <time>2023-01-15T09:33:15Z</time>
      </trkpt>
      <trkpt lat="46.52625" lon="0.35538">
        <ele>116.6</ele>
        <time>2023-01-15T09:33:16Z</time>
      </trkpt>
      <trkpt lat="46.5262" lon="0.35556">
        <ele>115.6</ele>
        <time>2023-01-15T09:33:19Z</time>
      </trkpt>
      <trkpt lat="46.52618" lon="0.35563">
        <ele>115</ele>
        <time>2023-01-15T09:33:20Z</time>
      </trkpt>
      <trkpt lat="46.52616" lon="0.35569">
        <ele>114.6</ele>
        <time>2023-01-15T09:33:21Z</time>
      </trkpt>
      <trkpt lat="46.52613" lon="0.35577">
        <ele>114.2</ele>
        <time>2023-01-15T09:33:22Z</time>
      </trkpt>
      <trkpt lat="46.52604" lon="0.35592">
        <ele>113.8</ele>
        <time>2023-01-15T09:33:24Z</time>
      </trkpt>
      <trkpt lat="46.52599" lon="0.35601">
        <ele>113</ele>
        <time>2023-01-15T09:33:25Z</time>
      </trkpt>
      <trkpt lat="46.5258" lon="0.35633">
        <ele>112</ele>
        <time>2023-01-15T09:33:28Z</time>
      </trkpt>
      <trkpt lat="46.52571" lon="0.35653">
        <ele>110</ele>
        <time>2023-01-15T09:33:30Z</time>
      </trkpt>
      <trkpt lat="46.52569" lon="0.3566">
        <ele>109.4</ele>
        <time>2023-01-15T09:33:31Z</time>
      </trkpt>
      <trkpt lat="46.52568" lon="0.35666">
        <ele>109</ele>
        <time>2023-01-15T09:33:32Z</time>
      </trkpt>
      <trkpt lat="46.52565" lon="0.35674">
        <ele>108.6</ele>
        <time>2023-01-15T09:33:33Z</time>
      </trkpt>
      <trkpt lat="46.52563" lon="0.35679">
        <ele>108.4</ele>
        <time>2023-01-15T09:33:34Z</time>
      </trkpt>
      <trkpt lat="46.52562" lon="0.35686">
        <ele>107.8</ele>
        <time>2023-01-15T09:33:36Z</time>
      </trkpt>
      <trkpt lat="46.5256" lon="0.3569">
        <ele>107.4</ele>
        <time>2023-01-15T09:33:37Z</time>
      </trkpt>
      <trkpt lat="46.52559" lon="0.35694">
        <ele>107</ele>
        <time>2023-01-15T09:33:38Z</time>
      </trkpt>
      <trkpt lat="46.5256" lon="0.35698">
        <ele>106.4</ele>
        <time>2023-01-15T09:33:40Z</time>
      </trkpt>
      <trkpt lat="46.52562" lon="0.3571">
        <ele>105.4</ele>
        <time>2023-01-15T09:33:44Z</time>
      </trkpt>
      <trkpt lat="46.52562" lon="0.35712">
        <ele>105.2</ele>
        <time>2023-01-15T09:33:45Z</time>
      </trkpt>
      <trkpt lat="46.52563" lon="0.35718">
        <ele>104.6</ele>
        <time>2023-01-15T09:33:47Z</time>
      </trkpt>
      <trkpt lat="46.52565" lon="0.3572">
        <ele>104.2</ele>
        <time>2023-01-15T09:33:48Z</time>
      </trkpt>
      <trkpt lat="46.52566" lon="0.35723">
        <ele>103.8</ele>
        <time>2023-01-15T09:33:49Z</time>
      </trkpt>
      <trkpt lat="46.52568" lon="0.35727">
        <ele>103.4</ele>
        <time>2023-01-15T09:33:50Z</time>
      </trkpt>
      <trkpt lat="46.5257" lon="0.3573">
        <ele>103.2</ele>
        <time>2023-01-15T09:33:51Z</time>
      </trkpt>
      <trkpt lat="46.52576" lon="0.35737">
        <ele>102.2</ele>
        <time>2023-01-15T09:33:55Z</time>
      </trkpt>
      <trkpt lat="46.52589" lon="0.35753">
        <ele>101.4</ele>
        <time>2023-01-15T09:34:01Z</time>
      </trkpt>
      <trkpt lat="46.52594" lon="0.35761">
        <ele>101.2</ele>
        <time>2023-01-15T09:34:03Z</time>
      </trkpt>
      <trkpt lat="46.52598" lon="0.35767">
        <ele>101</ele>
        <time>2023-01-15T09:34:04Z</time>
      </trkpt>
      <trkpt lat="46.5261" lon="0.35778">
        <ele>100.6</ele>
        <time>2023-01-15T09:34:06Z</time>
      </trkpt>
      <trkpt lat="46.52615" lon="0.35787">
        <ele>100</ele>
        <time>2023-01-15T09:34:08Z</time>
      </trkpt>
      <trkpt lat="46.52619" lon="0.35796">
        <ele>99.4</ele>
        <time>2023-01-15T09:34:10Z</time>
      </trkpt>
      <trkpt lat="46.52624" lon="0.35805">
        <ele>99</ele>
        <time>2023-01-15T09:34:12Z</time>
      </trkpt>
      <trkpt lat="46.52632" lon="0.3582">
        <ele>97.8</ele>
        <time>2023-01-15T09:34:16Z</time>
      </trkpt>
      <trkpt lat="46.52637" lon="0.3583">
        <ele>97</ele>
        <time>2023-01-15T09:34:18Z</time>
      </trkpt>
      <trkpt lat="46.52641" lon="0.35837">
        <ele>96.6</ele>
        <time>2023-01-15T09:34:19Z</time>
      </trkpt>
      <trkpt lat="46.52647" lon="0.3585">
        <ele>96.2</ele>
        <time>2023-01-15T09:34:21Z</time>
      </trkpt>
      <trkpt lat="46.52652" lon="0.35863">
        <ele>96</ele>
        <time>2023-01-15T09:34:23Z</time>
      </trkpt>
      <trkpt lat="46.52665" lon="0.35894">
        <ele>95.6</ele>
        <time>2023-01-15T09:34:28Z</time>
      </trkpt>
      <trkpt lat="46.52668" lon="0.35898">
        <ele>95.2</ele>
        <time>2023-01-15T09:34:29Z</time>
      </trkpt>
      <trkpt lat="46.52683" lon="0.35911">
        <ele>94.4</ele>
        <time>2023-01-15T09:34:33Z</time>
      </trkpt>
      <trkpt lat="46.52689" lon="0.35916">
        <ele>94.4</ele>
        <time>2023-01-15T09:34:35Z</time>
      </trkpt>
      <trkpt lat="46.52693" lon="0.35921">
        <ele>94.4</ele>
        <time>2023-01-15T09:34:38Z</time>
      </trkpt>
      <trkpt lat="46.52697" lon="0.35926">
        <ele>94.4</ele>
        <time>2023-01-15T09:34:40Z</time>
      </trkpt>
      <trkpt lat="46.52697" lon="0.35928">
        <ele>94.6</ele>
        <time>2023-01-15T09:34:41Z</time>
      </trkpt>
      <trkpt lat="46.52697" lon="0.35932">
        <ele>94.4</ele>
        <time>2023-01-15T09:34:42Z</time>
      </trkpt>
      <trkpt lat="46.52704" lon="0.35945">
        <ele>94.6</ele>
        <time>2023-01-15T09:34:49Z</time>
      </trkpt>
      <trkpt lat="46.52705" lon="0.35953">
        <ele>94.2</ele>
        <time>2023-01-15T09:34:54Z</time>
      </trkpt>
      <trkpt lat="46.52706" lon="0.35958">
        <ele>94</ele>
        <time>2023-01-15T09:34:57Z</time>
      </trkpt>
      <trkpt lat="46.52708" lon="0.35961">
        <ele>93.4</ele>
        <time>2023-01-15T09:34:59Z</time>
      </trkpt>
      <trkpt lat="46.52711" lon="0.35967">
        <ele>93.2</ele>
        <time>2023-01-15T09:35:02Z</time>
      </trkpt>
      <trkpt lat="46.52712" lon="0.3597">
        <ele>93.2</ele>
        <time>2023-01-15T09:35:04Z</time>
      </trkpt>
      <trkpt lat="46.52712" lon="0.35972">
        <ele>93</ele>
        <time>2023-01-15T09:35:05Z</time>
      </trkpt>
      <trkpt lat="46.52715" lon="0.35979">
        <ele>92.8</ele>
        <time>2023-01-15T09:35:09Z</time>
      </trkpt>
      <trkpt lat="46.52717" lon="0.35984">
        <ele>92.2</ele>
        <time>2023-01-15T09:35:11Z</time>
      </trkpt>
      <trkpt lat="46.52718" lon="0.35987">
        <ele>92.2</ele>
        <time>2023-01-15T09:35:12Z</time>
      </trkpt>
      <trkpt lat="46.5272" lon="0.3601">
        <ele>92.2</ele>
        <time>2023-01-15T09:35:20Z</time>
      </trkpt>
      <trkpt lat="46.52723" lon="0.3603">
        <ele>92</ele>
        <time>2023-01-15T09:35:27Z</time>
      </trkpt>
      <trkpt lat="46.5273" lon="0.36049">
        <ele>91.4</ele>
        <time>2023-01-15T09:35:32Z</time>
      </trkpt>
      <trkpt lat="46.52732" lon="0.36053">
        <ele>91.4</ele>
        <time>2023-01-15T09:35:33Z</time>
      </trkpt>
      <trkpt lat="46.52734" lon="0.36056">
        <ele>90.8</ele>
        <time>2023-01-15T09:35:34Z</time>
      </trkpt>
      <trkpt lat="46.52737" lon="0.36063">
        <ele>90.4</ele>
        <time>2023-01-15T09:35:36Z</time>
      </trkpt>
      <trkpt lat="46.52741" lon="0.36072">
        <ele>90.4</ele>
        <time>2023-01-15T09:35:38Z</time>
      </trkpt>
      <trkpt lat="46.52745" lon="0.36082">
        <ele>90.4</ele>
        <time>2023-01-15T09:35:40Z</time>
      </trkpt>
      <trkpt lat="46.52753" lon="0.36092">
        <ele>90.4</ele>
        <time>2023-01-15T09:35:42Z</time>
      </trkpt>
      <trkpt lat="46.52756" lon="0.36097">
        <ele>90.4</ele>
        <time>2023-01-15T09:35:43Z</time>
      </trkpt>
      <trkpt lat="46.5276" lon="0.36103">
        <ele>90</ele>
        <time>2023-01-15T09:35:44Z</time>
      </trkpt>
      <trkpt lat="46.52764" lon="0.36109">
        <ele>89.6</ele>
        <time>2023-01-15T09:35:45Z</time>
      </trkpt>
      <trkpt lat="46.52769" lon="0.36121">
        <ele>88.6</ele>
        <time>2023-01-15T09:35:47Z</time>
      </trkpt>
      <trkpt lat="46.52772" lon="0.36132">
        <ele>88.2</ele>
        <time>2023-01-15T09:35:49Z</time>
      </trkpt>
      <trkpt lat="46.52772" lon="0.36139">
        <ele>88</ele>
        <time>2023-01-15T09:35:50Z</time>
      </trkpt>
      <trkpt lat="46.52779" lon="0.36164">
        <ele>87.8</ele>
        <time>2023-01-15T09:35:54Z</time>
      </trkpt>
      <trkpt lat="46.52781" lon="0.36169">
        <ele>87.4</ele>
        <time>2023-01-15T09:35:55Z</time>
      </trkpt>
      <trkpt lat="46.52785" lon="0.36204">
        <ele>86.6</ele>
        <time>2023-01-15T09:36:02Z</time>
      </trkpt>
      <trkpt lat="46.52786" lon="0.36211">
        <ele>86.4</ele>
        <time>2023-01-15T09:36:04Z</time>
      </trkpt>
      <trkpt lat="46.52793" lon="0.36217">
        <ele>86.4</ele>
        <time>2023-01-15T09:36:05Z</time>
      </trkpt>
      <trkpt lat="46.52804" lon="0.36224">
        <ele>86.4</ele>
        <time>2023-01-15T09:36:07Z</time>
      </trkpt>
      <trkpt lat="46.52825" lon="0.36224">
        <ele>86.2</ele>
        <time>2023-01-15T09:36:12Z</time>
      </trkpt>
      <trkpt lat="46.52846" lon="0.36224">
        <ele>86.2</ele>
        <time>2023-01-15T09:36:18Z</time>
      </trkpt>
      <trkpt lat="46.52861" lon="0.36224">
        <ele>87</ele>
        <time>2023-01-15T09:36:24Z</time>
      </trkpt>
      <trkpt lat="46.52865" lon="0.36223">
        <ele>87.6</ele>
        <time>2023-01-15T09:36:26Z</time>
      </trkpt>
      <trkpt lat="46.52872" lon="0.36222">
        <ele>88.6</ele>
        <time>2023-01-15T09:36:30Z</time>
      </trkpt>
      <trkpt lat="46.52879" lon="0.3622">
        <ele>89.6</ele>
        <time>2023-01-15T09:36:34Z</time>
      </trkpt>
      <trkpt lat="46.52881" lon="0.36219">
        <ele>90</ele>
        <time>2023-01-15T09:36:35Z</time>
      </trkpt>
      <trkpt lat="46.5289" lon="0.36212">
        <ele>91</ele>
        <time>2023-01-15T09:36:41Z</time>
      </trkpt>
      <trkpt lat="46.52897" lon="0.36205">
        <ele>92.2</ele>
        <time>2023-01-15T09:36:47Z</time>
      </trkpt>
      <trkpt lat="46.52901" lon="0.36199">
        <ele>92.6</ele>
        <time>2023-01-15T09:36:51Z</time>
      </trkpt>
      <trkpt lat="46.52903" lon="0.36194">
        <ele>93.4</ele>
        <time>2023-01-15T09:36:54Z</time>
      </trkpt>
      <trkpt lat="46.52905" lon="0.36186">
        <ele>93.8</ele>
        <time>2023-01-15T09:36:59Z</time>
      </trkpt>
      <trkpt lat="46.52908" lon="0.36178">
        <ele>94.6</ele>
        <time>2023-01-15T09:37:04Z</time>
      </trkpt>
      <trkpt lat="46.5291" lon="0.3617">
        <ele>95</ele>
        <time>2023-01-15T09:37:09Z</time>
      </trkpt>
      <trkpt lat="46.52916" lon="0.36159">
        <ele>95.2</ele>
        <time>2023-01-15T09:37:16Z</time>
      </trkpt>
      <trkpt lat="46.52924" lon="0.36148">
        <ele>95.6</ele>
        <time>2023-01-15T09:37:23Z</time>
      </trkpt>
      <trkpt lat="46.52931" lon="0.36137">
        <ele>95.8</ele>
        <time>2023-01-15T09:37:31Z</time>
      </trkpt>
      <trkpt lat="46.52933" lon="0.36125">
        <ele>96.6</ele>
        <time>2023-01-15T09:37:38Z</time>
      </trkpt>
      <trkpt lat="46.52934" lon="0.36124">
        <ele>96.8</ele>
        <time>2023-01-15T09:37:39Z</time>
      </trkpt>
      <trkpt lat="46.52941" lon="0.36114">
        <ele>97.4</ele>
        <time>2023-01-15T09:37:47Z</time>
      </trkpt>
      <trkpt lat="46.52947" lon="0.36108">
        <ele>97.8</ele>
        <time>2023-01-15T09:37:52Z</time>
      </trkpt>
      <trkpt lat="46.52955" lon="0.36104">
        <ele>98.4</ele>
        <time>2023-01-15T09:37:58Z</time>
      </trkpt>
      <trkpt lat="46.52964" lon="0.36098">
        <ele>99</ele>
        <time>2023-01-15T09:38:05Z</time>
      </trkpt>
      <trkpt lat="46.52966" lon="0.36097">
        <ele>99.2</ele>
        <time>2023-01-15T09:38:07Z</time>
      </trkpt>
      <trkpt lat="46.52976" lon="0.36092">
        <ele>100</ele>
        <time>2023-01-15T09:38:13Z</time>
      </trkpt>
      <trkpt lat="46.52979" lon="0.36092">
        <ele>100.6</ele>
        <time>2023-01-15T09:38:15Z</time>
      </trkpt>
      <trkpt lat="46.5299" lon="0.36095">
        <ele>100.8</ele>
        <time>2023-01-15T09:38:23Z</time>
      </trkpt>
      <trkpt lat="46.53006" lon="0.36093">
        <ele>100.6</ele>
        <time>2023-01-15T09:38:31Z</time>
      </trkpt>
      <trkpt lat="46.53019" lon="0.3609">
        <ele>100</ele>
        <time>2023-01-15T09:38:37Z</time>
      </trkpt>
      <trkpt lat="46.53033" lon="0.36087">
        <ele>99.4</ele>
        <time>2023-01-15T09:38:45Z</time>
      </trkpt>
      <trkpt lat="46.5304" lon="0.36085">
        <ele>99.2</ele>
        <time>2023-01-15T09:38:51Z</time>
      </trkpt>
      <trkpt lat="46.5304" lon="0.36085">
        <ele>99.2</ele>
        <time>2023-01-15T09:38:52Z</time>
      </trkpt>
      <trkpt lat="46.53049" lon="0.36084">
        <ele>99.8</ele>
        <time>2023-01-15T09:38:59Z</time>
      </trkpt>
      <trkpt lat="46.53056" lon="0.36076">
        <ele>100.6</ele>
        <time>2023-01-15T09:39:07Z</time>
      </trkpt>
      <trkpt lat="46.53058" lon="0.36074">
        <ele>100.8</ele>
        <time>2023-01-15T09:39:09Z</time>
      </trkpt>
      <trkpt lat="46.53065" lon="0.36072">
        <ele>100.8</ele>
        <time>2023-01-15T09:39:15Z</time>
      </trkpt>
      <trkpt lat="46.53067" lon="0.36072">
        <ele>101</ele>
        <time>2023-01-15T09:39:17Z</time>
      </trkpt>
      <trkpt lat="46.53069" lon="0.36071">
        <ele>101</ele>
        <time>2023-01-15T09:39:19Z</time>
      </trkpt>
      <trkpt lat="46.53075" lon="0.36073">
        <ele>101.2</ele>
        <time>2023-01-15T09:39:24Z</time>
      </trkpt>
      <trkpt lat="46.53079" lon="0.36071">
        <ele>101.4</ele>
        <time>2023-01-15T09:39:30Z</time>
      </trkpt>
      <trkpt lat="46.53088" lon="0.3606">
        <ele>101.4</ele>
        <time>2023-01-15T09:39:39Z</time>
      </trkpt>
      <trkpt lat="46.53099" lon="0.36048">
        <ele>101.2</ele>
        <time>2023-01-15T09:39:47Z</time>
      </trkpt>
      <trkpt lat="46.53109" lon="0.36039">
        <ele>101</ele>
        <time>2023-01-15T09:39:54Z</time>
      </trkpt>
      <trkpt lat="46.53118" lon="0.36033">
        <ele>100.4</ele>
        <time>2023-01-15T09:40:00Z</time>
      </trkpt>
      <trkpt lat="46.53123" lon="0.36031">
        <ele>100</ele>
        <time>2023-01-15T09:40:05Z</time>
      </trkpt>
      <trkpt lat="46.53124" lon="0.3603">
        <ele>99.8</ele>
        <time>2023-01-15T09:40:06Z</time>
      </trkpt>
      <trkpt lat="46.53138" lon="0.36023">
        <ele>99.2</ele>
        <time>2023-01-15T09:40:12Z</time>
      </trkpt>
      <trkpt lat="46.53141" lon="0.36021">
        <ele>99</ele>
        <time>2023-01-15T09:40:13Z</time>
      </trkpt>
      <trkpt lat="46.53151" lon="0.36017">
        <ele>97.6</ele>
        <time>2023-01-15T09:40:17Z</time>
      </trkpt>
      <trkpt lat="46.53154" lon="0.36015">
        <ele>97</ele>
        <time>2023-01-15T09:40:18Z</time>
      </trkpt>
      <trkpt lat="46.53157" lon="0.36013">
        <ele>96.4</ele>
        <time>2023-01-15T09:40:19Z</time>
      </trkpt>
      <trkpt lat="46.53165" lon="0.36009">
        <ele>95.4</ele>
        <time>2023-01-15T09:40:22Z</time>
      </trkpt>
      <trkpt lat="46.53171" lon="0.36008">
        <ele>94.8</ele>
        <time>2023-01-15T09:40:24Z</time>
      </trkpt>
      <trkpt lat="46.53176" lon="0.36017">
        <ele>94.4</ele>
        <time>2023-01-15T09:40:28Z</time>
      </trkpt>
      <trkpt lat="46.53177" lon="0.36021">
        <ele>94.2</ele>
        <time>2023-01-15T09:40:29Z</time>
      </trkpt>
      <trkpt lat="46.53182" lon="0.3604">
        <ele>94</ele>
        <time>2023-01-15T09:40:34Z</time>
      </trkpt>
      <trkpt lat="46.53192" lon="0.36062">
        <ele>93.2</ele>
        <time>2023-01-15T09:40:38Z</time>
      </trkpt>
      <trkpt lat="46.53196" lon="0.36068">
        <ele>93</ele>
        <time>2023-01-15T09:40:39Z</time>
      </trkpt>
      <trkpt lat="46.53205" lon="0.36081">
        <ele>92.4</ele>
        <time>2023-01-15T09:40:41Z</time>
      </trkpt>
      <trkpt lat="46.53209" lon="0.36086">
        <ele>92</ele>
        <time>2023-01-15T09:40:42Z</time>
      </trkpt>
      <trkpt lat="46.53214" lon="0.3609">
        <ele>91.6</ele>
        <time>2023-01-15T09:40:43Z</time>
      </trkpt>
      <trkpt lat="46.53219" lon="0.36092">
        <ele>91.2</ele>
        <time>2023-01-15T09:40:44Z</time>
      </trkpt>
      <trkpt lat="46.53223" lon="0.36092">
        <ele>91</ele>
        <time>2023-01-15T09:40:45Z</time>
      </trkpt>
      <trkpt lat="46.53227" lon="0.36091">
        <ele>91</ele>
        <time>2023-01-15T09:40:46Z</time>
      </trkpt>
      <trkpt lat="46.53234" lon="0.36089">
        <ele>90.6</ele>
        <time>2023-01-15T09:40:48Z</time>
      </trkpt>
      <trkpt lat="46.53252" lon="0.36082">
        <ele>90.4</ele>
        <time>2023-01-15T09:40:54Z</time>
      </trkpt>
      <trkpt lat="46.53266" lon="0.36075">
        <ele>91</ele>
        <time>2023-01-15T09:41:01Z</time>
      </trkpt>
      <trkpt lat="46.53273" lon="0.36071">
        <ele>92.4</ele>
        <time>2023-01-15T09:41:05Z</time>
      </trkpt>
      <trkpt lat="46.5328" lon="0.36068">
        <ele>93.6</ele>
        <time>2023-01-15T09:41:08Z</time>
      </trkpt>
      <trkpt lat="46.53284" lon="0.36067">
        <ele>94.6</ele>
        <time>2023-01-15T09:41:10Z</time>
      </trkpt>
      <trkpt lat="46.53293" lon="0.36063">
        <ele>95.6</ele>
        <time>2023-01-15T09:41:14Z</time>
      </trkpt>
      <trkpt lat="46.53297" lon="0.36061">
        <ele>96.4</ele>
        <time>2023-01-15T09:41:17Z</time>
      </trkpt>
      <trkpt lat="46.533" lon="0.3606">
        <ele>96.8</ele>
        <time>2023-01-15T09:41:19Z</time>
      </trkpt>
      <trkpt lat="46.53304" lon="0.36059">
        <ele>97.8</ele>
        <time>2023-01-15T09:41:22Z</time>
      </trkpt>
      <trkpt lat="46.53305" lon="0.36059">
        <ele>98</ele>
        <time>2023-01-15T09:41:23Z</time>
      </trkpt>
      <trkpt lat="46.53308" lon="0.36059">
        <ele>98.4</ele>
        <time>2023-01-15T09:41:25Z</time>
      </trkpt>
      <trkpt lat="46.53312" lon="0.36058">
        <ele>99.2</ele>
        <time>2023-01-15T09:41:28Z</time>
      </trkpt>
      <trkpt lat="46.5332" lon="0.36057">
        <ele>99.6</ele>
        <time>2023-01-15T09:41:33Z</time>
      </trkpt>
      <trkpt lat="46.53326" lon="0.36057">
        <ele>100.4</ele>
        <time>2023-01-15T09:41:37Z</time>
      </trkpt>
      <trkpt lat="46.5333" lon="0.36057">
        <ele>100.8</ele>
        <time>2023-01-15T09:41:40Z</time>
      </trkpt>
      <trkpt lat="46.53335" lon="0.36058">
        <ele>101.4</ele>
        <time>2023-01-15T09:41:43Z</time>
      </trkpt>
      <trkpt lat="46.53347" lon="0.36062">
        <ele>102.8</ele>
        <time>2023-01-15T09:41:52Z</time>
      </trkpt>
      <trkpt lat="46.53351" lon="0.36062">
        <ele>103.2</ele>
        <time>2023-01-15T09:41:54Z</time>
      </trkpt>
      <trkpt lat="46.53359" lon="0.36067">
        <ele>103.8</ele>
        <time>2023-01-15T09:42:00Z</time>
      </trkpt>
      <trkpt lat="46.53369" lon="0.36074">
        <ele>104.6</ele>
        <time>2023-01-15T09:42:06Z</time>
      </trkpt>
      <trkpt lat="46.53374" lon="0.36079">
        <ele>104.8</ele>
        <time>2023-01-15T09:42:10Z</time>
      </trkpt>
      <trkpt lat="46.53386" lon="0.36088">
        <ele>106</ele>
        <time>2023-01-15T09:42:19Z</time>
      </trkpt>
      <trkpt lat="46.53387" lon="0.3609">
        <ele>106.2</ele>
        <time>2023-01-15T09:42:20Z</time>
      </trkpt>
      <trkpt lat="46.53401" lon="0.36104">
        <ele>107</ele>
        <time>2023-01-15T09:42:29Z</time>
      </trkpt>
      <trkpt lat="46.53408" lon="0.36109">
        <ele>107.4</ele>
        <time>2023-01-15T09:42:33Z</time>
      </trkpt>
      <trkpt lat="46.53433" lon="0.36126">
        <ele>107.6</ele>
        <time>2023-01-15T09:42:47Z</time>
      </trkpt>
      <trkpt lat="46.53453" lon="0.36145">
        <ele>107.8</ele>
        <time>2023-01-15T09:42:56Z</time>
      </trkpt>
      <trkpt lat="46.53461" lon="0.36154">
        <ele>108.2</ele>
        <time>2023-01-15T09:42:59Z</time>
      </trkpt>
      <trkpt lat="46.53471" lon="0.36164">
        <ele>108.2</ele>
        <time>2023-01-15T09:43:02Z</time>
      </trkpt>
      <trkpt lat="46.53491" lon="0.36177">
        <ele>107.8</ele>
        <time>2023-01-15T09:43:08Z</time>
      </trkpt>
      <trkpt lat="46.53524" lon="0.36181">
        <ele>108.8</ele>
        <time>2023-01-15T09:43:17Z</time>
      </trkpt>
      <trkpt lat="46.53535" lon="0.36182">
        <ele>109.2</ele>
        <time>2023-01-15T09:43:20Z</time>
      </trkpt>
      <trkpt lat="46.53544" lon="0.36187">
        <ele>109.6</ele>
        <time>2023-01-15T09:43:23Z</time>
      </trkpt>
      <trkpt lat="46.53566" lon="0.36202">
        <ele>109.2</ele>
        <time>2023-01-15T09:43:30Z</time>
      </trkpt>
      <trkpt lat="46.53574" lon="0.36207">
        <ele>109</ele>
        <time>2023-01-15T09:43:32Z</time>
      </trkpt>
      <trkpt lat="46.53582" lon="0.36215">
        <ele>108.8</ele>
        <time>2023-01-15T09:43:34Z</time>
      </trkpt>
      <trkpt lat="46.53585" lon="0.3622">
        <ele>108.8</ele>
        <time>2023-01-15T09:43:35Z</time>
      </trkpt>
      <trkpt lat="46.53594" lon="0.36236">
        <ele>108</ele>
        <time>2023-01-15T09:43:38Z</time>
      </trkpt>
      <trkpt lat="46.53604" lon="0.36249">
        <ele>107.8</ele>
        <time>2023-01-15T09:43:41Z</time>
      </trkpt>
      <trkpt lat="46.53628" lon="0.36275">
        <ele>107.2</ele>
        <time>2023-01-15T09:43:47Z</time>
      </trkpt>
      <trkpt lat="46.53634" lon="0.36283">
        <ele>107</ele>
        <time>2023-01-15T09:43:49Z</time>
      </trkpt>
      <trkpt lat="46.53647" lon="0.36297">
        <ele>107.2</ele>
        <time>2023-01-15T09:43:54Z</time>
      </trkpt>
      <trkpt lat="46.53667" lon="0.36317">
        <ele>106.8</ele>
        <time>2023-01-15T09:44:00Z</time>
      </trkpt>
      <trkpt lat="46.5368" lon="0.3633">
        <ele>106.6</ele>
        <time>2023-01-15T09:44:05Z</time>
      </trkpt>
      <trkpt lat="46.53698" lon="0.36349">
        <ele>106.6</ele>
        <time>2023-01-15T09:44:11Z</time>
      </trkpt>
      <trkpt lat="46.53711" lon="0.36364">
        <ele>106</ele>
        <time>2023-01-15T09:44:15Z</time>
      </trkpt>
      <trkpt lat="46.53719" lon="0.36374">
        <ele>106.4</ele>
        <time>2023-01-15T09:44:18Z</time>
      </trkpt>
      <trkpt lat="46.53733" lon="0.36388">
        <ele>107.2</ele>
        <time>2023-01-15T09:44:24Z</time>
      </trkpt>
      <trkpt lat="46.53744" lon="0.36401">
        <ele>107.6</ele>
        <time>2023-01-15T09:44:28Z</time>
      </trkpt>
      <trkpt lat="46.53746" lon="0.36404">
        <ele>107.6</ele>
        <time>2023-01-15T09:44:29Z</time>
      </trkpt>
      <trkpt lat="46.53761" lon="0.36419">
        <ele>107.6</ele>
        <time>2023-01-15T09:44:33Z</time>
      </trkpt>
      <trkpt lat="46.53775" lon="0.36428">
        <ele>107.4</ele>
        <time>2023-01-15T09:44:36Z</time>
      </trkpt>
      <trkpt lat="46.53783" lon="0.36433">
        <ele>107</ele>
        <time>2023-01-15T09:44:38Z</time>
      </trkpt>
      <trkpt lat="46.53799" lon="0.36445">
        <ele>106.4</ele>
        <time>2023-01-15T09:44:42Z</time>
      </trkpt>
      <trkpt lat="46.53805" lon="0.36449">
        <ele>106.4</ele>
        <time>2023-01-15T09:44:43Z</time>
      </trkpt>
      <trkpt lat="46.5381" lon="0.36462">
        <ele>106</ele>
        <time>2023-01-15T09:44:45Z</time>
      </trkpt>
      <trkpt lat="46.53817" lon="0.36503">
        <ele>104.6</ele>
        <time>2023-01-15T09:44:50Z</time>
      </trkpt>
      <trkpt lat="46.53818" lon="0.36531">
        <ele>103.4</ele>
        <time>2023-01-15T09:44:53Z</time>
      </trkpt>
      <trkpt lat="46.53817" lon="0.36547">
        <ele>102.6</ele>
        <time>2023-01-15T09:44:55Z</time>
      </trkpt>
      <trkpt lat="46.53819" lon="0.36555">
        <ele>102</ele>
        <time>2023-01-15T09:44:56Z</time>
      </trkpt>
      <trkpt lat="46.53824" lon="0.36571">
        <ele>100.8</ele>
        <time>2023-01-15T09:44:58Z</time>
      </trkpt>
      <trkpt lat="46.53839" lon="0.36595">
        <ele>99.2</ele>
        <time>2023-01-15T09:45:01Z</time>
      </trkpt>
      <trkpt lat="46.53844" lon="0.36604">
        <ele>98.6</ele>
        <time>2023-01-15T09:45:02Z</time>
      </trkpt>
      <trkpt lat="46.53855" lon="0.3662">
        <ele>97.8</ele>
        <time>2023-01-15T09:45:04Z</time>
      </trkpt>
      <trkpt lat="46.5387" lon="0.36645">
        <ele>96.6</ele>
        <time>2023-01-15T09:45:07Z</time>
      </trkpt>
      <trkpt lat="46.53879" lon="0.36661">
        <ele>95.4</ele>
        <time>2023-01-15T09:45:09Z</time>
      </trkpt>
      <trkpt lat="46.53884" lon="0.36666">
        <ele>94.6</ele>
        <time>2023-01-15T09:45:10Z</time>
      </trkpt>
      <trkpt lat="46.53889" lon="0.3667">
        <ele>94.2</ele>
        <time>2023-01-15T09:45:11Z</time>
      </trkpt>
      <trkpt lat="46.53895" lon="0.36678">
        <ele>93.2</ele>
        <time>2023-01-15T09:45:13Z</time>
      </trkpt>
      <trkpt lat="46.53898" lon="0.36682">
        <ele>92.8</ele>
        <time>2023-01-15T09:45:14Z</time>
      </trkpt>
      <trkpt lat="46.53902" lon="0.36687">
        <ele>92.6</ele>
        <time>2023-01-15T09:45:15Z</time>
      </trkpt>
      <trkpt lat="46.53908" lon="0.36702">
        <ele>91.8</ele>
        <time>2023-01-15T09:45:17Z</time>
      </trkpt>
      <trkpt lat="46.53913" lon="0.36719">
        <ele>90.6</ele>
        <time>2023-01-15T09:45:19Z</time>
      </trkpt>
      <trkpt lat="46.53922" lon="0.36748">
        <ele>89.4</ele>
        <time>2023-01-15T09:45:22Z</time>
      </trkpt>
      <trkpt lat="46.53925" lon="0.36758">
        <ele>88.8</ele>
        <time>2023-01-15T09:45:23Z</time>
      </trkpt>
      <trkpt lat="46.53929" lon="0.36769">
        <ele>88</ele>
        <time>2023-01-15T09:45:24Z</time>
      </trkpt>
      <trkpt lat="46.53933" lon="0.36779">
        <ele>87.6</ele>
        <time>2023-01-15T09:45:25Z</time>
      </trkpt>
      <trkpt lat="46.53944" lon="0.36798">
        <ele>86.2</ele>
        <time>2023-01-15T09:45:27Z</time>
      </trkpt>
      <trkpt lat="46.53956" lon="0.36816">
        <ele>85</ele>
        <time>2023-01-15T09:45:29Z</time>
      </trkpt>
      <trkpt lat="46.53971" lon="0.36834">
        <ele>83.8</ele>
        <time>2023-01-15T09:45:31Z</time>
      </trkpt>
      <trkpt lat="46.53978" lon="0.36843">
        <ele>83.2</ele>
        <time>2023-01-15T09:45:32Z</time>
      </trkpt>
      <trkpt lat="46.53984" lon="0.36852">
        <ele>82.6</ele>
        <time>2023-01-15T09:45:33Z</time>
      </trkpt>
      <trkpt lat="46.54008" lon="0.36886">
        <ele>81.6</ele>
        <time>2023-01-15T09:45:37Z</time>
      </trkpt>
      <trkpt lat="46.54023" lon="0.36908">
        <ele>82.8</ele>
        <time>2023-01-15T09:45:41Z</time>
      </trkpt>
      <trkpt lat="46.5403" lon="0.36918">
        <ele>83.8</ele>
        <time>2023-01-15T09:45:44Z</time>
      </trkpt>
      <trkpt lat="46.54031" lon="0.3692">
        <ele>84</ele>
        <time>2023-01-15T09:45:45Z</time>
      </trkpt>
      <trkpt lat="46.54031" lon="0.36923">
        <ele>84.4</ele>
        <time>2023-01-15T09:45:46Z</time>
      </trkpt>
      <trkpt lat="46.54032" lon="0.36925">
        <ele>85.2</ele>
        <time>2023-01-15T09:45:47Z</time>
      </trkpt>
      <trkpt lat="46.54033" lon="0.3693">
        <ele>86.4</ele>
        <time>2023-01-15T09:45:49Z</time>
      </trkpt>
      <trkpt lat="46.54036" lon="0.36936">
        <ele>88</ele>
        <time>2023-01-15T09:45:52Z</time>
      </trkpt>
      <trkpt lat="46.54045" lon="0.36952">
        <ele>89</ele>
        <time>2023-01-15T09:45:56Z</time>
      </trkpt>
      <trkpt lat="46.54047" lon="0.36955">
        <ele>89.4</ele>
        <time>2023-01-15T09:45:57Z</time>
      </trkpt>
      <trkpt lat="46.5405" lon="0.36958">
        <ele>90.4</ele>
        <time>2023-01-15T09:45:59Z</time>
      </trkpt>
      <trkpt lat="46.54056" lon="0.36964">
        <ele>91.4</ele>
        <time>2023-01-15T09:46:02Z</time>
      </trkpt>
      <trkpt lat="46.54064" lon="0.36976">
        <ele>92</ele>
        <time>2023-01-15T09:46:05Z</time>
      </trkpt>
      <trkpt lat="46.54067" lon="0.3698">
        <ele>92.4</ele>
        <time>2023-01-15T09:46:06Z</time>
      </trkpt>
      <trkpt lat="46.54068" lon="0.36982">
        <ele>92.6</ele>
        <time>2023-01-15T09:46:07Z</time>
      </trkpt>
      <trkpt lat="46.54077" lon="0.36994">
        <ele>93.4</ele>
        <time>2023-01-15T09:46:12Z</time>
      </trkpt>
      <trkpt lat="46.54078" lon="0.36995">
        <ele>93.6</ele>
        <time>2023-01-15T09:46:13Z</time>
      </trkpt>
      <trkpt lat="46.54082" lon="0.37001">
        <ele>94.4</ele>
        <time>2023-01-15T09:46:17Z</time>
      </trkpt>
      <trkpt lat="46.54083" lon="0.37003">
        <ele>94.4</ele>
        <time>2023-01-15T09:46:18Z</time>
      </trkpt>
      <trkpt lat="46.54088" lon="0.37008">
        <ele>95.2</ele>
        <time>2023-01-15T09:46:21Z</time>
      </trkpt>
      <trkpt lat="46.54091" lon="0.37011">
        <ele>95.8</ele>
        <time>2023-01-15T09:46:23Z</time>
      </trkpt>
      <trkpt lat="46.54095" lon="0.37017">
        <ele>96.6</ele>
        <time>2023-01-15T09:46:28Z</time>
      </trkpt>
      <trkpt lat="46.54096" lon="0.3702">
        <ele>96.8</ele>
        <time>2023-01-15T09:46:30Z</time>
      </trkpt>
      <trkpt lat="46.54103" lon="0.37028">
        <ele>98.2</ele>
        <time>2023-01-15T09:46:36Z</time>
      </trkpt>
      <trkpt lat="46.54105" lon="0.37029">
        <ele>98.4</ele>
        <time>2023-01-15T09:46:37Z</time>
      </trkpt>
      <trkpt lat="46.5411" lon="0.37035">
        <ele>98.8</ele>
        <time>2023-01-15T09:46:41Z</time>
      </trkpt>
      <trkpt lat="46.54113" lon="0.37039">
        <ele>99.2</ele>
        <time>2023-01-15T09:46:43Z</time>
      </trkpt>
      <trkpt lat="46.54121" lon="0.37046">
        <ele>100.4</ele>
        <time>2023-01-15T09:46:48Z</time>
      </trkpt>
      <trkpt lat="46.54126" lon="0.37057">
        <ele>101.4</ele>
        <time>2023-01-15T09:46:53Z</time>
      </trkpt>
      <trkpt lat="46.54127" lon="0.37059">
        <ele>101.6</ele>
        <time>2023-01-15T09:46:54Z</time>
      </trkpt>
      <trkpt lat="46.54133" lon="0.3707">
        <ele>102.6</ele>
        <time>2023-01-15T09:46:59Z</time>
      </trkpt>
      <trkpt lat="46.54139" lon="0.37082">
        <ele>103.6</ele>
        <time>2023-01-15T09:47:03Z</time>
      </trkpt>
      <trkpt lat="46.5414" lon="0.37085">
        <ele>103.8</ele>
        <time>2023-01-15T09:47:04Z</time>
      </trkpt>
      <trkpt lat="46.54143" lon="0.37108">
        <ele>104.8</ele>
        <time>2023-01-15T09:47:11Z</time>
      </trkpt>
      <trkpt lat="46.54142" lon="0.37126">
        <ele>106</ele>
        <time>2023-01-15T09:47:17Z</time>
      </trkpt>
      <trkpt lat="46.5414" lon="0.3713">
        <ele>106.4</ele>
        <time>2023-01-15T09:47:19Z</time>
      </trkpt>
      <trkpt lat="46.54137" lon="0.3714">
        <ele>107</ele>
        <time>2023-01-15T09:47:24Z</time>
      </trkpt>
      <trkpt lat="46.54134" lon="0.37147">
        <ele>107.8</ele>
        <time>2023-01-15T09:47:27Z</time>
      </trkpt>
      <trkpt lat="46.54131" lon="0.37152">
        <ele>108.4</ele>
        <time>2023-01-15T09:47:29Z</time>
      </trkpt>
      <trkpt lat="46.54125" lon="0.37164">
        <ele>109.2</ele>
        <time>2023-01-15T09:47:34Z</time>
      </trkpt>
      <trkpt lat="46.54124" lon="0.37166">
        <ele>109.4</ele>
        <time>2023-01-15T09:47:35Z</time>
      </trkpt>
      <trkpt lat="46.54117" lon="0.37177">
        <ele>110</ele>
        <time>2023-01-15T09:47:41Z</time>
      </trkpt>
      <trkpt lat="46.54109" lon="0.3719">
        <ele>110.4</ele>
        <time>2023-01-15T09:47:46Z</time>
      </trkpt>
      <trkpt lat="46.54108" lon="0.37192">
        <ele>110.6</ele>
        <time>2023-01-15T09:47:47Z</time>
      </trkpt>
      <trkpt lat="46.54097" lon="0.37211">
        <ele>111</ele>
        <time>2023-01-15T09:47:53Z</time>
      </trkpt>
      <trkpt lat="46.54093" lon="0.37233">
        <ele>111.4</ele>
        <time>2023-01-15T09:47:58Z</time>
      </trkpt>
      <trkpt lat="46.54093" lon="0.37238">
        <ele>111.6</ele>
        <time>2023-01-15T09:47:59Z</time>
      </trkpt>
      <trkpt lat="46.54087" lon="0.37266">
        <ele>112</ele>
        <time>2023-01-15T09:48:05Z</time>
      </trkpt>
      <trkpt lat="46.54069" lon="0.37292">
        <ele>112.4</ele>
        <time>2023-01-15T09:48:11Z</time>
      </trkpt>
      <trkpt lat="46.5406" lon="0.37306">
        <ele>112.4</ele>
        <time>2023-01-15T09:48:14Z</time>
      </trkpt>
      <trkpt lat="46.54046" lon="0.37322">
        <ele>112.6</ele>
        <time>2023-01-15T09:48:18Z</time>
      </trkpt>
      <trkpt lat="46.54029" lon="0.37344">
        <ele>113.4</ele>
        <time>2023-01-15T09:48:24Z</time>
      </trkpt>
      <trkpt lat="46.54026" lon="0.37348">
        <ele>113.8</ele>
        <time>2023-01-15T09:48:25Z</time>
      </trkpt>
      <trkpt lat="46.54013" lon="0.37369">
        <ele>114.4</ele>
        <time>2023-01-15T09:48:31Z</time>
      </trkpt>
      <trkpt lat="46.54007" lon="0.37378">
        <ele>114.8</ele>
        <time>2023-01-15T09:48:34Z</time>
      </trkpt>
      <trkpt lat="46.54003" lon="0.37386">
        <ele>115.2</ele>
        <time>2023-01-15T09:48:37Z</time>
      </trkpt>
      <trkpt lat="46.53995" lon="0.37408">
        <ele>115.6</ele>
        <time>2023-01-15T09:48:44Z</time>
      </trkpt>
      <trkpt lat="46.53993" lon="0.37413">
        <ele>115.8</ele>
        <time>2023-01-15T09:48:47Z</time>
      </trkpt>
      <trkpt lat="46.53994" lon="0.37416">
        <ele>116</ele>
        <time>2023-01-15T09:48:49Z</time>
      </trkpt>
      <trkpt lat="46.53995" lon="0.37418">
        <ele>115.8</ele>
        <time>2023-01-15T09:48:53Z</time>
      </trkpt>
      <trkpt lat="46.53995" lon="0.37419">
        <ele>115.8</ele>
        <time>2023-01-15T09:48:54Z</time>
      </trkpt>
      <trkpt lat="46.53995" lon="0.37419">
        <ele>115.4</ele>
        <time>2023-01-15T09:49:03Z</time>
      </trkpt>
      <trkpt lat="46.53995" lon="0.37419">
        <ele>115.4</ele>
        <time>2023-01-15T09:49:04Z</time>
      </trkpt>
      <trkpt lat="46.54" lon="0.37422">
        <ele>115.4</ele>
        <time>2023-01-15T09:49:10Z</time>
      </trkpt>
      <trkpt lat="46.54001" lon="0.37422">
        <ele>115.2</ele>
        <time>2023-01-15T09:49:11Z</time>
      </trkpt>
      <trkpt lat="46.54002" lon="0.37422">
        <ele>115.2</ele>
        <time>2023-01-15T09:49:13Z</time>
      </trkpt>
      <trkpt lat="46.54001" lon="0.37424">
        <ele>115.2</ele>
        <time>2023-01-15T09:49:21Z</time>
      </trkpt>
      <trkpt lat="46.54002" lon="0.37424">
        <ele>115.4</ele>
        <time>2023-01-15T09:49:32Z</time>
      </trkpt>
      <trkpt lat="46.54002" lon="0.37423">
        <ele>115.2</ele>
        <time>2023-01-15T09:49:48Z</time>
      </trkpt>
      <trkpt lat="46.54003" lon="0.37423">
        <ele>115.6</ele>
        <time>2023-01-15T09:50:01Z</time>
      </trkpt>
      <trkpt lat="46.54003" lon="0.37423">
        <ele>115.6</ele>
        <time>2023-01-15T09:50:19Z</time>
      </trkpt>
      <trkpt lat="46.54003" lon="0.37423">
        <ele>115.6</ele>
        <time>2023-01-15T09:50:46Z</time>
      </trkpt>
      <trkpt lat="46.54003" lon="0.37423">
        <ele>115.6</ele>
        <time>2023-01-15T09:51:58Z</time>
      </trkpt>
      <trkpt lat="46.54003" lon="0.37423">
        <ele>115.6</ele>
        <time>2023-01-15T09:52:17Z</time>
      </trkpt>
      <trkpt lat="46.54003" lon="0.37423">
        <ele>115.6</ele>
        <time>2023-01-15T09:53:16Z</time>
      </trkpt>
      <trkpt lat="46.54003" lon="0.37423">
        <ele>115.6</ele>
        <time>2023-01-15T09:53:53Z</time>
      </trkpt>
      <trkpt lat="46.54002" lon="0.37424">
        <ele>115.6</ele>
        <time>2023-01-15T09:54:55Z</time>
      </trkpt>
      <trkpt lat="46.54002" lon="0.37423">
        <ele>115.6</ele>
        <time>2023-01-15T09:55:52Z</time>
      </trkpt>
      <trkpt lat="46.54002" lon="0.37423">
        <ele>115.6</ele>
        <time>2023-01-15T09:56:03Z</time>
      </trkpt>
      <trkpt lat="46.54003" lon="0.37424">
        <ele>115.6</ele>
        <time>2023-01-15T09:56:30Z</time>
      </trkpt>
      <trkpt lat="46.54003" lon="0.37424">
        <ele>115.6</ele>
        <time>2023-01-15T09:57:14Z</time>
      </trkpt>
      <trkpt lat="46.54003" lon="0.37424">
        <ele>115.6</ele>
        <time>2023-01-15T09:58:10Z</time>
      </trkpt>
      <trkpt lat="46.54002" lon="0.37425">
        <ele>115.6</ele>
        <time>2023-01-15T09:59:04Z</time>
      </trkpt>
      <trkpt lat="46.54002" lon="0.37425">
        <ele>115.6</ele>
        <time>2023-01-15T09:59:45Z</time>
      </trkpt>
      <trkpt lat="46.54002" lon="0.37425">
        <ele>115.6</ele>
        <time>2023-01-15T10:00:39Z</time>
      </trkpt>
      <trkpt lat="46.54001" lon="0.37425">
        <ele>115.6</ele>
        <time>2023-01-15T10:01:05Z</time>
      </trkpt>
      <trkpt lat="46.53999" lon="0.37424">
        <ele>115.6</ele>
        <time>2023-01-15T10:01:51Z</time>
      </trkpt>
      <trkpt lat="46.53999" lon="0.37417">
        <ele>115.6</ele>
        <time>2023-01-15T10:02:00Z</time>
      </trkpt>
      <trkpt lat="46.53996" lon="0.37414">
        <ele>115.6</ele>
        <time>2023-01-15T10:02:03Z</time>
      </trkpt>
      <trkpt lat="46.53995" lon="0.37415">
        <ele>115.6</ele>
        <time>2023-01-15T10:02:05Z</time>
      </trkpt>
      <trkpt lat="46.53994" lon="0.37417">
        <ele>115.4</ele>
        <time>2023-01-15T10:02:07Z</time>
      </trkpt>
      <trkpt lat="46.53993" lon="0.37418">
        <ele>115.4</ele>
        <time>2023-01-15T10:02:09Z</time>
      </trkpt>
      <trkpt lat="46.53988" lon="0.3743">
        <ele>115.6</ele>
        <time>2023-01-15T10:02:19Z</time>
      </trkpt>
      <trkpt lat="46.53983" lon="0.37443">
        <ele>116.2</ele>
        <time>2023-01-15T10:02:28Z</time>
      </trkpt>
      <trkpt lat="46.53979" lon="0.37454">
        <ele>116.4</ele>
        <time>2023-01-15T10:02:31Z</time>
      </trkpt>
      <trkpt lat="46.53972" lon="0.3747">
        <ele>116.4</ele>
        <time>2023-01-15T10:02:35Z</time>
      </trkpt>
      <trkpt lat="46.53955" lon="0.37499">
        <ele>116.6</ele>
        <time>2023-01-15T10:02:42Z</time>
      </trkpt>
      <trkpt lat="46.53935" lon="0.37526">
        <ele>116.8</ele>
        <time>2023-01-15T10:02:49Z</time>
      </trkpt>
      <trkpt lat="46.53918" lon="0.37555">
        <ele>116.8</ele>
        <time>2023-01-15T10:02:55Z</time>
      </trkpt>
      <trkpt lat="46.53901" lon="0.376">
        <ele>116.4</ele>
        <time>2023-01-15T10:03:02Z</time>
      </trkpt>
      <trkpt lat="46.53884" lon="0.37637">
        <ele>116.2</ele>
        <time>2023-01-15T10:03:08Z</time>
      </trkpt>
      <trkpt lat="46.53876" lon="0.37648">
        <ele>116</ele>
        <time>2023-01-15T10:03:10Z</time>
      </trkpt>
      <trkpt lat="46.53858" lon="0.37669">
        <ele>115.8</ele>
        <time>2023-01-15T10:03:14Z</time>
      </trkpt>
      <trkpt lat="46.53838" lon="0.37705">
        <ele>114.8</ele>
        <time>2023-01-15T10:03:19Z</time>
      </trkpt>
      <trkpt lat="46.53835" lon="0.37713">
        <ele>114.6</ele>
        <time>2023-01-15T10:03:20Z</time>
      </trkpt>
      <trkpt lat="46.53824" lon="0.37751">
        <ele>114.4</ele>
        <time>2023-01-15T10:03:25Z</time>
      </trkpt>
      <trkpt lat="46.5381" lon="0.37798">
        <ele>113.6</ele>
        <time>2023-01-15T10:03:31Z</time>
      </trkpt>
      <trkpt lat="46.53802" lon="0.37825">
        <ele>112.4</ele>
        <time>2023-01-15T10:03:34Z</time>
      </trkpt>
      <trkpt lat="46.53792" lon="0.37866">
        <ele>111.2</ele>
        <time>2023-01-15T10:03:38Z</time>
      </trkpt>
      <trkpt lat="46.53783" lon="0.37896">
        <ele>109.8</ele>
        <time>2023-01-15T10:03:41Z</time>
      </trkpt>
      <trkpt lat="46.53778" lon="0.37907">
        <ele>109.4</ele>
        <time>2023-01-15T10:03:42Z</time>
      </trkpt>
      <trkpt lat="46.53774" lon="0.37915">
        <ele>108.8</ele>
        <time>2023-01-15T10:03:43Z</time>
      </trkpt>
      <trkpt lat="46.53768" lon="0.37922">
        <ele>107.4</ele>
        <time>2023-01-15T10:03:44Z</time>
      </trkpt>
      <trkpt lat="46.53758" lon="0.37933">
        <ele>106</ele>
        <time>2023-01-15T10:03:46Z</time>
      </trkpt>
      <trkpt lat="46.53752" lon="0.37938">
        <ele>105.8</ele>
        <time>2023-01-15T10:03:47Z</time>
      </trkpt>
      <trkpt lat="46.53746" lon="0.37941">
        <ele>105</ele>
        <time>2023-01-15T10:03:48Z</time>
      </trkpt>
      <trkpt lat="46.53732" lon="0.37947">
        <ele>103.8</ele>
        <time>2023-01-15T10:03:50Z</time>
      </trkpt>
      <trkpt lat="46.53713" lon="0.37951">
        <ele>102.8</ele>
        <time>2023-01-15T10:03:52Z</time>
      </trkpt>
      <trkpt lat="46.53703" lon="0.37951">
        <ele>101.6</ele>
        <time>2023-01-15T10:03:53Z</time>
      </trkpt>
      <trkpt lat="46.53703" lon="0.37951">
        <ele>100</ele>
        <time>2023-01-15T10:03:55Z</time>
      </trkpt>
      <trkpt lat="46.53665" lon="0.37948">
        <ele>99.4</ele>
        <time>2023-01-15T10:03:57Z</time>
      </trkpt>
      <trkpt lat="46.53656" lon="0.37948">
        <ele>98.8</ele>
        <time>2023-01-15T10:03:58Z</time>
      </trkpt>
      <trkpt lat="46.5364" lon="0.37945">
        <ele>98.2</ele>
        <time>2023-01-15T10:04:00Z</time>
      </trkpt>
      <trkpt lat="46.53628" lon="0.37935">
        <ele>98</ele>
        <time>2023-01-15T10:04:02Z</time>
      </trkpt>
      <trkpt lat="46.5362" lon="0.37924">
        <ele>98.4</ele>
        <time>2023-01-15T10:04:04Z</time>
      </trkpt>
      <trkpt lat="46.53615" lon="0.37917">
        <ele>98.8</ele>
        <time>2023-01-15T10:04:06Z</time>
      </trkpt>
      <trkpt lat="46.53612" lon="0.37914">
        <ele>99.2</ele>
        <time>2023-01-15T10:04:07Z</time>
      </trkpt>
      <trkpt lat="46.53607" lon="0.3791">
        <ele>100.2</ele>
        <time>2023-01-15T10:04:09Z</time>
      </trkpt>
      <trkpt lat="46.53604" lon="0.37908">
        <ele>100.6</ele>
        <time>2023-01-15T10:04:10Z</time>
      </trkpt>
      <trkpt lat="46.53601" lon="0.37907">
        <ele>101</ele>
        <time>2023-01-15T10:04:11Z</time>
      </trkpt>
      <trkpt lat="46.53597" lon="0.37905">
        <ele>101.4</ele>
        <time>2023-01-15T10:04:12Z</time>
      </trkpt>
      <trkpt lat="46.5358" lon="0.37897">
        <ele>102.6</ele>
        <time>2023-01-15T10:04:16Z</time>
      </trkpt>
      <trkpt lat="46.53567" lon="0.37888">
        <ele>103.8</ele>
        <time>2023-01-15T10:04:19Z</time>
      </trkpt>
      <trkpt lat="46.53555" lon="0.3788">
        <ele>105</ele>
        <time>2023-01-15T10:04:22Z</time>
      </trkpt>
      <trkpt lat="46.53544" lon="0.37872">
        <ele>106.6</ele>
        <time>2023-01-15T10:04:25Z</time>
      </trkpt>
      <trkpt lat="46.53532" lon="0.37864">
        <ele>107.6</ele>
        <time>2023-01-15T10:04:29Z</time>
      </trkpt>
      <trkpt lat="46.53523" lon="0.37857">
        <ele>108.8</ele>
        <time>2023-01-15T10:04:32Z</time>
      </trkpt>
      <trkpt lat="46.53514" lon="0.37852">
        <ele>110</ele>
        <time>2023-01-15T10:04:35Z</time>
      </trkpt>
      <trkpt lat="46.53511" lon="0.3785">
        <ele>110.2</ele>
        <time>2023-01-15T10:04:36Z</time>
      </trkpt>
      <trkpt lat="46.53494" lon="0.37838">
        <ele>111.2</ele>
        <time>2023-01-15T10:04:41Z</time>
      </trkpt>
      <trkpt lat="46.53491" lon="0.37835">
        <ele>111.2</ele>
        <time>2023-01-15T10:04:42Z</time>
      </trkpt>
      <trkpt lat="46.53475" lon="0.37816">
        <ele>111.6</ele>
        <time>2023-01-15T10:04:48Z</time>
      </trkpt>
      <trkpt lat="46.5346" lon="0.3779">
        <ele>111.8</ele>
        <time>2023-01-15T10:04:55Z</time>
      </trkpt>
      <trkpt lat="46.53458" lon="0.37785">
        <ele>111.8</ele>
        <time>2023-01-15T10:04:56Z</time>
      </trkpt>
      <trkpt lat="46.53452" lon="0.37767">
        <ele>112</ele>
        <time>2023-01-15T10:05:00Z</time>
      </trkpt>
      <trkpt lat="46.53449" lon="0.37757">
        <ele>111.8</ele>
        <time>2023-01-15T10:05:02Z</time>
      </trkpt>
      <trkpt lat="46.53444" lon="0.37747">
        <ele>112.4</ele>
        <time>2023-01-15T10:05:04Z</time>
      </trkpt>
      <trkpt lat="46.53437" lon="0.37728">
        <ele>113</ele>
        <time>2023-01-15T10:05:07Z</time>
      </trkpt>
      <trkpt lat="46.53431" lon="0.37718">
        <ele>113.4</ele>
        <time>2023-01-15T10:05:09Z</time>
      </trkpt>
      <trkpt lat="46.53419" lon="0.37691">
        <ele>114.6</ele>
        <time>2023-01-15T10:05:14Z</time>
      </trkpt>
      <trkpt lat="46.53406" lon="0.37662">
        <ele>115.6</ele>
        <time>2023-01-15T10:05:20Z</time>
      </trkpt>
      <trkpt lat="46.53405" lon="0.37657">
        <ele>115.6</ele>
        <time>2023-01-15T10:05:21Z</time>
      </trkpt>
      <trkpt lat="46.53396" lon="0.37636">
        <ele>116.6</ele>
        <time>2023-01-15T10:05:26Z</time>
      </trkpt>
      <trkpt lat="46.53394" lon="0.37631">
        <ele>116.8</ele>
        <time>2023-01-15T10:05:27Z</time>
      </trkpt>
      <trkpt lat="46.53378" lon="0.376">
        <ele>117</ele>
        <time>2023-01-15T10:05:33Z</time>
      </trkpt>
      <trkpt lat="46.53362" lon="0.37561">
        <ele>117</ele>
        <time>2023-01-15T10:05:40Z</time>
      </trkpt>
      <trkpt lat="46.53356" lon="0.37546">
        <ele>117</ele>
        <time>2023-01-15T10:05:43Z</time>
      </trkpt>
      <trkpt lat="46.53349" lon="0.37534">
        <ele>116.8</ele>
        <time>2023-01-15T10:05:46Z</time>
      </trkpt>
      <trkpt lat="46.53343" lon="0.37528">
        <ele>116.6</ele>
        <time>2023-01-15T10:05:48Z</time>
      </trkpt>
      <trkpt lat="46.53341" lon="0.37528">
        <ele>116.6</ele>
        <time>2023-01-15T10:05:49Z</time>
      </trkpt>
      <trkpt lat="46.53338" lon="0.3753">
        <ele>116.6</ele>
        <time>2023-01-15T10:05:50Z</time>
      </trkpt>
      <trkpt lat="46.53335" lon="0.37538">
        <ele>116.4</ele>
        <time>2023-01-15T10:05:52Z</time>
      </trkpt>
      <trkpt lat="46.53324" lon="0.37571">
        <ele>116.8</ele>
        <time>2023-01-15T10:05:58Z</time>
      </trkpt>
      <trkpt lat="46.53308" lon="0.37613">
        <ele>117</ele>
        <time>2023-01-15T10:06:05Z</time>
      </trkpt>
      <trkpt lat="46.53288" lon="0.37668">
        <ele>117.8</ele>
        <time>2023-01-15T10:06:14Z</time>
      </trkpt>
      <trkpt lat="46.53275" lon="0.37705">
        <ele>118.4</ele>
        <time>2023-01-15T10:06:20Z</time>
      </trkpt>
      <trkpt lat="46.53273" lon="0.37711">
        <ele>118.4</ele>
        <time>2023-01-15T10:06:21Z</time>
      </trkpt>
      <trkpt lat="46.53259" lon="0.37754">
        <ele>118.4</ele>
        <time>2023-01-15T10:06:28Z</time>
      </trkpt>
      <trkpt lat="46.53255" lon="0.37787">
        <ele>118.2</ele>
        <time>2023-01-15T10:06:34Z</time>
      </trkpt>
      <trkpt lat="46.53251" lon="0.37823">
        <ele>118</ele>
        <time>2023-01-15T10:06:41Z</time>
      </trkpt>
      <trkpt lat="46.53248" lon="0.37869">
        <ele>118.2</ele>
        <time>2023-01-15T10:06:49Z</time>
      </trkpt>
      <trkpt lat="46.53243" lon="0.37917">
        <ele>117.4</ele>
        <time>2023-01-15T10:06:56Z</time>
      </trkpt>
      <trkpt lat="46.53242" lon="0.37938">
        <ele>116.6</ele>
        <time>2023-01-15T10:06:59Z</time>
      </trkpt>
      <trkpt lat="46.53243" lon="0.37945">
        <ele>116.2</ele>
        <time>2023-01-15T10:07:00Z</time>
      </trkpt>
      <trkpt lat="46.53245" lon="0.37956">
        <ele>116</ele>
        <time>2023-01-15T10:07:02Z</time>
      </trkpt>
      <trkpt lat="46.53255" lon="0.37992">
        <ele>115.8</ele>
        <time>2023-01-15T10:07:08Z</time>
      </trkpt>
      <trkpt lat="46.53256" lon="0.37999">
        <ele>115.6</ele>
        <time>2023-01-15T10:07:09Z</time>
      </trkpt>
      <trkpt lat="46.53263" lon="0.38038">
        <ele>114.6</ele>
        <time>2023-01-15T10:07:14Z</time>
      </trkpt>
      <trkpt lat="46.5327" lon="0.38088">
        <ele>113.6</ele>
        <time>2023-01-15T10:07:20Z</time>
      </trkpt>
      <trkpt lat="46.53272" lon="0.38113">
        <ele>113.4</ele>
        <time>2023-01-15T10:07:23Z</time>
      </trkpt>
      <trkpt lat="46.53275" lon="0.38143">
        <ele>112.8</ele>
        <time>2023-01-15T10:07:27Z</time>
      </trkpt>
      <trkpt lat="46.53275" lon="0.38151">
        <ele>112.4</ele>
        <time>2023-01-15T10:07:28Z</time>
      </trkpt>
      <trkpt lat="46.53273" lon="0.3816">
        <ele>112.2</ele>
        <time>2023-01-15T10:07:29Z</time>
      </trkpt>
      <trkpt lat="46.53267" lon="0.38184">
        <ele>111.8</ele>
        <time>2023-01-15T10:07:32Z</time>
      </trkpt>
      <trkpt lat="46.53255" lon="0.38225">
        <ele>111.2</ele>
        <time>2023-01-15T10:07:37Z</time>
      </trkpt>
      <trkpt lat="46.53252" lon="0.38234">
        <ele>110.4</ele>
        <time>2023-01-15T10:07:38Z</time>
      </trkpt>
      <trkpt lat="46.53248" lon="0.38241">
        <ele>109.6</ele>
        <time>2023-01-15T10:07:39Z</time>
      </trkpt>
      <trkpt lat="46.53242" lon="0.38255">
        <ele>108.2</ele>
        <time>2023-01-15T10:07:41Z</time>
      </trkpt>
      <trkpt lat="46.53236" lon="0.38266">
        <ele>107.6</ele>
        <time>2023-01-15T10:07:43Z</time>
      </trkpt>
      <trkpt lat="46.53221" lon="0.38297">
        <ele>108.2</ele>
        <time>2023-01-15T10:07:50Z</time>
      </trkpt>
      <trkpt lat="46.53208" lon="0.38328">
        <ele>108.2</ele>
        <time>2023-01-15T10:07:57Z</time>
      </trkpt>
      <trkpt lat="46.53197" lon="0.38357">
        <ele>108.4</ele>
        <time>2023-01-15T10:08:05Z</time>
      </trkpt>
      <trkpt lat="46.53191" lon="0.38371">
        <ele>109.2</ele>
        <time>2023-01-15T10:08:09Z</time>
      </trkpt>
      <trkpt lat="46.53186" lon="0.38387">
        <ele>109.6</ele>
        <time>2023-01-15T10:08:14Z</time>
      </trkpt>
      <trkpt lat="46.53187" lon="0.38407">
        <ele>109.6</ele>
        <time>2023-01-15T10:08:20Z</time>
      </trkpt>
      <trkpt lat="46.53191" lon="0.38417">
        <ele>110.6</ele>
        <time>2023-01-15T10:08:25Z</time>
      </trkpt>
      <trkpt lat="46.53198" lon="0.38424">
        <ele>111.6</ele>
        <time>2023-01-15T10:08:31Z</time>
      </trkpt>
      <trkpt lat="46.53201" lon="0.38425">
        <ele>111.8</ele>
        <time>2023-01-15T10:08:33Z</time>
      </trkpt>
      <trkpt lat="46.53205" lon="0.38431">
        <ele>112.4</ele>
        <time>2023-01-15T10:08:37Z</time>
      </trkpt>
      <trkpt lat="46.53206" lon="0.38432">
        <ele>112.8</ele>
        <time>2023-01-15T10:08:38Z</time>
      </trkpt>
      <trkpt lat="46.53212" lon="0.38438">
        <ele>114</ele>
        <time>2023-01-15T10:08:42Z</time>
      </trkpt>
      <trkpt lat="46.53213" lon="0.3844">
        <ele>114.2</ele>
        <time>2023-01-15T10:08:43Z</time>
      </trkpt>
      <trkpt lat="46.53218" lon="0.38449">
        <ele>115</ele>
        <time>2023-01-15T10:08:47Z</time>
      </trkpt>
      <trkpt lat="46.53225" lon="0.38457">
        <ele>115.4</ele>
        <time>2023-01-15T10:08:50Z</time>
      </trkpt>
      <trkpt lat="46.53233" lon="0.38466">
        <ele>116.2</ele>
        <time>2023-01-15T10:08:54Z</time>
      </trkpt>
      <trkpt lat="46.53236" lon="0.38471">
        <ele>116.8</ele>
        <time>2023-01-15T10:08:57Z</time>
      </trkpt>
      <trkpt lat="46.5324" lon="0.38478">
        <ele>117.2</ele>
        <time>2023-01-15T10:09:00Z</time>
      </trkpt>
      <trkpt lat="46.53244" lon="0.38484">
        <ele>117.8</ele>
        <time>2023-01-15T10:09:03Z</time>
      </trkpt>
      <trkpt lat="46.53252" lon="0.38495">
        <ele>118.2</ele>
        <time>2023-01-15T10:09:07Z</time>
      </trkpt>
      <trkpt lat="46.53256" lon="0.38502">
        <ele>118.6</ele>
        <time>2023-01-15T10:09:09Z</time>
      </trkpt>
      <trkpt lat="46.5327" lon="0.38531">
        <ele>119.2</ele>
        <time>2023-01-15T10:09:16Z</time>
      </trkpt>
      <trkpt lat="46.53282" lon="0.38556">
        <ele>119.2</ele>
        <time>2023-01-15T10:09:21Z</time>
      </trkpt>
      <trkpt lat="46.53289" lon="0.38576">
        <ele>120.2</ele>
        <time>2023-01-15T10:09:25Z</time>
      </trkpt>
      <trkpt lat="46.5329" lon="0.38581">
        <ele>120.2</ele>
        <time>2023-01-15T10:09:26Z</time>
      </trkpt>
      <trkpt lat="46.53295" lon="0.3861">
        <ele>120</ele>
        <time>2023-01-15T10:09:32Z</time>
      </trkpt>
      <trkpt lat="46.533" lon="0.38654">
        <ele>120.2</ele>
        <time>2023-01-15T10:09:41Z</time>
      </trkpt>
      <trkpt lat="46.53309" lon="0.38696">
        <ele>120.2</ele>
        <time>2023-01-15T10:09:49Z</time>
      </trkpt>
      <trkpt lat="46.53316" lon="0.38721">
        <ele>120</ele>
        <time>2023-01-15T10:09:55Z</time>
      </trkpt>
      <trkpt lat="46.53321" lon="0.38748">
        <ele>120</ele>
        <time>2023-01-15T10:10:02Z</time>
      </trkpt>
      <trkpt lat="46.53327" lon="0.38773">
        <ele>120.4</ele>
        <time>2023-01-15T10:10:08Z</time>
      </trkpt>
      <trkpt lat="46.53331" lon="0.38811">
        <ele>120.6</ele>
        <time>2023-01-15T10:10:16Z</time>
      </trkpt>
      <trkpt lat="46.53322" lon="0.38823">
        <ele>120.8</ele>
        <time>2023-01-15T10:10:20Z</time>
      </trkpt>
      <trkpt lat="46.53306" lon="0.38828">
        <ele>121.4</ele>
        <time>2023-01-15T10:10:25Z</time>
      </trkpt>
      <trkpt lat="46.53303" lon="0.38829">
        <ele>121.6</ele>
        <time>2023-01-15T10:10:26Z</time>
      </trkpt>
      <trkpt lat="46.53289" lon="0.38833">
        <ele>122.6</ele>
        <time>2023-01-15T10:10:31Z</time>
      </trkpt>
      <trkpt lat="46.53274" lon="0.3884">
        <ele>123</ele>
        <time>2023-01-15T10:10:37Z</time>
      </trkpt>
      <trkpt lat="46.53255" lon="0.38844">
        <ele>123.2</ele>
        <time>2023-01-15T10:10:44Z</time>
      </trkpt>
      <trkpt lat="46.53233" lon="0.38853">
        <ele>123.2</ele>
        <time>2023-01-15T10:10:52Z</time>
      </trkpt>
      <trkpt lat="46.53223" lon="0.38857">
        <ele>123.6</ele>
        <time>2023-01-15T10:10:55Z</time>
      </trkpt>
      <trkpt lat="46.53204" lon="0.38863">
        <ele>123.4</ele>
        <time>2023-01-15T10:11:00Z</time>
      </trkpt>
      <trkpt lat="46.53181" lon="0.38866">
        <ele>123.2</ele>
        <time>2023-01-15T10:11:06Z</time>
      </trkpt>
      <trkpt lat="46.53153" lon="0.38871">
        <ele>123</ele>
        <time>2023-01-15T10:11:14Z</time>
      </trkpt>
      <trkpt lat="46.53132" lon="0.38878">
        <ele>122.6</ele>
        <time>2023-01-15T10:11:21Z</time>
      </trkpt>
      <trkpt lat="46.5311" lon="0.38883">
        <ele>122.6</ele>
        <time>2023-01-15T10:11:28Z</time>
      </trkpt>
      <trkpt lat="46.53104" lon="0.38885">
        <ele>122.6</ele>
        <time>2023-01-15T10:11:30Z</time>
      </trkpt>
      <trkpt lat="46.53096" lon="0.38886">
        <ele>122.6</ele>
        <time>2023-01-15T10:11:33Z</time>
      </trkpt>
      <trkpt lat="46.5307" lon="0.389">
        <ele>122.2</ele>
        <time>2023-01-15T10:11:42Z</time>
      </trkpt>
      <trkpt lat="46.53048" lon="0.38919">
        <ele>122.2</ele>
        <time>2023-01-15T10:11:48Z</time>
      </trkpt>
      <trkpt lat="46.53026" lon="0.38938">
        <ele>122.2</ele>
        <time>2023-01-15T10:11:54Z</time>
      </trkpt>
      <trkpt lat="46.5299" lon="0.3896">
        <ele>121.8</ele>
        <time>2023-01-15T10:12:03Z</time>
      </trkpt>
      <trkpt lat="46.52959" lon="0.3897">
        <ele>122.4</ele>
        <time>2023-01-15T10:12:11Z</time>
      </trkpt>
      <trkpt lat="46.52926" lon="0.38978">
        <ele>122.4</ele>
        <time>2023-01-15T10:12:20Z</time>
      </trkpt>
      <trkpt lat="46.52886" lon="0.38988">
        <ele>123.2</ele>
        <time>2023-01-15T10:12:31Z</time>
      </trkpt>
      <trkpt lat="46.52879" lon="0.3899">
        <ele>123.6</ele>
        <time>2023-01-15T10:12:33Z</time>
      </trkpt>
      <trkpt lat="46.52855" lon="0.38996">
        <ele>124</ele>
        <time>2023-01-15T10:12:40Z</time>
      </trkpt>
      <trkpt lat="46.52841" lon="0.38999">
        <ele>124.8</ele>
        <time>2023-01-15T10:12:44Z</time>
      </trkpt>
      <trkpt lat="46.52832" lon="0.39001">
        <ele>125</ele>
        <time>2023-01-15T10:12:47Z</time>
      </trkpt>
      <trkpt lat="46.52816" lon="0.39005">
        <ele>125.6</ele>
        <time>2023-01-15T10:12:53Z</time>
      </trkpt>
      <trkpt lat="46.52811" lon="0.39006">
        <ele>125.8</ele>
        <time>2023-01-15T10:12:55Z</time>
      </trkpt>
      <trkpt lat="46.52798" lon="0.39009">
        <ele>126.4</ele>
        <time>2023-01-15T10:13:00Z</time>
      </trkpt>
      <trkpt lat="46.52791" lon="0.39011">
        <ele>127</ele>
        <time>2023-01-15T10:13:03Z</time>
      </trkpt>
      <trkpt lat="46.52778" lon="0.39016">
        <ele>128</ele>
        <time>2023-01-15T10:13:08Z</time>
      </trkpt>
      <trkpt lat="46.52751" lon="0.39024">
        <ele>128.6</ele>
        <time>2023-01-15T10:13:17Z</time>
      </trkpt>
      <trkpt lat="46.52728" lon="0.39029">
        <ele>128.8</ele>
        <time>2023-01-15T10:13:24Z</time>
      </trkpt>
      <trkpt lat="46.52705" lon="0.39036">
        <ele>128</ele>
        <time>2023-01-15T10:13:31Z</time>
      </trkpt>
      <trkpt lat="46.52684" lon="0.39041">
        <ele>128.4</ele>
        <time>2023-01-15T10:13:38Z</time>
      </trkpt>
      <trkpt lat="46.52664" lon="0.39042">
        <ele>128.6</ele>
        <time>2023-01-15T10:13:43Z</time>
      </trkpt>
      <trkpt lat="46.52649" lon="0.39043">
        <ele>128.4</ele>
        <time>2023-01-15T10:13:46Z</time>
      </trkpt>
      <trkpt lat="46.5263" lon="0.39049">
        <ele>127.8</ele>
        <time>2023-01-15T10:13:50Z</time>
      </trkpt>
      <trkpt lat="46.52586" lon="0.39059">
        <ele>127.2</ele>
        <time>2023-01-15T10:13:58Z</time>
      </trkpt>
      <trkpt lat="46.52564" lon="0.39065">
        <ele>126.6</ele>
        <time>2023-01-15T10:14:02Z</time>
      </trkpt>
      <trkpt lat="46.52559" lon="0.39068">
        <ele>126.2</ele>
        <time>2023-01-15T10:14:03Z</time>
      </trkpt>
      <trkpt lat="46.52535" lon="0.39079">
        <ele>125.4</ele>
        <time>2023-01-15T10:14:07Z</time>
      </trkpt>
      <trkpt lat="46.52521" lon="0.39084">
        <ele>125.2</ele>
        <time>2023-01-15T10:14:09Z</time>
      </trkpt>
      <trkpt lat="46.52487" lon="0.39093">
        <ele>124</ele>
        <time>2023-01-15T10:14:14Z</time>
      </trkpt>
      <trkpt lat="46.52465" lon="0.39098">
        <ele>123.2</ele>
        <time>2023-01-15T10:14:17Z</time>
      </trkpt>
      <trkpt lat="46.52459" lon="0.39099">
        <ele>123</ele>
        <time>2023-01-15T10:14:18Z</time>
      </trkpt>
      <trkpt lat="46.52431" lon="0.39102">
        <ele>121.8</ele>
        <time>2023-01-15T10:14:22Z</time>
      </trkpt>
      <trkpt lat="46.52417" lon="0.39103">
        <ele>121.2</ele>
        <time>2023-01-15T10:14:24Z</time>
      </trkpt>
      <trkpt lat="46.52397" lon="0.39107">
        <ele>120.8</ele>
        <time>2023-01-15T10:14:27Z</time>
      </trkpt>
      <trkpt lat="46.5238" lon="0.39114">
        <ele>120.6</ele>
        <time>2023-01-15T10:14:30Z</time>
      </trkpt>
      <trkpt lat="46.52375" lon="0.39117">
        <ele>120.4</ele>
        <time>2023-01-15T10:14:31Z</time>
      </trkpt>
      <trkpt lat="46.52356" lon="0.39132">
        <ele>120.4</ele>
        <time>2023-01-15T10:14:35Z</time>
      </trkpt>
      <trkpt lat="46.52339" lon="0.39143">
        <ele>120</ele>
        <time>2023-01-15T10:14:38Z</time>
      </trkpt>
      <trkpt lat="46.52326" lon="0.39148">
        <ele>119.8</ele>
        <time>2023-01-15T10:14:40Z</time>
      </trkpt>
      <trkpt lat="46.52314" lon="0.39153">
        <ele>119.8</ele>
        <time>2023-01-15T10:14:42Z</time>
      </trkpt>
      <trkpt lat="46.52284" lon="0.39164">
        <ele>119.4</ele>
        <time>2023-01-15T10:14:47Z</time>
      </trkpt>
      <trkpt lat="46.52246" lon="0.39178">
        <ele>119</ele>
        <time>2023-01-15T10:14:54Z</time>
      </trkpt>
      <trkpt lat="46.5222" lon="0.39188">
        <ele>118.8</ele>
        <time>2023-01-15T10:14:59Z</time>
      </trkpt>
      <trkpt lat="46.52209" lon="0.39192">
        <ele>118.4</ele>
        <time>2023-01-15T10:15:01Z</time>
      </trkpt>
      <trkpt lat="46.52167" lon="0.39209">
        <ele>117.8</ele>
        <time>2023-01-15T10:15:08Z</time>
      </trkpt>
      <trkpt lat="46.52161" lon="0.39211">
        <ele>117.6</ele>
        <time>2023-01-15T10:15:09Z</time>
      </trkpt>
      <trkpt lat="46.52121" lon="0.39224">
        <ele>116.2</ele>
        <time>2023-01-15T10:15:15Z</time>
      </trkpt>
      <trkpt lat="46.52108" lon="0.39225">
        <ele>115.8</ele>
        <time>2023-01-15T10:15:17Z</time>
      </trkpt>
      <trkpt lat="46.52095" lon="0.39226">
        <ele>115.2</ele>
        <time>2023-01-15T10:15:19Z</time>
      </trkpt>
      <trkpt lat="46.52057" lon="0.3923">
        <ele>114.2</ele>
        <time>2023-01-15T10:15:25Z</time>
      </trkpt>
      <trkpt lat="46.52033" lon="0.39234">
        <ele>113.2</ele>
        <time>2023-01-15T10:15:29Z</time>
      </trkpt>
      <trkpt lat="46.52009" lon="0.39236">
        <ele>112</ele>
        <time>2023-01-15T10:15:33Z</time>
      </trkpt>
      <trkpt lat="46.51978" lon="0.39237">
        <ele>111</ele>
        <time>2023-01-15T10:15:38Z</time>
      </trkpt>
      <trkpt lat="46.51965" lon="0.39238">
        <ele>109.6</ele>
        <time>2023-01-15T10:15:40Z</time>
      </trkpt>
      <trkpt lat="46.51941" lon="0.39238">
        <ele>108.4</ele>
        <time>2023-01-15T10:15:43Z</time>
      </trkpt>
      <trkpt lat="46.51917" lon="0.39237">
        <ele>107.6</ele>
        <time>2023-01-15T10:15:46Z</time>
      </trkpt>
      <trkpt lat="46.51911" lon="0.39236">
        <ele>106.8</ele>
        <time>2023-01-15T10:15:47Z</time>
      </trkpt>
      <trkpt lat="46.519" lon="0.39234">
        <ele>105.6</ele>
        <time>2023-01-15T10:15:49Z</time>
      </trkpt>
      <trkpt lat="46.51894" lon="0.39234">
        <ele>105</ele>
        <time>2023-01-15T10:15:50Z</time>
      </trkpt>
      <trkpt lat="46.51889" lon="0.39233">
        <ele>104.2</ele>
        <time>2023-01-15T10:15:51Z</time>
      </trkpt>
      <trkpt lat="46.51878" lon="0.39234">
        <ele>103.4</ele>
        <time>2023-01-15T10:15:53Z</time>
      </trkpt>
      <trkpt lat="46.51867" lon="0.39237">
        <ele>103</ele>
        <time>2023-01-15T10:15:55Z</time>
      </trkpt>
      <trkpt lat="46.51841" lon="0.39246">
        <ele>102.2</ele>
        <time>2023-01-15T10:16:00Z</time>
      </trkpt>
      <trkpt lat="46.51834" lon="0.39251">
        <ele>101.4</ele>
        <time>2023-01-15T10:16:02Z</time>
      </trkpt>
      <trkpt lat="46.5183" lon="0.39256">
        <ele>100.8</ele>
        <time>2023-01-15T10:16:03Z</time>
      </trkpt>
      <trkpt lat="46.51821" lon="0.39271">
        <ele>99.8</ele>
        <time>2023-01-15T10:16:05Z</time>
      </trkpt>
      <trkpt lat="46.51799" lon="0.39298">
        <ele>98.6</ele>
        <time>2023-01-15T10:16:09Z</time>
      </trkpt>
      <trkpt lat="46.51793" lon="0.39303">
        <ele>98.4</ele>
        <time>2023-01-15T10:16:10Z</time>
      </trkpt>
      <trkpt lat="46.51785" lon="0.39308">
        <ele>98.2</ele>
        <time>2023-01-15T10:16:11Z</time>
      </trkpt>
      <trkpt lat="46.5177" lon="0.3931">
        <ele>97.8</ele>
        <time>2023-01-15T10:16:13Z</time>
      </trkpt>
      <trkpt lat="46.51755" lon="0.39309">
        <ele>97.6</ele>
        <time>2023-01-15T10:16:15Z</time>
      </trkpt>
      <trkpt lat="46.51734" lon="0.3931">
        <ele>97.4</ele>
        <time>2023-01-15T10:16:18Z</time>
      </trkpt>
      <trkpt lat="46.51693" lon="0.39319">
        <ele>96.8</ele>
        <time>2023-01-15T10:16:24Z</time>
      </trkpt>
      <trkpt lat="46.51679" lon="0.39319">
        <ele>96.4</ele>
        <time>2023-01-15T10:16:26Z</time>
      </trkpt>
      <trkpt lat="46.51657" lon="0.39317">
        <ele>95.6</ele>
        <time>2023-01-15T10:16:29Z</time>
      </trkpt>
      <trkpt lat="46.5165" lon="0.39315">
        <ele>95.2</ele>
        <time>2023-01-15T10:16:30Z</time>
      </trkpt>
      <trkpt lat="46.5164" lon="0.39311">
        <ele>95</ele>
        <time>2023-01-15T10:16:32Z</time>
      </trkpt>
      <trkpt lat="46.51638" lon="0.39309">
        <ele>94.8</ele>
        <time>2023-01-15T10:16:33Z</time>
      </trkpt>
      <trkpt lat="46.51635" lon="0.39306">
        <ele>94.6</ele>
        <time>2023-01-15T10:16:35Z</time>
      </trkpt>
      <trkpt lat="46.51635" lon="0.39303">
        <ele>94.4</ele>
        <time>2023-01-15T10:16:37Z</time>
      </trkpt>
      <trkpt lat="46.51634" lon="0.39301">
        <ele>94.4</ele>
        <time>2023-01-15T10:16:38Z</time>
      </trkpt>
      <trkpt lat="46.51629" lon="0.39296">
        <ele>94.2</ele>
        <time>2023-01-15T10:16:41Z</time>
      </trkpt>
      <trkpt lat="46.51624" lon="0.39289">
        <ele>94.2</ele>
        <time>2023-01-15T10:16:43Z</time>
      </trkpt>
      <trkpt lat="46.51616" lon="0.39283">
        <ele>93.8</ele>
        <time>2023-01-15T10:16:45Z</time>
      </trkpt>
      <trkpt lat="46.51586" lon="0.39275">
        <ele>93.2</ele>
        <time>2023-01-15T10:16:51Z</time>
      </trkpt>
      <trkpt lat="46.51581" lon="0.39273">
        <ele>93</ele>
        <time>2023-01-15T10:16:52Z</time>
      </trkpt>
      <trkpt lat="46.51558" lon="0.39263">
        <ele>92.8</ele>
        <time>2023-01-15T10:16:56Z</time>
      </trkpt>
      <trkpt lat="46.51553" lon="0.39259">
        <ele>92.8</ele>
        <time>2023-01-15T10:16:57Z</time>
      </trkpt>
      <trkpt lat="46.51548" lon="0.39254">
        <ele>92.8</ele>
        <time>2023-01-15T10:16:58Z</time>
      </trkpt>
      <trkpt lat="46.5154" lon="0.39242">
        <ele>92.8</ele>
        <time>2023-01-15T10:17:00Z</time>
      </trkpt>
      <trkpt lat="46.51536" lon="0.39236">
        <ele>92.8</ele>
        <time>2023-01-15T10:17:01Z</time>
      </trkpt>
      <trkpt lat="46.51533" lon="0.39228">
        <ele>92.8</ele>
        <time>2023-01-15T10:17:02Z</time>
      </trkpt>
      <trkpt lat="46.51522" lon="0.39198">
        <ele>92.8</ele>
        <time>2023-01-15T10:17:06Z</time>
      </trkpt>
      <trkpt lat="46.51506" lon="0.39147">
        <ele>92.6</ele>
        <time>2023-01-15T10:17:13Z</time>
      </trkpt>
      <trkpt lat="46.51495" lon="0.39111">
        <ele>92.4</ele>
        <time>2023-01-15T10:17:18Z</time>
      </trkpt>
      <trkpt lat="46.51492" lon="0.39096">
        <ele>92.6</ele>
        <time>2023-01-15T10:17:20Z</time>
      </trkpt>
      <trkpt lat="46.51488" lon="0.39046">
        <ele>93</ele>
        <time>2023-01-15T10:17:27Z</time>
      </trkpt>
      <trkpt lat="46.51491" lon="0.39007">
        <ele>92.8</ele>
        <time>2023-01-15T10:17:33Z</time>
      </trkpt>
      <trkpt lat="46.51489" lon="0.3896">
        <ele>92.2</ele>
        <time>2023-01-15T10:17:40Z</time>
      </trkpt>
      <trkpt lat="46.51486" lon="0.38931">
        <ele>92</ele>
        <time>2023-01-15T10:17:44Z</time>
      </trkpt>
      <trkpt lat="46.51485" lon="0.38924">
        <ele>91.6</ele>
        <time>2023-01-15T10:17:45Z</time>
      </trkpt>
      <trkpt lat="46.51483" lon="0.38916">
        <ele>91.4</ele>
        <time>2023-01-15T10:17:46Z</time>
      </trkpt>
      <trkpt lat="46.51477" lon="0.38889">
        <ele>91</ele>
        <time>2023-01-15T10:17:50Z</time>
      </trkpt>
      <trkpt lat="46.51476" lon="0.38882">
        <ele>91</ele>
        <time>2023-01-15T10:17:51Z</time>
      </trkpt>
      <trkpt lat="46.51473" lon="0.38863">
        <ele>90.8</ele>
        <time>2023-01-15T10:17:54Z</time>
      </trkpt>
      <trkpt lat="46.51468" lon="0.38852">
        <ele>90.6</ele>
        <time>2023-01-15T10:17:56Z</time>
      </trkpt>
      <trkpt lat="46.5144" lon="0.38793">
        <ele>91</ele>
        <time>2023-01-15T10:18:04Z</time>
      </trkpt>
      <trkpt lat="46.51413" lon="0.38746">
        <ele>91.2</ele>
        <time>2023-01-15T10:18:11Z</time>
      </trkpt>
      <trkpt lat="46.51388" lon="0.3871">
        <ele>90.4</ele>
        <time>2023-01-15T10:18:17Z</time>
      </trkpt>
      <trkpt lat="46.51383" lon="0.38704">
        <ele>90.2</ele>
        <time>2023-01-15T10:18:18Z</time>
      </trkpt>
      <trkpt lat="46.5137" lon="0.38694">
        <ele>89.8</ele>
        <time>2023-01-15T10:18:20Z</time>
      </trkpt>
      <trkpt lat="46.51354" lon="0.38681">
        <ele>89.2</ele>
        <time>2023-01-15T10:18:22Z</time>
      </trkpt>
      <trkpt lat="46.51348" lon="0.38676">
        <ele>89</ele>
        <time>2023-01-15T10:18:23Z</time>
      </trkpt>
      <trkpt lat="46.51335" lon="0.38669">
        <ele>89</ele>
        <time>2023-01-15T10:18:25Z</time>
      </trkpt>
      <trkpt lat="46.5133" lon="0.38669">
        <ele>88.8</ele>
        <time>2023-01-15T10:18:26Z</time>
      </trkpt>
      <trkpt lat="46.51325" lon="0.3867">
        <ele>88.8</ele>
        <time>2023-01-15T10:18:27Z</time>
      </trkpt>
      <trkpt lat="46.51314" lon="0.38681">
        <ele>89</ele>
        <time>2023-01-15T10:18:30Z</time>
      </trkpt>
      <trkpt lat="46.51295" lon="0.38714">
        <ele>89</ele>
        <time>2023-01-15T10:18:36Z</time>
      </trkpt>
      <trkpt lat="46.51292" lon="0.38718">
        <ele>89.2</ele>
        <time>2023-01-15T10:18:37Z</time>
      </trkpt>
      <trkpt lat="46.51286" lon="0.38724">
        <ele>89.2</ele>
        <time>2023-01-15T10:18:39Z</time>
      </trkpt>
      <trkpt lat="46.51282" lon="0.38726">
        <ele>89.4</ele>
        <time>2023-01-15T10:18:40Z</time>
      </trkpt>
      <trkpt lat="46.51278" lon="0.38727">
        <ele>89.6</ele>
        <time>2023-01-15T10:18:42Z</time>
      </trkpt>
      <trkpt lat="46.51271" lon="0.38725">
        <ele>90</ele>
        <time>2023-01-15T10:18:44Z</time>
      </trkpt>
      <trkpt lat="46.51257" lon="0.38722">
        <ele>90.8</ele>
        <time>2023-01-15T10:18:48Z</time>
      </trkpt>
      <trkpt lat="46.5125" lon="0.38721">
        <ele>91.4</ele>
        <time>2023-01-15T10:18:50Z</time>
      </trkpt>
      <trkpt lat="46.51243" lon="0.38719">
        <ele>92</ele>
        <time>2023-01-15T10:18:52Z</time>
      </trkpt>
      <trkpt lat="46.51231" lon="0.38716">
        <ele>93.2</ele>
        <time>2023-01-15T10:18:56Z</time>
      </trkpt>
      <trkpt lat="46.51229" lon="0.38715">
        <ele>93.4</ele>
        <time>2023-01-15T10:18:57Z</time>
      </trkpt>
      <trkpt lat="46.51219" lon="0.38712">
        <ele>94.6</ele>
        <time>2023-01-15T10:19:00Z</time>
      </trkpt>
      <trkpt lat="46.51207" lon="0.38708">
        <ele>95.6</ele>
        <time>2023-01-15T10:19:04Z</time>
      </trkpt>
      <trkpt lat="46.51204" lon="0.38706">
        <ele>95.8</ele>
        <time>2023-01-15T10:19:05Z</time>
      </trkpt>
      <trkpt lat="46.51182" lon="0.38696">
        <ele>96.8</ele>
        <time>2023-01-15T10:19:12Z</time>
      </trkpt>
      <trkpt lat="46.51179" lon="0.38694">
        <ele>97</ele>
        <time>2023-01-15T10:19:13Z</time>
      </trkpt>
      <trkpt lat="46.51163" lon="0.38688">
        <ele>97.6</ele>
        <time>2023-01-15T10:19:18Z</time>
      </trkpt>
      <trkpt lat="46.5116" lon="0.38687">
        <ele>98</ele>
        <time>2023-01-15T10:19:19Z</time>
      </trkpt>
      <trkpt lat="46.51145" lon="0.38678">
        <ele>98.6</ele>
        <time>2023-01-15T10:19:24Z</time>
      </trkpt>
      <trkpt lat="46.51127" lon="0.38669">
        <ele>98.8</ele>
        <time>2023-01-15T10:19:30Z</time>
      </trkpt>
      <trkpt lat="46.51121" lon="0.38666">
        <ele>99</ele>
        <time>2023-01-15T10:19:32Z</time>
      </trkpt>
      <trkpt lat="46.5111" lon="0.3866">
        <ele>99.4</ele>
        <time>2023-01-15T10:19:36Z</time>
      </trkpt>
      <trkpt lat="46.51088" lon="0.38649">
        <ele>100</ele>
        <time>2023-01-15T10:19:42Z</time>
      </trkpt>
      <trkpt lat="46.51083" lon="0.38647">
        <ele>100</ele>
        <time>2023-01-15T10:19:43Z</time>
      </trkpt>
      <trkpt lat="46.51079" lon="0.38645">
        <ele>100</ele>
        <time>2023-01-15T10:19:44Z</time>
      </trkpt>
      <trkpt lat="46.51071" lon="0.38642">
        <ele>100</ele>
        <time>2023-01-15T10:19:46Z</time>
      </trkpt>
      <trkpt lat="46.5106" lon="0.38636">
        <ele>100.2</ele>
        <time>2023-01-15T10:19:49Z</time>
      </trkpt>
      <trkpt lat="46.51051" lon="0.38631">
        <ele>100.4</ele>
        <time>2023-01-15T10:19:51Z</time>
      </trkpt>
      <trkpt lat="46.5103" lon="0.38622">
        <ele>100.4</ele>
        <time>2023-01-15T10:19:56Z</time>
      </trkpt>
      <trkpt lat="46.51023" lon="0.38618">
        <ele>100.4</ele>
        <time>2023-01-15T10:19:58Z</time>
      </trkpt>
      <trkpt lat="46.5101" lon="0.3861">
        <ele>100.8</ele>
        <time>2023-01-15T10:20:01Z</time>
      </trkpt>
      <trkpt lat="46.50982" lon="0.38595">
        <ele>101.2</ele>
        <time>2023-01-15T10:20:07Z</time>
      </trkpt>
      <trkpt lat="46.5095" lon="0.38576">
        <ele>102.2</ele>
        <time>2023-01-15T10:20:13Z</time>
      </trkpt>
      <trkpt lat="46.50941" lon="0.38571">
        <ele>102.6</ele>
        <time>2023-01-15T10:20:15Z</time>
      </trkpt>
      <trkpt lat="46.50916" lon="0.38559">
        <ele>103.4</ele>
        <time>2023-01-15T10:20:21Z</time>
      </trkpt>
      <trkpt lat="46.50907" lon="0.38554">
        <ele>103.8</ele>
        <time>2023-01-15T10:20:23Z</time>
      </trkpt>
      <trkpt lat="46.50886" lon="0.38546">
        <ele>103.8</ele>
        <time>2023-01-15T10:20:28Z</time>
      </trkpt>
      <trkpt lat="46.50878" lon="0.38546">
        <ele>103.8</ele>
        <time>2023-01-15T10:20:30Z</time>
      </trkpt>
      <trkpt lat="46.5087" lon="0.38546">
        <ele>104</ele>
        <time>2023-01-15T10:20:32Z</time>
      </trkpt>
      <trkpt lat="46.50858" lon="0.38542">
        <ele>104.2</ele>
        <time>2023-01-15T10:20:36Z</time>
      </trkpt>
      <trkpt lat="46.50854" lon="0.38539">
        <ele>104.2</ele>
        <time>2023-01-15T10:20:38Z</time>
      </trkpt>
      <trkpt lat="46.50852" lon="0.38537">
        <ele>104.6</ele>
        <time>2023-01-15T10:20:39Z</time>
      </trkpt>
      <trkpt lat="46.50849" lon="0.38534">
        <ele>105</ele>
        <time>2023-01-15T10:20:41Z</time>
      </trkpt>
      <trkpt lat="46.50832" lon="0.3852">
        <ele>105.6</ele>
        <time>2023-01-15T10:20:48Z</time>
      </trkpt>
      <trkpt lat="46.50816" lon="0.38502">
        <ele>106.4</ele>
        <time>2023-01-15T10:20:55Z</time>
      </trkpt>
      <trkpt lat="46.50812" lon="0.38497">
        <ele>106.6</ele>
        <time>2023-01-15T10:20:57Z</time>
      </trkpt>
      <trkpt lat="46.50804" lon="0.38488">
        <ele>107.4</ele>
        <time>2023-01-15T10:21:01Z</time>
      </trkpt>
      <trkpt lat="46.50797" lon="0.38482">
        <ele>107.6</ele>
        <time>2023-01-15T10:21:05Z</time>
      </trkpt>
      <trkpt lat="46.50787" lon="0.38473">
        <ele>108.2</ele>
        <time>2023-01-15T10:21:08Z</time>
      </trkpt>
      <trkpt lat="46.50779" lon="0.38467">
        <ele>108.8</ele>
        <time>2023-01-15T10:21:11Z</time>
      </trkpt>
      <trkpt lat="46.50757" lon="0.38447">
        <ele>109.6</ele>
        <time>2023-01-15T10:21:17Z</time>
      </trkpt>
      <trkpt lat="46.50754" lon="0.38445">
        <ele>110</ele>
        <time>2023-01-15T10:21:18Z</time>
      </trkpt>
      <trkpt lat="46.50737" lon="0.38434">
        <ele>110.8</ele>
        <time>2023-01-15T10:21:24Z</time>
      </trkpt>
      <trkpt lat="46.50734" lon="0.38433">
        <ele>111</ele>
        <time>2023-01-15T10:21:25Z</time>
      </trkpt>
      <trkpt lat="46.50715" lon="0.3842">
        <ele>111.8</ele>
        <time>2023-01-15T10:21:32Z</time>
      </trkpt>
      <trkpt lat="46.50713" lon="0.38418">
        <ele>112</ele>
        <time>2023-01-15T10:21:33Z</time>
      </trkpt>
      <trkpt lat="46.50697" lon="0.38408">
        <ele>113</ele>
        <time>2023-01-15T10:21:38Z</time>
      </trkpt>
      <trkpt lat="46.50694" lon="0.38406">
        <ele>113</ele>
        <time>2023-01-15T10:21:39Z</time>
      </trkpt>
      <trkpt lat="46.50681" lon="0.38398">
        <ele>114</ele>
        <time>2023-01-15T10:21:44Z</time>
      </trkpt>
      <trkpt lat="46.50674" lon="0.38393">
        <ele>114</ele>
        <time>2023-01-15T10:21:46Z</time>
      </trkpt>
      <trkpt lat="46.50671" lon="0.38391">
        <ele>114.2</ele>
        <time>2023-01-15T10:21:47Z</time>
      </trkpt>
      <trkpt lat="46.50665" lon="0.38391">
        <ele>114.4</ele>
        <time>2023-01-15T10:21:49Z</time>
      </trkpt>
      <trkpt lat="46.50654" lon="0.38388">
        <ele>115.2</ele>
        <time>2023-01-15T10:21:54Z</time>
      </trkpt>
      <trkpt lat="46.50652" lon="0.38387">
        <ele>115.2</ele>
        <time>2023-01-15T10:21:55Z</time>
      </trkpt>
      <trkpt lat="46.50641" lon="0.38389">
        <ele>116</ele>
        <time>2023-01-15T10:21:59Z</time>
      </trkpt>
      <trkpt lat="46.50636" lon="0.38392">
        <ele>116.2</ele>
        <time>2023-01-15T10:22:01Z</time>
      </trkpt>
      <trkpt lat="46.50627" lon="0.38396">
        <ele>117</ele>
        <time>2023-01-15T10:22:05Z</time>
      </trkpt>
      <trkpt lat="46.50625" lon="0.38398">
        <ele>117.2</ele>
        <time>2023-01-15T10:22:06Z</time>
      </trkpt>
      <trkpt lat="46.50624" lon="0.38398">
        <ele>117.4</ele>
        <time>2023-01-15T10:22:07Z</time>
      </trkpt>
      <trkpt lat="46.50622" lon="0.38399">
        <ele>117.8</ele>
        <time>2023-01-15T10:22:08Z</time>
      </trkpt>
      <trkpt lat="46.50619" lon="0.38401">
        <ele>118.4</ele>
        <time>2023-01-15T10:22:10Z</time>
      </trkpt>
      <trkpt lat="46.50612" lon="0.38409">
        <ele>118.6</ele>
        <time>2023-01-15T10:22:14Z</time>
      </trkpt>
      <trkpt lat="46.50601" lon="0.38418">
        <ele>119.4</ele>
        <time>2023-01-15T10:22:20Z</time>
      </trkpt>
      <trkpt lat="46.50599" lon="0.3842">
        <ele>119.6</ele>
        <time>2023-01-15T10:22:22Z</time>
      </trkpt>
      <trkpt lat="46.50597" lon="0.38427">
        <ele>120</ele>
        <time>2023-01-15T10:22:25Z</time>
      </trkpt>
      <trkpt lat="46.50593" lon="0.38437">
        <ele>120.6</ele>
        <time>2023-01-15T10:22:30Z</time>
      </trkpt>
      <trkpt lat="46.50592" lon="0.38439">
        <ele>120.8</ele>
        <time>2023-01-15T10:22:31Z</time>
      </trkpt>
      <trkpt lat="46.50585" lon="0.38454">
        <ele>121.4</ele>
        <time>2023-01-15T10:22:37Z</time>
      </trkpt>
      <trkpt lat="46.50585" lon="0.38457">
        <ele>121.4</ele>
        <time>2023-01-15T10:22:38Z</time>
      </trkpt>
      <trkpt lat="46.50585" lon="0.38468">
        <ele>121.4</ele>
        <time>2023-01-15T10:22:42Z</time>
      </trkpt>
      <trkpt lat="46.5059" lon="0.38482">
        <ele>121.4</ele>
        <time>2023-01-15T10:22:48Z</time>
      </trkpt>
      <trkpt lat="46.50591" lon="0.3849">
        <ele>121.2</ele>
        <time>2023-01-15T10:22:51Z</time>
      </trkpt>
      <trkpt lat="46.50588" lon="0.38495">
        <ele>121.2</ele>
        <time>2023-01-15T10:22:53Z</time>
      </trkpt>
      <trkpt lat="46.50586" lon="0.38498">
        <ele>121.2</ele>
        <time>2023-01-15T10:22:54Z</time>
      </trkpt>
      <trkpt lat="46.50581" lon="0.38502">
        <ele>121.6</ele>
        <time>2023-01-15T10:22:56Z</time>
      </trkpt>
      <trkpt lat="46.50578" lon="0.38504">
        <ele>122</ele>
        <time>2023-01-15T10:22:58Z</time>
      </trkpt>
      <trkpt lat="46.5057" lon="0.38508">
        <ele>122</ele>
        <time>2023-01-15T10:23:04Z</time>
      </trkpt>
      <trkpt lat="46.5057" lon="0.38506">
        <ele>121.8</ele>
        <time>2023-01-15T10:23:05Z</time>
      </trkpt>
      <trkpt lat="46.5057" lon="0.38498">
        <ele>121.4</ele>
        <time>2023-01-15T10:23:09Z</time>
      </trkpt>
      <trkpt lat="46.50569" lon="0.38498">
        <ele>121.6</ele>
        <time>2023-01-15T10:23:10Z</time>
      </trkpt>
      <trkpt lat="46.50563" lon="0.38495">
        <ele>121.6</ele>
        <time>2023-01-15T10:23:14Z</time>
      </trkpt>
      <trkpt lat="46.50561" lon="0.38493">
        <ele>121.6</ele>
        <time>2023-01-15T10:23:15Z</time>
      </trkpt>
      <trkpt lat="46.50557" lon="0.38483">
        <ele>121.4</ele>
        <time>2023-01-15T10:23:19Z</time>
      </trkpt>
      <trkpt lat="46.50546" lon="0.38472">
        <ele>121.2</ele>
        <time>2023-01-15T10:23:26Z</time>
      </trkpt>
      <trkpt lat="46.50542" lon="0.3847">
        <ele>121.2</ele>
        <time>2023-01-15T10:23:29Z</time>
      </trkpt>
      <trkpt lat="46.50539" lon="0.38465">
        <ele>121.2</ele>
        <time>2023-01-15T10:23:32Z</time>
      </trkpt>
      <trkpt lat="46.50536" lon="0.38462">
        <ele>121.2</ele>
        <time>2023-01-15T10:23:34Z</time>
      </trkpt>
      <trkpt lat="46.5053" lon="0.38458">
        <ele>121.2</ele>
        <time>2023-01-15T10:23:37Z</time>
      </trkpt>
      <trkpt lat="46.50524" lon="0.3845">
        <ele>121.4</ele>
        <time>2023-01-15T10:23:40Z</time>
      </trkpt>
      <trkpt lat="46.50519" lon="0.38441">
        <ele>122</ele>
        <time>2023-01-15T10:23:43Z</time>
      </trkpt>
      <trkpt lat="46.50514" lon="0.3842">
        <ele>122.2</ele>
        <time>2023-01-15T10:23:49Z</time>
      </trkpt>
      <trkpt lat="46.50511" lon="0.38412">
        <ele>122.2</ele>
        <time>2023-01-15T10:23:52Z</time>
      </trkpt>
      <trkpt lat="46.50502" lon="0.38405">
        <ele>122.4</ele>
        <time>2023-01-15T10:23:55Z</time>
      </trkpt>
      <trkpt lat="46.5049" lon="0.38388">
        <ele>122.4</ele>
        <time>2023-01-15T10:24:01Z</time>
      </trkpt>
      <trkpt lat="46.5048" lon="0.38366">
        <ele>122.4</ele>
        <time>2023-01-15T10:24:07Z</time>
      </trkpt>
      <trkpt lat="46.50474" lon="0.38351">
        <ele>122.6</ele>
        <time>2023-01-15T10:24:11Z</time>
      </trkpt>
      <trkpt lat="46.50469" lon="0.38341">
        <ele>123</ele>
        <time>2023-01-15T10:24:14Z</time>
      </trkpt>
      <trkpt lat="46.50454" lon="0.38315">
        <ele>123.6</ele>
        <time>2023-01-15T10:24:21Z</time>
      </trkpt>
      <trkpt lat="46.50443" lon="0.383">
        <ele>123.8</ele>
        <time>2023-01-15T10:24:25Z</time>
      </trkpt>
      <trkpt lat="46.50438" lon="0.38298">
        <ele>124</ele>
        <time>2023-01-15T10:24:27Z</time>
      </trkpt>
      <trkpt lat="46.50424" lon="0.38304">
        <ele>124.4</ele>
        <time>2023-01-15T10:24:33Z</time>
      </trkpt>
      <trkpt lat="46.50413" lon="0.38307">
        <ele>124.4</ele>
        <time>2023-01-15T10:24:36Z</time>
      </trkpt>
      <trkpt lat="46.50396" lon="0.38313">
        <ele>124.4</ele>
        <time>2023-01-15T10:24:40Z</time>
      </trkpt>
      <trkpt lat="46.50378" lon="0.38326">
        <ele>123.8</ele>
        <time>2023-01-15T10:24:45Z</time>
      </trkpt>
      <trkpt lat="46.50376" lon="0.38327">
        <ele>123.8</ele>
        <time>2023-01-15T10:24:46Z</time>
      </trkpt>
      <trkpt lat="46.50373" lon="0.38327">
        <ele>123.8</ele>
        <time>2023-01-15T10:24:47Z</time>
      </trkpt>
      <trkpt lat="46.50365" lon="0.38324">
        <ele>123.8</ele>
        <time>2023-01-15T10:24:49Z</time>
      </trkpt>
      <trkpt lat="46.50361" lon="0.38321">
        <ele>123.8</ele>
        <time>2023-01-15T10:24:50Z</time>
      </trkpt>
      <trkpt lat="46.50358" lon="0.38317">
        <ele>124</ele>
        <time>2023-01-15T10:24:51Z</time>
      </trkpt>
      <trkpt lat="46.50336" lon="0.38296">
        <ele>124.6</ele>
        <time>2023-01-15T10:24:57Z</time>
      </trkpt>
      <trkpt lat="46.50333" lon="0.38293">
        <ele>124.6</ele>
        <time>2023-01-15T10:24:58Z</time>
      </trkpt>
      <trkpt lat="46.50328" lon="0.3829">
        <ele>124.6</ele>
        <time>2023-01-15T10:24:59Z</time>
      </trkpt>
      <trkpt lat="46.5031" lon="0.38275">
        <ele>124.8</ele>
        <time>2023-01-15T10:25:03Z</time>
      </trkpt>
      <trkpt lat="46.50302" lon="0.38267">
        <ele>124.8</ele>
        <time>2023-01-15T10:25:05Z</time>
      </trkpt>
      <trkpt lat="46.50295" lon="0.38254">
        <ele>125.4</ele>
        <time>2023-01-15T10:25:08Z</time>
      </trkpt>
      <trkpt lat="46.50281" lon="0.38234">
        <ele>125.6</ele>
        <time>2023-01-15T10:25:13Z</time>
      </trkpt>
      <trkpt lat="46.50279" lon="0.38229">
        <ele>125.4</ele>
        <time>2023-01-15T10:25:14Z</time>
      </trkpt>
      <trkpt lat="46.50277" lon="0.38226">
        <ele>125.6</ele>
        <time>2023-01-15T10:25:15Z</time>
      </trkpt>
      <trkpt lat="46.50269" lon="0.38215">
        <ele>125.6</ele>
        <time>2023-01-15T10:25:18Z</time>
      </trkpt>
      <trkpt lat="46.50265" lon="0.38213">
        <ele>125.8</ele>
        <time>2023-01-15T10:25:19Z</time>
      </trkpt>
      <trkpt lat="46.50261" lon="0.3821">
        <ele>125.8</ele>
        <time>2023-01-15T10:25:20Z</time>
      </trkpt>
      <trkpt lat="46.50255" lon="0.38205">
        <ele>125.8</ele>
        <time>2023-01-15T10:25:21Z</time>
      </trkpt>
      <trkpt lat="46.50241" lon="0.38191">
        <ele>126.2</ele>
        <time>2023-01-15T10:25:25Z</time>
      </trkpt>
      <trkpt lat="46.50215" lon="0.38178">
        <ele>126.4</ele>
        <time>2023-01-15T10:25:31Z</time>
      </trkpt>
      <trkpt lat="46.50203" lon="0.38173">
        <ele>126.6</ele>
        <time>2023-01-15T10:25:34Z</time>
      </trkpt>
      <trkpt lat="46.5019" lon="0.38171">
        <ele>126.6</ele>
        <time>2023-01-15T10:25:37Z</time>
      </trkpt>
      <trkpt lat="46.50185" lon="0.38169">
        <ele>126.6</ele>
        <time>2023-01-15T10:25:38Z</time>
      </trkpt>
      <trkpt lat="46.50166" lon="0.38163">
        <ele>126.2</ele>
        <time>2023-01-15T10:25:42Z</time>
      </trkpt>
      <trkpt lat="46.50159" lon="0.38155">
        <ele>126.2</ele>
        <time>2023-01-15T10:25:44Z</time>
      </trkpt>
      <trkpt lat="46.50153" lon="0.38148">
        <ele>126.2</ele>
        <time>2023-01-15T10:25:46Z</time>
      </trkpt>
      <trkpt lat="46.50151" lon="0.38146">
        <ele>126.2</ele>
        <time>2023-01-15T10:25:47Z</time>
      </trkpt>
      <trkpt lat="46.50145" lon="0.38141">
        <ele>126.4</ele>
        <time>2023-01-15T10:25:49Z</time>
      </trkpt>
      <trkpt lat="46.50138" lon="0.38132">
        <ele>126.4</ele>
        <time>2023-01-15T10:25:52Z</time>
      </trkpt>
      <trkpt lat="46.50116" lon="0.38105">
        <ele>126.4</ele>
        <time>2023-01-15T10:25:59Z</time>
      </trkpt>
      <trkpt lat="46.50104" lon="0.38095">
        <ele>126.2</ele>
        <time>2023-01-15T10:26:03Z</time>
      </trkpt>
      <trkpt lat="46.50101" lon="0.38092">
        <ele>126.2</ele>
        <time>2023-01-15T10:26:04Z</time>
      </trkpt>
      <trkpt lat="46.50079" lon="0.38082">
        <ele>125.8</ele>
        <time>2023-01-15T10:26:09Z</time>
      </trkpt>
      <trkpt lat="46.50074" lon="0.38081">
        <ele>126</ele>
        <time>2023-01-15T10:26:10Z</time>
      </trkpt>
      <trkpt lat="46.50066" lon="0.38075">
        <ele>126</ele>
        <time>2023-01-15T10:26:12Z</time>
      </trkpt>
      <trkpt lat="46.50053" lon="0.38064">
        <ele>126</ele>
        <time>2023-01-15T10:26:15Z</time>
      </trkpt>
      <trkpt lat="46.50047" lon="0.38056">
        <ele>126</ele>
        <time>2023-01-15T10:26:17Z</time>
      </trkpt>
      <trkpt lat="46.50042" lon="0.38049">
        <ele>126</ele>
        <time>2023-01-15T10:26:19Z</time>
      </trkpt>
      <trkpt lat="46.5004" lon="0.38045">
        <ele>126</ele>
        <time>2023-01-15T10:26:20Z</time>
      </trkpt>
      <trkpt lat="46.50031" lon="0.3803">
        <ele>126.4</ele>
        <time>2023-01-15T10:26:24Z</time>
      </trkpt>
      <trkpt lat="46.50022" lon="0.38026">
        <ele>126.4</ele>
        <time>2023-01-15T10:26:26Z</time>
      </trkpt>
      <trkpt lat="46.50013" lon="0.38023">
        <ele>126.4</ele>
        <time>2023-01-15T10:26:28Z</time>
      </trkpt>
      <trkpt lat="46.50004" lon="0.3802">
        <ele>126.4</ele>
        <time>2023-01-15T10:26:30Z</time>
      </trkpt>
      <trkpt lat="46.49999" lon="0.38016">
        <ele>126.2</ele>
        <time>2023-01-15T10:26:31Z</time>
      </trkpt>
      <trkpt lat="46.49984" lon="0.38003">
        <ele>126.2</ele>
        <time>2023-01-15T10:26:35Z</time>
      </trkpt>
      <trkpt lat="46.49975" lon="0.37993">
        <ele>126.2</ele>
        <time>2023-01-15T10:26:38Z</time>
      </trkpt>
      <trkpt lat="46.49968" lon="0.37985">
        <ele>126.6</ele>
        <time>2023-01-15T10:26:40Z</time>
      </trkpt>
      <trkpt lat="46.49962" lon="0.37978">
        <ele>126.6</ele>
        <time>2023-01-15T10:26:42Z</time>
      </trkpt>
      <trkpt lat="46.49959" lon="0.37974">
        <ele>126.8</ele>
        <time>2023-01-15T10:26:43Z</time>
      </trkpt>
      <trkpt lat="46.49946" lon="0.3796">
        <ele>126.6</ele>
        <time>2023-01-15T10:26:47Z</time>
      </trkpt>
      <trkpt lat="46.4993" lon="0.37942">
        <ele>126.8</ele>
        <time>2023-01-15T10:26:52Z</time>
      </trkpt>
      <trkpt lat="46.49912" lon="0.37921">
        <ele>127.2</ele>
        <time>2023-01-15T10:26:57Z</time>
      </trkpt>
      <trkpt lat="46.49907" lon="0.37916">
        <ele>127.4</ele>
        <time>2023-01-15T10:26:58Z</time>
      </trkpt>
      <trkpt lat="46.499" lon="0.37908">
        <ele>127.6</ele>
        <time>2023-01-15T10:27:00Z</time>
      </trkpt>
      <trkpt lat="46.49897" lon="0.37906">
        <ele>127.8</ele>
        <time>2023-01-15T10:27:01Z</time>
      </trkpt>
      <trkpt lat="46.49891" lon="0.379">
        <ele>127.8</ele>
        <time>2023-01-15T10:27:03Z</time>
      </trkpt>
      <trkpt lat="46.49887" lon="0.37896">
        <ele>128</ele>
        <time>2023-01-15T10:27:04Z</time>
      </trkpt>
      <trkpt lat="46.49873" lon="0.37881">
        <ele>128.2</ele>
        <time>2023-01-15T10:27:08Z</time>
      </trkpt>
      <trkpt lat="46.49854" lon="0.37858">
        <ele>128.6</ele>
        <time>2023-01-15T10:27:14Z</time>
      </trkpt>
      <trkpt lat="46.4984" lon="0.37843">
        <ele>128.6</ele>
        <time>2023-01-15T10:27:18Z</time>
      </trkpt>
      <trkpt lat="46.49829" lon="0.37832">
        <ele>128.6</ele>
        <time>2023-01-15T10:27:21Z</time>
      </trkpt>
      <trkpt lat="46.49818" lon="0.37821">
        <ele>128.4</ele>
        <time>2023-01-15T10:27:24Z</time>
      </trkpt>
      <trkpt lat="46.49813" lon="0.37813">
        <ele>128.4</ele>
        <time>2023-01-15T10:27:26Z</time>
      </trkpt>
      <trkpt lat="46.49811" lon="0.37809">
        <ele>128.4</ele>
        <time>2023-01-15T10:27:27Z</time>
      </trkpt>
      <trkpt lat="46.49807" lon="0.37802">
        <ele>128.6</ele>
        <time>2023-01-15T10:27:29Z</time>
      </trkpt>
      <trkpt lat="46.49803" lon="0.37795">
        <ele>128.8</ele>
        <time>2023-01-15T10:27:31Z</time>
      </trkpt>
      <trkpt lat="46.498" lon="0.37791">
        <ele>128.8</ele>
        <time>2023-01-15T10:27:32Z</time>
      </trkpt>
      <trkpt lat="46.49798" lon="0.37788">
        <ele>129</ele>
        <time>2023-01-15T10:27:33Z</time>
      </trkpt>
      <trkpt lat="46.49789" lon="0.37773">
        <ele>129.2</ele>
        <time>2023-01-15T10:27:37Z</time>
      </trkpt>
      <trkpt lat="46.49783" lon="0.3776">
        <ele>129</ele>
        <time>2023-01-15T10:27:40Z</time>
      </trkpt>
      <trkpt lat="46.49779" lon="0.37746">
        <ele>129</ele>
        <time>2023-01-15T10:27:43Z</time>
      </trkpt>
      <trkpt lat="46.49776" lon="0.37737">
        <ele>129.2</ele>
        <time>2023-01-15T10:27:45Z</time>
      </trkpt>
      <trkpt lat="46.49774" lon="0.37734">
        <ele>129.2</ele>
        <time>2023-01-15T10:27:46Z</time>
      </trkpt>
      <trkpt lat="46.49773" lon="0.3773">
        <ele>129.2</ele>
        <time>2023-01-15T10:27:47Z</time>
      </trkpt>
      <trkpt lat="46.49765" lon="0.37713">
        <ele>129.2</ele>
        <time>2023-01-15T10:27:50Z</time>
      </trkpt>
      <trkpt lat="46.4976" lon="0.37704">
        <ele>129.2</ele>
        <time>2023-01-15T10:27:52Z</time>
      </trkpt>
      <trkpt lat="46.49752" lon="0.37692">
        <ele>129</ele>
        <time>2023-01-15T10:27:55Z</time>
      </trkpt>
      <trkpt lat="46.49735" lon="0.37679">
        <ele>129</ele>
        <time>2023-01-15T10:28:00Z</time>
      </trkpt>
      <trkpt lat="46.49713" lon="0.3766">
        <ele>129.2</ele>
        <time>2023-01-15T10:28:05Z</time>
      </trkpt>
      <trkpt lat="46.49708" lon="0.37655">
        <ele>129.2</ele>
        <time>2023-01-15T10:28:06Z</time>
      </trkpt>
      <trkpt lat="46.49698" lon="0.37645">
        <ele>129.4</ele>
        <time>2023-01-15T10:28:09Z</time>
      </trkpt>
      <trkpt lat="46.49694" lon="0.37636">
        <ele>129.4</ele>
        <time>2023-01-15T10:28:11Z</time>
      </trkpt>
      <trkpt lat="46.49692" lon="0.37617">
        <ele>129.4</ele>
        <time>2023-01-15T10:28:16Z</time>
      </trkpt>
      <trkpt lat="46.49694" lon="0.37594">
        <ele>129.6</ele>
        <time>2023-01-15T10:28:21Z</time>
      </trkpt>
      <trkpt lat="46.49695" lon="0.3759">
        <ele>129.6</ele>
        <time>2023-01-15T10:28:22Z</time>
      </trkpt>
      <trkpt lat="46.49697" lon="0.3758">
        <ele>129.8</ele>
        <time>2023-01-15T10:28:24Z</time>
      </trkpt>
      <trkpt lat="46.497" lon="0.37568">
        <ele>130</ele>
        <time>2023-01-15T10:28:26Z</time>
      </trkpt>
      <trkpt lat="46.49701" lon="0.37563">
        <ele>130</ele>
        <time>2023-01-15T10:28:27Z</time>
      </trkpt>
      <trkpt lat="46.49708" lon="0.37531">
        <ele>129.6</ele>
        <time>2023-01-15T10:28:33Z</time>
      </trkpt>
      <trkpt lat="46.49718" lon="0.37503">
        <ele>129.2</ele>
        <time>2023-01-15T10:28:39Z</time>
      </trkpt>
      <trkpt lat="46.4973" lon="0.37471">
        <ele>129.8</ele>
        <time>2023-01-15T10:28:45Z</time>
      </trkpt>
      <trkpt lat="46.49736" lon="0.37446">
        <ele>129.4</ele>
        <time>2023-01-15T10:28:50Z</time>
      </trkpt>
      <trkpt lat="46.49746" lon="0.37412">
        <ele>129.2</ele>
        <time>2023-01-15T10:28:56Z</time>
      </trkpt>
      <trkpt lat="46.49751" lon="0.37383">
        <ele>129</ele>
        <time>2023-01-15T10:29:01Z</time>
      </trkpt>
      <trkpt lat="46.49758" lon="0.37349">
        <ele>129</ele>
        <time>2023-01-15T10:29:07Z</time>
      </trkpt>
      <trkpt lat="46.49761" lon="0.37344">
        <ele>129</ele>
        <time>2023-01-15T10:29:09Z</time>
      </trkpt>
      <trkpt lat="46.49766" lon="0.3734">
        <ele>129</ele>
        <time>2023-01-15T10:29:11Z</time>
      </trkpt>
      <trkpt lat="46.49771" lon="0.37335">
        <ele>128.8</ele>
        <time>2023-01-15T10:29:13Z</time>
      </trkpt>
      <trkpt lat="46.49782" lon="0.37328">
        <ele>128.6</ele>
        <time>2023-01-15T10:29:17Z</time>
      </trkpt>
      <trkpt lat="46.49785" lon="0.37327">
        <ele>128.6</ele>
        <time>2023-01-15T10:29:18Z</time>
      </trkpt>
      <trkpt lat="46.4979" lon="0.37332">
        <ele>128.6</ele>
        <time>2023-01-15T10:29:21Z</time>
      </trkpt>
      <trkpt lat="46.49802" lon="0.37342">
        <ele>129</ele>
        <time>2023-01-15T10:29:26Z</time>
      </trkpt>
      <trkpt lat="46.49807" lon="0.37345">
        <ele>129</ele>
        <time>2023-01-15T10:29:28Z</time>
      </trkpt>
      <trkpt lat="46.49818" lon="0.3735">
        <ele>128.6</ele>
        <time>2023-01-15T10:29:31Z</time>
      </trkpt>
      <trkpt lat="46.4982" lon="0.37351">
        <ele>128.6</ele>
        <time>2023-01-15T10:29:32Z</time>
      </trkpt>
      <trkpt lat="46.49822" lon="0.3735">
        <ele>128.6</ele>
        <time>2023-01-15T10:29:33Z</time>
      </trkpt>
      <trkpt lat="46.49828" lon="0.37344">
        <ele>128.6</ele>
        <time>2023-01-15T10:29:36Z</time>
      </trkpt>
      <trkpt lat="46.49835" lon="0.37337">
        <ele>128.4</ele>
        <time>2023-01-15T10:29:39Z</time>
      </trkpt>
      <trkpt lat="46.49846" lon="0.37327">
        <ele>128.2</ele>
        <time>2023-01-15T10:29:43Z</time>
      </trkpt>
      <trkpt lat="46.49867" lon="0.3731">
        <ele>128</ele>
        <time>2023-01-15T10:29:50Z</time>
      </trkpt>
      <trkpt lat="46.49882" lon="0.37287">
        <ele>128</ele>
        <time>2023-01-15T10:29:57Z</time>
      </trkpt>
      <trkpt lat="46.49887" lon="0.37278">
        <ele>127.6</ele>
        <time>2023-01-15T10:30:01Z</time>
      </trkpt>
      <trkpt lat="46.49886" lon="0.37275">
        <ele>127.6</ele>
        <time>2023-01-15T10:30:02Z</time>
      </trkpt>
      <trkpt lat="46.49884" lon="0.37266">
        <ele>127.8</ele>
        <time>2023-01-15T10:30:06Z</time>
      </trkpt>
      <trkpt lat="46.49883" lon="0.37261">
        <ele>127.8</ele>
        <time>2023-01-15T10:30:08Z</time>
      </trkpt>
      <trkpt lat="46.49882" lon="0.37259">
        <ele>127.8</ele>
        <time>2023-01-15T10:30:09Z</time>
      </trkpt>
      <trkpt lat="46.4988" lon="0.37254">
        <ele>128</ele>
        <time>2023-01-15T10:30:11Z</time>
      </trkpt>
      <trkpt lat="46.49878" lon="0.37248">
        <ele>128</ele>
        <time>2023-01-15T10:30:13Z</time>
      </trkpt>
      <trkpt lat="46.49876" lon="0.37245">
        <ele>128</ele>
        <time>2023-01-15T10:30:14Z</time>
      </trkpt>
      <trkpt lat="46.49874" lon="0.37242">
        <ele>128</ele>
        <time>2023-01-15T10:30:15Z</time>
      </trkpt>
      <trkpt lat="46.49867" lon="0.37229">
        <ele>127.8</ele>
        <time>2023-01-15T10:30:19Z</time>
      </trkpt>
      <trkpt lat="46.49867" lon="0.37227">
        <ele>127.8</ele>
        <time>2023-01-15T10:30:20Z</time>
      </trkpt>
      <trkpt lat="46.49868" lon="0.37222">
        <ele>127.8</ele>
        <time>2023-01-15T10:30:22Z</time>
      </trkpt>
      <trkpt lat="46.49869" lon="0.37221">
        <ele>128</ele>
        <time>2023-01-15T10:30:23Z</time>
      </trkpt>
      <trkpt lat="46.49877" lon="0.37203">
        <ele>128.4</ele>
        <time>2023-01-15T10:30:29Z</time>
      </trkpt>
      <trkpt lat="46.49886" lon="0.37185">
        <ele>128</ele>
        <time>2023-01-15T10:30:34Z</time>
      </trkpt>
      <trkpt lat="46.49893" lon="0.37173">
        <ele>127.8</ele>
        <time>2023-01-15T10:30:38Z</time>
      </trkpt>
      <trkpt lat="46.49894" lon="0.3717">
        <ele>127.8</ele>
        <time>2023-01-15T10:30:39Z</time>
      </trkpt>
      <trkpt lat="46.499" lon="0.3715">
        <ele>127.8</ele>
        <time>2023-01-15T10:30:45Z</time>
      </trkpt>
      <trkpt lat="46.49909" lon="0.37139">
        <ele>127.2</ele>
        <time>2023-01-15T10:30:50Z</time>
      </trkpt>
      <trkpt lat="46.49911" lon="0.37137">
        <ele>127.2</ele>
        <time>2023-01-15T10:30:51Z</time>
      </trkpt>
      <trkpt lat="46.49918" lon="0.37122">
        <ele>127.2</ele>
        <time>2023-01-15T10:30:55Z</time>
      </trkpt>
      <trkpt lat="46.49926" lon="0.371">
        <ele>127</ele>
        <time>2023-01-15T10:31:02Z</time>
      </trkpt>
      <trkpt lat="46.49928" lon="0.37097">
        <ele>126.6</ele>
        <time>2023-01-15T10:31:05Z</time>
      </trkpt>
      <trkpt lat="46.49929" lon="0.37095">
        <ele>126.6</ele>
        <time>2023-01-15T10:31:06Z</time>
      </trkpt>
      <trkpt lat="46.49931" lon="0.37093">
        <ele>126.6</ele>
        <time>2023-01-15T10:31:07Z</time>
      </trkpt>
      <trkpt lat="46.49933" lon="0.37091">
        <ele>126.6</ele>
        <time>2023-01-15T10:31:09Z</time>
      </trkpt>
      <trkpt lat="46.49935" lon="0.37088">
        <ele>126.8</ele>
        <time>2023-01-15T10:31:11Z</time>
      </trkpt>
      <trkpt lat="46.49938" lon="0.37084">
        <ele>126.8</ele>
        <time>2023-01-15T10:31:14Z</time>
      </trkpt>
      <trkpt lat="46.4994" lon="0.37082">
        <ele>127</ele>
        <time>2023-01-15T10:31:15Z</time>
      </trkpt>
      <trkpt lat="46.49945" lon="0.37076">
        <ele>126.8</ele>
        <time>2023-01-15T10:31:19Z</time>
      </trkpt>
      <trkpt lat="46.49949" lon="0.37074">
        <ele>126.8</ele>
        <time>2023-01-15T10:31:21Z</time>
      </trkpt>
      <trkpt lat="46.49957" lon="0.37069">
        <ele>126.8</ele>
        <time>2023-01-15T10:31:24Z</time>
      </trkpt>
      <trkpt lat="46.49962" lon="0.37065">
        <ele>126.6</ele>
        <time>2023-01-15T10:31:27Z</time>
      </trkpt>
      <trkpt lat="46.49967" lon="0.37064">
        <ele>126.6</ele>
        <time>2023-01-15T10:31:30Z</time>
      </trkpt>
      <trkpt lat="46.49973" lon="0.37064">
        <ele>126.6</ele>
        <time>2023-01-15T10:31:34Z</time>
      </trkpt>
      <trkpt lat="46.49981" lon="0.37063">
        <ele>126.4</ele>
        <time>2023-01-15T10:31:38Z</time>
      </trkpt>
      <trkpt lat="46.49982" lon="0.37063">
        <ele>126.4</ele>
        <time>2023-01-15T10:31:39Z</time>
      </trkpt>
      <trkpt lat="46.49998" lon="0.37055">
        <ele>126.4</ele>
        <time>2023-01-15T10:31:47Z</time>
      </trkpt>
      <trkpt lat="46.5" lon="0.37054">
        <ele>126.4</ele>
        <time>2023-01-15T10:31:48Z</time>
      </trkpt>
      <trkpt lat="46.50009" lon="0.37054">
        <ele>126.4</ele>
        <time>2023-01-15T10:31:52Z</time>
      </trkpt>
      <trkpt lat="46.50025" lon="0.37066">
        <ele>126.6</ele>
        <time>2023-01-15T10:31:58Z</time>
      </trkpt>
      <trkpt lat="46.50037" lon="0.37076">
        <ele>126</ele>
        <time>2023-01-15T10:32:03Z</time>
      </trkpt>
      <trkpt lat="46.50053" lon="0.37085">
        <ele>126</ele>
        <time>2023-01-15T10:32:10Z</time>
      </trkpt>
      <trkpt lat="46.5006" lon="0.37097">
        <ele>126.2</ele>
        <time>2023-01-15T10:32:15Z</time>
      </trkpt>
      <trkpt lat="46.50061" lon="0.37098">
        <ele>126</ele>
        <time>2023-01-15T10:32:16Z</time>
      </trkpt>
      <trkpt lat="46.50063" lon="0.37099">
        <ele>126</ele>
        <time>2023-01-15T10:32:17Z</time>
      </trkpt>
      <trkpt lat="46.5007" lon="0.37101">
        <ele>125.6</ele>
        <time>2023-01-15T10:32:21Z</time>
      </trkpt>
      <trkpt lat="46.5008" lon="0.37094">
        <ele>125.6</ele>
        <time>2023-01-15T10:32:26Z</time>
      </trkpt>
      <trkpt lat="46.50091" lon="0.37078">
        <ele>125.6</ele>
        <time>2023-01-15T10:32:32Z</time>
      </trkpt>
      <trkpt lat="46.50099" lon="0.37068">
        <ele>126</ele>
        <time>2023-01-15T10:32:37Z</time>
      </trkpt>
      <trkpt lat="46.5011" lon="0.3707">
        <ele>126.4</ele>
        <time>2023-01-15T10:32:40Z</time>
      </trkpt>
      <trkpt lat="46.50118" lon="0.37072">
        <ele>126.4</ele>
        <time>2023-01-15T10:32:42Z</time>
      </trkpt>
      <trkpt lat="46.5014" lon="0.37084">
        <ele>126.2</ele>
        <time>2023-01-15T10:32:47Z</time>
      </trkpt>
      <trkpt lat="46.50152" lon="0.3709">
        <ele>126</ele>
        <time>2023-01-15T10:32:50Z</time>
      </trkpt>
      <trkpt lat="46.50158" lon="0.37088">
        <ele>126</ele>
        <time>2023-01-15T10:32:52Z</time>
      </trkpt>
      <trkpt lat="46.50161" lon="0.37083">
        <ele>126</ele>
        <time>2023-01-15T10:32:54Z</time>
      </trkpt>
      <trkpt lat="46.50164" lon="0.37079">
        <ele>126</ele>
        <time>2023-01-15T10:32:56Z</time>
      </trkpt>
      <trkpt lat="46.50167" lon="0.37073">
        <ele>126.2</ele>
        <time>2023-01-15T10:32:58Z</time>
      </trkpt>
      <trkpt lat="46.5017" lon="0.37067">
        <ele>126.6</ele>
        <time>2023-01-15T10:33:00Z</time>
      </trkpt>
      <trkpt lat="46.50175" lon="0.37057">
        <ele>126.6</ele>
        <time>2023-01-15T10:33:03Z</time>
      </trkpt>
      <trkpt lat="46.50178" lon="0.37037">
        <ele>126.2</ele>
        <time>2023-01-15T10:33:10Z</time>
      </trkpt>
      <trkpt lat="46.50178" lon="0.37017">
        <ele>126.6</ele>
        <time>2023-01-15T10:33:16Z</time>
      </trkpt>
      <trkpt lat="46.50178" lon="0.37014">
        <ele>126.8</ele>
        <time>2023-01-15T10:33:17Z</time>
      </trkpt>
      <trkpt lat="46.50179" lon="0.37007">
        <ele>126.8</ele>
        <time>2023-01-15T10:33:20Z</time>
      </trkpt>
      <trkpt lat="46.50179" lon="0.36999">
        <ele>126.6</ele>
        <time>2023-01-15T10:33:23Z</time>
      </trkpt>
      <trkpt lat="46.50176" lon="0.36968">
        <ele>126.6</ele>
        <time>2023-01-15T10:33:30Z</time>
      </trkpt>
      <trkpt lat="46.50174" lon="0.36946">
        <ele>126.8</ele>
        <time>2023-01-15T10:33:36Z</time>
      </trkpt>
      <trkpt lat="46.50171" lon="0.36916">
        <ele>126.8</ele>
        <time>2023-01-15T10:33:41Z</time>
      </trkpt>
      <trkpt lat="46.50179" lon="0.36892">
        <ele>127.2</ele>
        <time>2023-01-15T10:33:48Z</time>
      </trkpt>
      <trkpt lat="46.50188" lon="0.36875">
        <ele>127.2</ele>
        <time>2023-01-15T10:33:54Z</time>
      </trkpt>
      <trkpt lat="46.50189" lon="0.36873">
        <ele>127</ele>
        <time>2023-01-15T10:33:55Z</time>
      </trkpt>
      <trkpt lat="46.50191" lon="0.36867">
        <ele>126.8</ele>
        <time>2023-01-15T10:33:57Z</time>
      </trkpt>
      <trkpt lat="46.50192" lon="0.36864">
        <ele>126.8</ele>
        <time>2023-01-15T10:33:58Z</time>
      </trkpt>
      <trkpt lat="46.50192" lon="0.36862">
        <ele>126.8</ele>
        <time>2023-01-15T10:33:59Z</time>
      </trkpt>
      <trkpt lat="46.50195" lon="0.36855">
        <ele>126.8</ele>
        <time>2023-01-15T10:34:02Z</time>
      </trkpt>
      <trkpt lat="46.50196" lon="0.36852">
        <ele>126.8</ele>
        <time>2023-01-15T10:34:03Z</time>
      </trkpt>
      <trkpt lat="46.50204" lon="0.36828">
        <ele>126.6</ele>
        <time>2023-01-15T10:34:08Z</time>
      </trkpt>
      <trkpt lat="46.50206" lon="0.36818">
        <ele>126.4</ele>
        <time>2023-01-15T10:34:10Z</time>
      </trkpt>
      <trkpt lat="46.50209" lon="0.36808">
        <ele>126.2</ele>
        <time>2023-01-15T10:34:13Z</time>
      </trkpt>
      <trkpt lat="46.50206" lon="0.36807">
        <ele>126.2</ele>
        <time>2023-01-15T10:34:14Z</time>
      </trkpt>
      <trkpt lat="46.50202" lon="0.36807">
        <ele>126.6</ele>
        <time>2023-01-15T10:34:16Z</time>
      </trkpt>
      <trkpt lat="46.50197" lon="0.36806">
        <ele>126.8</ele>
        <time>2023-01-15T10:34:18Z</time>
      </trkpt>
      <trkpt lat="46.50194" lon="0.368">
        <ele>127</ele>
        <time>2023-01-15T10:34:20Z</time>
      </trkpt>
      <trkpt lat="46.50191" lon="0.36795">
        <ele>127</ele>
        <time>2023-01-15T10:34:22Z</time>
      </trkpt>
      <trkpt lat="46.50186" lon="0.36794">
        <ele>127</ele>
        <time>2023-01-15T10:34:24Z</time>
      </trkpt>
      <trkpt lat="46.50177" lon="0.36787">
        <ele>126.6</ele>
        <time>2023-01-15T10:34:28Z</time>
      </trkpt>
      <trkpt lat="46.50176" lon="0.36783">
        <ele>126.4</ele>
        <time>2023-01-15T10:34:29Z</time>
      </trkpt>
      <trkpt lat="46.50172" lon="0.36777">
        <ele>126.4</ele>
        <time>2023-01-15T10:34:31Z</time>
      </trkpt>
      <trkpt lat="46.50164" lon="0.36773">
        <ele>126.4</ele>
        <time>2023-01-15T10:34:34Z</time>
      </trkpt>
      <trkpt lat="46.50157" lon="0.36771">
        <ele>126.6</ele>
        <time>2023-01-15T10:34:37Z</time>
      </trkpt>
      <trkpt lat="46.5015" lon="0.36768">
        <ele>126.6</ele>
        <time>2023-01-15T10:34:39Z</time>
      </trkpt>
      <trkpt lat="46.50139" lon="0.36765">
        <ele>126.6</ele>
        <time>2023-01-15T10:34:43Z</time>
      </trkpt>
      <trkpt lat="46.50128" lon="0.36751">
        <ele>126.4</ele>
        <time>2023-01-15T10:34:49Z</time>
      </trkpt>
      <trkpt lat="46.50127" lon="0.36749">
        <ele>126.4</ele>
        <time>2023-01-15T10:34:50Z</time>
      </trkpt>
      <trkpt lat="46.50122" lon="0.3674">
        <ele>126.6</ele>
        <time>2023-01-15T10:34:54Z</time>
      </trkpt>
      <trkpt lat="46.50121" lon="0.36736">
        <ele>126.6</ele>
        <time>2023-01-15T10:34:55Z</time>
      </trkpt>
      <trkpt lat="46.50116" lon="0.36716">
        <ele>126.4</ele>
        <time>2023-01-15T10:35:00Z</time>
      </trkpt>
      <trkpt lat="46.50114" lon="0.36696">
        <ele>126.2</ele>
        <time>2023-01-15T10:35:06Z</time>
      </trkpt>
      <trkpt lat="46.50114" lon="0.36693">
        <ele>126</ele>
        <time>2023-01-15T10:35:07Z</time>
      </trkpt>
      <trkpt lat="46.5012" lon="0.36677">
        <ele>126</ele>
        <time>2023-01-15T10:35:11Z</time>
      </trkpt>
      <trkpt lat="46.50122" lon="0.36673">
        <ele>126.2</ele>
        <time>2023-01-15T10:35:12Z</time>
      </trkpt>
      <trkpt lat="46.50125" lon="0.36666">
        <ele>126</ele>
        <time>2023-01-15T10:35:14Z</time>
      </trkpt>
      <trkpt lat="46.50132" lon="0.36658">
        <ele>125.8</ele>
        <time>2023-01-15T10:35:17Z</time>
      </trkpt>
      <trkpt lat="46.50135" lon="0.36652">
        <ele>125.6</ele>
        <time>2023-01-15T10:35:19Z</time>
      </trkpt>
      <trkpt lat="46.50141" lon="0.36636">
        <ele>125.4</ele>
        <time>2023-01-15T10:35:24Z</time>
      </trkpt>
      <trkpt lat="46.50147" lon="0.36633">
        <ele>125.2</ele>
        <time>2023-01-15T10:35:27Z</time>
      </trkpt>
      <trkpt lat="46.50153" lon="0.36634">
        <ele>125.4</ele>
        <time>2023-01-15T10:35:30Z</time>
      </trkpt>
      <trkpt lat="46.5016" lon="0.36635">
        <ele>125.8</ele>
        <time>2023-01-15T10:35:35Z</time>
      </trkpt>
      <trkpt lat="46.50162" lon="0.36639">
        <ele>125.8</ele>
        <time>2023-01-15T10:35:37Z</time>
      </trkpt>
      <trkpt lat="46.50176" lon="0.3665">
        <ele>125.6</ele>
        <time>2023-01-15T10:35:43Z</time>
      </trkpt>
      <trkpt lat="46.5018" lon="0.36653">
        <ele>125.6</ele>
        <time>2023-01-15T10:35:45Z</time>
      </trkpt>
      <trkpt lat="46.50187" lon="0.3666">
        <ele>125.6</ele>
        <time>2023-01-15T10:35:49Z</time>
      </trkpt>
      <trkpt lat="46.50202" lon="0.36672">
        <ele>126</ele>
        <time>2023-01-15T10:35:55Z</time>
      </trkpt>
      <trkpt lat="46.5021" lon="0.36677">
        <ele>126.2</ele>
        <time>2023-01-15T10:35:58Z</time>
      </trkpt>
      <trkpt lat="46.50215" lon="0.36676">
        <ele>126.2</ele>
        <time>2023-01-15T10:36:00Z</time>
      </trkpt>
      <trkpt lat="46.50221" lon="0.36667">
        <ele>125.6</ele>
        <time>2023-01-15T10:36:05Z</time>
      </trkpt>
      <trkpt lat="46.50228" lon="0.3666">
        <ele>125</ele>
        <time>2023-01-15T10:36:08Z</time>
      </trkpt>
      <trkpt lat="46.50234" lon="0.36656">
        <ele>125</ele>
        <time>2023-01-15T10:36:10Z</time>
      </trkpt>
      <trkpt lat="46.50236" lon="0.36655">
        <ele>124.6</ele>
        <time>2023-01-15T10:36:11Z</time>
      </trkpt>
      <trkpt lat="46.50239" lon="0.36653">
        <ele>124.4</ele>
        <time>2023-01-15T10:36:12Z</time>
      </trkpt>
      <trkpt lat="46.50245" lon="0.3665">
        <ele>124.2</ele>
        <time>2023-01-15T10:36:14Z</time>
      </trkpt>
      <trkpt lat="46.50247" lon="0.3665">
        <ele>124.2</ele>
        <time>2023-01-15T10:36:15Z</time>
      </trkpt>
      <trkpt lat="46.50249" lon="0.36651">
        <ele>124.2</ele>
        <time>2023-01-15T10:36:16Z</time>
      </trkpt>
      <trkpt lat="46.50262" lon="0.3666">
        <ele>124</ele>
        <time>2023-01-15T10:36:20Z</time>
      </trkpt>
      <trkpt lat="46.50274" lon="0.36667">
        <ele>124</ele>
        <time>2023-01-15T10:36:25Z</time>
      </trkpt>
      <trkpt lat="46.50282" lon="0.36665">
        <ele>123.6</ele>
        <time>2023-01-15T10:36:29Z</time>
      </trkpt>
      <trkpt lat="46.50284" lon="0.36663">
        <ele>123.6</ele>
        <time>2023-01-15T10:36:30Z</time>
      </trkpt>
      <trkpt lat="46.50285" lon="0.36662">
        <ele>123.6</ele>
        <time>2023-01-15T10:36:31Z</time>
      </trkpt>
      <trkpt lat="46.50296" lon="0.36654">
        <ele>123</ele>
        <time>2023-01-15T10:36:38Z</time>
      </trkpt>
      <trkpt lat="46.50307" lon="0.36654">
        <ele>122.6</ele>
        <time>2023-01-15T10:36:43Z</time>
      </trkpt>
      <trkpt lat="46.50318" lon="0.36663">
        <ele>123.2</ele>
        <time>2023-01-15T10:36:48Z</time>
      </trkpt>
      <trkpt lat="46.50325" lon="0.36674">
        <ele>124</ele>
        <time>2023-01-15T10:36:54Z</time>
      </trkpt>
      <trkpt lat="46.50338" lon="0.36678">
        <ele>124.2</ele>
        <time>2023-01-15T10:37:00Z</time>
      </trkpt>
      <trkpt lat="46.50353" lon="0.3669">
        <ele>124.4</ele>
        <time>2023-01-15T10:37:06Z</time>
      </trkpt>
      <trkpt lat="46.50364" lon="0.36698">
        <ele>124</ele>
        <time>2023-01-15T10:37:10Z</time>
      </trkpt>
      <trkpt lat="46.50368" lon="0.36699">
        <ele>124</ele>
        <time>2023-01-15T10:37:11Z</time>
      </trkpt>
      <trkpt lat="46.50387" lon="0.36701">
        <ele>123.8</ele>
        <time>2023-01-15T10:37:16Z</time>
      </trkpt>
      <trkpt lat="46.50392" lon="0.36701">
        <ele>123.8</ele>
        <time>2023-01-15T10:37:17Z</time>
      </trkpt>
      <trkpt lat="46.50396" lon="0.36701">
        <ele>123.8</ele>
        <time>2023-01-15T10:37:18Z</time>
      </trkpt>
      <trkpt lat="46.50406" lon="0.36703">
        <ele>123.6</ele>
        <time>2023-01-15T10:37:20Z</time>
      </trkpt>
      <trkpt lat="46.50419" lon="0.36708">
        <ele>123.4</ele>
        <time>2023-01-15T10:37:22Z</time>
      </trkpt>
      <trkpt lat="46.50438" lon="0.36715">
        <ele>123.6</ele>
        <time>2023-01-15T10:37:27Z</time>
      </trkpt>
      <trkpt lat="46.50456" lon="0.36729">
        <ele>124.2</ele>
        <time>2023-01-15T10:37:33Z</time>
      </trkpt>
      <trkpt lat="46.50458" lon="0.3673">
        <ele>124.4</ele>
        <time>2023-01-15T10:37:34Z</time>
      </trkpt>
      <trkpt lat="46.5047" lon="0.36737">
        <ele>124.2</ele>
        <time>2023-01-15T10:37:38Z</time>
      </trkpt>
      <trkpt lat="46.50483" lon="0.36742">
        <ele>124.4</ele>
        <time>2023-01-15T10:37:43Z</time>
      </trkpt>
      <trkpt lat="46.50486" lon="0.36745">
        <ele>124.6</ele>
        <time>2023-01-15T10:37:44Z</time>
      </trkpt>
      <trkpt lat="46.50491" lon="0.36754">
        <ele>125.2</ele>
        <time>2023-01-15T10:37:47Z</time>
      </trkpt>
      <trkpt lat="46.50494" lon="0.36756">
        <ele>125.4</ele>
        <time>2023-01-15T10:37:48Z</time>
      </trkpt>
      <trkpt lat="46.50499" lon="0.3676">
        <ele>125.8</ele>
        <time>2023-01-15T10:37:50Z</time>
      </trkpt>
      <trkpt lat="46.50502" lon="0.36764">
        <ele>126</ele>
        <time>2023-01-15T10:37:51Z</time>
      </trkpt>
      <trkpt lat="46.50513" lon="0.36789">
        <ele>126.4</ele>
        <time>2023-01-15T10:37:58Z</time>
      </trkpt>
      <trkpt lat="46.50519" lon="0.36798">
        <ele>126.8</ele>
        <time>2023-01-15T10:38:01Z</time>
      </trkpt>
      <trkpt lat="46.50524" lon="0.36802">
        <ele>127</ele>
        <time>2023-01-15T10:38:03Z</time>
      </trkpt>
      <trkpt lat="46.50535" lon="0.36818">
        <ele>127.4</ele>
        <time>2023-01-15T10:38:07Z</time>
      </trkpt>
      <trkpt lat="46.50543" lon="0.36842">
        <ele>127.2</ele>
        <time>2023-01-15T10:38:12Z</time>
      </trkpt>
      <trkpt lat="46.50542" lon="0.36872">
        <ele>127.2</ele>
        <time>2023-01-15T10:38:18Z</time>
      </trkpt>
      <trkpt lat="46.50544" lon="0.36889">
        <ele>127.2</ele>
        <time>2023-01-15T10:38:21Z</time>
      </trkpt>
      <trkpt lat="46.50545" lon="0.369">
        <ele>127.4</ele>
        <time>2023-01-15T10:38:23Z</time>
      </trkpt>
      <trkpt lat="46.50547" lon="0.36905">
        <ele>127.4</ele>
        <time>2023-01-15T10:38:24Z</time>
      </trkpt>
      <trkpt lat="46.50557" lon="0.3692">
        <ele>127.6</ele>
        <time>2023-01-15T10:38:28Z</time>
      </trkpt>
      <trkpt lat="46.50569" lon="0.36941">
        <ele>127</ele>
        <time>2023-01-15T10:38:33Z</time>
      </trkpt>
      <trkpt lat="46.50584" lon="0.36964">
        <ele>127.4</ele>
        <time>2023-01-15T10:38:39Z</time>
      </trkpt>
      <trkpt lat="46.50588" lon="0.36967">
        <ele>127.2</ele>
        <time>2023-01-15T10:38:40Z</time>
      </trkpt>
      <trkpt lat="46.50591" lon="0.36968">
        <ele>127.2</ele>
        <time>2023-01-15T10:38:41Z</time>
      </trkpt>
      <trkpt lat="46.50602" lon="0.36972">
        <ele>127.4</ele>
        <time>2023-01-15T10:38:44Z</time>
      </trkpt>
      <trkpt lat="46.50606" lon="0.36975">
        <ele>127.4</ele>
        <time>2023-01-15T10:38:45Z</time>
      </trkpt>
      <trkpt lat="46.50609" lon="0.36977">
        <ele>127.4</ele>
        <time>2023-01-15T10:38:46Z</time>
      </trkpt>
      <trkpt lat="46.50612" lon="0.36983">
        <ele>127.6</ele>
        <time>2023-01-15T10:38:48Z</time>
      </trkpt>
      <trkpt lat="46.50611" lon="0.36986">
        <ele>127.6</ele>
        <time>2023-01-15T10:38:49Z</time>
      </trkpt>
      <trkpt lat="46.50614" lon="0.37002">
        <ele>127.2</ele>
        <time>2023-01-15T10:38:54Z</time>
      </trkpt>
      <trkpt lat="46.50617" lon="0.37007">
        <ele>127</ele>
        <time>2023-01-15T10:38:56Z</time>
      </trkpt>
      <trkpt lat="46.50623" lon="0.3703">
        <ele>127.4</ele>
        <time>2023-01-15T10:39:02Z</time>
      </trkpt>
      <trkpt lat="46.50624" lon="0.37035">
        <ele>127.2</ele>
        <time>2023-01-15T10:39:03Z</time>
      </trkpt>
      <trkpt lat="46.5063" lon="0.37054">
        <ele>126.6</ele>
        <time>2023-01-15T10:39:07Z</time>
      </trkpt>
      <trkpt lat="46.50635" lon="0.37062">
        <ele>126</ele>
        <time>2023-01-15T10:39:09Z</time>
      </trkpt>
      <trkpt lat="46.50643" lon="0.37069">
        <ele>125.8</ele>
        <time>2023-01-15T10:39:12Z</time>
      </trkpt>
      <trkpt lat="46.50656" lon="0.37082">
        <ele>126.2</ele>
        <time>2023-01-15T10:39:18Z</time>
      </trkpt>
      <trkpt lat="46.50659" lon="0.37087">
        <ele>126</ele>
        <time>2023-01-15T10:39:21Z</time>
      </trkpt>
      <trkpt lat="46.50661" lon="0.37091">
        <ele>126</ele>
        <time>2023-01-15T10:39:23Z</time>
      </trkpt>
      <trkpt lat="46.5066" lon="0.37093">
        <ele>125.8</ele>
        <time>2023-01-15T10:39:24Z</time>
      </trkpt>
      <trkpt lat="46.50659" lon="0.37097">
        <ele>125.4</ele>
        <time>2023-01-15T10:39:27Z</time>
      </trkpt>
      <trkpt lat="46.50657" lon="0.37098">
        <ele>125.4</ele>
        <time>2023-01-15T10:39:28Z</time>
      </trkpt>
      <trkpt lat="46.50654" lon="0.37103">
        <ele>125.4</ele>
        <time>2023-01-15T10:39:31Z</time>
      </trkpt>
      <trkpt lat="46.50655" lon="0.37109">
        <ele>125.4</ele>
        <time>2023-01-15T10:39:33Z</time>
      </trkpt>
      <trkpt lat="46.50658" lon="0.37117">
        <ele>125.2</ele>
        <time>2023-01-15T10:39:35Z</time>
      </trkpt>
      <trkpt lat="46.50661" lon="0.37124">
        <ele>124.6</ele>
        <time>2023-01-15T10:39:37Z</time>
      </trkpt>
      <trkpt lat="46.5066" lon="0.37128">
        <ele>124</ele>
        <time>2023-01-15T10:39:39Z</time>
      </trkpt>
      <trkpt lat="46.50657" lon="0.37131">
        <ele>123.8</ele>
        <time>2023-01-15T10:39:41Z</time>
      </trkpt>
      <trkpt lat="46.50654" lon="0.37133">
        <ele>123.8</ele>
        <time>2023-01-15T10:39:43Z</time>
      </trkpt>
      <trkpt lat="46.50647" lon="0.3713">
        <ele>123.8</ele>
        <time>2023-01-15T10:39:46Z</time>
      </trkpt>
      <trkpt lat="46.50645" lon="0.3713">
        <ele>123.8</ele>
        <time>2023-01-15T10:39:47Z</time>
      </trkpt>
      <trkpt lat="46.50641" lon="0.37134">
        <ele>124</ele>
        <time>2023-01-15T10:39:49Z</time>
      </trkpt>
      <trkpt lat="46.5064" lon="0.37136">
        <ele>124</ele>
        <time>2023-01-15T10:39:50Z</time>
      </trkpt>
      <trkpt lat="46.50639" lon="0.37139">
        <ele>123.6</ele>
        <time>2023-01-15T10:39:51Z</time>
      </trkpt>
      <trkpt lat="46.50639" lon="0.37144">
        <ele>123.6</ele>
        <time>2023-01-15T10:39:52Z</time>
      </trkpt>
      <trkpt lat="46.50639" lon="0.37153">
        <ele>123</ele>
        <time>2023-01-15T10:39:54Z</time>
      </trkpt>
      <trkpt lat="46.50639" lon="0.37162">
        <ele>122.2</ele>
        <time>2023-01-15T10:39:56Z</time>
      </trkpt>
      <trkpt lat="46.50638" lon="0.37166">
        <ele>121.2</ele>
        <time>2023-01-15T10:39:57Z</time>
      </trkpt>
      <trkpt lat="46.50638" lon="0.3717">
        <ele>120.6</ele>
        <time>2023-01-15T10:39:58Z</time>
      </trkpt>
      <trkpt lat="46.50636" lon="0.37176">
        <ele>119.6</ele>
        <time>2023-01-15T10:40:00Z</time>
      </trkpt>
      <trkpt lat="46.50635" lon="0.37179">
        <ele>119.2</ele>
        <time>2023-01-15T10:40:01Z</time>
      </trkpt>
      <trkpt lat="46.50633" lon="0.37183">
        <ele>117.8</ele>
        <time>2023-01-15T10:40:03Z</time>
      </trkpt>
      <trkpt lat="46.50631" lon="0.37191">
        <ele>116.6</ele>
        <time>2023-01-15T10:40:06Z</time>
      </trkpt>
      <trkpt lat="46.50631" lon="0.37194">
        <ele>116.4</ele>
        <time>2023-01-15T10:40:08Z</time>
      </trkpt>
      <trkpt lat="46.50633" lon="0.37202">
        <ele>116.2</ele>
        <time>2023-01-15T10:40:12Z</time>
      </trkpt>
      <trkpt lat="46.50634" lon="0.37209">
        <ele>116.4</ele>
        <time>2023-01-15T10:40:15Z</time>
      </trkpt>
      <trkpt lat="46.50633" lon="0.37216">
        <ele>116.2</ele>
        <time>2023-01-15T10:40:17Z</time>
      </trkpt>
      <trkpt lat="46.50631" lon="0.37231">
        <ele>116.2</ele>
        <time>2023-01-15T10:40:21Z</time>
      </trkpt>
      <trkpt lat="46.50628" lon="0.3724">
        <ele>116.6</ele>
        <time>2023-01-15T10:40:23Z</time>
      </trkpt>
      <trkpt lat="46.50621" lon="0.37251">
        <ele>118</ele>
        <time>2023-01-15T10:40:26Z</time>
      </trkpt>
      <trkpt lat="46.50614" lon="0.3726">
        <ele>119</ele>
        <time>2023-01-15T10:40:29Z</time>
      </trkpt>
      <trkpt lat="46.50601" lon="0.37271">
        <ele>120.4</ele>
        <time>2023-01-15T10:40:35Z</time>
      </trkpt>
      <trkpt lat="46.50589" lon="0.37281">
        <ele>121.6</ele>
        <time>2023-01-15T10:40:42Z</time>
      </trkpt>
      <trkpt lat="46.50581" lon="0.37289">
        <ele>122.2</ele>
        <time>2023-01-15T10:40:47Z</time>
      </trkpt>
      <trkpt lat="46.50576" lon="0.37293">
        <ele>122.6</ele>
        <time>2023-01-15T10:40:49Z</time>
      </trkpt>
      <trkpt lat="46.50556" lon="0.37309">
        <ele>123.6</ele>
        <time>2023-01-15T10:40:57Z</time>
      </trkpt>
      <trkpt lat="46.50554" lon="0.37311">
        <ele>123.8</ele>
        <time>2023-01-15T10:40:58Z</time>
      </trkpt>
      <trkpt lat="46.5054" lon="0.37328">
        <ele>124.2</ele>
        <time>2023-01-15T10:41:03Z</time>
      </trkpt>
      <trkpt lat="46.50525" lon="0.37336">
        <ele>124.6</ele>
        <time>2023-01-15T10:41:08Z</time>
      </trkpt>
      <trkpt lat="46.50514" lon="0.37349">
        <ele>124.6</ele>
        <time>2023-01-15T10:41:13Z</time>
      </trkpt>
      <trkpt lat="46.50514" lon="0.37354">
        <ele>124.6</ele>
        <time>2023-01-15T10:41:14Z</time>
      </trkpt>
      <trkpt lat="46.50516" lon="0.37361">
        <ele>124.8</ele>
        <time>2023-01-15T10:41:19Z</time>
      </trkpt>
      <trkpt lat="46.50512" lon="0.37382">
        <ele>124.4</ele>
        <time>2023-01-15T10:41:25Z</time>
      </trkpt>
      <trkpt lat="46.50509" lon="0.3739">
        <ele>124.4</ele>
        <time>2023-01-15T10:41:27Z</time>
      </trkpt>
      <trkpt lat="46.50507" lon="0.37407">
        <ele>124.2</ele>
        <time>2023-01-15T10:41:31Z</time>
      </trkpt>
      <trkpt lat="46.50501" lon="0.3742">
        <ele>124</ele>
        <time>2023-01-15T10:41:34Z</time>
      </trkpt>
      <trkpt lat="46.50496" lon="0.37425">
        <ele>124</ele>
        <time>2023-01-15T10:41:36Z</time>
      </trkpt>
      <trkpt lat="46.50488" lon="0.37432">
        <ele>124.2</ele>
        <time>2023-01-15T10:41:38Z</time>
      </trkpt>
      <trkpt lat="46.50481" lon="0.37434">
        <ele>124.2</ele>
        <time>2023-01-15T10:41:40Z</time>
      </trkpt>
      <trkpt lat="46.50479" lon="0.37435">
        <ele>124.2</ele>
        <time>2023-01-15T10:41:41Z</time>
      </trkpt>
      <trkpt lat="46.50472" lon="0.37438">
        <ele>124</ele>
        <time>2023-01-15T10:41:44Z</time>
      </trkpt>
      <trkpt lat="46.50468" lon="0.37443">
        <ele>123.6</ele>
        <time>2023-01-15T10:41:46Z</time>
      </trkpt>
      <trkpt lat="46.50463" lon="0.37449">
        <ele>123.4</ele>
        <time>2023-01-15T10:41:48Z</time>
      </trkpt>
      <trkpt lat="46.50458" lon="0.37454">
        <ele>123.2</ele>
        <time>2023-01-15T10:41:50Z</time>
      </trkpt>
      <trkpt lat="46.50451" lon="0.3746">
        <ele>123</ele>
        <time>2023-01-15T10:41:52Z</time>
      </trkpt>
      <trkpt lat="46.50448" lon="0.37466">
        <ele>122.6</ele>
        <time>2023-01-15T10:41:54Z</time>
      </trkpt>
      <trkpt lat="46.50446" lon="0.37473">
        <ele>122.2</ele>
        <time>2023-01-15T10:41:56Z</time>
      </trkpt>
      <trkpt lat="46.50445" lon="0.37475">
        <ele>122</ele>
        <time>2023-01-15T10:41:57Z</time>
      </trkpt>
      <trkpt lat="46.5044" lon="0.37486">
        <ele>121</ele>
        <time>2023-01-15T10:42:00Z</time>
      </trkpt>
      <trkpt lat="46.50437" lon="0.37489">
        <ele>120.6</ele>
        <time>2023-01-15T10:42:01Z</time>
      </trkpt>
      <trkpt lat="46.5043" lon="0.37499">
        <ele>119.8</ele>
        <time>2023-01-15T10:42:03Z</time>
      </trkpt>
      <trkpt lat="46.50427" lon="0.37502">
        <ele>119.2</ele>
        <time>2023-01-15T10:42:04Z</time>
      </trkpt>
      <trkpt lat="46.50422" lon="0.37515">
        <ele>118.8</ele>
        <time>2023-01-15T10:42:06Z</time>
      </trkpt>
      <trkpt lat="46.5042" lon="0.37522">
        <ele>118.8</ele>
        <time>2023-01-15T10:42:07Z</time>
      </trkpt>
      <trkpt lat="46.50415" lon="0.37545">
        <ele>119</ele>
        <time>2023-01-15T10:42:10Z</time>
      </trkpt>
      <trkpt lat="46.50415" lon="0.37552">
        <ele>119.2</ele>
        <time>2023-01-15T10:42:11Z</time>
      </trkpt>
      <trkpt lat="46.50415" lon="0.37574">
        <ele>119.8</ele>
        <time>2023-01-15T10:42:14Z</time>
      </trkpt>
      <trkpt lat="46.50415" lon="0.37598">
        <ele>120.8</ele>
        <time>2023-01-15T10:42:17Z</time>
      </trkpt>
      <trkpt lat="46.50416" lon="0.3762">
        <ele>121.2</ele>
        <time>2023-01-15T10:42:20Z</time>
      </trkpt>
      <trkpt lat="46.50415" lon="0.37633">
        <ele>121.8</ele>
        <time>2023-01-15T10:42:22Z</time>
      </trkpt>
      <trkpt lat="46.50415" lon="0.3764">
        <ele>122.2</ele>
        <time>2023-01-15T10:42:23Z</time>
      </trkpt>
      <trkpt lat="46.50416" lon="0.37645">
        <ele>122.4</ele>
        <time>2023-01-15T10:42:24Z</time>
      </trkpt>
      <trkpt lat="46.50417" lon="0.37663">
        <ele>122.8</ele>
        <time>2023-01-15T10:42:27Z</time>
      </trkpt>
      <trkpt lat="46.50417" lon="0.37674">
        <ele>123</ele>
        <time>2023-01-15T10:42:29Z</time>
      </trkpt>
      <trkpt lat="46.50416" lon="0.37721">
        <ele>124</ele>
        <time>2023-01-15T10:42:36Z</time>
      </trkpt>
      <trkpt lat="46.50417" lon="0.3774">
        <ele>124.2</ele>
        <time>2023-01-15T10:42:39Z</time>
      </trkpt>
      <trkpt lat="46.50418" lon="0.3776">
        <ele>124.4</ele>
        <time>2023-01-15T10:42:42Z</time>
      </trkpt>
      <trkpt lat="46.5042" lon="0.37799">
        <ele>124.4</ele>
        <time>2023-01-15T10:42:48Z</time>
      </trkpt>
      <trkpt lat="46.50421" lon="0.37805">
        <ele>124.2</ele>
        <time>2023-01-15T10:42:49Z</time>
      </trkpt>
      <trkpt lat="46.50429" lon="0.37825">
        <ele>123.8</ele>
        <time>2023-01-15T10:42:52Z</time>
      </trkpt>
      <trkpt lat="46.50434" lon="0.37837">
        <ele>123.8</ele>
        <time>2023-01-15T10:42:54Z</time>
      </trkpt>
      <trkpt lat="46.50436" lon="0.37845">
        <ele>123.8</ele>
        <time>2023-01-15T10:42:55Z</time>
      </trkpt>
      <trkpt lat="46.50444" lon="0.37882">
        <ele>124.2</ele>
        <time>2023-01-15T10:43:00Z</time>
      </trkpt>
      <trkpt lat="46.50458" lon="0.37928">
        <ele>124.4</ele>
        <time>2023-01-15T10:43:06Z</time>
      </trkpt>
      <trkpt lat="46.5047" lon="0.37977">
        <ele>124.8</ele>
        <time>2023-01-15T10:43:13Z</time>
      </trkpt>
      <trkpt lat="46.50473" lon="0.37993">
        <ele>125</ele>
        <time>2023-01-15T10:43:15Z</time>
      </trkpt>
      <trkpt lat="46.50482" lon="0.38021">
        <ele>125</ele>
        <time>2023-01-15T10:43:19Z</time>
      </trkpt>
      <trkpt lat="46.50484" lon="0.38027">
        <ele>125</ele>
        <time>2023-01-15T10:43:20Z</time>
      </trkpt>
      <trkpt lat="46.50492" lon="0.38058">
        <ele>125</ele>
        <time>2023-01-15T10:43:26Z</time>
      </trkpt>
      <trkpt lat="46.50504" lon="0.38073">
        <ele>124.6</ele>
        <time>2023-01-15T10:43:30Z</time>
      </trkpt>
      <trkpt lat="46.50516" lon="0.38086">
        <ele>124.2</ele>
        <time>2023-01-15T10:43:33Z</time>
      </trkpt>
      <trkpt lat="46.50518" lon="0.38094">
        <ele>124</ele>
        <time>2023-01-15T10:43:34Z</time>
      </trkpt>
      <trkpt lat="46.5052" lon="0.38097">
        <ele>123.8</ele>
        <time>2023-01-15T10:43:35Z</time>
      </trkpt>
      <trkpt lat="46.50529" lon="0.38123">
        <ele>123</ele>
        <time>2023-01-15T10:43:41Z</time>
      </trkpt>
      <trkpt lat="46.5053" lon="0.38131">
        <ele>123</ele>
        <time>2023-01-15T10:43:42Z</time>
      </trkpt>
      <trkpt lat="46.50532" lon="0.38137">
        <ele>123</ele>
        <time>2023-01-15T10:43:43Z</time>
      </trkpt>
      <trkpt lat="46.50543" lon="0.38159">
        <ele>122.4</ele>
        <time>2023-01-15T10:43:46Z</time>
      </trkpt>
      <trkpt lat="46.5055" lon="0.38171">
        <ele>122</ele>
        <time>2023-01-15T10:43:48Z</time>
      </trkpt>
      <trkpt lat="46.50557" lon="0.38187">
        <ele>120.8</ele>
        <time>2023-01-15T10:43:51Z</time>
      </trkpt>
      <trkpt lat="46.50559" lon="0.38192">
        <ele>120.4</ele>
        <time>2023-01-15T10:43:52Z</time>
      </trkpt>
      <trkpt lat="46.50567" lon="0.38216">
        <ele>119.6</ele>
        <time>2023-01-15T10:43:55Z</time>
      </trkpt>
      <trkpt lat="46.5057" lon="0.38235">
        <ele>119</ele>
        <time>2023-01-15T10:43:57Z</time>
      </trkpt>
      <trkpt lat="46.50582" lon="0.38249">
        <ele>118.4</ele>
        <time>2023-01-15T10:43:59Z</time>
      </trkpt>
      <trkpt lat="46.50589" lon="0.38257">
        <ele>118.2</ele>
        <time>2023-01-15T10:44:00Z</time>
      </trkpt>
      <trkpt lat="46.50605" lon="0.38272">
        <ele>117.6</ele>
        <time>2023-01-15T10:44:03Z</time>
      </trkpt>
      <trkpt lat="46.50617" lon="0.38283">
        <ele>117.4</ele>
        <time>2023-01-15T10:44:05Z</time>
      </trkpt>
      <trkpt lat="46.50622" lon="0.38289">
        <ele>117.2</ele>
        <time>2023-01-15T10:44:06Z</time>
      </trkpt>
      <trkpt lat="46.50635" lon="0.38303">
        <ele>116.2</ele>
        <time>2023-01-15T10:44:09Z</time>
      </trkpt>
      <trkpt lat="46.50644" lon="0.38311">
        <ele>115.6</ele>
        <time>2023-01-15T10:44:11Z</time>
      </trkpt>
      <trkpt lat="46.50652" lon="0.38318">
        <ele>115.6</ele>
        <time>2023-01-15T10:44:13Z</time>
      </trkpt>
      <trkpt lat="46.50655" lon="0.38319">
        <ele>115.2</ele>
        <time>2023-01-15T10:44:14Z</time>
      </trkpt>
      <trkpt lat="46.50667" lon="0.38319">
        <ele>116</ele>
        <time>2023-01-15T10:44:19Z</time>
      </trkpt>
      <trkpt lat="46.50671" lon="0.38318">
        <ele>116.2</ele>
        <time>2023-01-15T10:44:20Z</time>
      </trkpt>
      <trkpt lat="46.50675" lon="0.38319">
        <ele>116.4</ele>
        <time>2023-01-15T10:44:21Z</time>
      </trkpt>
      <trkpt lat="46.50685" lon="0.38321">
        <ele>116.6</ele>
        <time>2023-01-15T10:44:24Z</time>
      </trkpt>
      <trkpt lat="46.50689" lon="0.38324">
        <ele>116.8</ele>
        <time>2023-01-15T10:44:25Z</time>
      </trkpt>
      <trkpt lat="46.50693" lon="0.38327">
        <ele>116.8</ele>
        <time>2023-01-15T10:44:26Z</time>
      </trkpt>
      <trkpt lat="46.507" lon="0.38336">
        <ele>116.6</ele>
        <time>2023-01-15T10:44:28Z</time>
      </trkpt>
      <trkpt lat="46.50702" lon="0.3834">
        <ele>116.2</ele>
        <time>2023-01-15T10:44:29Z</time>
      </trkpt>
      <trkpt lat="46.50712" lon="0.38351">
        <ele>115.8</ele>
        <time>2023-01-15T10:44:31Z</time>
      </trkpt>
      <trkpt lat="46.50717" lon="0.38357">
        <ele>115</ele>
        <time>2023-01-15T10:44:32Z</time>
      </trkpt>
      <trkpt lat="46.50726" lon="0.38365">
        <ele>114</ele>
        <time>2023-01-15T10:44:34Z</time>
      </trkpt>
      <trkpt lat="46.50732" lon="0.38369">
        <ele>113.6</ele>
        <time>2023-01-15T10:44:35Z</time>
      </trkpt>
      <trkpt lat="46.50736" lon="0.38372">
        <ele>113.4</ele>
        <time>2023-01-15T10:44:36Z</time>
      </trkpt>
      <trkpt lat="46.50748" lon="0.3838">
        <ele>112.8</ele>
        <time>2023-01-15T10:44:39Z</time>
      </trkpt>
      <trkpt lat="46.50758" lon="0.38383">
        <ele>113</ele>
        <time>2023-01-15T10:44:41Z</time>
      </trkpt>
      <trkpt lat="46.50771" lon="0.38384">
        <ele>113.6</ele>
        <time>2023-01-15T10:44:44Z</time>
      </trkpt>
      <trkpt lat="46.50773" lon="0.38384">
        <ele>113.6</ele>
        <time>2023-01-15T10:44:45Z</time>
      </trkpt>
      <trkpt lat="46.50787" lon="0.38388">
        <ele>114</ele>
        <time>2023-01-15T10:44:48Z</time>
      </trkpt>
      <trkpt lat="46.50792" lon="0.38388">
        <ele>114</ele>
        <time>2023-01-15T10:44:49Z</time>
      </trkpt>
      <trkpt lat="46.50795" lon="0.38387">
        <ele>114.2</ele>
        <time>2023-01-15T10:44:50Z</time>
      </trkpt>
      <trkpt lat="46.50801" lon="0.38387">
        <ele>114.2</ele>
        <time>2023-01-15T10:44:52Z</time>
      </trkpt>
      <trkpt lat="46.50811" lon="0.3839">
        <ele>114</ele>
        <time>2023-01-15T10:44:54Z</time>
      </trkpt>
      <trkpt lat="46.50823" lon="0.38401">
        <ele>113</ele>
        <time>2023-01-15T10:44:59Z</time>
      </trkpt>
      <trkpt lat="46.50827" lon="0.38405">
        <ele>112.6</ele>
        <time>2023-01-15T10:45:01Z</time>
      </trkpt>
      <trkpt lat="46.5083" lon="0.38405">
        <ele>112.4</ele>
        <time>2023-01-15T10:45:02Z</time>
      </trkpt>
      <trkpt lat="46.50835" lon="0.38404">
        <ele>112.2</ele>
        <time>2023-01-15T10:45:04Z</time>
      </trkpt>
      <trkpt lat="46.50841" lon="0.38402">
        <ele>112.6</ele>
        <time>2023-01-15T10:45:08Z</time>
      </trkpt>
      <trkpt lat="46.50844" lon="0.384">
        <ele>112.6</ele>
        <time>2023-01-15T10:45:11Z</time>
      </trkpt>
      <trkpt lat="46.50852" lon="0.38394">
        <ele>112.4</ele>
        <time>2023-01-15T10:45:16Z</time>
      </trkpt>
      <trkpt lat="46.50854" lon="0.38393">
        <ele>112.4</ele>
        <time>2023-01-15T10:45:17Z</time>
      </trkpt>
      <trkpt lat="46.50862" lon="0.38392">
        <ele>112.6</ele>
        <time>2023-01-15T10:45:20Z</time>
      </trkpt>
      <trkpt lat="46.50865" lon="0.38392">
        <ele>112.6</ele>
        <time>2023-01-15T10:45:21Z</time>
      </trkpt>
      <trkpt lat="46.5087" lon="0.38391">
        <ele>112.6</ele>
        <time>2023-01-15T10:45:24Z</time>
      </trkpt>
      <trkpt lat="46.50873" lon="0.38388">
        <ele>112.4</ele>
        <time>2023-01-15T10:45:26Z</time>
      </trkpt>
      <trkpt lat="46.50879" lon="0.38379">
        <ele>112.2</ele>
        <time>2023-01-15T10:45:31Z</time>
      </trkpt>
      <trkpt lat="46.50881" lon="0.38378">
        <ele>112.2</ele>
        <time>2023-01-15T10:45:32Z</time>
      </trkpt>
      <trkpt lat="46.50882" lon="0.38377">
        <ele>112.2</ele>
        <time>2023-01-15T10:45:33Z</time>
      </trkpt>
      <trkpt lat="46.50886" lon="0.38375">
        <ele>112.2</ele>
        <time>2023-01-15T10:45:35Z</time>
      </trkpt>
      <trkpt lat="46.50891" lon="0.38372">
        <ele>112</ele>
        <time>2023-01-15T10:45:38Z</time>
      </trkpt>
      <trkpt lat="46.509" lon="0.38364">
        <ele>111.6</ele>
        <time>2023-01-15T10:45:43Z</time>
      </trkpt>
      <trkpt lat="46.50904" lon="0.38361">
        <ele>111.4</ele>
        <time>2023-01-15T10:45:45Z</time>
      </trkpt>
      <trkpt lat="46.50915" lon="0.38351">
        <ele>110.4</ele>
        <time>2023-01-15T10:45:50Z</time>
      </trkpt>
      <trkpt lat="46.5092" lon="0.38346">
        <ele>110.2</ele>
        <time>2023-01-15T10:45:52Z</time>
      </trkpt>
      <trkpt lat="46.50936" lon="0.38329">
        <ele>109.6</ele>
        <time>2023-01-15T10:45:59Z</time>
      </trkpt>
      <trkpt lat="46.5094" lon="0.38309">
        <ele>109.8</ele>
        <time>2023-01-15T10:46:05Z</time>
      </trkpt>
      <trkpt lat="46.50942" lon="0.38305">
        <ele>109.8</ele>
        <time>2023-01-15T10:46:06Z</time>
      </trkpt>
      <trkpt lat="46.50947" lon="0.38289">
        <ele>110.4</ele>
        <time>2023-01-15T10:46:11Z</time>
      </trkpt>
      <trkpt lat="46.50949" lon="0.38276">
        <ele>110.6</ele>
        <time>2023-01-15T10:46:16Z</time>
      </trkpt>
      <trkpt lat="46.5096" lon="0.38259">
        <ele>111</ele>
        <time>2023-01-15T10:46:21Z</time>
      </trkpt>
      <trkpt lat="46.50973" lon="0.38242">
        <ele>111.2</ele>
        <time>2023-01-15T10:46:27Z</time>
      </trkpt>
      <trkpt lat="46.50986" lon="0.38223">
        <ele>111.4</ele>
        <time>2023-01-15T10:46:33Z</time>
      </trkpt>
      <trkpt lat="46.5099" lon="0.38217">
        <ele>111.6</ele>
        <time>2023-01-15T10:46:35Z</time>
      </trkpt>
      <trkpt lat="46.51007" lon="0.38192">
        <ele>111.6</ele>
        <time>2023-01-15T10:46:42Z</time>
      </trkpt>
      <trkpt lat="46.51018" lon="0.38176">
        <ele>111.2</ele>
        <time>2023-01-15T10:46:47Z</time>
      </trkpt>
      <trkpt lat="46.51023" lon="0.38166">
        <ele>112.6</ele>
        <time>2023-01-15T10:46:51Z</time>
      </trkpt>
      <trkpt lat="46.51027" lon="0.38158">
        <ele>112.8</ele>
        <time>2023-01-15T10:46:53Z</time>
      </trkpt>
      <trkpt lat="46.51031" lon="0.38143">
        <ele>113.6</ele>
        <time>2023-01-15T10:46:57Z</time>
      </trkpt>
      <trkpt lat="46.51034" lon="0.38134">
        <ele>113.8</ele>
        <time>2023-01-15T10:47:00Z</time>
      </trkpt>
      <trkpt lat="46.51041" lon="0.38116">
        <ele>112.8</ele>
        <time>2023-01-15T10:47:05Z</time>
      </trkpt>
      <trkpt lat="46.51042" lon="0.38113">
        <ele>112.6</ele>
        <time>2023-01-15T10:47:06Z</time>
      </trkpt>
      <trkpt lat="46.51053" lon="0.38101">
        <ele>111.8</ele>
        <time>2023-01-15T10:47:11Z</time>
      </trkpt>
      <trkpt lat="46.51066" lon="0.38095">
        <ele>111.4</ele>
        <time>2023-01-15T10:47:14Z</time>
      </trkpt>
      <trkpt lat="46.51071" lon="0.38091">
        <ele>111</ele>
        <time>2023-01-15T10:47:16Z</time>
      </trkpt>
      <trkpt lat="46.51077" lon="0.38081">
        <ele>109.8</ele>
        <time>2023-01-15T10:47:19Z</time>
      </trkpt>
      <trkpt lat="46.51079" lon="0.38077">
        <ele>109.6</ele>
        <time>2023-01-15T10:47:20Z</time>
      </trkpt>
      <trkpt lat="46.51081" lon="0.38074">
        <ele>109.4</ele>
        <time>2023-01-15T10:47:21Z</time>
      </trkpt>
      <trkpt lat="46.51084" lon="0.3807">
        <ele>108.8</ele>
        <time>2023-01-15T10:47:22Z</time>
      </trkpt>
      <trkpt lat="46.51091" lon="0.38063">
        <ele>108.2</ele>
        <time>2023-01-15T10:47:24Z</time>
      </trkpt>
      <trkpt lat="46.51098" lon="0.38056">
        <ele>107</ele>
        <time>2023-01-15T10:47:26Z</time>
      </trkpt>
      <trkpt lat="46.51104" lon="0.38049">
        <ele>105.6</ele>
        <time>2023-01-15T10:47:28Z</time>
      </trkpt>
      <trkpt lat="46.51109" lon="0.38042">
        <ele>104.2</ele>
        <time>2023-01-15T10:47:30Z</time>
      </trkpt>
      <trkpt lat="46.51114" lon="0.38036">
        <ele>103</ele>
        <time>2023-01-15T10:47:32Z</time>
      </trkpt>
      <trkpt lat="46.51116" lon="0.38031">
        <ele>101.4</ele>
        <time>2023-01-15T10:47:34Z</time>
      </trkpt>
      <trkpt lat="46.51119" lon="0.38026">
        <ele>100.2</ele>
        <time>2023-01-15T10:47:36Z</time>
      </trkpt>
      <trkpt lat="46.51122" lon="0.38022">
        <ele>99.2</ele>
        <time>2023-01-15T10:47:38Z</time>
      </trkpt>
      <trkpt lat="46.51123" lon="0.38021">
        <ele>98</ele>
        <time>2023-01-15T10:47:39Z</time>
      </trkpt>
      <trkpt lat="46.51126" lon="0.3802">
        <ele>97.6</ele>
        <time>2023-01-15T10:47:40Z</time>
      </trkpt>
      <trkpt lat="46.51132" lon="0.38018">
        <ele>96.8</ele>
        <time>2023-01-15T10:47:42Z</time>
      </trkpt>
      <trkpt lat="46.51143" lon="0.38019">
        <ele>95.8</ele>
        <time>2023-01-15T10:47:45Z</time>
      </trkpt>
      <trkpt lat="46.51153" lon="0.38022">
        <ele>94.8</ele>
        <time>2023-01-15T10:47:48Z</time>
      </trkpt>
      <trkpt lat="46.51158" lon="0.38024">
        <ele>94.6</ele>
        <time>2023-01-15T10:47:49Z</time>
      </trkpt>
      <trkpt lat="46.51161" lon="0.38025">
        <ele>94.2</ele>
        <time>2023-01-15T10:47:50Z</time>
      </trkpt>
      <trkpt lat="46.51169" lon="0.38031">
        <ele>93</ele>
        <time>2023-01-15T10:47:52Z</time>
      </trkpt>
      <trkpt lat="46.51178" lon="0.38036">
        <ele>92.4</ele>
        <time>2023-01-15T10:47:53Z</time>
      </trkpt>
      <trkpt lat="46.51189" lon="0.38043">
        <ele>91.8</ele>
        <time>2023-01-15T10:47:54Z</time>
      </trkpt>
      <trkpt lat="46.51208" lon="0.38054">
        <ele>90.6</ele>
        <time>2023-01-15T10:47:56Z</time>
      </trkpt>
      <trkpt lat="46.51215" lon="0.38058">
        <ele>90.2</ele>
        <time>2023-01-15T10:47:57Z</time>
      </trkpt>
      <trkpt lat="46.51239" lon="0.3807">
        <ele>89.6</ele>
        <time>2023-01-15T10:48:00Z</time>
      </trkpt>
      <trkpt lat="46.51265" lon="0.38078">
        <ele>89.2</ele>
        <time>2023-01-15T10:48:03Z</time>
      </trkpt>
      <trkpt lat="46.51312" lon="0.38085">
        <ele>88.8</ele>
        <time>2023-01-15T10:48:09Z</time>
      </trkpt>
      <trkpt lat="46.51325" lon="0.38088">
        <ele>88.6</ele>
        <time>2023-01-15T10:48:11Z</time>
      </trkpt>
      <trkpt lat="46.51346" lon="0.38094">
        <ele>88.2</ele>
        <time>2023-01-15T10:48:15Z</time>
      </trkpt>
      <trkpt lat="46.51366" lon="0.38109">
        <ele>87.6</ele>
        <time>2023-01-15T10:48:20Z</time>
      </trkpt>
      <trkpt lat="46.51372" lon="0.38114">
        <ele>87.6</ele>
        <time>2023-01-15T10:48:21Z</time>
      </trkpt>
      <trkpt lat="46.51381" lon="0.38123">
        <ele>87</ele>
        <time>2023-01-15T10:48:24Z</time>
      </trkpt>
      <trkpt lat="46.51383" lon="0.38126">
        <ele>86.8</ele>
        <time>2023-01-15T10:48:25Z</time>
      </trkpt>
      <trkpt lat="46.51388" lon="0.38137">
        <ele>86.4</ele>
        <time>2023-01-15T10:48:29Z</time>
      </trkpt>
      <trkpt lat="46.5139" lon="0.38141">
        <ele>86.4</ele>
        <time>2023-01-15T10:48:31Z</time>
      </trkpt>
      <trkpt lat="46.51394" lon="0.38147">
        <ele>86</ele>
        <time>2023-01-15T10:48:38Z</time>
      </trkpt>
      <trkpt lat="46.51401" lon="0.38148">
        <ele>86.4</ele>
        <time>2023-01-15T10:48:46Z</time>
      </trkpt>
      <trkpt lat="46.51401" lon="0.38148">
        <ele>86.4</ele>
        <time>2023-01-15T10:48:47Z</time>
      </trkpt>
      <trkpt lat="46.51406" lon="0.38151">
        <ele>86.6</ele>
        <time>2023-01-15T10:48:52Z</time>
      </trkpt>
      <trkpt lat="46.51408" lon="0.38153">
        <ele>86.4</ele>
        <time>2023-01-15T10:48:54Z</time>
      </trkpt>
      <trkpt lat="46.51411" lon="0.38157">
        <ele>86.4</ele>
        <time>2023-01-15T10:48:57Z</time>
      </trkpt>
      <trkpt lat="46.51426" lon="0.38163">
        <ele>86.4</ele>
        <time>2023-01-15T10:49:08Z</time>
      </trkpt>
      <trkpt lat="46.51443" lon="0.38167">
        <ele>86.8</ele>
        <time>2023-01-15T10:49:17Z</time>
      </trkpt>
      <trkpt lat="46.5145" lon="0.38165">
        <ele>87</ele>
        <time>2023-01-15T10:49:21Z</time>
      </trkpt>
      <trkpt lat="46.51454" lon="0.38162">
        <ele>87.2</ele>
        <time>2023-01-15T10:49:23Z</time>
      </trkpt>
      <trkpt lat="46.51459" lon="0.38163">
        <ele>87.2</ele>
        <time>2023-01-15T10:49:26Z</time>
      </trkpt>
      <trkpt lat="46.51463" lon="0.38165">
        <ele>87.4</ele>
        <time>2023-01-15T10:49:28Z</time>
      </trkpt>
      <trkpt lat="46.51466" lon="0.38167">
        <ele>87.2</ele>
        <time>2023-01-15T10:49:30Z</time>
      </trkpt>
      <trkpt lat="46.51477" lon="0.38178">
        <ele>87.2</ele>
        <time>2023-01-15T10:49:35Z</time>
      </trkpt>
      <trkpt lat="46.51478" lon="0.3818">
        <ele>87.2</ele>
        <time>2023-01-15T10:49:36Z</time>
      </trkpt>
      <trkpt lat="46.51481" lon="0.3818">
        <ele>87.2</ele>
        <time>2023-01-15T10:49:38Z</time>
      </trkpt>
      <trkpt lat="46.51483" lon="0.3818">
        <ele>87</ele>
        <time>2023-01-15T10:49:39Z</time>
      </trkpt>
      <trkpt lat="46.51484" lon="0.38179">
        <ele>87</ele>
        <time>2023-01-15T10:49:40Z</time>
      </trkpt>
      <trkpt lat="46.51488" lon="0.38179">
        <ele>87</ele>
        <time>2023-01-15T10:49:42Z</time>
      </trkpt>
      <trkpt lat="46.51493" lon="0.38181">
        <ele>87.2</ele>
        <time>2023-01-15T10:49:44Z</time>
      </trkpt>
      <trkpt lat="46.51502" lon="0.38185">
        <ele>87.2</ele>
        <time>2023-01-15T10:49:47Z</time>
      </trkpt>
      <trkpt lat="46.51507" lon="0.38185">
        <ele>87.2</ele>
        <time>2023-01-15T10:49:49Z</time>
      </trkpt>
      <trkpt lat="46.51516" lon="0.38192">
        <ele>87.2</ele>
        <time>2023-01-15T10:49:54Z</time>
      </trkpt>
      <trkpt lat="46.51535" lon="0.38202">
        <ele>87.2</ele>
        <time>2023-01-15T10:50:01Z</time>
      </trkpt>
      <trkpt lat="46.51555" lon="0.38213">
        <ele>87.2</ele>
        <time>2023-01-15T10:50:07Z</time>
      </trkpt>
      <trkpt lat="46.51567" lon="0.38222">
        <ele>87</ele>
        <time>2023-01-15T10:50:11Z</time>
      </trkpt>
      <trkpt lat="46.51577" lon="0.38227">
        <ele>87</ele>
        <time>2023-01-15T10:50:17Z</time>
      </trkpt>
      <trkpt lat="46.51591" lon="0.38235">
        <ele>86.8</ele>
        <time>2023-01-15T10:50:23Z</time>
      </trkpt>
      <trkpt lat="46.51593" lon="0.38236">
        <ele>86.8</ele>
        <time>2023-01-15T10:50:24Z</time>
      </trkpt>
      <trkpt lat="46.51602" lon="0.38242">
        <ele>86.6</ele>
        <time>2023-01-15T10:50:28Z</time>
      </trkpt>
      <trkpt lat="46.51605" lon="0.38241">
        <ele>86.6</ele>
        <time>2023-01-15T10:50:29Z</time>
      </trkpt>
      <trkpt lat="46.51607" lon="0.38241">
        <ele>86.6</ele>
        <time>2023-01-15T10:50:30Z</time>
      </trkpt>
      <trkpt lat="46.51621" lon="0.38242">
        <ele>87</ele>
        <time>2023-01-15T10:50:37Z</time>
      </trkpt>
      <trkpt lat="46.51641" lon="0.38252">
        <ele>86.4</ele>
        <time>2023-01-15T10:50:44Z</time>
      </trkpt>
      <trkpt lat="46.51658" lon="0.38265">
        <ele>86.2</ele>
        <time>2023-01-15T10:50:50Z</time>
      </trkpt>
      <trkpt lat="46.5167" lon="0.38271">
        <ele>86.6</ele>
        <time>2023-01-15T10:50:56Z</time>
      </trkpt>
      <trkpt lat="46.51684" lon="0.38282">
        <ele>87.2</ele>
        <time>2023-01-15T10:51:02Z</time>
      </trkpt>
      <trkpt lat="46.51692" lon="0.3829">
        <ele>87.6</ele>
        <time>2023-01-15T10:51:06Z</time>
      </trkpt>
      <trkpt lat="46.51695" lon="0.38295">
        <ele>87.6</ele>
        <time>2023-01-15T10:51:08Z</time>
      </trkpt>
      <trkpt lat="46.51701" lon="0.38307">
        <ele>88.2</ele>
        <time>2023-01-15T10:51:15Z</time>
      </trkpt>
      <trkpt lat="46.51704" lon="0.38311">
        <ele>88.6</ele>
        <time>2023-01-15T10:51:17Z</time>
      </trkpt>
      <trkpt lat="46.51706" lon="0.38313">
        <ele>89</ele>
        <time>2023-01-15T10:51:19Z</time>
      </trkpt>
      <trkpt lat="46.51708" lon="0.38317">
        <ele>89.8</ele>
        <time>2023-01-15T10:51:22Z</time>
      </trkpt>
      <trkpt lat="46.51714" lon="0.3832">
        <ele>90</ele>
        <time>2023-01-15T10:51:24Z</time>
      </trkpt>
      <trkpt lat="46.51724" lon="0.38325">
        <ele>90.8</ele>
        <time>2023-01-15T10:51:27Z</time>
      </trkpt>
      <trkpt lat="46.51729" lon="0.38327">
        <ele>91.2</ele>
        <time>2023-01-15T10:51:28Z</time>
      </trkpt>
      <trkpt lat="46.51734" lon="0.3833">
        <ele>91.6</ele>
        <time>2023-01-15T10:51:30Z</time>
      </trkpt>
      <trkpt lat="46.51739" lon="0.38334">
        <ele>92</ele>
        <time>2023-01-15T10:51:32Z</time>
      </trkpt>
      <trkpt lat="46.51754" lon="0.38343">
        <ele>92.8</ele>
        <time>2023-01-15T10:51:39Z</time>
      </trkpt>
      <trkpt lat="46.5176" lon="0.38347">
        <ele>93.2</ele>
        <time>2023-01-15T10:51:42Z</time>
      </trkpt>
      <trkpt lat="46.5176" lon="0.38347">
        <ele>93.6</ele>
        <time>2023-01-15T10:51:43Z</time>
      </trkpt>
      <trkpt lat="46.51764" lon="0.38349">
        <ele>94</ele>
        <time>2023-01-15T10:51:46Z</time>
      </trkpt>
      <trkpt lat="46.51766" lon="0.3835">
        <ele>94.2</ele>
        <time>2023-01-15T10:51:47Z</time>
      </trkpt>
      <trkpt lat="46.51767" lon="0.3835">
        <ele>94.4</ele>
        <time>2023-01-15T10:51:48Z</time>
      </trkpt>
      <trkpt lat="46.51775" lon="0.38353">
        <ele>95</ele>
        <time>2023-01-15T10:51:53Z</time>
      </trkpt>
      <trkpt lat="46.5178" lon="0.38356">
        <ele>95.4</ele>
        <time>2023-01-15T10:51:56Z</time>
      </trkpt>
      <trkpt lat="46.51788" lon="0.38359">
        <ele>96.4</ele>
        <time>2023-01-15T10:52:01Z</time>
      </trkpt>
      <trkpt lat="46.51789" lon="0.3836">
        <ele>96.6</ele>
        <time>2023-01-15T10:52:02Z</time>
      </trkpt>
      <trkpt lat="46.51796" lon="0.38364">
        <ele>97.2</ele>
        <time>2023-01-15T10:52:08Z</time>
      </trkpt>
      <trkpt lat="46.51799" lon="0.38366">
        <ele>97.2</ele>
        <time>2023-01-15T10:52:10Z</time>
      </trkpt>
      <trkpt lat="46.518" lon="0.38367">
        <ele>97.4</ele>
        <time>2023-01-15T10:52:11Z</time>
      </trkpt>
      <trkpt lat="46.51802" lon="0.38367">
        <ele>97.6</ele>
        <time>2023-01-15T10:52:12Z</time>
      </trkpt>
      <trkpt lat="46.51805" lon="0.3837">
        <ele>98</ele>
        <time>2023-01-15T10:52:14Z</time>
      </trkpt>
      <trkpt lat="46.51815" lon="0.38376">
        <ele>98.6</ele>
        <time>2023-01-15T10:52:20Z</time>
      </trkpt>
      <trkpt lat="46.51821" lon="0.38383">
        <ele>99.6</ele>
        <time>2023-01-15T10:52:25Z</time>
      </trkpt>
      <trkpt lat="46.51822" lon="0.38385">
        <ele>99.8</ele>
        <time>2023-01-15T10:52:26Z</time>
      </trkpt>
      <trkpt lat="46.51831" lon="0.38398">
        <ele>100.8</ele>
        <time>2023-01-15T10:52:34Z</time>
      </trkpt>
      <trkpt lat="46.51836" lon="0.38404">
        <ele>101.2</ele>
        <time>2023-01-15T10:52:38Z</time>
      </trkpt>
      <trkpt lat="46.5184" lon="0.38411">
        <ele>101.8</ele>
        <time>2023-01-15T10:52:42Z</time>
      </trkpt>
      <trkpt lat="46.51848" lon="0.38422">
        <ele>103</ele>
        <time>2023-01-15T10:52:48Z</time>
      </trkpt>
      <trkpt lat="46.5185" lon="0.38427">
        <ele>103.2</ele>
        <time>2023-01-15T10:52:50Z</time>
      </trkpt>
      <trkpt lat="46.51858" lon="0.38435">
        <ele>103.8</ele>
        <time>2023-01-15T10:52:58Z</time>
      </trkpt>
      <trkpt lat="46.51858" lon="0.38432">
        <ele>103.6</ele>
        <time>2023-01-15T10:53:00Z</time>
      </trkpt>
      <trkpt lat="46.51857" lon="0.38426">
        <ele>103</ele>
        <time>2023-01-15T10:53:02Z</time>
      </trkpt>
      <trkpt lat="46.51856" lon="0.38419">
        <ele>101.8</ele>
        <time>2023-01-15T10:53:04Z</time>
      </trkpt>
      <trkpt lat="46.51855" lon="0.38411">
        <ele>100.2</ele>
        <time>2023-01-15T10:53:06Z</time>
      </trkpt>
      <trkpt lat="46.51854" lon="0.38402">
        <ele>98.4</ele>
        <time>2023-01-15T10:53:08Z</time>
      </trkpt>
      <trkpt lat="46.51854" lon="0.38398">
        <ele>97.4</ele>
        <time>2023-01-15T10:53:09Z</time>
      </trkpt>
      <trkpt lat="46.51854" lon="0.38393">
        <ele>96.6</ele>
        <time>2023-01-15T10:53:10Z</time>
      </trkpt>
      <trkpt lat="46.51855" lon="0.38387">
        <ele>95.8</ele>
        <time>2023-01-15T10:53:11Z</time>
      </trkpt>
      <trkpt lat="46.51857" lon="0.3838">
        <ele>94.8</ele>
        <time>2023-01-15T10:53:12Z</time>
      </trkpt>
      <trkpt lat="46.5186" lon="0.38373">
        <ele>94</ele>
        <time>2023-01-15T10:53:13Z</time>
      </trkpt>
      <trkpt lat="46.51863" lon="0.38366">
        <ele>93.4</ele>
        <time>2023-01-15T10:53:14Z</time>
      </trkpt>
      <trkpt lat="46.51867" lon="0.38355">
        <ele>91.6</ele>
        <time>2023-01-15T10:53:16Z</time>
      </trkpt>
      <trkpt lat="46.5187" lon="0.38351">
        <ele>90.4</ele>
        <time>2023-01-15T10:53:17Z</time>
      </trkpt>
      <trkpt lat="46.51873" lon="0.38347">
        <ele>89.8</ele>
        <time>2023-01-15T10:53:18Z</time>
      </trkpt>
      <trkpt lat="46.51875" lon="0.38343">
        <ele>89.2</ele>
        <time>2023-01-15T10:53:19Z</time>
      </trkpt>
      <trkpt lat="46.51884" lon="0.38331">
        <ele>88</ele>
        <time>2023-01-15T10:53:23Z</time>
      </trkpt>
      <trkpt lat="46.51887" lon="0.38329">
        <ele>87.8</ele>
        <time>2023-01-15T10:53:24Z</time>
      </trkpt>
      <trkpt lat="46.51901" lon="0.383">
        <ele>87.6</ele>
        <time>2023-01-15T10:53:31Z</time>
      </trkpt>
      <trkpt lat="46.5191" lon="0.38273">
        <ele>87.8</ele>
        <time>2023-01-15T10:53:37Z</time>
      </trkpt>
      <trkpt lat="46.51913" lon="0.38242">
        <ele>88.4</ele>
        <time>2023-01-15T10:53:43Z</time>
      </trkpt>
      <trkpt lat="46.51923" lon="0.38221">
        <ele>88</ele>
        <time>2023-01-15T10:53:50Z</time>
      </trkpt>
      <trkpt lat="46.5193" lon="0.38206">
        <ele>87.4</ele>
        <time>2023-01-15T10:53:56Z</time>
      </trkpt>
      <trkpt lat="46.51936" lon="0.3819">
        <ele>87.8</ele>
        <time>2023-01-15T10:54:02Z</time>
      </trkpt>
      <trkpt lat="46.51944" lon="0.38179">
        <ele>87.6</ele>
        <time>2023-01-15T10:54:08Z</time>
      </trkpt>
      <trkpt lat="46.51953" lon="0.38162">
        <ele>87.4</ele>
        <time>2023-01-15T10:54:15Z</time>
      </trkpt>
      <trkpt lat="46.51959" lon="0.38145">
        <ele>87.2</ele>
        <time>2023-01-15T10:54:21Z</time>
      </trkpt>
      <trkpt lat="46.51964" lon="0.38128">
        <ele>87.2</ele>
        <time>2023-01-15T10:54:27Z</time>
      </trkpt>
      <trkpt lat="46.51969" lon="0.38108">
        <ele>87.2</ele>
        <time>2023-01-15T10:54:33Z</time>
      </trkpt>
      <trkpt lat="46.5197" lon="0.38105">
        <ele>87</ele>
        <time>2023-01-15T10:54:34Z</time>
      </trkpt>
      <trkpt lat="46.51973" lon="0.38096">
        <ele>86.6</ele>
        <time>2023-01-15T10:54:37Z</time>
      </trkpt>
      <trkpt lat="46.51976" lon="0.38088">
        <ele>86.8</ele>
        <time>2023-01-15T10:54:40Z</time>
      </trkpt>
      <trkpt lat="46.51983" lon="0.38069">
        <ele>87.2</ele>
        <time>2023-01-15T10:54:48Z</time>
      </trkpt>
      <trkpt lat="46.51988" lon="0.38054">
        <ele>87.4</ele>
        <time>2023-01-15T10:54:55Z</time>
      </trkpt>
      <trkpt lat="46.5199" lon="0.38029">
        <ele>87.6</ele>
        <time>2023-01-15T10:55:04Z</time>
      </trkpt>
      <trkpt lat="46.51989" lon="0.38021">
        <ele>88</ele>
        <time>2023-01-15T10:55:08Z</time>
      </trkpt>
      <trkpt lat="46.51988" lon="0.38018">
        <ele>88</ele>
        <time>2023-01-15T10:55:09Z</time>
      </trkpt>
      <trkpt lat="46.51988" lon="0.38015">
        <ele>88</ele>
        <time>2023-01-15T10:55:10Z</time>
      </trkpt>
      <trkpt lat="46.51994" lon="0.37991">
        <ele>87.8</ele>
        <time>2023-01-15T10:55:20Z</time>
      </trkpt>
      <trkpt lat="46.51999" lon="0.37991">
        <ele>87.8</ele>
        <time>2023-01-15T10:55:24Z</time>
      </trkpt>
      <trkpt lat="46.52001" lon="0.37993">
        <ele>87.8</ele>
        <time>2023-01-15T10:55:26Z</time>
      </trkpt>
      <trkpt lat="46.52006" lon="0.37995">
        <ele>88</ele>
        <time>2023-01-15T10:55:29Z</time>
      </trkpt>
      <trkpt lat="46.5201" lon="0.37995">
        <ele>88.2</ele>
        <time>2023-01-15T10:55:32Z</time>
      </trkpt>
      <trkpt lat="46.52014" lon="0.37992">
        <ele>89</ele>
        <time>2023-01-15T10:55:37Z</time>
      </trkpt>
      <trkpt lat="46.52015" lon="0.37991">
        <ele>89.8</ele>
        <time>2023-01-15T10:55:40Z</time>
      </trkpt>
      <trkpt lat="46.52017" lon="0.37992">
        <ele>90.2</ele>
        <time>2023-01-15T10:55:43Z</time>
      </trkpt>
      <trkpt lat="46.52022" lon="0.37999">
        <ele>90.8</ele>
        <time>2023-01-15T10:55:52Z</time>
      </trkpt>
      <trkpt lat="46.52023" lon="0.38">
        <ele>91.2</ele>
        <time>2023-01-15T10:55:54Z</time>
      </trkpt>
      <trkpt lat="46.52024" lon="0.38001">
        <ele>91.2</ele>
        <time>2023-01-15T10:55:55Z</time>
      </trkpt>
      <trkpt lat="46.52031" lon="0.38006">
        <ele>92.2</ele>
        <time>2023-01-15T10:56:05Z</time>
      </trkpt>
      <trkpt lat="46.52032" lon="0.38006">
        <ele>92.4</ele>
        <time>2023-01-15T10:56:06Z</time>
      </trkpt>
      <trkpt lat="46.52038" lon="0.38011">
        <ele>93.4</ele>
        <time>2023-01-15T10:56:15Z</time>
      </trkpt>
      <trkpt lat="46.52041" lon="0.38013">
        <ele>93.6</ele>
        <time>2023-01-15T10:56:18Z</time>
      </trkpt>
      <trkpt lat="46.52043" lon="0.38014">
        <ele>94.4</ele>
        <time>2023-01-15T10:56:21Z</time>
      </trkpt>
      <trkpt lat="46.52048" lon="0.38016">
        <ele>95.6</ele>
        <time>2023-01-15T10:56:29Z</time>
      </trkpt>
      <trkpt lat="46.52049" lon="0.38017">
        <ele>95.8</ele>
        <time>2023-01-15T10:56:32Z</time>
      </trkpt>
      <trkpt lat="46.52053" lon="0.38018">
        <ele>96.6</ele>
        <time>2023-01-15T10:56:38Z</time>
      </trkpt>
      <trkpt lat="46.5206" lon="0.38019">
        <ele>97.4</ele>
        <time>2023-01-15T10:56:47Z</time>
      </trkpt>
      <trkpt lat="46.5206" lon="0.38019">
        <ele>97.6</ele>
        <time>2023-01-15T10:56:49Z</time>
      </trkpt>
      <trkpt lat="46.52062" lon="0.38018">
        <ele>98.6</ele>
        <time>2023-01-15T10:56:56Z</time>
      </trkpt>
      <trkpt lat="46.52063" lon="0.38018">
        <ele>99.2</ele>
        <time>2023-01-15T10:56:59Z</time>
      </trkpt>
      <trkpt lat="46.52063" lon="0.38018">
        <ele>99.2</ele>
        <time>2023-01-15T10:57:01Z</time>
      </trkpt>
      <trkpt lat="46.52063" lon="0.38018">
        <ele>99.8</ele>
        <time>2023-01-15T10:57:03Z</time>
      </trkpt>
      <trkpt lat="46.52067" lon="0.3802">
        <ele>101</ele>
        <time>2023-01-15T10:57:09Z</time>
      </trkpt>
      <trkpt lat="46.52069" lon="0.3802">
        <ele>101.2</ele>
        <time>2023-01-15T10:57:12Z</time>
      </trkpt>
      <trkpt lat="46.52074" lon="0.38021">
        <ele>102</ele>
        <time>2023-01-15T10:57:19Z</time>
      </trkpt>
      <trkpt lat="46.52079" lon="0.38021">
        <ele>103</ele>
        <time>2023-01-15T10:57:27Z</time>
      </trkpt>
      <trkpt lat="46.52079" lon="0.38021">
        <ele>103</ele>
        <time>2023-01-15T10:57:28Z</time>
      </trkpt>
      <trkpt lat="46.52084" lon="0.38021">
        <ele>104</ele>
        <time>2023-01-15T10:57:35Z</time>
      </trkpt>
      <trkpt lat="46.52088" lon="0.38022">
        <ele>104.6</ele>
        <time>2023-01-15T10:57:40Z</time>
      </trkpt>
      <trkpt lat="46.52089" lon="0.38022">
        <ele>105.2</ele>
        <time>2023-01-15T10:57:42Z</time>
      </trkpt>
      <trkpt lat="46.5209" lon="0.38022">
        <ele>105.4</ele>
        <time>2023-01-15T10:57:43Z</time>
      </trkpt>
      <trkpt lat="46.52094" lon="0.3802">
        <ele>106</ele>
        <time>2023-01-15T10:57:48Z</time>
      </trkpt>
      <trkpt lat="46.52097" lon="0.3802">
        <ele>106.2</ele>
        <time>2023-01-15T10:57:52Z</time>
      </trkpt>
      <trkpt lat="46.52097" lon="0.38019">
        <ele>106.2</ele>
        <time>2023-01-15T10:57:53Z</time>
      </trkpt>
      <trkpt lat="46.52102" lon="0.38019">
        <ele>107.4</ele>
        <time>2023-01-15T10:58:00Z</time>
      </trkpt>
      <trkpt lat="46.52106" lon="0.38019">
        <ele>108</ele>
        <time>2023-01-15T10:58:09Z</time>
      </trkpt>
      <trkpt lat="46.52111" lon="0.38019">
        <ele>108.4</ele>
        <time>2023-01-15T10:58:15Z</time>
      </trkpt>
      <trkpt lat="46.52119" lon="0.38017">
        <ele>109.4</ele>
        <time>2023-01-15T10:58:19Z</time>
      </trkpt>
      <trkpt lat="46.5212" lon="0.38017">
        <ele>109.6</ele>
        <time>2023-01-15T10:58:20Z</time>
      </trkpt>
      <trkpt lat="46.52133" lon="0.38011">
        <ele>110.6</ele>
        <time>2023-01-15T10:58:30Z</time>
      </trkpt>
      <trkpt lat="46.52135" lon="0.38009">
        <ele>110.6</ele>
        <time>2023-01-15T10:58:31Z</time>
      </trkpt>
      <trkpt lat="46.52147" lon="0.38002">
        <ele>111.8</ele>
        <time>2023-01-15T10:58:40Z</time>
      </trkpt>
      <trkpt lat="46.52153" lon="0.37999">
        <ele>112</ele>
        <time>2023-01-15T10:58:44Z</time>
      </trkpt>
      <trkpt lat="46.52165" lon="0.37987">
        <ele>112.8</ele>
        <time>2023-01-15T10:58:54Z</time>
      </trkpt>
      <trkpt lat="46.52167" lon="0.37985">
        <ele>113</ele>
        <time>2023-01-15T10:58:56Z</time>
      </trkpt>
      <trkpt lat="46.52185" lon="0.37965">
        <ele>113.4</ele>
        <time>2023-01-15T10:59:08Z</time>
      </trkpt>
      <trkpt lat="46.52198" lon="0.37945">
        <ele>113.2</ele>
        <time>2023-01-15T10:59:21Z</time>
      </trkpt>
      <trkpt lat="46.52214" lon="0.37924">
        <ele>113.2</ele>
        <time>2023-01-15T10:59:33Z</time>
      </trkpt>
      <trkpt lat="46.52232" lon="0.37906">
        <ele>112.8</ele>
        <time>2023-01-15T10:59:44Z</time>
      </trkpt>
      <trkpt lat="46.52256" lon="0.37896">
        <ele>112.8</ele>
        <time>2023-01-15T10:59:53Z</time>
      </trkpt>
      <trkpt lat="46.52263" lon="0.37896">
        <ele>112.8</ele>
        <time>2023-01-15T10:59:56Z</time>
      </trkpt>
      <trkpt lat="46.52267" lon="0.379">
        <ele>112.8</ele>
        <time>2023-01-15T10:59:59Z</time>
      </trkpt>
      <trkpt lat="46.52281" lon="0.37914">
        <ele>113.4</ele>
        <time>2023-01-15T11:00:06Z</time>
      </trkpt>
      <trkpt lat="46.52293" lon="0.37927">
        <ele>113.8</ele>
        <time>2023-01-15T11:00:12Z</time>
      </trkpt>
      <trkpt lat="46.52303" lon="0.37935">
        <ele>114.4</ele>
        <time>2023-01-15T11:00:18Z</time>
      </trkpt>
      <trkpt lat="46.52308" lon="0.37941">
        <ele>115</ele>
        <time>2023-01-15T11:00:22Z</time>
      </trkpt>
      <trkpt lat="46.52311" lon="0.37945">
        <ele>115</ele>
        <time>2023-01-15T11:00:24Z</time>
      </trkpt>
      <trkpt lat="46.52316" lon="0.37946">
        <ele>115</ele>
        <time>2023-01-15T11:00:26Z</time>
      </trkpt>
      <trkpt lat="46.52319" lon="0.37945">
        <ele>115.2</ele>
        <time>2023-01-15T11:00:28Z</time>
      </trkpt>
      <trkpt lat="46.5232" lon="0.37943">
        <ele>115</ele>
        <time>2023-01-15T11:00:29Z</time>
      </trkpt>
      <trkpt lat="46.52321" lon="0.37924">
        <ele>114.2</ele>
        <time>2023-01-15T11:00:34Z</time>
      </trkpt>
      <trkpt lat="46.5232" lon="0.37917">
        <ele>113.8</ele>
        <time>2023-01-15T11:00:35Z</time>
      </trkpt>
      <trkpt lat="46.5232" lon="0.3791">
        <ele>113.4</ele>
        <time>2023-01-15T11:00:36Z</time>
      </trkpt>
      <trkpt lat="46.5232" lon="0.37902">
        <ele>112.8</ele>
        <time>2023-01-15T11:00:37Z</time>
      </trkpt>
      <trkpt lat="46.5232" lon="0.37896">
        <ele>112.2</ele>
        <time>2023-01-15T11:00:38Z</time>
      </trkpt>
      <trkpt lat="46.5232" lon="0.37892">
        <ele>111.4</ele>
        <time>2023-01-15T11:00:39Z</time>
      </trkpt>
      <trkpt lat="46.52322" lon="0.37886">
        <ele>110.2</ele>
        <time>2023-01-15T11:00:41Z</time>
      </trkpt>
      <trkpt lat="46.52326" lon="0.3788">
        <ele>109.6</ele>
        <time>2023-01-15T11:00:46Z</time>
      </trkpt>
      <trkpt lat="46.52328" lon="0.3788">
        <ele>109.6</ele>
        <time>2023-01-15T11:00:47Z</time>
      </trkpt>
      <trkpt lat="46.52339" lon="0.37878">
        <ele>109.8</ele>
        <time>2023-01-15T11:00:53Z</time>
      </trkpt>
      <trkpt lat="46.52352" lon="0.37874">
        <ele>109.2</ele>
        <time>2023-01-15T11:00:58Z</time>
      </trkpt>
      <trkpt lat="46.52356" lon="0.37873">
        <ele>109</ele>
        <time>2023-01-15T11:01:00Z</time>
      </trkpt>
      <trkpt lat="46.52365" lon="0.37874">
        <ele>108</ele>
        <time>2023-01-15T11:01:04Z</time>
      </trkpt>
      <trkpt lat="46.52371" lon="0.37872">
        <ele>107</ele>
        <time>2023-01-15T11:01:07Z</time>
      </trkpt>
      <trkpt lat="46.52381" lon="0.37868">
        <ele>106.2</ele>
        <time>2023-01-15T11:01:13Z</time>
      </trkpt>
      <trkpt lat="46.52391" lon="0.37866">
        <ele>106</ele>
        <time>2023-01-15T11:01:19Z</time>
      </trkpt>
      <trkpt lat="46.52393" lon="0.37865">
        <ele>105.8</ele>
        <time>2023-01-15T11:01:20Z</time>
      </trkpt>
      <trkpt lat="46.52403" lon="0.37869">
        <ele>105.8</ele>
        <time>2023-01-15T11:01:24Z</time>
      </trkpt>
      <trkpt lat="46.52408" lon="0.37872">
        <ele>106</ele>
        <time>2023-01-15T11:01:26Z</time>
      </trkpt>
      <trkpt lat="46.52414" lon="0.37876">
        <ele>106.8</ele>
        <time>2023-01-15T11:01:32Z</time>
      </trkpt>
      <trkpt lat="46.52415" lon="0.37876">
        <ele>107</ele>
        <time>2023-01-15T11:01:33Z</time>
      </trkpt>
      <trkpt lat="46.52421" lon="0.3788">
        <ele>107.2</ele>
        <time>2023-01-15T11:01:38Z</time>
      </trkpt>
      <trkpt lat="46.52423" lon="0.3788">
        <ele>107.2</ele>
        <time>2023-01-15T11:01:40Z</time>
      </trkpt>
      <trkpt lat="46.52426" lon="0.37884">
        <ele>107.4</ele>
        <time>2023-01-15T11:01:44Z</time>
      </trkpt>
      <trkpt lat="46.52429" lon="0.37888">
        <ele>107.6</ele>
        <time>2023-01-15T11:01:47Z</time>
      </trkpt>
      <trkpt lat="46.52429" lon="0.37891">
        <ele>107.6</ele>
        <time>2023-01-15T11:01:49Z</time>
      </trkpt>
      <trkpt lat="46.52431" lon="0.37892">
        <ele>108</ele>
        <time>2023-01-15T11:01:51Z</time>
      </trkpt>
      <trkpt lat="46.52433" lon="0.37894">
        <ele>108.2</ele>
        <time>2023-01-15T11:01:53Z</time>
      </trkpt>
      <trkpt lat="46.52436" lon="0.37896">
        <ele>108.2</ele>
        <time>2023-01-15T11:01:55Z</time>
      </trkpt>
      <trkpt lat="46.52441" lon="0.37902">
        <ele>108.6</ele>
        <time>2023-01-15T11:02:02Z</time>
      </trkpt>
      <trkpt lat="46.52442" lon="0.37903">
        <ele>108.8</ele>
        <time>2023-01-15T11:02:04Z</time>
      </trkpt>
      <trkpt lat="46.52445" lon="0.37905">
        <ele>109</ele>
        <time>2023-01-15T11:02:06Z</time>
      </trkpt>
      <trkpt lat="46.52448" lon="0.37908">
        <ele>109</ele>
        <time>2023-01-15T11:02:08Z</time>
      </trkpt>
      <trkpt lat="46.52452" lon="0.3791">
        <ele>109.2</ele>
        <time>2023-01-15T11:02:10Z</time>
      </trkpt>
      <trkpt lat="46.52452" lon="0.3791">
        <ele>109.2</ele>
        <time>2023-01-15T11:02:11Z</time>
      </trkpt>
      <trkpt lat="46.52456" lon="0.37912">
        <ele>109.8</ele>
        <time>2023-01-15T11:02:15Z</time>
      </trkpt>
      <trkpt lat="46.52466" lon="0.37919">
        <ele>110.4</ele>
        <time>2023-01-15T11:02:26Z</time>
      </trkpt>
      <trkpt lat="46.52467" lon="0.37921">
        <ele>110.8</ele>
        <time>2023-01-15T11:02:28Z</time>
      </trkpt>
      <trkpt lat="46.52469" lon="0.37923">
        <ele>111.2</ele>
        <time>2023-01-15T11:02:31Z</time>
      </trkpt>
      <trkpt lat="46.5247" lon="0.37923">
        <ele>111.2</ele>
        <time>2023-01-15T11:02:32Z</time>
      </trkpt>
      <trkpt lat="46.52471" lon="0.37924">
        <ele>111.6</ele>
        <time>2023-01-15T11:02:36Z</time>
      </trkpt>
      <trkpt lat="46.52476" lon="0.37924">
        <ele>112.2</ele>
        <time>2023-01-15T11:02:43Z</time>
      </trkpt>
      <trkpt lat="46.52478" lon="0.37924">
        <ele>112.4</ele>
        <time>2023-01-15T11:02:46Z</time>
      </trkpt>
      <trkpt lat="46.52479" lon="0.37924">
        <ele>112.6</ele>
        <time>2023-01-15T11:02:47Z</time>
      </trkpt>
      <trkpt lat="46.52482" lon="0.37924">
        <ele>113</ele>
        <time>2023-01-15T11:02:49Z</time>
      </trkpt>
      <trkpt lat="46.52491" lon="0.3792">
        <ele>113.8</ele>
        <time>2023-01-15T11:02:58Z</time>
      </trkpt>
      <trkpt lat="46.52493" lon="0.37919">
        <ele>114</ele>
        <time>2023-01-15T11:03:01Z</time>
      </trkpt>
      <trkpt lat="46.52494" lon="0.37918">
        <ele>114</ele>
        <time>2023-01-15T11:03:02Z</time>
      </trkpt>
      <trkpt lat="46.52496" lon="0.37917">
        <ele>114.2</ele>
        <time>2023-01-15T11:03:06Z</time>
      </trkpt>
      <trkpt lat="46.52501" lon="0.37913">
        <ele>115</ele>
        <time>2023-01-15T11:03:14Z</time>
      </trkpt>
      <trkpt lat="46.52504" lon="0.37912">
        <ele>115.2</ele>
        <time>2023-01-15T11:03:17Z</time>
      </trkpt>
      <trkpt lat="46.52507" lon="0.37911">
        <ele>115.4</ele>
        <time>2023-01-15T11:03:19Z</time>
      </trkpt>
      <trkpt lat="46.52512" lon="0.37909">
        <ele>115.8</ele>
        <time>2023-01-15T11:03:24Z</time>
      </trkpt>
      <trkpt lat="46.52515" lon="0.37908">
        <ele>116</ele>
        <time>2023-01-15T11:03:28Z</time>
      </trkpt>
      <trkpt lat="46.52517" lon="0.37907">
        <ele>116</ele>
        <time>2023-01-15T11:03:30Z</time>
      </trkpt>
      <trkpt lat="46.52519" lon="0.37906">
        <ele>116.2</ele>
        <time>2023-01-15T11:03:32Z</time>
      </trkpt>
      <trkpt lat="46.52524" lon="0.37903">
        <ele>117</ele>
        <time>2023-01-15T11:03:39Z</time>
      </trkpt>
      <trkpt lat="46.52527" lon="0.37901">
        <ele>118</ele>
        <time>2023-01-15T11:03:43Z</time>
      </trkpt>
      <trkpt lat="46.52534" lon="0.37895">
        <ele>118</ele>
        <time>2023-01-15T11:03:53Z</time>
      </trkpt>
      <trkpt lat="46.52539" lon="0.37893">
        <ele>118.4</ele>
        <time>2023-01-15T11:03:59Z</time>
      </trkpt>
      <trkpt lat="46.52545" lon="0.37888">
        <ele>118.8</ele>
        <time>2023-01-15T11:04:10Z</time>
      </trkpt>
      <trkpt lat="46.52546" lon="0.37885">
        <ele>119</ele>
        <time>2023-01-15T11:04:14Z</time>
      </trkpt>
      <trkpt lat="46.52548" lon="0.37881">
        <ele>119</ele>
        <time>2023-01-15T11:04:18Z</time>
      </trkpt>
      <trkpt lat="46.52549" lon="0.3788">
        <ele>119.2</ele>
        <time>2023-01-15T11:04:20Z</time>
      </trkpt>
      <trkpt lat="46.5255" lon="0.37877">
        <ele>119.6</ele>
        <time>2023-01-15T11:04:23Z</time>
      </trkpt>
      <trkpt lat="46.52552" lon="0.37875">
        <ele>119.8</ele>
        <time>2023-01-15T11:04:26Z</time>
      </trkpt>
      <trkpt lat="46.52554" lon="0.37873">
        <ele>119.8</ele>
        <time>2023-01-15T11:04:28Z</time>
      </trkpt>
      <trkpt lat="46.52559" lon="0.37867">
        <ele>120</ele>
        <time>2023-01-15T11:04:34Z</time>
      </trkpt>
      <trkpt lat="46.52559" lon="0.37865">
        <ele>120.2</ele>
        <time>2023-01-15T11:04:36Z</time>
      </trkpt>
      <trkpt lat="46.52562" lon="0.37861">
        <ele>120</ele>
        <time>2023-01-15T11:04:39Z</time>
      </trkpt>
      <trkpt lat="46.52563" lon="0.37858">
        <ele>120.2</ele>
        <time>2023-01-15T11:04:42Z</time>
      </trkpt>
      <trkpt lat="46.52567" lon="0.37853">
        <ele>120.4</ele>
        <time>2023-01-15T11:04:47Z</time>
      </trkpt>
      <trkpt lat="46.5257" lon="0.3785">
        <ele>120.4</ele>
        <time>2023-01-15T11:04:50Z</time>
      </trkpt>
      <trkpt lat="46.52572" lon="0.37848">
        <ele>120.4</ele>
        <time>2023-01-15T11:04:54Z</time>
      </trkpt>
      <trkpt lat="46.52574" lon="0.37847">
        <ele>120.4</ele>
        <time>2023-01-15T11:04:56Z</time>
      </trkpt>
      <trkpt lat="46.52577" lon="0.37844">
        <ele>120.4</ele>
        <time>2023-01-15T11:05:00Z</time>
      </trkpt>
      <trkpt lat="46.52578" lon="0.37842">
        <ele>120.4</ele>
        <time>2023-01-15T11:05:02Z</time>
      </trkpt>
      <trkpt lat="46.52585" lon="0.37838">
        <ele>120.2</ele>
        <time>2023-01-15T11:05:14Z</time>
      </trkpt>
      <trkpt lat="46.52588" lon="0.37835">
        <ele>120.4</ele>
        <time>2023-01-15T11:05:18Z</time>
      </trkpt>
      <trkpt lat="46.52589" lon="0.37834">
        <ele>120.8</ele>
        <time>2023-01-15T11:05:24Z</time>
      </trkpt>
      <trkpt lat="46.52592" lon="0.37829">
        <ele>120.6</ele>
        <time>2023-01-15T11:05:35Z</time>
      </trkpt>
      <trkpt lat="46.52594" lon="0.37828">
        <ele>120.8</ele>
        <time>2023-01-15T11:05:37Z</time>
      </trkpt>
      <trkpt lat="46.52597" lon="0.37823">
        <ele>121</ele>
        <time>2023-01-15T11:05:42Z</time>
      </trkpt>
      <trkpt lat="46.52607" lon="0.3781">
        <ele>121</ele>
        <time>2023-01-15T11:05:53Z</time>
      </trkpt>
      <trkpt lat="46.52618" lon="0.37795">
        <ele>120.6</ele>
        <time>2023-01-15T11:06:05Z</time>
      </trkpt>
      <trkpt lat="46.5263" lon="0.37784">
        <ele>120.2</ele>
        <time>2023-01-15T11:06:18Z</time>
      </trkpt>
      <trkpt lat="46.52642" lon="0.37775">
        <ele>119.8</ele>
        <time>2023-01-15T11:06:31Z</time>
      </trkpt>
      <trkpt lat="46.52657" lon="0.37764">
        <ele>119.4</ele>
        <time>2023-01-15T11:06:47Z</time>
      </trkpt>
      <trkpt lat="46.52662" lon="0.37761">
        <ele>119</ele>
        <time>2023-01-15T11:06:51Z</time>
      </trkpt>
      <trkpt lat="46.52673" lon="0.37754">
        <ele>118.4</ele>
        <time>2023-01-15T11:07:00Z</time>
      </trkpt>
      <trkpt lat="46.52681" lon="0.37751">
        <ele>118</ele>
        <time>2023-01-15T11:07:08Z</time>
      </trkpt>
      <trkpt lat="46.52684" lon="0.37749">
        <ele>117.6</ele>
        <time>2023-01-15T11:07:11Z</time>
      </trkpt>
      <trkpt lat="46.52698" lon="0.37746">
        <ele>117</ele>
        <time>2023-01-15T11:07:24Z</time>
      </trkpt>
      <trkpt lat="46.5271" lon="0.37741">
        <ele>115.8</ele>
        <time>2023-01-15T11:07:37Z</time>
      </trkpt>
      <trkpt lat="46.52717" lon="0.3774">
        <ele>115.4</ele>
        <time>2023-01-15T11:07:44Z</time>
      </trkpt>
      <trkpt lat="46.52722" lon="0.37739">
        <ele>115.6</ele>
        <time>2023-01-15T11:07:49Z</time>
      </trkpt>
      <trkpt lat="46.52724" lon="0.37738">
        <ele>115.6</ele>
        <time>2023-01-15T11:07:50Z</time>
      </trkpt>
      <trkpt lat="46.52729" lon="0.37737">
        <ele>114.6</ele>
        <time>2023-01-15T11:07:54Z</time>
      </trkpt>
      <trkpt lat="46.52738" lon="0.37733">
        <ele>114</ele>
        <time>2023-01-15T11:08:00Z</time>
      </trkpt>
      <trkpt lat="46.52744" lon="0.37731">
        <ele>113.6</ele>
        <time>2023-01-15T11:08:03Z</time>
      </trkpt>
      <trkpt lat="46.52755" lon="0.37729">
        <ele>112.6</ele>
        <time>2023-01-15T11:08:09Z</time>
      </trkpt>
      <trkpt lat="46.5276" lon="0.37728">
        <ele>112</ele>
        <time>2023-01-15T11:08:11Z</time>
      </trkpt>
      <trkpt lat="46.52765" lon="0.37726">
        <ele>111.6</ele>
        <time>2023-01-15T11:08:13Z</time>
      </trkpt>
      <trkpt lat="46.52773" lon="0.37723">
        <ele>111</ele>
        <time>2023-01-15T11:08:18Z</time>
      </trkpt>
      <trkpt lat="46.52779" lon="0.37718">
        <ele>110.4</ele>
        <time>2023-01-15T11:08:22Z</time>
      </trkpt>
      <trkpt lat="46.52781" lon="0.37714">
        <ele>109.8</ele>
        <time>2023-01-15T11:08:24Z</time>
      </trkpt>
      <trkpt lat="46.52782" lon="0.37712">
        <ele>109.4</ele>
        <time>2023-01-15T11:08:25Z</time>
      </trkpt>
      <trkpt lat="46.52782" lon="0.37708">
        <ele>108.8</ele>
        <time>2023-01-15T11:08:28Z</time>
      </trkpt>
      <trkpt lat="46.52784" lon="0.37704">
        <ele>108.4</ele>
        <time>2023-01-15T11:08:30Z</time>
      </trkpt>
      <trkpt lat="46.52784" lon="0.37701">
        <ele>108</ele>
        <time>2023-01-15T11:08:32Z</time>
      </trkpt>
      <trkpt lat="46.52784" lon="0.37699">
        <ele>107.8</ele>
        <time>2023-01-15T11:08:33Z</time>
      </trkpt>
      <trkpt lat="46.52784" lon="0.37696">
        <ele>107.2</ele>
        <time>2023-01-15T11:08:35Z</time>
      </trkpt>
      <trkpt lat="46.52782" lon="0.37683">
        <ele>106</ele>
        <time>2023-01-15T11:08:40Z</time>
      </trkpt>
      <trkpt lat="46.52782" lon="0.37673">
        <ele>104.4</ele>
        <time>2023-01-15T11:08:43Z</time>
      </trkpt>
      <trkpt lat="46.52781" lon="0.37667">
        <ele>103.2</ele>
        <time>2023-01-15T11:08:45Z</time>
      </trkpt>
      <trkpt lat="46.52781" lon="0.37662">
        <ele>102.4</ele>
        <time>2023-01-15T11:08:47Z</time>
      </trkpt>
      <trkpt lat="46.5278" lon="0.37661">
        <ele>102.2</ele>
        <time>2023-01-15T11:08:48Z</time>
      </trkpt>
      <trkpt lat="46.5278" lon="0.37657">
        <ele>100.6</ele>
        <time>2023-01-15T11:08:50Z</time>
      </trkpt>
      <trkpt lat="46.52781" lon="0.37651">
        <ele>99.8</ele>
        <time>2023-01-15T11:08:53Z</time>
      </trkpt>
      <trkpt lat="46.52781" lon="0.37644">
        <ele>99</ele>
        <time>2023-01-15T11:08:55Z</time>
      </trkpt>
      <trkpt lat="46.5278" lon="0.37635">
        <ele>97.8</ele>
        <time>2023-01-15T11:08:58Z</time>
      </trkpt>
      <trkpt lat="46.52778" lon="0.37632">
        <ele>97.4</ele>
        <time>2023-01-15T11:08:59Z</time>
      </trkpt>
      <trkpt lat="46.52776" lon="0.37628">
        <ele>96</ele>
        <time>2023-01-15T11:09:00Z</time>
      </trkpt>
      <trkpt lat="46.52774" lon="0.37624">
        <ele>94.4</ele>
        <time>2023-01-15T11:09:01Z</time>
      </trkpt>
      <trkpt lat="46.52769" lon="0.37616">
        <ele>92.6</ele>
        <time>2023-01-15T11:09:03Z</time>
      </trkpt>
      <trkpt lat="46.52766" lon="0.3761">
        <ele>91.6</ele>
        <time>2023-01-15T11:09:04Z</time>
      </trkpt>
      <trkpt lat="46.52763" lon="0.37606">
        <ele>90.8</ele>
        <time>2023-01-15T11:09:05Z</time>
      </trkpt>
      <trkpt lat="46.52755" lon="0.37594">
        <ele>89.4</ele>
        <time>2023-01-15T11:09:07Z</time>
      </trkpt>
      <trkpt lat="46.52752" lon="0.37577">
        <ele>88.4</ele>
        <time>2023-01-15T11:09:09Z</time>
      </trkpt>
      <trkpt lat="46.52748" lon="0.37555">
        <ele>86.8</ele>
        <time>2023-01-15T11:09:11Z</time>
      </trkpt>
      <trkpt lat="46.52741" lon="0.37529">
        <ele>85.8</ele>
        <time>2023-01-15T11:09:13Z</time>
      </trkpt>
      <trkpt lat="46.5274" lon="0.37514">
        <ele>85</ele>
        <time>2023-01-15T11:09:15Z</time>
      </trkpt>
      <trkpt lat="46.52736" lon="0.37496">
        <ele>84.4</ele>
        <time>2023-01-15T11:09:17Z</time>
      </trkpt>
      <trkpt lat="46.52728" lon="0.37458">
        <ele>83.4</ele>
        <time>2023-01-15T11:09:22Z</time>
      </trkpt>
      <trkpt lat="46.5272" lon="0.37419">
        <ele>82.2</ele>
        <time>2023-01-15T11:09:28Z</time>
      </trkpt>
      <trkpt lat="46.52713" lon="0.37372">
        <ele>81.6</ele>
        <time>2023-01-15T11:09:35Z</time>
      </trkpt>
      <trkpt lat="46.52708" lon="0.3736">
        <ele>81.2</ele>
        <time>2023-01-15T11:09:37Z</time>
      </trkpt>
      <trkpt lat="46.52705" lon="0.37355">
        <ele>81.2</ele>
        <time>2023-01-15T11:09:38Z</time>
      </trkpt>
      <trkpt lat="46.52702" lon="0.37351">
        <ele>81.2</ele>
        <time>2023-01-15T11:09:39Z</time>
      </trkpt>
      <trkpt lat="46.52696" lon="0.37335">
        <ele>80.8</ele>
        <time>2023-01-15T11:09:42Z</time>
      </trkpt>
      <trkpt lat="46.52693" lon="0.37324">
        <ele>80.4</ele>
        <time>2023-01-15T11:09:44Z</time>
      </trkpt>
      <trkpt lat="46.52692" lon="0.37317">
        <ele>80.2</ele>
        <time>2023-01-15T11:09:45Z</time>
      </trkpt>
      <trkpt lat="46.52687" lon="0.37286">
        <ele>80</ele>
        <time>2023-01-15T11:09:51Z</time>
      </trkpt>
      <trkpt lat="46.52686" lon="0.37282">
        <ele>80.2</ele>
        <time>2023-01-15T11:09:52Z</time>
      </trkpt>
      <trkpt lat="46.52682" lon="0.37265">
        <ele>80</ele>
        <time>2023-01-15T11:09:58Z</time>
      </trkpt>
      <trkpt lat="46.5268" lon="0.37249">
        <ele>80.2</ele>
        <time>2023-01-15T11:10:05Z</time>
      </trkpt>
      <trkpt lat="46.52677" lon="0.3723">
        <ele>80.2</ele>
        <time>2023-01-15T11:10:12Z</time>
      </trkpt>
      <trkpt lat="46.52678" lon="0.37201">
        <ele>80.6</ele>
        <time>2023-01-15T11:10:21Z</time>
      </trkpt>
      <trkpt lat="46.52677" lon="0.37185">
        <ele>81.2</ele>
        <time>2023-01-15T11:10:25Z</time>
      </trkpt>
      <trkpt lat="46.52676" lon="0.37178">
        <ele>81.4</ele>
        <time>2023-01-15T11:10:27Z</time>
      </trkpt>
      <trkpt lat="46.5267" lon="0.37156">
        <ele>81.4</ele>
        <time>2023-01-15T11:10:34Z</time>
      </trkpt>
      <trkpt lat="46.52663" lon="0.37126">
        <ele>81.6</ele>
        <time>2023-01-15T11:10:43Z</time>
      </trkpt>
      <trkpt lat="46.52661" lon="0.37099">
        <ele>81.8</ele>
        <time>2023-01-15T11:10:50Z</time>
      </trkpt>
      <trkpt lat="46.52657" lon="0.37067">
        <ele>81.8</ele>
        <time>2023-01-15T11:10:59Z</time>
      </trkpt>
      <trkpt lat="46.52657" lon="0.37044">
        <ele>81.8</ele>
        <time>2023-01-15T11:11:06Z</time>
      </trkpt>
      <trkpt lat="46.52658" lon="0.37018">
        <ele>82.2</ele>
        <time>2023-01-15T11:11:14Z</time>
      </trkpt>
      <trkpt lat="46.52658" lon="0.37015">
        <ele>82.2</ele>
        <time>2023-01-15T11:11:15Z</time>
      </trkpt>
      <trkpt lat="46.52659" lon="0.37003">
        <ele>82.4</ele>
        <time>2023-01-15T11:11:19Z</time>
      </trkpt>
      <trkpt lat="46.52661" lon="0.3699">
        <ele>82.6</ele>
        <time>2023-01-15T11:11:22Z</time>
      </trkpt>
      <trkpt lat="46.52663" lon="0.36971">
        <ele>83.2</ele>
        <time>2023-01-15T11:11:27Z</time>
      </trkpt>
      <trkpt lat="46.52663" lon="0.36968">
        <ele>83.4</ele>
        <time>2023-01-15T11:11:28Z</time>
      </trkpt>
      <trkpt lat="46.52665" lon="0.3695">
        <ele>84</ele>
        <time>2023-01-15T11:11:34Z</time>
      </trkpt>
      <trkpt lat="46.52668" lon="0.3694">
        <ele>84.4</ele>
        <time>2023-01-15T11:11:38Z</time>
      </trkpt>
      <trkpt lat="46.5267" lon="0.3693">
        <ele>84.8</ele>
        <time>2023-01-15T11:11:42Z</time>
      </trkpt>
      <trkpt lat="46.52672" lon="0.36926">
        <ele>85</ele>
        <time>2023-01-15T11:11:44Z</time>
      </trkpt>
      <trkpt lat="46.52675" lon="0.3692">
        <ele>85.6</ele>
        <time>2023-01-15T11:11:46Z</time>
      </trkpt>
      <trkpt lat="46.52678" lon="0.36912">
        <ele>86.4</ele>
        <time>2023-01-15T11:11:49Z</time>
      </trkpt>
      <trkpt lat="46.5268" lon="0.36909">
        <ele>86.6</ele>
        <time>2023-01-15T11:11:50Z</time>
      </trkpt>
      <trkpt lat="46.52685" lon="0.369">
        <ele>87.4</ele>
        <time>2023-01-15T11:11:55Z</time>
      </trkpt>
      <trkpt lat="46.52688" lon="0.36896">
        <ele>87.8</ele>
        <time>2023-01-15T11:11:57Z</time>
      </trkpt>
      <trkpt lat="46.5269" lon="0.36892">
        <ele>88</ele>
        <time>2023-01-15T11:11:59Z</time>
      </trkpt>
      <trkpt lat="46.52693" lon="0.36885">
        <ele>88.8</ele>
        <time>2023-01-15T11:12:03Z</time>
      </trkpt>
      <trkpt lat="46.52696" lon="0.36881">
        <ele>89.4</ele>
        <time>2023-01-15T11:12:06Z</time>
      </trkpt>
      <trkpt lat="46.52697" lon="0.36876">
        <ele>89.6</ele>
        <time>2023-01-15T11:12:08Z</time>
      </trkpt>
      <trkpt lat="46.52698" lon="0.36873">
        <ele>90</ele>
        <time>2023-01-15T11:12:11Z</time>
      </trkpt>
      <trkpt lat="46.527" lon="0.36869">
        <ele>90.4</ele>
        <time>2023-01-15T11:12:13Z</time>
      </trkpt>
      <trkpt lat="46.52702" lon="0.36865">
        <ele>91</ele>
        <time>2023-01-15T11:12:16Z</time>
      </trkpt>
      <trkpt lat="46.52705" lon="0.36861">
        <ele>91.4</ele>
        <time>2023-01-15T11:12:19Z</time>
      </trkpt>
      <trkpt lat="46.52707" lon="0.36858">
        <ele>91.8</ele>
        <time>2023-01-15T11:12:21Z</time>
      </trkpt>
      <trkpt lat="46.52708" lon="0.36856">
        <ele>92.2</ele>
        <time>2023-01-15T11:12:22Z</time>
      </trkpt>
      <trkpt lat="46.52709" lon="0.36855">
        <ele>92.4</ele>
        <time>2023-01-15T11:12:23Z</time>
      </trkpt>
      <trkpt lat="46.52711" lon="0.36851">
        <ele>92.8</ele>
        <time>2023-01-15T11:12:26Z</time>
      </trkpt>
      <trkpt lat="46.52714" lon="0.36847">
        <ele>93.2</ele>
        <time>2023-01-15T11:12:30Z</time>
      </trkpt>
      <trkpt lat="46.52715" lon="0.36847">
        <ele>93.6</ele>
        <time>2023-01-15T11:12:31Z</time>
      </trkpt>
      <trkpt lat="46.52718" lon="0.36844">
        <ele>94</ele>
        <time>2023-01-15T11:12:34Z</time>
      </trkpt>
      <trkpt lat="46.52721" lon="0.3684">
        <ele>94.4</ele>
        <time>2023-01-15T11:12:38Z</time>
      </trkpt>
      <trkpt lat="46.52723" lon="0.36838">
        <ele>94.8</ele>
        <time>2023-01-15T11:12:40Z</time>
      </trkpt>
      <trkpt lat="46.52726" lon="0.36833">
        <ele>95.4</ele>
        <time>2023-01-15T11:12:44Z</time>
      </trkpt>
      <trkpt lat="46.52726" lon="0.36832">
        <ele>95.6</ele>
        <time>2023-01-15T11:12:45Z</time>
      </trkpt>
      <trkpt lat="46.52728" lon="0.36831">
        <ele>95.8</ele>
        <time>2023-01-15T11:12:46Z</time>
      </trkpt>
      <trkpt lat="46.52732" lon="0.36828">
        <ele>96.2</ele>
        <time>2023-01-15T11:12:50Z</time>
      </trkpt>
      <trkpt lat="46.52734" lon="0.36825">
        <ele>96.4</ele>
        <time>2023-01-15T11:12:52Z</time>
      </trkpt>
      <trkpt lat="46.52736" lon="0.36823">
        <ele>97</ele>
        <time>2023-01-15T11:12:54Z</time>
      </trkpt>
      <trkpt lat="46.52738" lon="0.36821">
        <ele>97</ele>
        <time>2023-01-15T11:12:56Z</time>
      </trkpt>
      <trkpt lat="46.5274" lon="0.36819">
        <ele>97.4</ele>
        <time>2023-01-15T11:12:58Z</time>
      </trkpt>
      <trkpt lat="46.52741" lon="0.36818">
        <ele>97.6</ele>
        <time>2023-01-15T11:12:59Z</time>
      </trkpt>
      <trkpt lat="46.52742" lon="0.36817">
        <ele>97.8</ele>
        <time>2023-01-15T11:13:00Z</time>
      </trkpt>
      <trkpt lat="46.52749" lon="0.36812">
        <ele>98.6</ele>
        <time>2023-01-15T11:13:08Z</time>
      </trkpt>
      <trkpt lat="46.52752" lon="0.3681">
        <ele>98.8</ele>
        <time>2023-01-15T11:13:11Z</time>
      </trkpt>
      <trkpt lat="46.52755" lon="0.36809">
        <ele>99</ele>
        <time>2023-01-15T11:13:13Z</time>
      </trkpt>
      <trkpt lat="46.52758" lon="0.36807">
        <ele>99.2</ele>
        <time>2023-01-15T11:13:15Z</time>
      </trkpt>
      <trkpt lat="46.5276" lon="0.36807">
        <ele>99.6</ele>
        <time>2023-01-15T11:13:17Z</time>
      </trkpt>
      <trkpt lat="46.52765" lon="0.36805">
        <ele>100.2</ele>
        <time>2023-01-15T11:13:20Z</time>
      </trkpt>
      <trkpt lat="46.52767" lon="0.36804">
        <ele>100.6</ele>
        <time>2023-01-15T11:13:22Z</time>
      </trkpt>
      <trkpt lat="46.52776" lon="0.36802">
        <ele>101.2</ele>
        <time>2023-01-15T11:13:28Z</time>
      </trkpt>
      <trkpt lat="46.5278" lon="0.36801">
        <ele>101.6</ele>
        <time>2023-01-15T11:13:30Z</time>
      </trkpt>
      <trkpt lat="46.52782" lon="0.36801">
        <ele>101.8</ele>
        <time>2023-01-15T11:13:31Z</time>
      </trkpt>
      <trkpt lat="46.52791" lon="0.36802">
        <ele>102.8</ele>
        <time>2023-01-15T11:13:37Z</time>
      </trkpt>
      <trkpt lat="46.52798" lon="0.36802">
        <ele>103.2</ele>
        <time>2023-01-15T11:13:41Z</time>
      </trkpt>
      <trkpt lat="46.52806" lon="0.36803">
        <ele>103.8</ele>
        <time>2023-01-15T11:13:46Z</time>
      </trkpt>
      <trkpt lat="46.52819" lon="0.36807">
        <ele>105</ele>
        <time>2023-01-15T11:13:55Z</time>
      </trkpt>
      <trkpt lat="46.52833" lon="0.36812">
        <ele>106</ele>
        <time>2023-01-15T11:14:05Z</time>
      </trkpt>
      <trkpt lat="46.52846" lon="0.36821">
        <ele>107</ele>
        <time>2023-01-15T11:14:13Z</time>
      </trkpt>
      <trkpt lat="46.5285" lon="0.36824">
        <ele>107</ele>
        <time>2023-01-15T11:14:15Z</time>
      </trkpt>
      <trkpt lat="46.52862" lon="0.36834">
        <ele>107.8</ele>
        <time>2023-01-15T11:14:22Z</time>
      </trkpt>
      <trkpt lat="46.52871" lon="0.3684">
        <ele>107.8</ele>
        <time>2023-01-15T11:14:27Z</time>
      </trkpt>
      <trkpt lat="46.52877" lon="0.36845">
        <ele>108.2</ele>
        <time>2023-01-15T11:14:30Z</time>
      </trkpt>
      <trkpt lat="46.52885" lon="0.36852">
        <ele>108.4</ele>
        <time>2023-01-15T11:14:34Z</time>
      </trkpt>
      <trkpt lat="46.52896" lon="0.36866">
        <ele>108.8</ele>
        <time>2023-01-15T11:14:41Z</time>
      </trkpt>
      <trkpt lat="46.52905" lon="0.3688">
        <ele>109</ele>
        <time>2023-01-15T11:14:48Z</time>
      </trkpt>
      <trkpt lat="46.52907" lon="0.36885">
        <ele>109.2</ele>
        <time>2023-01-15T11:14:50Z</time>
      </trkpt>
      <trkpt lat="46.5291" lon="0.36901">
        <ele>110</ele>
        <time>2023-01-15T11:14:57Z</time>
      </trkpt>
      <trkpt lat="46.52912" lon="0.36911">
        <ele>110.2</ele>
        <time>2023-01-15T11:15:03Z</time>
      </trkpt>
      <trkpt lat="46.52914" lon="0.36922">
        <ele>110.6</ele>
        <time>2023-01-15T11:15:11Z</time>
      </trkpt>
      <trkpt lat="46.52915" lon="0.36925">
        <ele>110.6</ele>
        <time>2023-01-15T11:15:13Z</time>
      </trkpt>
      <trkpt lat="46.52919" lon="0.36944">
        <ele>111.2</ele>
        <time>2023-01-15T11:15:27Z</time>
      </trkpt>
      <trkpt lat="46.5292" lon="0.36948">
        <ele>111.4</ele>
        <time>2023-01-15T11:15:30Z</time>
      </trkpt>
      <trkpt lat="46.52922" lon="0.36958">
        <ele>111.6</ele>
        <time>2023-01-15T11:15:39Z</time>
      </trkpt>
      <trkpt lat="46.52926" lon="0.36974">
        <ele>111.8</ele>
        <time>2023-01-15T11:15:52Z</time>
      </trkpt>
      <trkpt lat="46.52931" lon="0.36994">
        <ele>112.2</ele>
        <time>2023-01-15T11:16:07Z</time>
      </trkpt>
      <trkpt lat="46.52933" lon="0.37">
        <ele>112</ele>
        <time>2023-01-15T11:16:15Z</time>
      </trkpt>
      <trkpt lat="46.52937" lon="0.37014">
        <ele>111.8</ele>
        <time>2023-01-15T11:16:23Z</time>
      </trkpt>
      <trkpt lat="46.52946" lon="0.37021">
        <ele>111</ele>
        <time>2023-01-15T11:16:29Z</time>
      </trkpt>
      <trkpt lat="46.52963" lon="0.3703">
        <ele>110.4</ele>
        <time>2023-01-15T11:16:34Z</time>
      </trkpt>
      <trkpt lat="46.52969" lon="0.37033">
        <ele>109.6</ele>
        <time>2023-01-15T11:16:35Z</time>
      </trkpt>
      <trkpt lat="46.52986" lon="0.37042">
        <ele>108.4</ele>
        <time>2023-01-15T11:16:38Z</time>
      </trkpt>
      <trkpt lat="46.52992" lon="0.37046">
        <ele>107.8</ele>
        <time>2023-01-15T11:16:39Z</time>
      </trkpt>
      <trkpt lat="46.53004" lon="0.37053">
        <ele>107.2</ele>
        <time>2023-01-15T11:16:41Z</time>
      </trkpt>
      <trkpt lat="46.53016" lon="0.37057">
        <ele>106.4</ele>
        <time>2023-01-15T11:16:43Z</time>
      </trkpt>
      <trkpt lat="46.53022" lon="0.37058">
        <ele>106</ele>
        <time>2023-01-15T11:16:44Z</time>
      </trkpt>
      <trkpt lat="46.53034" lon="0.37057">
        <ele>105.2</ele>
        <time>2023-01-15T11:16:46Z</time>
      </trkpt>
      <trkpt lat="46.5304" lon="0.37056">
        <ele>104.4</ele>
        <time>2023-01-15T11:16:47Z</time>
      </trkpt>
      <trkpt lat="46.53055" lon="0.37054">
        <ele>103.4</ele>
        <time>2023-01-15T11:16:49Z</time>
      </trkpt>
      <trkpt lat="46.53063" lon="0.37053">
        <ele>102.8</ele>
        <time>2023-01-15T11:16:50Z</time>
      </trkpt>
      <trkpt lat="46.5309" lon="0.37048">
        <ele>101.4</ele>
        <time>2023-01-15T11:16:53Z</time>
      </trkpt>
      <trkpt lat="46.53108" lon="0.37043">
        <ele>100.4</ele>
        <time>2023-01-15T11:16:55Z</time>
      </trkpt>
      <trkpt lat="46.53117" lon="0.37039">
        <ele>100</ele>
        <time>2023-01-15T11:16:56Z</time>
      </trkpt>
      <trkpt lat="46.53142" lon="0.37029">
        <ele>98.4</ele>
        <time>2023-01-15T11:16:59Z</time>
      </trkpt>
      <trkpt lat="46.53148" lon="0.37024">
        <ele>98</ele>
        <time>2023-01-15T11:17:00Z</time>
      </trkpt>
      <trkpt lat="46.53154" lon="0.37015">
        <ele>97.2</ele>
        <time>2023-01-15T11:17:02Z</time>
      </trkpt>
      <trkpt lat="46.53154" lon="0.37009">
        <ele>97</ele>
        <time>2023-01-15T11:17:03Z</time>
      </trkpt>
      <trkpt lat="46.53152" lon="0.36998">
        <ele>96.8</ele>
        <time>2023-01-15T11:17:05Z</time>
      </trkpt>
      <trkpt lat="46.5315" lon="0.36989">
        <ele>96</ele>
        <time>2023-01-15T11:17:07Z</time>
      </trkpt>
      <trkpt lat="46.53149" lon="0.36986">
        <ele>95.8</ele>
        <time>2023-01-15T11:17:08Z</time>
      </trkpt>
      <trkpt lat="46.53147" lon="0.36977">
        <ele>95.4</ele>
        <time>2023-01-15T11:17:12Z</time>
      </trkpt>
      <trkpt lat="46.53147" lon="0.36975">
        <ele>95.2</ele>
        <time>2023-01-15T11:17:14Z</time>
      </trkpt>
      <trkpt lat="46.53147" lon="0.36975">
        <ele>95</ele>
        <time>2023-01-15T11:17:18Z</time>
      </trkpt>
      <trkpt lat="46.53147" lon="0.36973">
        <ele>94.8</ele>
        <time>2023-01-15T11:17:22Z</time>
      </trkpt>
      <trkpt lat="46.53144" lon="0.36962">
        <ele>95</ele>
        <time>2023-01-15T11:17:31Z</time>
      </trkpt>
      <trkpt lat="46.53139" lon="0.36943">
        <ele>94.4</ele>
        <time>2023-01-15T11:17:37Z</time>
      </trkpt>
      <trkpt lat="46.53132" lon="0.36912">
        <ele>94.2</ele>
        <time>2023-01-15T11:17:44Z</time>
      </trkpt>
      <trkpt lat="46.5313" lon="0.36901">
        <ele>93.8</ele>
        <time>2023-01-15T11:17:46Z</time>
      </trkpt>
      <trkpt lat="46.53123" lon="0.36881">
        <ele>93</ele>
        <time>2023-01-15T11:17:49Z</time>
      </trkpt>
      <trkpt lat="46.53116" lon="0.36866">
        <ele>92.6</ele>
        <time>2023-01-15T11:17:51Z</time>
      </trkpt>
      <trkpt lat="46.53107" lon="0.36844">
        <ele>92.2</ele>
        <time>2023-01-15T11:17:54Z</time>
      </trkpt>
      <trkpt lat="46.53099" lon="0.36823">
        <ele>91.4</ele>
        <time>2023-01-15T11:17:57Z</time>
      </trkpt>
      <trkpt lat="46.53096" lon="0.36817">
        <ele>91</ele>
        <time>2023-01-15T11:17:58Z</time>
      </trkpt>
      <trkpt lat="46.53091" lon="0.36802">
        <ele>90.2</ele>
        <time>2023-01-15T11:18:00Z</time>
      </trkpt>
      <trkpt lat="46.53084" lon="0.36769">
        <ele>89.2</ele>
        <time>2023-01-15T11:18:04Z</time>
      </trkpt>
      <trkpt lat="46.53082" lon="0.36753">
        <ele>88.6</ele>
        <time>2023-01-15T11:18:06Z</time>
      </trkpt>
      <trkpt lat="46.53082" lon="0.36736">
        <ele>88</ele>
        <time>2023-01-15T11:18:08Z</time>
      </trkpt>
      <trkpt lat="46.53083" lon="0.36728">
        <ele>87.4</ele>
        <time>2023-01-15T11:18:09Z</time>
      </trkpt>
      <trkpt lat="46.53084" lon="0.36721">
        <ele>86.8</ele>
        <time>2023-01-15T11:18:10Z</time>
      </trkpt>
      <trkpt lat="46.53086" lon="0.36714">
        <ele>86.2</ele>
        <time>2023-01-15T11:18:11Z</time>
      </trkpt>
      <trkpt lat="46.53089" lon="0.36707">
        <ele>85.8</ele>
        <time>2023-01-15T11:18:12Z</time>
      </trkpt>
      <trkpt lat="46.531" lon="0.36679">
        <ele>85</ele>
        <time>2023-01-15T11:18:16Z</time>
      </trkpt>
      <trkpt lat="46.53105" lon="0.36666">
        <ele>84.8</ele>
        <time>2023-01-15T11:18:18Z</time>
      </trkpt>
      <trkpt lat="46.53108" lon="0.36659">
        <ele>84.6</ele>
        <time>2023-01-15T11:18:19Z</time>
      </trkpt>
      <trkpt lat="46.53115" lon="0.36646">
        <ele>84.4</ele>
        <time>2023-01-15T11:18:21Z</time>
      </trkpt>
      <trkpt lat="46.53131" lon="0.3661">
        <ele>83.8</ele>
        <time>2023-01-15T11:18:27Z</time>
      </trkpt>
      <trkpt lat="46.53136" lon="0.36596">
        <ele>83.6</ele>
        <time>2023-01-15T11:18:29Z</time>
      </trkpt>
      <trkpt lat="46.5315" lon="0.36561">
        <ele>82.6</ele>
        <time>2023-01-15T11:18:33Z</time>
      </trkpt>
      <trkpt lat="46.53153" lon="0.3655">
        <ele>82.4</ele>
        <time>2023-01-15T11:18:34Z</time>
      </trkpt>
      <trkpt lat="46.53164" lon="0.36516">
        <ele>81.2</ele>
        <time>2023-01-15T11:18:37Z</time>
      </trkpt>
      <trkpt lat="46.53168" lon="0.36505">
        <ele>80.8</ele>
        <time>2023-01-15T11:18:38Z</time>
      </trkpt>
      <trkpt lat="46.53176" lon="0.36484">
        <ele>80.2</ele>
        <time>2023-01-15T11:18:40Z</time>
      </trkpt>
      <trkpt lat="46.53184" lon="0.36464">
        <ele>79.8</ele>
        <time>2023-01-15T11:18:42Z</time>
      </trkpt>
      <trkpt lat="46.53189" lon="0.36455">
        <ele>79.8</ele>
        <time>2023-01-15T11:18:43Z</time>
      </trkpt>
      <trkpt lat="46.53218" lon="0.36406">
        <ele>79.2</ele>
        <time>2023-01-15T11:18:49Z</time>
      </trkpt>
      <trkpt lat="46.5324" lon="0.36374">
        <ele>79.4</ele>
        <time>2023-01-15T11:18:54Z</time>
      </trkpt>
      <trkpt lat="46.53245" lon="0.3637">
        <ele>79.4</ele>
        <time>2023-01-15T11:18:55Z</time>
      </trkpt>
      <trkpt lat="46.53261" lon="0.36359">
        <ele>79.4</ele>
        <time>2023-01-15T11:18:58Z</time>
      </trkpt>
      <trkpt lat="46.53268" lon="0.36351">
        <ele>79.8</ele>
        <time>2023-01-15T11:19:00Z</time>
      </trkpt>
      <trkpt lat="46.53272" lon="0.3634">
        <ele>80</ele>
        <time>2023-01-15T11:19:02Z</time>
      </trkpt>
      <trkpt lat="46.53273" lon="0.36326">
        <ele>80.2</ele>
        <time>2023-01-15T11:19:04Z</time>
      </trkpt>
      <trkpt lat="46.5327" lon="0.3631">
        <ele>80.4</ele>
        <time>2023-01-15T11:19:06Z</time>
      </trkpt>
      <trkpt lat="46.53268" lon="0.36296">
        <ele>80.6</ele>
        <time>2023-01-15T11:19:08Z</time>
      </trkpt>
      <trkpt lat="46.53264" lon="0.36283">
        <ele>81.2</ele>
        <time>2023-01-15T11:19:10Z</time>
      </trkpt>
      <trkpt lat="46.53263" lon="0.3627">
        <ele>82.2</ele>
        <time>2023-01-15T11:19:13Z</time>
      </trkpt>
      <trkpt lat="46.53264" lon="0.36266">
        <ele>82.4</ele>
        <time>2023-01-15T11:19:14Z</time>
      </trkpt>
      <trkpt lat="46.53264" lon="0.36263">
        <ele>83</ele>
        <time>2023-01-15T11:19:15Z</time>
      </trkpt>
      <trkpt lat="46.53262" lon="0.3625">
        <ele>84</ele>
        <time>2023-01-15T11:19:18Z</time>
      </trkpt>
      <trkpt lat="46.53262" lon="0.36242">
        <ele>84.4</ele>
        <time>2023-01-15T11:19:20Z</time>
      </trkpt>
      <trkpt lat="46.53261" lon="0.36221">
        <ele>85.2</ele>
        <time>2023-01-15T11:19:25Z</time>
      </trkpt>
      <trkpt lat="46.5326" lon="0.36213">
        <ele>85.4</ele>
        <time>2023-01-15T11:19:27Z</time>
      </trkpt>
      <trkpt lat="46.53254" lon="0.36182">
        <ele>86.2</ele>
        <time>2023-01-15T11:19:34Z</time>
      </trkpt>
      <trkpt lat="46.53249" lon="0.36154">
        <ele>87</ele>
        <time>2023-01-15T11:19:41Z</time>
      </trkpt>
      <trkpt lat="46.53245" lon="0.36143">
        <ele>87.4</ele>
        <time>2023-01-15T11:19:44Z</time>
      </trkpt>
      <trkpt lat="46.5324" lon="0.36126">
        <ele>88</ele>
        <time>2023-01-15T11:19:49Z</time>
      </trkpt>
      <trkpt lat="46.5324" lon="0.36117">
        <ele>88.4</ele>
        <time>2023-01-15T11:19:51Z</time>
      </trkpt>
      <trkpt lat="46.53242" lon="0.3611">
        <ele>88.8</ele>
        <time>2023-01-15T11:19:54Z</time>
      </trkpt>
      <trkpt lat="46.5325" lon="0.36099">
        <ele>88.4</ele>
        <time>2023-01-15T11:20:01Z</time>
      </trkpt>
      <trkpt lat="46.5326" lon="0.36089">
        <ele>89</ele>
        <time>2023-01-15T11:20:09Z</time>
      </trkpt>
      <trkpt lat="46.53263" lon="0.36087">
        <ele>89.6</ele>
        <time>2023-01-15T11:20:12Z</time>
      </trkpt>
      <trkpt lat="46.53268" lon="0.36082">
        <ele>90.4</ele>
        <time>2023-01-15T11:20:17Z</time>
      </trkpt>
      <trkpt lat="46.53269" lon="0.36081">
        <ele>90.8</ele>
        <time>2023-01-15T11:20:19Z</time>
      </trkpt>
      <trkpt lat="46.53274" lon="0.36076">
        <ele>92</ele>
        <time>2023-01-15T11:20:25Z</time>
      </trkpt>
      <trkpt lat="46.53276" lon="0.36075">
        <ele>92.4</ele>
        <time>2023-01-15T11:20:27Z</time>
      </trkpt>
      <trkpt lat="46.5328" lon="0.36073">
        <ele>92.8</ele>
        <time>2023-01-15T11:20:30Z</time>
      </trkpt>
      <trkpt lat="46.53281" lon="0.36072">
        <ele>93</ele>
        <time>2023-01-15T11:20:31Z</time>
      </trkpt>
      <trkpt lat="46.53287" lon="0.36068">
        <ele>94.2</ele>
        <time>2023-01-15T11:20:37Z</time>
      </trkpt>
      <trkpt lat="46.53289" lon="0.36067">
        <ele>94.4</ele>
        <time>2023-01-15T11:20:39Z</time>
      </trkpt>
      <trkpt lat="46.53292" lon="0.36064">
        <ele>95.2</ele>
        <time>2023-01-15T11:20:43Z</time>
      </trkpt>
      <trkpt lat="46.53297" lon="0.36061">
        <ele>96.2</ele>
        <time>2023-01-15T11:20:48Z</time>
      </trkpt>
      <trkpt lat="46.53301" lon="0.36059">
        <ele>96.6</ele>
        <time>2023-01-15T11:20:52Z</time>
      </trkpt>
      <trkpt lat="46.53305" lon="0.36059">
        <ele>97.2</ele>
        <time>2023-01-15T11:20:55Z</time>
      </trkpt>
      <trkpt lat="46.53315" lon="0.36058">
        <ele>98.4</ele>
        <time>2023-01-15T11:21:04Z</time>
      </trkpt>
      <trkpt lat="46.53321" lon="0.36058">
        <ele>99.6</ele>
        <time>2023-01-15T11:21:08Z</time>
      </trkpt>
      <trkpt lat="46.53338" lon="0.36058">
        <ele>100.6</ele>
        <time>2023-01-15T11:21:22Z</time>
      </trkpt>
      <trkpt lat="46.53347" lon="0.36061">
        <ele>101.8</ele>
        <time>2023-01-15T11:21:30Z</time>
      </trkpt>
      <trkpt lat="46.53353" lon="0.36064">
        <ele>102.2</ele>
        <time>2023-01-15T11:21:35Z</time>
      </trkpt>
      <trkpt lat="46.53357" lon="0.36066">
        <ele>102.8</ele>
        <time>2023-01-15T11:21:38Z</time>
      </trkpt>
      <trkpt lat="46.53366" lon="0.3607">
        <ele>103.8</ele>
        <time>2023-01-15T11:21:47Z</time>
      </trkpt>
      <trkpt lat="46.53367" lon="0.36071">
        <ele>104</ele>
        <time>2023-01-15T11:21:48Z</time>
      </trkpt>
      <trkpt lat="46.53382" lon="0.36086">
        <ele>105</ele>
        <time>2023-01-15T11:22:00Z</time>
      </trkpt>
      <trkpt lat="46.53397" lon="0.361">
        <ele>106</ele>
        <time>2023-01-15T11:22:12Z</time>
      </trkpt>
      <trkpt lat="46.534" lon="0.36103">
        <ele>106.4</ele>
        <time>2023-01-15T11:22:14Z</time>
      </trkpt>
      <trkpt lat="46.53405" lon="0.36106">
        <ele>107</ele>
        <time>2023-01-15T11:22:17Z</time>
      </trkpt>
      <trkpt lat="46.53418" lon="0.36114">
        <ele>107.4</ele>
        <time>2023-01-15T11:22:24Z</time>
      </trkpt>
      <trkpt lat="46.53435" lon="0.36127">
        <ele>107.4</ele>
        <time>2023-01-15T11:22:31Z</time>
      </trkpt>
      <trkpt lat="46.53445" lon="0.36135">
        <ele>107.4</ele>
        <time>2023-01-15T11:22:37Z</time>
      </trkpt>
      <trkpt lat="46.53455" lon="0.36149">
        <ele>107.4</ele>
        <time>2023-01-15T11:22:43Z</time>
      </trkpt>
      <trkpt lat="46.53472" lon="0.36167">
        <ele>107.4</ele>
        <time>2023-01-15T11:22:50Z</time>
      </trkpt>
      <trkpt lat="46.53493" lon="0.36177">
        <ele>107.4</ele>
        <time>2023-01-15T11:22:57Z</time>
      </trkpt>
      <trkpt lat="46.53516" lon="0.36179">
        <ele>108.2</ele>
        <time>2023-01-15T11:23:03Z</time>
      </trkpt>
      <trkpt lat="46.53519" lon="0.36179">
        <ele>108.4</ele>
        <time>2023-01-15T11:23:04Z</time>
      </trkpt>
      <trkpt lat="46.53534" lon="0.36182">
        <ele>108.8</ele>
        <time>2023-01-15T11:23:09Z</time>
      </trkpt>
      <trkpt lat="46.53538" lon="0.36184">
        <ele>108.8</ele>
        <time>2023-01-15T11:23:10Z</time>
      </trkpt>
      <trkpt lat="46.53566" lon="0.36202">
        <ele>108.6</ele>
        <time>2023-01-15T11:23:18Z</time>
      </trkpt>
      <trkpt lat="46.53579" lon="0.3621">
        <ele>108.2</ele>
        <time>2023-01-15T11:23:22Z</time>
      </trkpt>
      <trkpt lat="46.53587" lon="0.36219">
        <ele>108</ele>
        <time>2023-01-15T11:23:24Z</time>
      </trkpt>
      <trkpt lat="46.53602" lon="0.36243">
        <ele>107.2</ele>
        <time>2023-01-15T11:23:29Z</time>
      </trkpt>
      <trkpt lat="46.53605" lon="0.36247">
        <ele>107</ele>
        <time>2023-01-15T11:23:30Z</time>
      </trkpt>
      <trkpt lat="46.53624" lon="0.36271">
        <ele>107.2</ele>
        <time>2023-01-15T11:23:38Z</time>
      </trkpt>
      <trkpt lat="46.53644" lon="0.36293">
        <ele>107</ele>
        <time>2023-01-15T11:23:44Z</time>
      </trkpt>
      <trkpt lat="46.53657" lon="0.36307">
        <ele>106.6</ele>
        <time>2023-01-15T11:23:48Z</time>
      </trkpt>
      <trkpt lat="46.53663" lon="0.36313">
        <ele>106.4</ele>
        <time>2023-01-15T11:23:50Z</time>
      </trkpt>
      <trkpt lat="46.53684" lon="0.36333">
        <ele>105.8</ele>
        <time>2023-01-15T11:23:55Z</time>
      </trkpt>
      <trkpt lat="46.53689" lon="0.36338">
        <ele>106</ele>
        <time>2023-01-15T11:23:56Z</time>
      </trkpt>
      <trkpt lat="46.53726" lon="0.3637">
        <ele>106.2</ele>
        <time>2023-01-15T11:24:04Z</time>
      </trkpt>
      <trkpt lat="46.53744" lon="0.36384">
        <ele>107</ele>
        <time>2023-01-15T11:24:10Z</time>
      </trkpt>
      <trkpt lat="46.5376" lon="0.36403">
        <ele>108</ele>
        <time>2023-01-15T11:24:17Z</time>
      </trkpt>
      <trkpt lat="46.53782" lon="0.36425">
        <ele>107.6</ele>
        <time>2023-01-15T11:24:24Z</time>
      </trkpt>
      <trkpt lat="46.53802" lon="0.36441">
        <ele>107</ele>
        <time>2023-01-15T11:24:29Z</time>
      </trkpt>
      <trkpt lat="46.53807" lon="0.36443">
        <ele>106.8</ele>
        <time>2023-01-15T11:24:30Z</time>
      </trkpt>
      <trkpt lat="46.53816" lon="0.36444">
        <ele>106.8</ele>
        <time>2023-01-15T11:24:32Z</time>
      </trkpt>
      <trkpt lat="46.53819" lon="0.36442">
        <ele>106.8</ele>
        <time>2023-01-15T11:24:33Z</time>
      </trkpt>
      <trkpt lat="46.53826" lon="0.36424">
        <ele>107.2</ele>
        <time>2023-01-15T11:24:37Z</time>
      </trkpt>
      <trkpt lat="46.53826" lon="0.36401">
        <ele>107.8</ele>
        <time>2023-01-15T11:24:42Z</time>
      </trkpt>
      <trkpt lat="46.53826" lon="0.36391">
        <ele>108.2</ele>
        <time>2023-01-15T11:24:44Z</time>
      </trkpt>
      <trkpt lat="46.53826" lon="0.36364">
        <ele>109.2</ele>
        <time>2023-01-15T11:24:50Z</time>
      </trkpt>
      <trkpt lat="46.53825" lon="0.36355">
        <ele>109.6</ele>
        <time>2023-01-15T11:24:52Z</time>
      </trkpt>
      <trkpt lat="46.53823" lon="0.36333">
        <ele>110.2</ele>
        <time>2023-01-15T11:24:57Z</time>
      </trkpt>
      <trkpt lat="46.53822" lon="0.3632">
        <ele>110.6</ele>
        <time>2023-01-15T11:25:00Z</time>
      </trkpt>
      <trkpt lat="46.53822" lon="0.36294">
        <ele>111.2</ele>
        <time>2023-01-15T11:25:06Z</time>
      </trkpt>
      <trkpt lat="46.53822" lon="0.3629">
        <ele>111.2</ele>
        <time>2023-01-15T11:25:07Z</time>
      </trkpt>
      <trkpt lat="46.53829" lon="0.36267">
        <ele>111.8</ele>
        <time>2023-01-15T11:25:13Z</time>
      </trkpt>
      <trkpt lat="46.5384" lon="0.3624">
        <ele>112.2</ele>
        <time>2023-01-15T11:25:19Z</time>
      </trkpt>
      <trkpt lat="46.53845" lon="0.36226">
        <ele>112.4</ele>
        <time>2023-01-15T11:25:22Z</time>
      </trkpt>
      <trkpt lat="46.53857" lon="0.36202">
        <ele>112.8</ele>
        <time>2023-01-15T11:25:27Z</time>
      </trkpt>
      <trkpt lat="46.53879" lon="0.36166">
        <ele>112.6</ele>
        <time>2023-01-15T11:25:35Z</time>
      </trkpt>
      <trkpt lat="46.53903" lon="0.36129">
        <ele>112.2</ele>
        <time>2023-01-15T11:25:43Z</time>
      </trkpt>
      <trkpt lat="46.53923" lon="0.36101">
        <ele>111.6</ele>
        <time>2023-01-15T11:25:49Z</time>
      </trkpt>
      <trkpt lat="46.53931" lon="0.36093">
        <ele>111.6</ele>
        <time>2023-01-15T11:25:51Z</time>
      </trkpt>
      <trkpt lat="46.53943" lon="0.36081">
        <ele>111.2</ele>
        <time>2023-01-15T11:25:54Z</time>
      </trkpt>
      <trkpt lat="46.5396" lon="0.36063">
        <ele>110.8</ele>
        <time>2023-01-15T11:25:58Z</time>
      </trkpt>
      <trkpt lat="46.53977" lon="0.36039">
        <ele>110.6</ele>
        <time>2023-01-15T11:26:02Z</time>
      </trkpt>
      <trkpt lat="46.5398" lon="0.36032">
        <ele>110.6</ele>
        <time>2023-01-15T11:26:03Z</time>
      </trkpt>
      <trkpt lat="46.53986" lon="0.36015">
        <ele>110</ele>
        <time>2023-01-15T11:26:05Z</time>
      </trkpt>
      <trkpt lat="46.53987" lon="0.36006">
        <ele>109.8</ele>
        <time>2023-01-15T11:26:06Z</time>
      </trkpt>
      <trkpt lat="46.53989" lon="0.35987">
        <ele>109.4</ele>
        <time>2023-01-15T11:26:08Z</time>
      </trkpt>
      <trkpt lat="46.53994" lon="0.35928">
        <ele>109.2</ele>
        <time>2023-01-15T11:26:15Z</time>
      </trkpt>
      <trkpt lat="46.53997" lon="0.35895">
        <ele>110</ele>
        <time>2023-01-15T11:26:21Z</time>
      </trkpt>
      <trkpt lat="46.54001" lon="0.35848">
        <ele>111.2</ele>
        <time>2023-01-15T11:26:31Z</time>
      </trkpt>
      <trkpt lat="46.54002" lon="0.35813">
        <ele>112.2</ele>
        <time>2023-01-15T11:26:40Z</time>
      </trkpt>
      <trkpt lat="46.54002" lon="0.35809">
        <ele>112.4</ele>
        <time>2023-01-15T11:26:41Z</time>
      </trkpt>
      <trkpt lat="46.54004" lon="0.35768">
        <ele>113</ele>
        <time>2023-01-15T11:26:51Z</time>
      </trkpt>
      <trkpt lat="46.5401" lon="0.35735">
        <ele>113</ele>
        <time>2023-01-15T11:26:59Z</time>
      </trkpt>
      <trkpt lat="46.54011" lon="0.35726">
        <ele>113.2</ele>
        <time>2023-01-15T11:27:01Z</time>
      </trkpt>
      <trkpt lat="46.54018" lon="0.35692">
        <ele>113.6</ele>
        <time>2023-01-15T11:27:08Z</time>
      </trkpt>
      <trkpt lat="46.54027" lon="0.3566">
        <ele>113.6</ele>
        <time>2023-01-15T11:27:14Z</time>
      </trkpt>
      <trkpt lat="46.54043" lon="0.35623">
        <ele>114</ele>
        <time>2023-01-15T11:27:21Z</time>
      </trkpt>
      <trkpt lat="46.54064" lon="0.35583">
        <ele>114</ele>
        <time>2023-01-15T11:27:29Z</time>
      </trkpt>
      <trkpt lat="46.54082" lon="0.35544">
        <ele>113.6</ele>
        <time>2023-01-15T11:27:37Z</time>
      </trkpt>
      <trkpt lat="46.54099" lon="0.35495">
        <ele>113.6</ele>
        <time>2023-01-15T11:27:45Z</time>
      </trkpt>
      <trkpt lat="46.541" lon="0.35488">
        <ele>113.6</ele>
        <time>2023-01-15T11:27:46Z</time>
      </trkpt>
      <trkpt lat="46.54102" lon="0.35458">
        <ele>112.6</ele>
        <time>2023-01-15T11:27:51Z</time>
      </trkpt>
      <trkpt lat="46.54103" lon="0.35453">
        <ele>112.6</ele>
        <time>2023-01-15T11:27:52Z</time>
      </trkpt>
      <trkpt lat="46.54105" lon="0.35448">
        <ele>112.6</ele>
        <time>2023-01-15T11:27:53Z</time>
      </trkpt>
      <trkpt lat="46.54118" lon="0.35429">
        <ele>113</ele>
        <time>2023-01-15T11:27:57Z</time>
      </trkpt>
      <trkpt lat="46.54133" lon="0.35403">
        <ele>113.4</ele>
        <time>2023-01-15T11:28:03Z</time>
      </trkpt>
      <trkpt lat="46.54145" lon="0.35378">
        <ele>113.8</ele>
        <time>2023-01-15T11:28:09Z</time>
      </trkpt>
      <trkpt lat="46.54154" lon="0.35359">
        <ele>113.2</ele>
        <time>2023-01-15T11:28:13Z</time>
      </trkpt>
      <trkpt lat="46.54157" lon="0.35356">
        <ele>113</ele>
        <time>2023-01-15T11:28:14Z</time>
      </trkpt>
      <trkpt lat="46.54178" lon="0.35338">
        <ele>113.2</ele>
        <time>2023-01-15T11:28:20Z</time>
      </trkpt>
      <trkpt lat="46.5418" lon="0.35335">
        <ele>113.2</ele>
        <time>2023-01-15T11:28:21Z</time>
      </trkpt>
      <trkpt lat="46.54183" lon="0.35331">
        <ele>113.4</ele>
        <time>2023-01-15T11:28:22Z</time>
      </trkpt>
      <trkpt lat="46.54192" lon="0.35319">
        <ele>113.6</ele>
        <time>2023-01-15T11:28:26Z</time>
      </trkpt>
      <trkpt lat="46.54201" lon="0.35301">
        <ele>114</ele>
        <time>2023-01-15T11:28:32Z</time>
      </trkpt>
      <trkpt lat="46.54206" lon="0.35291">
        <ele>114.2</ele>
        <time>2023-01-15T11:28:35Z</time>
      </trkpt>
      <trkpt lat="46.54211" lon="0.35286">
        <ele>114.2</ele>
        <time>2023-01-15T11:28:37Z</time>
      </trkpt>
      <trkpt lat="46.5422" lon="0.35273">
        <ele>114.4</ele>
        <time>2023-01-15T11:28:41Z</time>
      </trkpt>
      <trkpt lat="46.54225" lon="0.35266">
        <ele>114.4</ele>
        <time>2023-01-15T11:28:43Z</time>
      </trkpt>
      <trkpt lat="46.54228" lon="0.35263">
        <ele>114.2</ele>
        <time>2023-01-15T11:28:44Z</time>
      </trkpt>
      <trkpt lat="46.5424" lon="0.35244">
        <ele>114.2</ele>
        <time>2023-01-15T11:28:49Z</time>
      </trkpt>
      <trkpt lat="46.54246" lon="0.3524">
        <ele>114</ele>
        <time>2023-01-15T11:28:51Z</time>
      </trkpt>
      <trkpt lat="46.5425" lon="0.3524">
        <ele>114</ele>
        <time>2023-01-15T11:28:53Z</time>
      </trkpt>
      <trkpt lat="46.54262" lon="0.3524">
        <ele>114.2</ele>
        <time>2023-01-15T11:28:58Z</time>
      </trkpt>
      <trkpt lat="46.54265" lon="0.3524">
        <ele>114.2</ele>
        <time>2023-01-15T11:28:59Z</time>
      </trkpt>
      <trkpt lat="46.54267" lon="0.35238">
        <ele>114.4</ele>
        <time>2023-01-15T11:29:00Z</time>
      </trkpt>
      <trkpt lat="46.54277" lon="0.35232">
        <ele>114.8</ele>
        <time>2023-01-15T11:29:04Z</time>
      </trkpt>
      <trkpt lat="46.54292" lon="0.35226">
        <ele>114.6</ele>
        <time>2023-01-15T11:29:10Z</time>
      </trkpt>
      <trkpt lat="46.54307" lon="0.35227">
        <ele>114.2</ele>
        <time>2023-01-15T11:29:15Z</time>
      </trkpt>
      <trkpt lat="46.54319" lon="0.35223">
        <ele>114</ele>
        <time>2023-01-15T11:29:20Z</time>
      </trkpt>
      <trkpt lat="46.54339" lon="0.35216">
        <ele>113.8</ele>
        <time>2023-01-15T11:29:26Z</time>
      </trkpt>
      <trkpt lat="46.54354" lon="0.3521">
        <ele>113.8</ele>
        <time>2023-01-15T11:29:32Z</time>
      </trkpt>
      <trkpt lat="46.54374" lon="0.352">
        <ele>113.4</ele>
        <time>2023-01-15T11:29:39Z</time>
      </trkpt>
      <trkpt lat="46.54377" lon="0.35199">
        <ele>113.2</ele>
        <time>2023-01-15T11:29:40Z</time>
      </trkpt>
      <trkpt lat="46.54391" lon="0.35193">
        <ele>113.2</ele>
        <time>2023-01-15T11:29:45Z</time>
      </trkpt>
      <trkpt lat="46.54403" lon="0.35198">
        <ele>112.6</ele>
        <time>2023-01-15T11:29:50Z</time>
      </trkpt>
      <trkpt lat="46.54415" lon="0.35199">
        <ele>112.4</ele>
        <time>2023-01-15T11:29:55Z</time>
      </trkpt>
      <trkpt lat="46.54417" lon="0.35199">
        <ele>112.4</ele>
        <time>2023-01-15T11:29:56Z</time>
      </trkpt>
      <trkpt lat="46.54422" lon="0.35197">
        <ele>112.2</ele>
        <time>2023-01-15T11:29:58Z</time>
      </trkpt>
      <trkpt lat="46.54428" lon="0.35193">
        <ele>112.2</ele>
        <time>2023-01-15T11:30:01Z</time>
      </trkpt>
      <trkpt lat="46.54441" lon="0.35191">
        <ele>112</ele>
        <time>2023-01-15T11:30:06Z</time>
      </trkpt>
      <trkpt lat="46.54462" lon="0.35191">
        <ele>111.6</ele>
        <time>2023-01-15T11:30:12Z</time>
      </trkpt>
      <trkpt lat="46.54475" lon="0.35188">
        <ele>111.2</ele>
        <time>2023-01-15T11:30:16Z</time>
      </trkpt>
      <trkpt lat="46.54478" lon="0.35186">
        <ele>111</ele>
        <time>2023-01-15T11:30:17Z</time>
      </trkpt>
      <trkpt lat="46.54485" lon="0.35182">
        <ele>111</ele>
        <time>2023-01-15T11:30:19Z</time>
      </trkpt>
      <trkpt lat="46.545" lon="0.35178">
        <ele>111</ele>
        <time>2023-01-15T11:30:23Z</time>
      </trkpt>
      <trkpt lat="46.54517" lon="0.35175">
        <ele>110.6</ele>
        <time>2023-01-15T11:30:29Z</time>
      </trkpt>
      <trkpt lat="46.54525" lon="0.35177">
        <ele>110.2</ele>
        <time>2023-01-15T11:30:33Z</time>
      </trkpt>
      <trkpt lat="46.54532" lon="0.35178">
        <ele>110</ele>
        <time>2023-01-15T11:30:35Z</time>
      </trkpt>
      <trkpt lat="46.54553" lon="0.35173">
        <ele>109.4</ele>
        <time>2023-01-15T11:30:41Z</time>
      </trkpt>
      <trkpt lat="46.54571" lon="0.35166">
        <ele>109</ele>
        <time>2023-01-15T11:30:47Z</time>
      </trkpt>
      <trkpt lat="46.54573" lon="0.35164">
        <ele>108.8</ele>
        <time>2023-01-15T11:30:48Z</time>
      </trkpt>
      <trkpt lat="46.54575" lon="0.35163">
        <ele>108.8</ele>
        <time>2023-01-15T11:30:49Z</time>
      </trkpt>
      <trkpt lat="46.54578" lon="0.3516">
        <ele>108.8</ele>
        <time>2023-01-15T11:30:51Z</time>
      </trkpt>
      <trkpt lat="46.5458" lon="0.35157">
        <ele>108.8</ele>
        <time>2023-01-15T11:30:52Z</time>
      </trkpt>
      <trkpt lat="46.54586" lon="0.35142">
        <ele>110</ele>
        <time>2023-01-15T11:30:58Z</time>
      </trkpt>
      <trkpt lat="46.54591" lon="0.35134">
        <ele>110.4</ele>
        <time>2023-01-15T11:31:01Z</time>
      </trkpt>
      <trkpt lat="46.54601" lon="0.35118">
        <ele>111.2</ele>
        <time>2023-01-15T11:31:08Z</time>
      </trkpt>
      <trkpt lat="46.54604" lon="0.35099">
        <ele>111.8</ele>
        <time>2023-01-15T11:31:14Z</time>
      </trkpt>
      <trkpt lat="46.54604" lon="0.35097">
        <ele>112</ele>
        <time>2023-01-15T11:31:15Z</time>
      </trkpt>
      <trkpt lat="46.546" lon="0.35092">
        <ele>112.2</ele>
        <time>2023-01-15T11:31:17Z</time>
      </trkpt>
      <trkpt lat="46.54597" lon="0.35088">
        <ele>112.2</ele>
        <time>2023-01-15T11:31:19Z</time>
      </trkpt>
      <trkpt lat="46.5458" lon="0.3508">
        <ele>112.4</ele>
        <time>2023-01-15T11:31:24Z</time>
      </trkpt>
      <trkpt lat="46.54563" lon="0.35074">
        <ele>112.4</ele>
        <time>2023-01-15T11:31:29Z</time>
      </trkpt>
      <trkpt lat="46.54543" lon="0.35066">
        <ele>112.4</ele>
        <time>2023-01-15T11:31:35Z</time>
      </trkpt>
      <trkpt lat="46.54534" lon="0.35056">
        <ele>112.6</ele>
        <time>2023-01-15T11:31:40Z</time>
      </trkpt>
      <trkpt lat="46.54514" lon="0.35034">
        <ele>113</ele>
        <time>2023-01-15T11:31:49Z</time>
      </trkpt>
      <trkpt lat="46.54508" lon="0.35026">
        <ele>113.2</ele>
        <time>2023-01-15T11:31:52Z</time>
      </trkpt>
      <trkpt lat="46.54502" lon="0.35016">
        <ele>113.2</ele>
        <time>2023-01-15T11:31:55Z</time>
      </trkpt>
      <trkpt lat="46.54496" lon="0.34995">
        <ele>113</ele>
        <time>2023-01-15T11:32:00Z</time>
      </trkpt>
      <trkpt lat="46.54494" lon="0.34992">
        <ele>113.2</ele>
        <time>2023-01-15T11:32:01Z</time>
      </trkpt>
      <trkpt lat="46.54486" lon="0.34983">
        <ele>113.2</ele>
        <time>2023-01-15T11:32:04Z</time>
      </trkpt>
      <trkpt lat="46.5448" lon="0.34972">
        <ele>113</ele>
        <time>2023-01-15T11:32:07Z</time>
      </trkpt>
      <trkpt lat="46.54478" lon="0.34964">
        <ele>113</ele>
        <time>2023-01-15T11:32:09Z</time>
      </trkpt>
      <trkpt lat="46.54476" lon="0.3496">
        <ele>113</ele>
        <time>2023-01-15T11:32:10Z</time>
      </trkpt>
      <trkpt lat="46.5447" lon="0.34953">
        <ele>112.8</ele>
        <time>2023-01-15T11:32:13Z</time>
      </trkpt>
      <trkpt lat="46.54452" lon="0.34945">
        <ele>112.6</ele>
        <time>2023-01-15T11:32:18Z</time>
      </trkpt>
      <trkpt lat="46.54443" lon="0.34938">
        <ele>112.6</ele>
        <time>2023-01-15T11:32:21Z</time>
      </trkpt>
      <trkpt lat="46.54439" lon="0.34938">
        <ele>112.6</ele>
        <time>2023-01-15T11:32:23Z</time>
      </trkpt>
      <trkpt lat="46.54428" lon="0.34946">
        <ele>112.6</ele>
        <time>2023-01-15T11:32:29Z</time>
      </trkpt>
      <trkpt lat="46.54421" lon="0.34954">
        <ele>112.8</ele>
        <time>2023-01-15T11:32:34Z</time>
      </trkpt>
      <trkpt lat="46.54414" lon="0.34964">
        <ele>113.4</ele>
        <time>2023-01-15T11:32:38Z</time>
      </trkpt>
      <trkpt lat="46.54408" lon="0.34972">
        <ele>113.2</ele>
        <time>2023-01-15T11:32:41Z</time>
      </trkpt>
      <trkpt lat="46.54405" lon="0.34975">
        <ele>113.4</ele>
        <time>2023-01-15T11:32:42Z</time>
      </trkpt>
      <trkpt lat="46.54403" lon="0.34977">
        <ele>113.4</ele>
        <time>2023-01-15T11:32:43Z</time>
      </trkpt>
      <trkpt lat="46.54397" lon="0.34987">
        <ele>113.4</ele>
        <time>2023-01-15T11:32:47Z</time>
      </trkpt>
      <trkpt lat="46.54378" lon="0.35018">
        <ele>113.4</ele>
        <time>2023-01-15T11:32:54Z</time>
      </trkpt>
      <trkpt lat="46.54362" lon="0.3504">
        <ele>113</ele>
        <time>2023-01-15T11:33:00Z</time>
      </trkpt>
      <trkpt lat="46.54359" lon="0.3504">
        <ele>112.8</ele>
        <time>2023-01-15T11:33:02Z</time>
      </trkpt>
      <trkpt lat="46.54355" lon="0.35041">
        <ele>112.6</ele>
        <time>2023-01-15T11:33:05Z</time>
      </trkpt>
      <trkpt lat="46.54353" lon="0.35042">
        <ele>112.6</ele>
        <time>2023-01-15T11:33:06Z</time>
      </trkpt>
      <trkpt lat="46.54347" lon="0.35045">
        <ele>112.8</ele>
        <time>2023-01-15T11:33:09Z</time>
      </trkpt>
      <trkpt lat="46.54331" lon="0.35053">
        <ele>113</ele>
        <time>2023-01-15T11:33:15Z</time>
      </trkpt>
      <trkpt lat="46.54315" lon="0.35056">
        <ele>112.4</ele>
        <time>2023-01-15T11:33:21Z</time>
      </trkpt>
      <trkpt lat="46.54303" lon="0.35053">
        <ele>112.2</ele>
        <time>2023-01-15T11:33:26Z</time>
      </trkpt>
      <trkpt lat="46.54296" lon="0.35052">
        <ele>111.6</ele>
        <time>2023-01-15T11:33:29Z</time>
      </trkpt>
      <trkpt lat="46.5429" lon="0.3505">
        <ele>111.2</ele>
        <time>2023-01-15T11:33:31Z</time>
      </trkpt>
      <trkpt lat="46.54273" lon="0.35044">
        <ele>111</ele>
        <time>2023-01-15T11:33:36Z</time>
      </trkpt>
      <trkpt lat="46.54263" lon="0.35036">
        <ele>110.2</ele>
        <time>2023-01-15T11:33:40Z</time>
      </trkpt>
      <trkpt lat="46.54263" lon="0.35033">
        <ele>110.2</ele>
        <time>2023-01-15T11:33:41Z</time>
      </trkpt>
      <trkpt lat="46.54261" lon="0.35014">
        <ele>110</ele>
        <time>2023-01-15T11:33:47Z</time>
      </trkpt>
      <trkpt lat="46.5426" lon="0.35007">
        <ele>110.2</ele>
        <time>2023-01-15T11:33:50Z</time>
      </trkpt>
      <trkpt lat="46.54259" lon="0.35001">
        <ele>110.4</ele>
        <time>2023-01-15T11:33:52Z</time>
      </trkpt>
      <trkpt lat="46.54259" lon="0.35002">
        <ele>110.6</ele>
        <time>2023-01-15T11:33:53Z</time>
      </trkpt>
      <trkpt lat="46.54261" lon="0.35001">
        <ele>110.6</ele>
        <time>2023-01-15T11:33:56Z</time>
      </trkpt>
      <trkpt lat="46.54262" lon="0.35">
        <ele>110.8</ele>
        <time>2023-01-15T11:33:57Z</time>
      </trkpt>
      <trkpt lat="46.54262" lon="0.34996">
        <ele>111.2</ele>
        <time>2023-01-15T11:34:00Z</time>
      </trkpt>
      <trkpt lat="46.54263" lon="0.34993">
        <ele>111.6</ele>
        <time>2023-01-15T11:34:02Z</time>
      </trkpt>
      <trkpt lat="46.54274" lon="0.34984">
        <ele>111.8</ele>
        <time>2023-01-15T11:34:09Z</time>
      </trkpt>
      <trkpt lat="46.54282" lon="0.34982">
        <ele>112.2</ele>
        <time>2023-01-15T11:34:12Z</time>
      </trkpt>
      <trkpt lat="46.54286" lon="0.34981">
        <ele>112.2</ele>
        <time>2023-01-15T11:34:14Z</time>
      </trkpt>
      <trkpt lat="46.54287" lon="0.3498">
        <ele>112.2</ele>
        <time>2023-01-15T11:34:15Z</time>
      </trkpt>
      <trkpt lat="46.54291" lon="0.34971">
        <ele>112.2</ele>
        <time>2023-01-15T11:34:19Z</time>
      </trkpt>
      <trkpt lat="46.54294" lon="0.3496">
        <ele>112.2</ele>
        <time>2023-01-15T11:34:23Z</time>
      </trkpt>
      <trkpt lat="46.54294" lon="0.34958">
        <ele>112.2</ele>
        <time>2023-01-15T11:34:24Z</time>
      </trkpt>
      <trkpt lat="46.5429" lon="0.34943">
        <ele>111.8</ele>
        <time>2023-01-15T11:34:30Z</time>
      </trkpt>
      <trkpt lat="46.54289" lon="0.3494">
        <ele>111.8</ele>
        <time>2023-01-15T11:34:31Z</time>
      </trkpt>
      <trkpt lat="46.54282" lon="0.34921">
        <ele>112.2</ele>
        <time>2023-01-15T11:34:38Z</time>
      </trkpt>
      <trkpt lat="46.54268" lon="0.3491">
        <ele>112</ele>
        <time>2023-01-15T11:34:43Z</time>
      </trkpt>
      <trkpt lat="46.54264" lon="0.34902">
        <ele>112.4</ele>
        <time>2023-01-15T11:34:46Z</time>
      </trkpt>
      <trkpt lat="46.54258" lon="0.3489">
        <ele>113</ele>
        <time>2023-01-15T11:34:50Z</time>
      </trkpt>
      <trkpt lat="46.54258" lon="0.34886">
        <ele>113.2</ele>
        <time>2023-01-15T11:34:51Z</time>
      </trkpt>
      <trkpt lat="46.54258" lon="0.34883">
        <ele>113.4</ele>
        <time>2023-01-15T11:34:52Z</time>
      </trkpt>
      <trkpt lat="46.54258" lon="0.34859">
        <ele>114.2</ele>
        <time>2023-01-15T11:34:58Z</time>
      </trkpt>
      <trkpt lat="46.54257" lon="0.34854">
        <ele>114.4</ele>
        <time>2023-01-15T11:34:59Z</time>
      </trkpt>
      <trkpt lat="46.54253" lon="0.34827">
        <ele>114</ele>
        <time>2023-01-15T11:35:05Z</time>
      </trkpt>
      <trkpt lat="46.54256" lon="0.34811">
        <ele>113.2</ele>
        <time>2023-01-15T11:35:09Z</time>
      </trkpt>
      <trkpt lat="46.54256" lon="0.34804">
        <ele>113</ele>
        <time>2023-01-15T11:35:11Z</time>
      </trkpt>
      <trkpt lat="46.54256" lon="0.34796">
        <ele>112.8</ele>
        <time>2023-01-15T11:35:14Z</time>
      </trkpt>
      <trkpt lat="46.54257" lon="0.34788">
        <ele>113</ele>
        <time>2023-01-15T11:35:17Z</time>
      </trkpt>
      <trkpt lat="46.54258" lon="0.34764">
        <ele>112.8</ele>
        <time>2023-01-15T11:35:23Z</time>
      </trkpt>
      <trkpt lat="46.54258" lon="0.34755">
        <ele>112.4</ele>
        <time>2023-01-15T11:35:25Z</time>
      </trkpt>
      <trkpt lat="46.54258" lon="0.34748">
        <ele>112</ele>
        <time>2023-01-15T11:35:27Z</time>
      </trkpt>
      <trkpt lat="46.54259" lon="0.34745">
        <ele>111.6</ele>
        <time>2023-01-15T11:35:28Z</time>
      </trkpt>
      <trkpt lat="46.54265" lon="0.34729">
        <ele>111.2</ele>
        <time>2023-01-15T11:35:33Z</time>
      </trkpt>
      <trkpt lat="46.54271" lon="0.34712">
        <ele>111.2</ele>
        <time>2023-01-15T11:35:38Z</time>
      </trkpt>
      <trkpt lat="46.54281" lon="0.34694">
        <ele>111.2</ele>
        <time>2023-01-15T11:35:43Z</time>
      </trkpt>
      <trkpt lat="46.54291" lon="0.34678">
        <ele>111.2</ele>
        <time>2023-01-15T11:35:48Z</time>
      </trkpt>
      <trkpt lat="46.54302" lon="0.3466">
        <ele>111.4</ele>
        <time>2023-01-15T11:35:54Z</time>
      </trkpt>
      <trkpt lat="46.5432" lon="0.34638">
        <ele>111.6</ele>
        <time>2023-01-15T11:36:02Z</time>
      </trkpt>
      <trkpt lat="46.54335" lon="0.34618">
        <ele>112.4</ele>
        <time>2023-01-15T11:36:08Z</time>
      </trkpt>
      <trkpt lat="46.54338" lon="0.34616">
        <ele>112.6</ele>
        <time>2023-01-15T11:36:09Z</time>
      </trkpt>
      <trkpt lat="46.54347" lon="0.34612">
        <ele>112.6</ele>
        <time>2023-01-15T11:36:12Z</time>
      </trkpt>
      <trkpt lat="46.5435" lon="0.3461">
        <ele>112.8</ele>
        <time>2023-01-15T11:36:13Z</time>
      </trkpt>
      <trkpt lat="46.54363" lon="0.346">
        <ele>112.8</ele>
        <time>2023-01-15T11:36:18Z</time>
      </trkpt>
      <trkpt lat="46.5437" lon="0.34589">
        <ele>113</ele>
        <time>2023-01-15T11:36:21Z</time>
      </trkpt>
      <trkpt lat="46.54371" lon="0.34586">
        <ele>113</ele>
        <time>2023-01-15T11:36:22Z</time>
      </trkpt>
      <trkpt lat="46.54382" lon="0.34561">
        <ele>113</ele>
        <time>2023-01-15T11:36:28Z</time>
      </trkpt>
      <trkpt lat="46.544" lon="0.34538">
        <ele>112.6</ele>
        <time>2023-01-15T11:36:33Z</time>
      </trkpt>
      <trkpt lat="46.5442" lon="0.34522">
        <ele>112</ele>
        <time>2023-01-15T11:36:37Z</time>
      </trkpt>
      <trkpt lat="46.54434" lon="0.34509">
        <ele>111.8</ele>
        <time>2023-01-15T11:36:40Z</time>
      </trkpt>
      <trkpt lat="46.54467" lon="0.3448">
        <ele>111.2</ele>
        <time>2023-01-15T11:36:47Z</time>
      </trkpt>
      <trkpt lat="46.54472" lon="0.34476">
        <ele>110.8</ele>
        <time>2023-01-15T11:36:48Z</time>
      </trkpt>
      <trkpt lat="46.54484" lon="0.34467">
        <ele>109.8</ele>
        <time>2023-01-15T11:36:50Z</time>
      </trkpt>
      <trkpt lat="46.54497" lon="0.34457">
        <ele>109</ele>
        <time>2023-01-15T11:36:52Z</time>
      </trkpt>
      <trkpt lat="46.54504" lon="0.34452">
        <ele>108.4</ele>
        <time>2023-01-15T11:36:53Z</time>
      </trkpt>
      <trkpt lat="46.54518" lon="0.3444">
        <ele>107</ele>
        <time>2023-01-15T11:36:55Z</time>
      </trkpt>
      <trkpt lat="46.54532" lon="0.34428">
        <ele>105.8</ele>
        <time>2023-01-15T11:36:57Z</time>
      </trkpt>
      <trkpt lat="46.54548" lon="0.34415">
        <ele>104.8</ele>
        <time>2023-01-15T11:36:59Z</time>
      </trkpt>
      <trkpt lat="46.54564" lon="0.34403">
        <ele>103.8</ele>
        <time>2023-01-15T11:37:01Z</time>
      </trkpt>
      <trkpt lat="46.54581" lon="0.34388">
        <ele>102.4</ele>
        <time>2023-01-15T11:37:03Z</time>
      </trkpt>
      <trkpt lat="46.54606" lon="0.34367">
        <ele>100.4</ele>
        <time>2023-01-15T11:37:06Z</time>
      </trkpt>
      <trkpt lat="46.54623" lon="0.34355">
        <ele>98.6</ele>
        <time>2023-01-15T11:37:08Z</time>
      </trkpt>
      <trkpt lat="46.54648" lon="0.34334">
        <ele>97.2</ele>
        <time>2023-01-15T11:37:11Z</time>
      </trkpt>
      <trkpt lat="46.54664" lon="0.34321">
        <ele>95.2</ele>
        <time>2023-01-15T11:37:13Z</time>
      </trkpt>
      <trkpt lat="46.54678" lon="0.3431">
        <ele>93.8</ele>
        <time>2023-01-15T11:37:15Z</time>
      </trkpt>
      <trkpt lat="46.54697" lon="0.34293">
        <ele>92.6</ele>
        <time>2023-01-15T11:37:18Z</time>
      </trkpt>
      <trkpt lat="46.54704" lon="0.34287">
        <ele>92</ele>
        <time>2023-01-15T11:37:19Z</time>
      </trkpt>
      <trkpt lat="46.5471" lon="0.3428">
        <ele>91.4</ele>
        <time>2023-01-15T11:37:20Z</time>
      </trkpt>
      <trkpt lat="46.54725" lon="0.34267">
        <ele>90.2</ele>
        <time>2023-01-15T11:37:22Z</time>
      </trkpt>
      <trkpt lat="46.5474" lon="0.34252">
        <ele>89</ele>
        <time>2023-01-15T11:37:24Z</time>
      </trkpt>
      <trkpt lat="46.54748" lon="0.34245">
        <ele>88.6</ele>
        <time>2023-01-15T11:37:25Z</time>
      </trkpt>
      <trkpt lat="46.54763" lon="0.34233">
        <ele>87.2</ele>
        <time>2023-01-15T11:37:27Z</time>
      </trkpt>
      <trkpt lat="46.54778" lon="0.3422">
        <ele>85.8</ele>
        <time>2023-01-15T11:37:29Z</time>
      </trkpt>
      <trkpt lat="46.54786" lon="0.34214">
        <ele>84.8</ele>
        <time>2023-01-15T11:37:30Z</time>
      </trkpt>
      <trkpt lat="46.54801" lon="0.34205">
        <ele>83.2</ele>
        <time>2023-01-15T11:37:32Z</time>
      </trkpt>
      <trkpt lat="46.54807" lon="0.34203">
        <ele>82.8</ele>
        <time>2023-01-15T11:37:33Z</time>
      </trkpt>
      <trkpt lat="46.54813" lon="0.34204">
        <ele>81.8</ele>
        <time>2023-01-15T11:37:34Z</time>
      </trkpt>
      <trkpt lat="46.5482" lon="0.34208">
        <ele>81.2</ele>
        <time>2023-01-15T11:37:35Z</time>
      </trkpt>
      <trkpt lat="46.54828" lon="0.34215">
        <ele>80.6</ele>
        <time>2023-01-15T11:37:36Z</time>
      </trkpt>
      <trkpt lat="46.5485" lon="0.34236">
        <ele>79.4</ele>
        <time>2023-01-15T11:37:39Z</time>
      </trkpt>
      <trkpt lat="46.54867" lon="0.34248">
        <ele>78</ele>
        <time>2023-01-15T11:37:41Z</time>
      </trkpt>
      <trkpt lat="46.54876" lon="0.34252">
        <ele>77</ele>
        <time>2023-01-15T11:37:42Z</time>
      </trkpt>
      <trkpt lat="46.54885" lon="0.34253">
        <ele>76</ele>
        <time>2023-01-15T11:37:43Z</time>
      </trkpt>
      <trkpt lat="46.54904" lon="0.34252">
        <ele>75</ele>
        <time>2023-01-15T11:37:45Z</time>
      </trkpt>
      <trkpt lat="46.54921" lon="0.3425">
        <ele>73.8</ele>
        <time>2023-01-15T11:37:47Z</time>
      </trkpt>
      <trkpt lat="46.54928" lon="0.34249">
        <ele>73.2</ele>
        <time>2023-01-15T11:37:48Z</time>
      </trkpt>
      <trkpt lat="46.54936" lon="0.34247">
        <ele>73</ele>
        <time>2023-01-15T11:37:49Z</time>
      </trkpt>
      <trkpt lat="46.5495" lon="0.34244">
        <ele>72.6</ele>
        <time>2023-01-15T11:37:51Z</time>
      </trkpt>
      <trkpt lat="46.54967" lon="0.34241">
        <ele>72</ele>
        <time>2023-01-15T11:37:54Z</time>
      </trkpt>
      <trkpt lat="46.54976" lon="0.3424">
        <ele>72.2</ele>
        <time>2023-01-15T11:37:56Z</time>
      </trkpt>
      <trkpt lat="46.54988" lon="0.3424">
        <ele>72.2</ele>
        <time>2023-01-15T11:37:59Z</time>
      </trkpt>
      <trkpt lat="46.54998" lon="0.34233">
        <ele>72.6</ele>
        <time>2023-01-15T11:38:03Z</time>
      </trkpt>
      <trkpt lat="46.55003" lon="0.34212">
        <ele>73.4</ele>
        <time>2023-01-15T11:38:09Z</time>
      </trkpt>
      <trkpt lat="46.55004" lon="0.34208">
        <ele>73.6</ele>
        <time>2023-01-15T11:38:10Z</time>
      </trkpt>
      <trkpt lat="46.55007" lon="0.34186">
        <ele>74.6</ele>
        <time>2023-01-15T11:38:15Z</time>
      </trkpt>
      <trkpt lat="46.55009" lon="0.34165">
        <ele>75.8</ele>
        <time>2023-01-15T11:38:20Z</time>
      </trkpt>
      <trkpt lat="46.55009" lon="0.34156">
        <ele>76.4</ele>
        <time>2023-01-15T11:38:22Z</time>
      </trkpt>
      <trkpt lat="46.55009" lon="0.34149">
        <ele>77</ele>
        <time>2023-01-15T11:38:24Z</time>
      </trkpt>
      <trkpt lat="46.55012" lon="0.34135">
        <ele>78</ele>
        <time>2023-01-15T11:38:29Z</time>
      </trkpt>
      <trkpt lat="46.55013" lon="0.34134">
        <ele>78.2</ele>
        <time>2023-01-15T11:38:30Z</time>
      </trkpt>
      <trkpt lat="46.55016" lon="0.34134">
        <ele>78.6</ele>
        <time>2023-01-15T11:38:33Z</time>
      </trkpt>
      <trkpt lat="46.55021" lon="0.34136">
        <ele>79</ele>
        <time>2023-01-15T11:38:36Z</time>
      </trkpt>
      <trkpt lat="46.55026" lon="0.34137">
        <ele>79.8</ele>
        <time>2023-01-15T11:38:40Z</time>
      </trkpt>
      <trkpt lat="46.5503" lon="0.34137">
        <ele>80.2</ele>
        <time>2023-01-15T11:38:43Z</time>
      </trkpt>
      <trkpt lat="46.55035" lon="0.34134">
        <ele>81.2</ele>
        <time>2023-01-15T11:38:47Z</time>
      </trkpt>
      <trkpt lat="46.55036" lon="0.34134">
        <ele>81.4</ele>
        <time>2023-01-15T11:38:48Z</time>
      </trkpt>
      <trkpt lat="46.55045" lon="0.34133">
        <ele>82</ele>
        <time>2023-01-15T11:38:53Z</time>
      </trkpt>
      <trkpt lat="46.55048" lon="0.34132">
        <ele>82.4</ele>
        <time>2023-01-15T11:38:55Z</time>
      </trkpt>
      <trkpt lat="46.55058" lon="0.3413">
        <ele>83.6</ele>
        <time>2023-01-15T11:39:01Z</time>
      </trkpt>
      <trkpt lat="46.5506" lon="0.34129">
        <ele>83.8</ele>
        <time>2023-01-15T11:39:02Z</time>
      </trkpt>
      <trkpt lat="46.5507" lon="0.34129">
        <ele>84.6</ele>
        <time>2023-01-15T11:39:08Z</time>
      </trkpt>
      <trkpt lat="46.55072" lon="0.34129">
        <ele>84.8</ele>
        <time>2023-01-15T11:39:09Z</time>
      </trkpt>
      <trkpt lat="46.55078" lon="0.34128">
        <ele>85.8</ele>
        <time>2023-01-15T11:39:14Z</time>
      </trkpt>
      <trkpt lat="46.55081" lon="0.34129">
        <ele>86</ele>
        <time>2023-01-15T11:39:16Z</time>
      </trkpt>
      <trkpt lat="46.55089" lon="0.34129">
        <ele>86.8</ele>
        <time>2023-01-15T11:39:23Z</time>
      </trkpt>
      <trkpt lat="46.55102" lon="0.34135">
        <ele>88</ele>
        <time>2023-01-15T11:39:30Z</time>
      </trkpt>
      <trkpt lat="46.55113" lon="0.34138">
        <ele>89</ele>
        <time>2023-01-15T11:39:37Z</time>
      </trkpt>
      <trkpt lat="46.55115" lon="0.34139">
        <ele>89.4</ele>
        <time>2023-01-15T11:39:38Z</time>
      </trkpt>
      <trkpt lat="46.55126" lon="0.34142">
        <ele>90.2</ele>
        <time>2023-01-15T11:39:45Z</time>
      </trkpt>
      <trkpt lat="46.55133" lon="0.34144">
        <ele>91.4</ele>
        <time>2023-01-15T11:39:49Z</time>
      </trkpt>
      <trkpt lat="46.55141" lon="0.34145">
        <ele>92</ele>
        <time>2023-01-15T11:39:53Z</time>
      </trkpt>
      <trkpt lat="46.55149" lon="0.34147">
        <ele>92.4</ele>
        <time>2023-01-15T11:39:57Z</time>
      </trkpt>
      <trkpt lat="46.55161" lon="0.3415">
        <ele>92.8</ele>
        <time>2023-01-15T11:40:02Z</time>
      </trkpt>
      <trkpt lat="46.55169" lon="0.34152">
        <ele>93.4</ele>
        <time>2023-01-15T11:40:06Z</time>
      </trkpt>
      <trkpt lat="46.55181" lon="0.34156">
        <ele>94.4</ele>
        <time>2023-01-15T11:40:12Z</time>
      </trkpt>
      <trkpt lat="46.55192" lon="0.34161">
        <ele>95.6</ele>
        <time>2023-01-15T11:40:19Z</time>
      </trkpt>
      <trkpt lat="46.55197" lon="0.34163">
        <ele>96</ele>
        <time>2023-01-15T11:40:22Z</time>
      </trkpt>
      <trkpt lat="46.55204" lon="0.34165">
        <ele>96.6</ele>
        <time>2023-01-15T11:40:26Z</time>
      </trkpt>
      <trkpt lat="46.55213" lon="0.34167">
        <ele>97</ele>
        <time>2023-01-15T11:40:31Z</time>
      </trkpt>
      <trkpt lat="46.55221" lon="0.34169">
        <ele>97.8</ele>
        <time>2023-01-15T11:40:35Z</time>
      </trkpt>
      <trkpt lat="46.55229" lon="0.34171">
        <ele>98.6</ele>
        <time>2023-01-15T11:40:40Z</time>
      </trkpt>
      <trkpt lat="46.55233" lon="0.34171">
        <ele>98.8</ele>
        <time>2023-01-15T11:40:42Z</time>
      </trkpt>
      <trkpt lat="46.55243" lon="0.34175">
        <ele>99.6</ele>
        <time>2023-01-15T11:40:48Z</time>
      </trkpt>
      <trkpt lat="46.55247" lon="0.34175">
        <ele>100</ele>
        <time>2023-01-15T11:40:50Z</time>
      </trkpt>
      <trkpt lat="46.55259" lon="0.34178">
        <ele>101</ele>
        <time>2023-01-15T11:40:56Z</time>
      </trkpt>
      <trkpt lat="46.55261" lon="0.34179">
        <ele>101</ele>
        <time>2023-01-15T11:40:57Z</time>
      </trkpt>
      <trkpt lat="46.55276" lon="0.34182">
        <ele>101.8</ele>
        <time>2023-01-15T11:41:05Z</time>
      </trkpt>
      <trkpt lat="46.5528" lon="0.34181">
        <ele>102.2</ele>
        <time>2023-01-15T11:41:07Z</time>
      </trkpt>
      <trkpt lat="46.55286" lon="0.34182">
        <ele>103.2</ele>
        <time>2023-01-15T11:41:11Z</time>
      </trkpt>
      <trkpt lat="46.55298" lon="0.34185">
        <ele>103.8</ele>
        <time>2023-01-15T11:41:18Z</time>
      </trkpt>
      <trkpt lat="46.55308" lon="0.34188">
        <ele>104.2</ele>
        <time>2023-01-15T11:41:23Z</time>
      </trkpt>
      <trkpt lat="46.55312" lon="0.3419">
        <ele>104.6</ele>
        <time>2023-01-15T11:41:25Z</time>
      </trkpt>
      <trkpt lat="46.55323" lon="0.34194">
        <ele>105.4</ele>
        <time>2023-01-15T11:41:31Z</time>
      </trkpt>
      <trkpt lat="46.55329" lon="0.34196">
        <ele>106</ele>
        <time>2023-01-15T11:41:34Z</time>
      </trkpt>
      <trkpt lat="46.5534" lon="0.342">
        <ele>106.4</ele>
        <time>2023-01-15T11:41:39Z</time>
      </trkpt>
      <trkpt lat="46.55345" lon="0.34202">
        <ele>107.2</ele>
        <time>2023-01-15T11:41:42Z</time>
      </trkpt>
      <trkpt lat="46.55349" lon="0.34202">
        <ele>107.4</ele>
        <time>2023-01-15T11:41:44Z</time>
      </trkpt>
      <trkpt lat="46.55361" lon="0.34205">
        <ele>107.8</ele>
        <time>2023-01-15T11:41:50Z</time>
      </trkpt>
      <trkpt lat="46.55375" lon="0.34209">
        <ele>108.6</ele>
        <time>2023-01-15T11:41:56Z</time>
      </trkpt>
      <trkpt lat="46.55381" lon="0.34213">
        <ele>109.6</ele>
        <time>2023-01-15T11:42:00Z</time>
      </trkpt>
      <trkpt lat="46.55383" lon="0.34214">
        <ele>109.8</ele>
        <time>2023-01-15T11:42:01Z</time>
      </trkpt>
      <trkpt lat="46.55398" lon="0.34217">
        <ele>110.4</ele>
        <time>2023-01-15T11:42:09Z</time>
      </trkpt>
      <trkpt lat="46.55401" lon="0.34219">
        <ele>110.8</ele>
        <time>2023-01-15T11:42:11Z</time>
      </trkpt>
      <trkpt lat="46.55411" lon="0.34221">
        <ele>111.6</ele>
        <time>2023-01-15T11:42:17Z</time>
      </trkpt>
      <trkpt lat="46.55413" lon="0.34221">
        <ele>111.8</ele>
        <time>2023-01-15T11:42:18Z</time>
      </trkpt>
      <trkpt lat="46.55429" lon="0.34224">
        <ele>112.8</ele>
        <time>2023-01-15T11:42:27Z</time>
      </trkpt>
      <trkpt lat="46.55429" lon="0.34224">
        <ele>112.8</ele>
        <time>2023-01-15T11:42:28Z</time>
      </trkpt>
      <trkpt lat="46.55443" lon="0.34226">
        <ele>113.8</ele>
        <time>2023-01-15T11:42:35Z</time>
      </trkpt>
      <trkpt lat="46.55444" lon="0.34226">
        <ele>113.8</ele>
        <time>2023-01-15T11:42:36Z</time>
      </trkpt>
      <trkpt lat="46.55454" lon="0.34229">
        <ele>115</ele>
        <time>2023-01-15T11:42:43Z</time>
      </trkpt>
      <trkpt lat="46.55457" lon="0.3423">
        <ele>115.2</ele>
        <time>2023-01-15T11:42:45Z</time>
      </trkpt>
      <trkpt lat="46.55468" lon="0.34232">
        <ele>116</ele>
        <time>2023-01-15T11:42:51Z</time>
      </trkpt>
      <trkpt lat="46.55474" lon="0.34232">
        <ele>116.4</ele>
        <time>2023-01-15T11:42:54Z</time>
      </trkpt>
      <trkpt lat="46.55488" lon="0.34229">
        <ele>117</ele>
        <time>2023-01-15T11:43:01Z</time>
      </trkpt>
      <trkpt lat="46.55491" lon="0.34229">
        <ele>117.2</ele>
        <time>2023-01-15T11:43:02Z</time>
      </trkpt>
      <trkpt lat="46.55512" lon="0.34226">
        <ele>117.4</ele>
        <time>2023-01-15T11:43:10Z</time>
      </trkpt>
      <trkpt lat="46.55531" lon="0.34222">
        <ele>117.4</ele>
        <time>2023-01-15T11:43:17Z</time>
      </trkpt>
      <trkpt lat="46.5556" lon="0.34217">
        <ele>117.2</ele>
        <time>2023-01-15T11:43:26Z</time>
      </trkpt>
      <trkpt lat="46.55578" lon="0.34219">
        <ele>117.2</ele>
        <time>2023-01-15T11:43:32Z</time>
      </trkpt>
      <trkpt lat="46.55595" lon="0.34214">
        <ele>117.6</ele>
        <time>2023-01-15T11:43:37Z</time>
      </trkpt>
      <trkpt lat="46.55619" lon="0.34215">
        <ele>118</ele>
        <time>2023-01-15T11:43:43Z</time>
      </trkpt>
      <trkpt lat="46.55627" lon="0.34216">
        <ele>118</ele>
        <time>2023-01-15T11:43:45Z</time>
      </trkpt>
      <trkpt lat="46.55636" lon="0.34218">
        <ele>118.2</ele>
        <time>2023-01-15T11:43:47Z</time>
      </trkpt>
      <trkpt lat="46.55648" lon="0.34221">
        <ele>118.2</ele>
        <time>2023-01-15T11:43:50Z</time>
      </trkpt>
      <trkpt lat="46.55664" lon="0.34226">
        <ele>118.2</ele>
        <time>2023-01-15T11:43:55Z</time>
      </trkpt>
      <trkpt lat="46.55667" lon="0.34229">
        <ele>118.2</ele>
        <time>2023-01-15T11:43:56Z</time>
      </trkpt>
      <trkpt lat="46.5567" lon="0.34233">
        <ele>118.2</ele>
        <time>2023-01-15T11:43:57Z</time>
      </trkpt>
      <trkpt lat="46.55679" lon="0.34251">
        <ele>118.2</ele>
        <time>2023-01-15T11:44:01Z</time>
      </trkpt>
      <trkpt lat="46.55682" lon="0.34256">
        <ele>118.2</ele>
        <time>2023-01-15T11:44:02Z</time>
      </trkpt>
      <trkpt lat="46.55689" lon="0.34261">
        <ele>118.2</ele>
        <time>2023-01-15T11:44:04Z</time>
      </trkpt>
      <trkpt lat="46.55692" lon="0.34262">
        <ele>118.4</ele>
        <time>2023-01-15T11:44:05Z</time>
      </trkpt>
      <trkpt lat="46.55713" lon="0.34261">
        <ele>118.4</ele>
        <time>2023-01-15T11:44:10Z</time>
      </trkpt>
      <trkpt lat="46.55717" lon="0.34262">
        <ele>118.4</ele>
        <time>2023-01-15T11:44:11Z</time>
      </trkpt>
      <trkpt lat="46.55732" lon="0.34273">
        <ele>118.8</ele>
        <time>2023-01-15T11:44:16Z</time>
      </trkpt>
      <trkpt lat="46.55751" lon="0.34285">
        <ele>118.4</ele>
        <time>2023-01-15T11:44:21Z</time>
      </trkpt>
      <trkpt lat="46.55754" lon="0.34289">
        <ele>118.4</ele>
        <time>2023-01-15T11:44:22Z</time>
      </trkpt>
      <trkpt lat="46.55778" lon="0.34315">
        <ele>118.6</ele>
        <time>2023-01-15T11:44:29Z</time>
      </trkpt>
      <trkpt lat="46.55786" lon="0.34318">
        <ele>118.6</ele>
        <time>2023-01-15T11:44:31Z</time>
      </trkpt>
      <trkpt lat="46.5579" lon="0.34319">
        <ele>118.6</ele>
        <time>2023-01-15T11:44:32Z</time>
      </trkpt>
      <trkpt lat="46.55795" lon="0.3432">
        <ele>118.6</ele>
        <time>2023-01-15T11:44:33Z</time>
      </trkpt>
      <trkpt lat="46.55807" lon="0.34323">
        <ele>118.6</ele>
        <time>2023-01-15T11:44:36Z</time>
      </trkpt>
      <trkpt lat="46.55813" lon="0.34327">
        <ele>118.6</ele>
        <time>2023-01-15T11:44:38Z</time>
      </trkpt>
      <trkpt lat="46.55816" lon="0.34336">
        <ele>118.6</ele>
        <time>2023-01-15T11:44:40Z</time>
      </trkpt>
      <trkpt lat="46.55816" lon="0.34342">
        <ele>118.6</ele>
        <time>2023-01-15T11:44:41Z</time>
      </trkpt>
      <trkpt lat="46.55816" lon="0.34347">
        <ele>118.6</ele>
        <time>2023-01-15T11:44:42Z</time>
      </trkpt>
      <trkpt lat="46.55813" lon="0.34365">
        <ele>118.6</ele>
        <time>2023-01-15T11:44:45Z</time>
      </trkpt>
      <trkpt lat="46.55813" lon="0.34371">
        <ele>118.6</ele>
        <time>2023-01-15T11:44:46Z</time>
      </trkpt>
      <trkpt lat="46.55812" lon="0.34383">
        <ele>118.6</ele>
        <time>2023-01-15T11:44:48Z</time>
      </trkpt>
      <trkpt lat="46.55815" lon="0.34403">
        <ele>118.8</ele>
        <time>2023-01-15T11:44:52Z</time>
      </trkpt>
      <trkpt lat="46.55826" lon="0.34409">
        <ele>118.6</ele>
        <time>2023-01-15T11:44:56Z</time>
      </trkpt>
      <trkpt lat="46.55839" lon="0.34413">
        <ele>118.6</ele>
        <time>2023-01-15T11:45:02Z</time>
      </trkpt>
      <trkpt lat="46.5584" lon="0.34414">
        <ele>118.4</ele>
        <time>2023-01-15T11:45:10Z</time>
      </trkpt>
      <trkpt lat="46.5584" lon="0.34415">
        <ele>118.8</ele>
        <time>2023-01-15T11:45:28Z</time>
      </trkpt>
      <trkpt lat="46.5584" lon="0.34415">
        <ele>118.8</ele>
        <time>2023-01-15T11:45:41Z</time>
      </trkpt>
    </trkseg>
  </trk>
</gpx>